<?xml version="1.0" encoding="UTF-8" standalone="no" ?>
<gpx xmlns="http://www.topografix.com/GPX/1/1" xmlns:xsi="http://www.w3.org/2001/XMLSchema-instance" xsi:schemaLocation="http://www.topografix.com/GPX/1/1 http://www.topografix.com/GPX/1/1/gpx.xsd" version="1.1" creator="VisuGPX - https://www.visugpx.com">
  <metadata>
    <name>Magny Les Hameaux / Clairefontaine</name>
    <desc><![CDATA[Deuxième jour
Départ vers 9h30, à pied bien sur.
9 km de fait, toujours par choix.
Beaucoup de changement car GR pas vraiment faisable avec le cheval, et beaucoup de chemins fermés à cause des propriétés privées... du coup, pas mal de route.
Nous dormirons au gite : Le Four à chaux ]]></desc>
  </metadata>
  <trk>
    <name><![CDATA[Magny-les-Hameaux / Clairefontaine]]></name>
    <trkseg>
      <trkpt lat="48.74341" lon="2.0633">
        <ele>150.19999694824</ele>
        <time>2015-12-28T08:21:19.000Z</time>
      </trkpt>
      <trkpt lat="48.74345" lon="2.06331">
        <ele>150.39999389648</ele>
        <time>2015-12-28T08:21:24.000Z</time>
      </trkpt>
      <trkpt lat="48.74345" lon="2.06331">
        <ele>150.39999389648</ele>
        <time>2015-12-28T08:21:26.000Z</time>
      </trkpt>
      <trkpt lat="48.74342" lon="2.06332">
        <ele>150.19999694824</ele>
        <time>2015-12-28T08:23:28.000Z</time>
      </trkpt>
      <trkpt lat="48.74341" lon="2.06334">
        <ele>150</ele>
        <time>2015-12-28T08:23:29.000Z</time>
      </trkpt>
      <trkpt lat="48.74334" lon="2.06349">
        <ele>148.60000610352</ele>
        <time>2015-12-28T08:23:38.000Z</time>
      </trkpt>
      <trkpt lat="48.74327" lon="2.0636">
        <ele>147.60000610352</ele>
        <time>2015-12-28T08:23:46.000Z</time>
      </trkpt>
      <trkpt lat="48.7432" lon="2.0637">
        <ele>146.60000610352</ele>
        <time>2015-12-28T08:23:54.000Z</time>
      </trkpt>
      <trkpt lat="48.74313" lon="2.06379">
        <ele>146.19999694824</ele>
        <time>2015-12-28T08:24:02.000Z</time>
      </trkpt>
      <trkpt lat="48.74304" lon="2.06387">
        <ele>146.19999694824</ele>
        <time>2015-12-28T08:24:10.000Z</time>
      </trkpt>
      <trkpt lat="48.74297" lon="2.06394">
        <ele>146</ele>
        <time>2015-12-28T08:24:16.000Z</time>
      </trkpt>
      <trkpt lat="48.74291" lon="2.06406">
        <ele>145.80000305176</ele>
        <time>2015-12-28T08:24:24.000Z</time>
      </trkpt>
      <trkpt lat="48.7429" lon="2.06409">
        <ele>145.80000305176</ele>
        <time>2015-12-28T08:24:26.000Z</time>
      </trkpt>
      <trkpt lat="48.74289" lon="2.06411">
        <ele>145.60000610352</ele>
        <time>2015-12-28T08:24:29.000Z</time>
      </trkpt>
      <trkpt lat="48.7429" lon="2.06413">
        <ele>145.60000610352</ele>
        <time>2015-12-28T08:24:31.000Z</time>
      </trkpt>
      <trkpt lat="48.74293" lon="2.06416">
        <ele>145.19999694824</ele>
        <time>2015-12-28T08:24:35.000Z</time>
      </trkpt>
      <trkpt lat="48.74295" lon="2.06417">
        <ele>145</ele>
        <time>2015-12-28T08:24:37.000Z</time>
      </trkpt>
      <trkpt lat="48.74299" lon="2.0642">
        <ele>144.80000305176</ele>
        <time>2015-12-28T08:24:43.000Z</time>
      </trkpt>
      <trkpt lat="48.74299" lon="2.06421">
        <ele>144.80000305176</ele>
        <time>2015-12-28T08:24:45.000Z</time>
      </trkpt>
      <trkpt lat="48.74301" lon="2.06489">
        <ele>141.80000305176</ele>
        <time>2015-12-28T08:25:43.000Z</time>
      </trkpt>
      <trkpt lat="48.74299" lon="2.06492">
        <ele>142</ele>
        <time>2015-12-28T08:25:45.000Z</time>
      </trkpt>
      <trkpt lat="48.74291" lon="2.06495">
        <ele>142.39999389648</ele>
        <time>2015-12-28T08:25:52.000Z</time>
      </trkpt>
      <trkpt lat="48.74281" lon="2.06494">
        <ele>143.19999694824</ele>
        <time>2015-12-28T08:26:00.000Z</time>
      </trkpt>
      <trkpt lat="48.74279" lon="2.06494">
        <ele>143.39999389648</ele>
        <time>2015-12-28T08:26:02.000Z</time>
      </trkpt>
      <trkpt lat="48.74275" lon="2.06493">
        <ele>143.60000610352</ele>
        <time>2015-12-28T08:26:05.000Z</time>
      </trkpt>
      <trkpt lat="48.74274" lon="2.06492">
        <ele>143.80000305176</ele>
        <time>2015-12-28T08:26:06.000Z</time>
      </trkpt>
      <trkpt lat="48.74267" lon="2.06486">
        <ele>144.19999694824</ele>
        <time>2015-12-28T08:26:12.000Z</time>
      </trkpt>
      <trkpt lat="48.74259" lon="2.06479">
        <ele>144.39999389648</ele>
        <time>2015-12-28T08:26:19.000Z</time>
      </trkpt>
      <trkpt lat="48.7425" lon="2.0647">
        <ele>144.60000610352</ele>
        <time>2015-12-28T08:26:27.000Z</time>
      </trkpt>
      <trkpt lat="48.74243" lon="2.06463">
        <ele>144.80000305176</ele>
        <time>2015-12-28T08:26:34.000Z</time>
      </trkpt>
      <trkpt lat="48.74243" lon="2.06463">
        <ele>144.80000305176</ele>
        <time>2015-12-28T08:26:35.000Z</time>
      </trkpt>
      <trkpt lat="48.7423" lon="2.06485">
        <ele>146.19999694824</ele>
        <time>2015-12-28T08:31:45.000Z</time>
      </trkpt>
      <trkpt lat="48.74229" lon="2.0649">
        <ele>146.39999389648</ele>
        <time>2015-12-28T08:31:48.000Z</time>
      </trkpt>
      <trkpt lat="48.7423" lon="2.06498">
        <ele>146</ele>
        <time>2015-12-28T08:31:52.000Z</time>
      </trkpt>
      <trkpt lat="48.74231" lon="2.065">
        <ele>145.80000305176</ele>
        <time>2015-12-28T08:31:53.000Z</time>
      </trkpt>
      <trkpt lat="48.74233" lon="2.06512">
        <ele>144.39999389648</ele>
        <time>2015-12-28T08:32:00.000Z</time>
      </trkpt>
      <trkpt lat="48.74236" lon="2.06526">
        <ele>142.80000305176</ele>
        <time>2015-12-28T08:32:07.000Z</time>
      </trkpt>
      <trkpt lat="48.74238" lon="2.06535">
        <ele>142</ele>
        <time>2015-12-28T08:32:12.000Z</time>
      </trkpt>
      <trkpt lat="48.74239" lon="2.06539">
        <ele>141.39999389648</ele>
        <time>2015-12-28T08:32:14.000Z</time>
      </trkpt>
      <trkpt lat="48.7424" lon="2.06542">
        <ele>141.19999694824</ele>
        <time>2015-12-28T08:32:16.000Z</time>
      </trkpt>
      <trkpt lat="48.74241" lon="2.06547">
        <ele>140.60000610352</ele>
        <time>2015-12-28T08:32:19.000Z</time>
      </trkpt>
      <trkpt lat="48.74241" lon="2.06556">
        <ele>140.39999389648</ele>
        <time>2015-12-28T08:32:23.000Z</time>
      </trkpt>
      <trkpt lat="48.7424" lon="2.06557">
        <ele>140.39999389648</ele>
        <time>2015-12-28T08:32:24.000Z</time>
      </trkpt>
      <trkpt lat="48.7424" lon="2.06561">
        <ele>140.19999694824</ele>
        <time>2015-12-28T08:32:26.000Z</time>
      </trkpt>
      <trkpt lat="48.7424" lon="2.06567">
        <ele>140</ele>
        <time>2015-12-28T08:32:29.000Z</time>
      </trkpt>
      <trkpt lat="48.7424" lon="2.06576">
        <ele>139.60000610352</ele>
        <time>2015-12-28T08:32:34.000Z</time>
      </trkpt>
      <trkpt lat="48.7424" lon="2.06581">
        <ele>139.60000610352</ele>
        <time>2015-12-28T08:32:36.000Z</time>
      </trkpt>
      <trkpt lat="48.74239" lon="2.06587">
        <ele>139.60000610352</ele>
        <time>2015-12-28T08:32:39.000Z</time>
      </trkpt>
      <trkpt lat="48.74239" lon="2.06595">
        <ele>139.60000610352</ele>
        <time>2015-12-28T08:32:43.000Z</time>
      </trkpt>
      <trkpt lat="48.7424" lon="2.06606">
        <ele>139.39999389648</ele>
        <time>2015-12-28T08:32:50.000Z</time>
      </trkpt>
      <trkpt lat="48.74239" lon="2.0662">
        <ele>139.19999694824</ele>
        <time>2015-12-28T08:32:57.000Z</time>
      </trkpt>
      <trkpt lat="48.74242" lon="2.06637">
        <ele>138.80000305176</ele>
        <time>2015-12-28T08:33:04.000Z</time>
      </trkpt>
      <trkpt lat="48.74247" lon="2.06652">
        <ele>138.60000610352</ele>
        <time>2015-12-28T08:33:11.000Z</time>
      </trkpt>
      <trkpt lat="48.74248" lon="2.06657">
        <ele>138.39999389648</ele>
        <time>2015-12-28T08:33:13.000Z</time>
      </trkpt>
      <trkpt lat="48.7425" lon="2.06663">
        <ele>138.39999389648</ele>
        <time>2015-12-28T08:33:16.000Z</time>
      </trkpt>
      <trkpt lat="48.74253" lon="2.06674">
        <ele>138.19999694824</ele>
        <time>2015-12-28T08:33:21.000Z</time>
      </trkpt>
      <trkpt lat="48.74256" lon="2.06682">
        <ele>138.19999694824</ele>
        <time>2015-12-28T08:33:25.000Z</time>
      </trkpt>
      <trkpt lat="48.74259" lon="2.06698">
        <ele>138.19999694824</ele>
        <time>2015-12-28T08:33:33.000Z</time>
      </trkpt>
      <trkpt lat="48.74263" lon="2.06709">
        <ele>138</ele>
        <time>2015-12-28T08:33:39.000Z</time>
      </trkpt>
      <trkpt lat="48.74266" lon="2.06722">
        <ele>138</ele>
        <time>2015-12-28T08:33:46.000Z</time>
      </trkpt>
      <trkpt lat="48.74272" lon="2.06734">
        <ele>137.39999389648</ele>
        <time>2015-12-28T08:33:53.000Z</time>
      </trkpt>
      <trkpt lat="48.74278" lon="2.06744">
        <ele>137</ele>
        <time>2015-12-28T08:34:00.000Z</time>
      </trkpt>
      <trkpt lat="48.74283" lon="2.06752">
        <ele>136.60000610352</ele>
        <time>2015-12-28T08:34:06.000Z</time>
      </trkpt>
      <trkpt lat="48.74292" lon="2.06762">
        <ele>135.60000610352</ele>
        <time>2015-12-28T08:34:14.000Z</time>
      </trkpt>
      <trkpt lat="48.74303" lon="2.06771">
        <ele>134.39999389648</ele>
        <time>2015-12-28T08:34:22.000Z</time>
      </trkpt>
      <trkpt lat="48.74313" lon="2.06776">
        <ele>133</ele>
        <time>2015-12-28T08:34:29.000Z</time>
      </trkpt>
      <trkpt lat="48.74318" lon="2.06778">
        <ele>132.19999694824</ele>
        <time>2015-12-28T08:34:33.000Z</time>
      </trkpt>
      <trkpt lat="48.74321" lon="2.06778">
        <ele>131.80000305176</ele>
        <time>2015-12-28T08:34:35.000Z</time>
      </trkpt>
      <trkpt lat="48.74328" lon="2.06782">
        <ele>131</ele>
        <time>2015-12-28T08:34:42.000Z</time>
      </trkpt>
      <trkpt lat="48.74336" lon="2.06788">
        <ele>130</ele>
        <time>2015-12-28T08:34:49.000Z</time>
      </trkpt>
      <trkpt lat="48.74337" lon="2.06792">
        <ele>130</ele>
        <time>2015-12-28T08:34:52.000Z</time>
      </trkpt>
      <trkpt lat="48.74338" lon="2.06797">
        <ele>130.19999694824</ele>
        <time>2015-12-28T08:34:55.000Z</time>
      </trkpt>
      <trkpt lat="48.74338" lon="2.068">
        <ele>130.39999389648</ele>
        <time>2015-12-28T08:34:58.000Z</time>
      </trkpt>
      <trkpt lat="48.74337" lon="2.06808">
        <ele>130.80000305176</ele>
        <time>2015-12-28T08:35:02.000Z</time>
      </trkpt>
      <trkpt lat="48.74338" lon="2.06822">
        <ele>132.60000610352</ele>
        <time>2015-12-28T08:35:09.000Z</time>
      </trkpt>
      <trkpt lat="48.7434" lon="2.0683">
        <ele>133</ele>
        <time>2015-12-28T08:35:14.000Z</time>
      </trkpt>
      <trkpt lat="48.7434" lon="2.06832">
        <ele>133</ele>
        <time>2015-12-28T08:35:16.000Z</time>
      </trkpt>
      <trkpt lat="48.74341" lon="2.06833">
        <ele>133</ele>
        <time>2015-12-28T08:35:17.000Z</time>
      </trkpt>
      <trkpt lat="48.74343" lon="2.06838">
        <ele>132.80000305176</ele>
        <time>2015-12-28T08:35:21.000Z</time>
      </trkpt>
      <trkpt lat="48.74345" lon="2.06844">
        <ele>132.60000610352</ele>
        <time>2015-12-28T08:35:26.000Z</time>
      </trkpt>
      <trkpt lat="48.74344" lon="2.06854">
        <ele>133.60000610352</ele>
        <time>2015-12-28T08:35:32.000Z</time>
      </trkpt>
      <trkpt lat="48.74342" lon="2.06862">
        <ele>134.80000305176</ele>
        <time>2015-12-28T08:35:37.000Z</time>
      </trkpt>
      <trkpt lat="48.74341" lon="2.06863">
        <ele>135.19999694824</ele>
        <time>2015-12-28T08:35:38.000Z</time>
      </trkpt>
      <trkpt lat="48.7434" lon="2.06866">
        <ele>135.60000610352</ele>
        <time>2015-12-28T08:35:41.000Z</time>
      </trkpt>
      <trkpt lat="48.7434" lon="2.0687">
        <ele>135.80000305176</ele>
        <time>2015-12-28T08:35:42.000Z</time>
      </trkpt>
      <trkpt lat="48.74341" lon="2.06877">
        <ele>136.19999694824</ele>
        <time>2015-12-28T08:35:46.000Z</time>
      </trkpt>
      <trkpt lat="48.74343" lon="2.06883">
        <ele>136</ele>
        <time>2015-12-28T08:35:51.000Z</time>
      </trkpt>
      <trkpt lat="48.74345" lon="2.06886">
        <ele>135.80000305176</ele>
        <time>2015-12-28T08:35:53.000Z</time>
      </trkpt>
      <trkpt lat="48.74347" lon="2.0689">
        <ele>135.39999389648</ele>
        <time>2015-12-28T08:35:56.000Z</time>
      </trkpt>
      <trkpt lat="48.74353" lon="2.06896">
        <ele>134.19999694824</ele>
        <time>2015-12-28T08:36:01.000Z</time>
      </trkpt>
      <trkpt lat="48.74354" lon="2.06897">
        <ele>134.19999694824</ele>
        <time>2015-12-28T08:36:02.000Z</time>
      </trkpt>
      <trkpt lat="48.74356" lon="2.06903">
        <ele>134.39999389648</ele>
        <time>2015-12-28T08:36:06.000Z</time>
      </trkpt>
      <trkpt lat="48.74357" lon="2.06905">
        <ele>134.39999389648</ele>
        <time>2015-12-28T08:36:07.000Z</time>
      </trkpt>
      <trkpt lat="48.74356" lon="2.06906">
        <ele>134.60000610352</ele>
        <time>2015-12-28T08:36:08.000Z</time>
      </trkpt>
      <trkpt lat="48.74356" lon="2.06913">
        <ele>134.60000610352</ele>
        <time>2015-12-28T08:36:12.000Z</time>
      </trkpt>
      <trkpt lat="48.74358" lon="2.06924">
        <ele>134.19999694824</ele>
        <time>2015-12-28T08:36:18.000Z</time>
      </trkpt>
      <trkpt lat="48.74359" lon="2.06927">
        <ele>133.80000305176</ele>
        <time>2015-12-28T08:36:21.000Z</time>
      </trkpt>
      <trkpt lat="48.7436" lon="2.06928">
        <ele>133.80000305176</ele>
        <time>2015-12-28T08:36:23.000Z</time>
      </trkpt>
      <trkpt lat="48.74367" lon="2.06978">
        <ele>131.39999389648</ele>
        <time>2015-12-28T08:38:48.000Z</time>
      </trkpt>
      <trkpt lat="48.74367" lon="2.06989">
        <ele>130.80000305176</ele>
        <time>2015-12-28T08:38:54.000Z</time>
      </trkpt>
      <trkpt lat="48.74366" lon="2.06991">
        <ele>131</ele>
        <time>2015-12-28T08:38:55.000Z</time>
      </trkpt>
      <trkpt lat="48.74365" lon="2.07">
        <ele>130.80000305176</ele>
        <time>2015-12-28T08:39:00.000Z</time>
      </trkpt>
      <trkpt lat="48.74364" lon="2.07002">
        <ele>130.80000305176</ele>
        <time>2015-12-28T08:39:01.000Z</time>
      </trkpt>
      <trkpt lat="48.74361" lon="2.0701">
        <ele>130.60000610352</ele>
        <time>2015-12-28T08:39:06.000Z</time>
      </trkpt>
      <trkpt lat="48.7436" lon="2.07013">
        <ele>130.39999389648</ele>
        <time>2015-12-28T08:39:08.000Z</time>
      </trkpt>
      <trkpt lat="48.74353" lon="2.07028">
        <ele>130.19999694824</ele>
        <time>2015-12-28T08:39:17.000Z</time>
      </trkpt>
      <trkpt lat="48.74345" lon="2.07041">
        <ele>131</ele>
        <time>2015-12-28T08:39:26.000Z</time>
      </trkpt>
      <trkpt lat="48.7434" lon="2.07053">
        <ele>131.60000610352</ele>
        <time>2015-12-28T08:39:34.000Z</time>
      </trkpt>
      <trkpt lat="48.74336" lon="2.07066">
        <ele>131.19999694824</ele>
        <time>2015-12-28T08:39:41.000Z</time>
      </trkpt>
      <trkpt lat="48.74332" lon="2.07077">
        <ele>130.60000610352</ele>
        <time>2015-12-28T08:39:48.000Z</time>
      </trkpt>
      <trkpt lat="48.7433" lon="2.07094">
        <ele>130.80000305176</ele>
        <time>2015-12-28T08:39:57.000Z</time>
      </trkpt>
      <trkpt lat="48.74329" lon="2.07097">
        <ele>130.80000305176</ele>
        <time>2015-12-28T08:39:59.000Z</time>
      </trkpt>
      <trkpt lat="48.7433" lon="2.07105">
        <ele>130.80000305176</ele>
        <time>2015-12-28T08:40:03.000Z</time>
      </trkpt>
      <trkpt lat="48.74328" lon="2.07116">
        <ele>130.80000305176</ele>
        <time>2015-12-28T08:40:08.000Z</time>
      </trkpt>
      <trkpt lat="48.74327" lon="2.07129">
        <ele>131</ele>
        <time>2015-12-28T08:40:14.000Z</time>
      </trkpt>
      <trkpt lat="48.74326" lon="2.0713">
        <ele>131</ele>
        <time>2015-12-28T08:40:15.000Z</time>
      </trkpt>
      <trkpt lat="48.74324" lon="2.07137">
        <ele>130.60000610352</ele>
        <time>2015-12-28T08:40:19.000Z</time>
      </trkpt>
      <trkpt lat="48.74323" lon="2.07143">
        <ele>129.80000305176</ele>
        <time>2015-12-28T08:40:22.000Z</time>
      </trkpt>
      <trkpt lat="48.7432" lon="2.0715">
        <ele>129.19999694824</ele>
        <time>2015-12-28T08:40:26.000Z</time>
      </trkpt>
      <trkpt lat="48.74319" lon="2.07157">
        <ele>128.39999389648</ele>
        <time>2015-12-28T08:40:28.000Z</time>
      </trkpt>
      <trkpt lat="48.74319" lon="2.07156">
        <ele>128.60000610352</ele>
        <time>2015-12-28T08:40:29.000Z</time>
      </trkpt>
      <trkpt lat="48.74318" lon="2.07158">
        <ele>128.39999389648</ele>
        <time>2015-12-28T08:40:30.000Z</time>
      </trkpt>
      <trkpt lat="48.74316" lon="2.07163">
        <ele>128.19999694824</ele>
        <time>2015-12-28T08:40:33.000Z</time>
      </trkpt>
      <trkpt lat="48.74315" lon="2.07165">
        <ele>128.19999694824</ele>
        <time>2015-12-28T08:40:34.000Z</time>
      </trkpt>
      <trkpt lat="48.74311" lon="2.07173">
        <ele>128.19999694824</ele>
        <time>2015-12-28T08:40:39.000Z</time>
      </trkpt>
      <trkpt lat="48.74302" lon="2.07187">
        <ele>128.39999389648</ele>
        <time>2015-12-28T08:40:48.000Z</time>
      </trkpt>
      <trkpt lat="48.74296" lon="2.07196">
        <ele>128.60000610352</ele>
        <time>2015-12-28T08:40:55.000Z</time>
      </trkpt>
      <trkpt lat="48.74293" lon="2.072">
        <ele>128.80000305176</ele>
        <time>2015-12-28T08:40:59.000Z</time>
      </trkpt>
      <trkpt lat="48.74289" lon="2.07206">
        <ele>128.80000305176</ele>
        <time>2015-12-28T08:41:03.000Z</time>
      </trkpt>
      <trkpt lat="48.74287" lon="2.0721">
        <ele>128.80000305176</ele>
        <time>2015-12-28T08:41:06.000Z</time>
      </trkpt>
      <trkpt lat="48.74286" lon="2.07211">
        <ele>128.80000305176</ele>
        <time>2015-12-28T08:41:07.000Z</time>
      </trkpt>
      <trkpt lat="48.74281" lon="2.07219">
        <ele>129</ele>
        <time>2015-12-28T08:41:14.000Z</time>
      </trkpt>
      <trkpt lat="48.74278" lon="2.07225">
        <ele>129</ele>
        <time>2015-12-28T08:41:18.000Z</time>
      </trkpt>
      <trkpt lat="48.74273" lon="2.07234">
        <ele>129</ele>
        <time>2015-12-28T08:41:24.000Z</time>
      </trkpt>
      <trkpt lat="48.74269" lon="2.07241">
        <ele>129.39999389648</ele>
        <time>2015-12-28T08:41:31.000Z</time>
      </trkpt>
      <trkpt lat="48.74266" lon="2.07245">
        <ele>129.39999389648</ele>
        <time>2015-12-28T08:41:34.000Z</time>
      </trkpt>
      <trkpt lat="48.74266" lon="2.07247">
        <ele>129.39999389648</ele>
        <time>2015-12-28T08:41:35.000Z</time>
      </trkpt>
      <trkpt lat="48.74266" lon="2.07247">
        <ele>129.39999389648</ele>
        <time>2015-12-28T08:41:37.000Z</time>
      </trkpt>
      <trkpt lat="48.7425" lon="2.07289">
        <ele>127.80000305176</ele>
        <time>2015-12-28T08:42:21.000Z</time>
      </trkpt>
      <trkpt lat="48.7425" lon="2.07291">
        <ele>127.80000305176</ele>
        <time>2015-12-28T08:42:22.000Z</time>
      </trkpt>
      <trkpt lat="48.74248" lon="2.07293">
        <ele>127.80000305176</ele>
        <time>2015-12-28T08:42:26.000Z</time>
      </trkpt>
      <trkpt lat="48.74242" lon="2.07305">
        <ele>127.59999847412</ele>
        <time>2015-12-28T08:43:56.000Z</time>
      </trkpt>
      <trkpt lat="48.74241" lon="2.07307">
        <ele>127.59999847412</ele>
        <time>2015-12-28T08:43:57.000Z</time>
      </trkpt>
      <trkpt lat="48.74241" lon="2.07308">
        <ele>127.59999847412</ele>
        <time>2015-12-28T08:43:58.000Z</time>
      </trkpt>
      <trkpt lat="48.74237" lon="2.07312">
        <ele>127.59999847412</ele>
        <time>2015-12-28T08:44:02.000Z</time>
      </trkpt>
      <trkpt lat="48.74233" lon="2.07318">
        <ele>127.80000305176</ele>
        <time>2015-12-28T08:44:06.000Z</time>
      </trkpt>
      <trkpt lat="48.74231" lon="2.07319">
        <ele>127.80000305176</ele>
        <time>2015-12-28T08:44:08.000Z</time>
      </trkpt>
      <trkpt lat="48.74225" lon="2.07321">
        <ele>128.39999389648</ele>
        <time>2015-12-28T08:44:13.000Z</time>
      </trkpt>
      <trkpt lat="48.74217" lon="2.07327">
        <ele>129</ele>
        <time>2015-12-28T08:44:19.000Z</time>
      </trkpt>
      <trkpt lat="48.74216" lon="2.07329">
        <ele>129.19999694824</ele>
        <time>2015-12-28T08:44:20.000Z</time>
      </trkpt>
      <trkpt lat="48.7421" lon="2.07337">
        <ele>129.80000305176</ele>
        <time>2015-12-28T08:44:26.000Z</time>
      </trkpt>
      <trkpt lat="48.74209" lon="2.07338">
        <ele>130</ele>
        <time>2015-12-28T08:44:27.000Z</time>
      </trkpt>
      <trkpt lat="48.74203" lon="2.07343">
        <ele>130.60000610352</ele>
        <time>2015-12-28T08:44:33.000Z</time>
      </trkpt>
      <trkpt lat="48.74198" lon="2.07351">
        <ele>130.60000610352</ele>
        <time>2015-12-28T08:44:39.000Z</time>
      </trkpt>
      <trkpt lat="48.74198" lon="2.07352">
        <ele>130.60000610352</ele>
        <time>2015-12-28T08:44:40.000Z</time>
      </trkpt>
      <trkpt lat="48.74196" lon="2.07358">
        <ele>130.60000610352</ele>
        <time>2015-12-28T08:44:43.000Z</time>
      </trkpt>
      <trkpt lat="48.74194" lon="2.07363">
        <ele>130.60000610352</ele>
        <time>2015-12-28T08:44:46.000Z</time>
      </trkpt>
      <trkpt lat="48.7419" lon="2.07375">
        <ele>130.39999389648</ele>
        <time>2015-12-28T08:44:54.000Z</time>
      </trkpt>
      <trkpt lat="48.74188" lon="2.07378">
        <ele>130.39999389648</ele>
        <time>2015-12-28T08:44:58.000Z</time>
      </trkpt>
      <trkpt lat="48.74187" lon="2.07379">
        <ele>130.60000610352</ele>
        <time>2015-12-28T08:44:59.000Z</time>
      </trkpt>
      <trkpt lat="48.74185" lon="2.07382">
        <ele>130.80000305176</ele>
        <time>2015-12-28T08:45:02.000Z</time>
      </trkpt>
      <trkpt lat="48.74182" lon="2.07388">
        <ele>131.39999389648</ele>
        <time>2015-12-28T08:45:07.000Z</time>
      </trkpt>
      <trkpt lat="48.74181" lon="2.07391">
        <ele>131.39999389648</ele>
        <time>2015-12-28T08:45:10.000Z</time>
      </trkpt>
      <trkpt lat="48.74179" lon="2.07395">
        <ele>131.60000610352</ele>
        <time>2015-12-28T08:45:13.000Z</time>
      </trkpt>
      <trkpt lat="48.74175" lon="2.07401">
        <ele>131.80000305176</ele>
        <time>2015-12-28T08:45:18.000Z</time>
      </trkpt>
      <trkpt lat="48.74174" lon="2.07407">
        <ele>131.19999694824</ele>
        <time>2015-12-28T08:45:22.000Z</time>
      </trkpt>
      <trkpt lat="48.74174" lon="2.07408">
        <ele>131</ele>
        <time>2015-12-28T08:45:23.000Z</time>
      </trkpt>
      <trkpt lat="48.74172" lon="2.07412">
        <ele>131</ele>
        <time>2015-12-28T08:45:25.000Z</time>
      </trkpt>
      <trkpt lat="48.7417" lon="2.07419">
        <ele>130.80000305176</ele>
        <time>2015-12-28T08:45:30.000Z</time>
      </trkpt>
      <trkpt lat="48.74172" lon="2.0743">
        <ele>129.80000305176</ele>
        <time>2015-12-28T08:45:38.000Z</time>
      </trkpt>
      <trkpt lat="48.74172" lon="2.07432">
        <ele>129.60000610352</ele>
        <time>2015-12-28T08:45:39.000Z</time>
      </trkpt>
      <trkpt lat="48.74172" lon="2.07436">
        <ele>129.39999389648</ele>
        <time>2015-12-28T08:45:44.000Z</time>
      </trkpt>
      <trkpt lat="48.74167" lon="2.07463">
        <ele>128</ele>
        <time>2015-12-28T08:46:14.000Z</time>
      </trkpt>
      <trkpt lat="48.74162" lon="2.07478">
        <ele>126.80000305176</ele>
        <time>2015-12-28T08:46:23.000Z</time>
      </trkpt>
      <trkpt lat="48.74152" lon="2.07488">
        <ele>125.80000305176</ele>
        <time>2015-12-28T08:46:32.000Z</time>
      </trkpt>
      <trkpt lat="48.74147" lon="2.07492">
        <ele>125.59999847412</ele>
        <time>2015-12-28T08:46:37.000Z</time>
      </trkpt>
      <trkpt lat="48.74141" lon="2.075">
        <ele>125.40000152588</ele>
        <time>2015-12-28T08:46:45.000Z</time>
      </trkpt>
      <trkpt lat="48.74135" lon="2.07509">
        <ele>125.19999694824</ele>
        <time>2015-12-28T08:46:53.000Z</time>
      </trkpt>
      <trkpt lat="48.74128" lon="2.07519">
        <ele>125</ele>
        <time>2015-12-28T08:47:01.000Z</time>
      </trkpt>
      <trkpt lat="48.74126" lon="2.07522">
        <ele>125</ele>
        <time>2015-12-28T08:47:03.000Z</time>
      </trkpt>
      <trkpt lat="48.74123" lon="2.07527">
        <ele>125.19999694824</ele>
        <time>2015-12-28T08:47:06.000Z</time>
      </trkpt>
      <trkpt lat="48.74122" lon="2.0753">
        <ele>125.19999694824</ele>
        <time>2015-12-28T08:47:08.000Z</time>
      </trkpt>
      <trkpt lat="48.74119" lon="2.07537">
        <ele>125.19999694824</ele>
        <time>2015-12-28T08:47:12.000Z</time>
      </trkpt>
      <trkpt lat="48.74112" lon="2.0755">
        <ele>125.19999694824</ele>
        <time>2015-12-28T08:47:20.000Z</time>
      </trkpt>
      <trkpt lat="48.74106" lon="2.07559">
        <ele>125.40000152588</ele>
        <time>2015-12-28T08:47:26.000Z</time>
      </trkpt>
      <trkpt lat="48.74106" lon="2.07561">
        <ele>125.40000152588</ele>
        <time>2015-12-28T08:47:27.000Z</time>
      </trkpt>
      <trkpt lat="48.74102" lon="2.07567">
        <ele>126</ele>
        <time>2015-12-28T08:47:31.000Z</time>
      </trkpt>
      <trkpt lat="48.74095" lon="2.07572">
        <ele>128</ele>
        <time>2015-12-28T08:47:38.000Z</time>
      </trkpt>
      <trkpt lat="48.74089" lon="2.07573">
        <ele>129.60000610352</ele>
        <time>2015-12-28T08:47:43.000Z</time>
      </trkpt>
      <trkpt lat="48.74087" lon="2.07573">
        <ele>130.19999694824</ele>
        <time>2015-12-28T08:47:45.000Z</time>
      </trkpt>
      <trkpt lat="48.74085" lon="2.07575">
        <ele>130.80000305176</ele>
        <time>2015-12-28T08:47:48.000Z</time>
      </trkpt>
      <trkpt lat="48.74083" lon="2.07576">
        <ele>131.39999389648</ele>
        <time>2015-12-28T08:47:50.000Z</time>
      </trkpt>
      <trkpt lat="48.74078" lon="2.0758">
        <ele>133</ele>
        <time>2015-12-28T08:47:55.000Z</time>
      </trkpt>
      <trkpt lat="48.74077" lon="2.07581">
        <ele>133.39999389648</ele>
        <time>2015-12-28T08:47:56.000Z</time>
      </trkpt>
      <trkpt lat="48.74073" lon="2.07586">
        <ele>134.80000305176</ele>
        <time>2015-12-28T08:48:01.000Z</time>
      </trkpt>
      <trkpt lat="48.74072" lon="2.07587">
        <ele>135.19999694824</ele>
        <time>2015-12-28T08:48:02.000Z</time>
      </trkpt>
      <trkpt lat="48.74072" lon="2.07589">
        <ele>135.39999389648</ele>
        <time>2015-12-28T08:48:03.000Z</time>
      </trkpt>
      <trkpt lat="48.74068" lon="2.07594">
        <ele>137</ele>
        <time>2015-12-28T08:48:08.000Z</time>
      </trkpt>
      <trkpt lat="48.74067" lon="2.07595">
        <ele>137.19999694824</ele>
        <time>2015-12-28T08:48:09.000Z</time>
      </trkpt>
      <trkpt lat="48.74062" lon="2.07599">
        <ele>138.80000305176</ele>
        <time>2015-12-28T08:48:15.000Z</time>
      </trkpt>
      <trkpt lat="48.74061" lon="2.076">
        <ele>139.19999694824</ele>
        <time>2015-12-28T08:48:16.000Z</time>
      </trkpt>
      <trkpt lat="48.74058" lon="2.07605">
        <ele>140.60000610352</ele>
        <time>2015-12-28T08:48:21.000Z</time>
      </trkpt>
      <trkpt lat="48.74057" lon="2.07606">
        <ele>141</ele>
        <time>2015-12-28T08:48:23.000Z</time>
      </trkpt>
      <trkpt lat="48.74051" lon="2.07612">
        <ele>142.60000610352</ele>
        <time>2015-12-28T08:48:29.000Z</time>
      </trkpt>
      <trkpt lat="48.74051" lon="2.07613">
        <ele>142.80000305176</ele>
        <time>2015-12-28T08:48:30.000Z</time>
      </trkpt>
      <trkpt lat="48.74049" lon="2.0762">
        <ele>143.39999389648</ele>
        <time>2015-12-28T08:48:34.000Z</time>
      </trkpt>
      <trkpt lat="48.74046" lon="2.07627">
        <ele>143.80000305176</ele>
        <time>2015-12-28T08:48:39.000Z</time>
      </trkpt>
      <trkpt lat="48.74045" lon="2.07628">
        <ele>144</ele>
        <time>2015-12-28T08:48:41.000Z</time>
      </trkpt>
      <trkpt lat="48.74043" lon="2.07634">
        <ele>144.80000305176</ele>
        <time>2015-12-28T08:48:46.000Z</time>
      </trkpt>
      <trkpt lat="48.74038" lon="2.07638">
        <ele>145.80000305176</ele>
        <time>2015-12-28T08:48:51.000Z</time>
      </trkpt>
      <trkpt lat="48.74037" lon="2.07639">
        <ele>146</ele>
        <time>2015-12-28T08:48:52.000Z</time>
      </trkpt>
      <trkpt lat="48.74032" lon="2.07642">
        <ele>147.39999389648</ele>
        <time>2015-12-28T08:48:58.000Z</time>
      </trkpt>
      <trkpt lat="48.74029" lon="2.07643">
        <ele>148</ele>
        <time>2015-12-28T08:49:01.000Z</time>
      </trkpt>
      <trkpt lat="48.74026" lon="2.07643">
        <ele>148.60000610352</ele>
        <time>2015-12-28T08:49:04.000Z</time>
      </trkpt>
      <trkpt lat="48.74016" lon="2.07644">
        <ele>150.19999694824</ele>
        <time>2015-12-28T08:49:12.000Z</time>
      </trkpt>
      <trkpt lat="48.7401" lon="2.07646">
        <ele>150.19999694824</ele>
        <time>2015-12-28T08:49:17.000Z</time>
      </trkpt>
      <trkpt lat="48.74008" lon="2.07646">
        <ele>150.39999389648</ele>
        <time>2015-12-28T08:49:19.000Z</time>
      </trkpt>
      <trkpt lat="48.74001" lon="2.07646">
        <ele>150.60000610352</ele>
        <time>2015-12-28T08:49:25.000Z</time>
      </trkpt>
      <trkpt lat="48.73995" lon="2.07648">
        <ele>150.80000305176</ele>
        <time>2015-12-28T08:49:30.000Z</time>
      </trkpt>
      <trkpt lat="48.73991" lon="2.07651">
        <ele>151</ele>
        <time>2015-12-28T08:49:34.000Z</time>
      </trkpt>
      <trkpt lat="48.7399" lon="2.07651">
        <ele>151</ele>
        <time>2015-12-28T08:49:35.000Z</time>
      </trkpt>
      <trkpt lat="48.73988" lon="2.07653">
        <ele>151</ele>
        <time>2015-12-28T08:49:37.000Z</time>
      </trkpt>
      <trkpt lat="48.73985" lon="2.07655">
        <ele>151.19999694824</ele>
        <time>2015-12-28T08:49:41.000Z</time>
      </trkpt>
      <trkpt lat="48.73984" lon="2.07655">
        <ele>151.19999694824</ele>
        <time>2015-12-28T08:49:42.000Z</time>
      </trkpt>
      <trkpt lat="48.73982" lon="2.07656">
        <ele>151.39999389648</ele>
        <time>2015-12-28T08:49:46.000Z</time>
      </trkpt>
      <trkpt lat="48.73987" lon="2.07534">
        <ele>151</ele>
        <time>2015-12-28T09:00:31.000Z</time>
      </trkpt>
      <trkpt lat="48.73988" lon="2.07527">
        <ele>151.19999694824</ele>
        <time>2015-12-28T09:00:34.000Z</time>
      </trkpt>
      <trkpt lat="48.73988" lon="2.07515">
        <ele>151.39999389648</ele>
        <time>2015-12-28T09:00:39.000Z</time>
      </trkpt>
      <trkpt lat="48.73989" lon="2.07506">
        <ele>151.60000610352</ele>
        <time>2015-12-28T09:00:44.000Z</time>
      </trkpt>
      <trkpt lat="48.7399" lon="2.07499">
        <ele>151.80000305176</ele>
        <time>2015-12-28T09:00:48.000Z</time>
      </trkpt>
      <trkpt lat="48.73989" lon="2.07498">
        <ele>151.80000305176</ele>
        <time>2015-12-28T09:00:49.000Z</time>
      </trkpt>
      <trkpt lat="48.73989" lon="2.07496">
        <ele>152</ele>
        <time>2015-12-28T09:00:50.000Z</time>
      </trkpt>
      <trkpt lat="48.73989" lon="2.07487">
        <ele>152.19999694824</ele>
        <time>2015-12-28T09:00:56.000Z</time>
      </trkpt>
      <trkpt lat="48.7399" lon="2.07482">
        <ele>152.39999389648</ele>
        <time>2015-12-28T09:00:59.000Z</time>
      </trkpt>
      <trkpt lat="48.73991" lon="2.07476">
        <ele>152.60000610352</ele>
        <time>2015-12-28T09:01:03.000Z</time>
      </trkpt>
      <trkpt lat="48.73991" lon="2.07474">
        <ele>152.60000610352</ele>
        <time>2015-12-28T09:01:06.000Z</time>
      </trkpt>
      <trkpt lat="48.73995" lon="2.07453">
        <ele>153</ele>
        <time>2015-12-28T09:01:19.000Z</time>
      </trkpt>
      <trkpt lat="48.73994" lon="2.07451">
        <ele>153.19999694824</ele>
        <time>2015-12-28T09:01:20.000Z</time>
      </trkpt>
      <trkpt lat="48.73996" lon="2.07444">
        <ele>153.19999694824</ele>
        <time>2015-12-28T09:01:24.000Z</time>
      </trkpt>
      <trkpt lat="48.73998" lon="2.07434">
        <ele>153.19999694824</ele>
        <time>2015-12-28T09:01:29.000Z</time>
      </trkpt>
      <trkpt lat="48.73998" lon="2.07433">
        <ele>153.19999694824</ele>
        <time>2015-12-28T09:01:30.000Z</time>
      </trkpt>
      <trkpt lat="48.74" lon="2.07426">
        <ele>153.39999389648</ele>
        <time>2015-12-28T09:01:35.000Z</time>
      </trkpt>
      <trkpt lat="48.74002" lon="2.0742">
        <ele>153.39999389648</ele>
        <time>2015-12-28T09:01:39.000Z</time>
      </trkpt>
      <trkpt lat="48.74004" lon="2.07418">
        <ele>153.19999694824</ele>
        <time>2015-12-28T09:01:42.000Z</time>
      </trkpt>
      <trkpt lat="48.74004" lon="2.07418">
        <ele>153.39999389648</ele>
        <time>2015-12-28T09:01:43.000Z</time>
      </trkpt>
      <trkpt lat="48.73829" lon="2.07533">
        <ele>145</ele>
        <time>2015-12-28T09:09:57.000Z</time>
      </trkpt>
      <trkpt lat="48.7382" lon="2.07518">
        <ele>146.39999389648</ele>
        <time>2015-12-28T09:10:08.000Z</time>
      </trkpt>
      <trkpt lat="48.73813" lon="2.07509">
        <ele>147.39999389648</ele>
        <time>2015-12-28T09:10:16.000Z</time>
      </trkpt>
      <trkpt lat="48.7381" lon="2.07504">
        <ele>147.80000305176</ele>
        <time>2015-12-28T09:10:20.000Z</time>
      </trkpt>
      <trkpt lat="48.73809" lon="2.07502">
        <ele>148</ele>
        <time>2015-12-28T09:10:21.000Z</time>
      </trkpt>
      <trkpt lat="48.73806" lon="2.07497">
        <ele>148.39999389648</ele>
        <time>2015-12-28T09:10:26.000Z</time>
      </trkpt>
      <trkpt lat="48.73804" lon="2.07494">
        <ele>148.80000305176</ele>
        <time>2015-12-28T09:10:28.000Z</time>
      </trkpt>
      <trkpt lat="48.73803" lon="2.07493">
        <ele>148.80000305176</ele>
        <time>2015-12-28T09:10:29.000Z</time>
      </trkpt>
      <trkpt lat="48.73797" lon="2.0748">
        <ele>149.39999389648</ele>
        <time>2015-12-28T09:10:39.000Z</time>
      </trkpt>
      <trkpt lat="48.73795" lon="2.07479">
        <ele>149.39999389648</ele>
        <time>2015-12-28T09:10:40.000Z</time>
      </trkpt>
      <trkpt lat="48.73792" lon="2.07476">
        <ele>149.60000610352</ele>
        <time>2015-12-28T09:10:43.000Z</time>
      </trkpt>
      <trkpt lat="48.7379" lon="2.07473">
        <ele>149.80000305176</ele>
        <time>2015-12-28T09:10:45.000Z</time>
      </trkpt>
      <trkpt lat="48.73787" lon="2.07468">
        <ele>150</ele>
        <time>2015-12-28T09:10:49.000Z</time>
      </trkpt>
      <trkpt lat="48.73785" lon="2.07468">
        <ele>150</ele>
        <time>2015-12-28T09:10:50.000Z</time>
      </trkpt>
      <trkpt lat="48.73784" lon="2.07465">
        <ele>150.19999694824</ele>
        <time>2015-12-28T09:10:52.000Z</time>
      </trkpt>
      <trkpt lat="48.7378" lon="2.07459">
        <ele>150.39999389648</ele>
        <time>2015-12-28T09:10:57.000Z</time>
      </trkpt>
      <trkpt lat="48.73776" lon="2.07455">
        <ele>150.80000305176</ele>
        <time>2015-12-28T09:11:01.000Z</time>
      </trkpt>
      <trkpt lat="48.73772" lon="2.07451">
        <ele>151</ele>
        <time>2015-12-28T09:11:05.000Z</time>
      </trkpt>
      <trkpt lat="48.73762" lon="2.07441">
        <ele>151.60000610352</ele>
        <time>2015-12-28T09:11:15.000Z</time>
      </trkpt>
      <trkpt lat="48.73756" lon="2.07434">
        <ele>152</ele>
        <time>2015-12-28T09:11:22.000Z</time>
      </trkpt>
      <trkpt lat="48.7375" lon="2.07428">
        <ele>152.39999389648</ele>
        <time>2015-12-28T09:11:28.000Z</time>
      </trkpt>
      <trkpt lat="48.73749" lon="2.07427">
        <ele>152.39999389648</ele>
        <time>2015-12-28T09:11:31.000Z</time>
      </trkpt>
      <trkpt lat="48.73737" lon="2.0741">
        <ele>153.19999694824</ele>
        <time>2015-12-28T09:11:50.000Z</time>
      </trkpt>
      <trkpt lat="48.73731" lon="2.07402">
        <ele>153.60000610352</ele>
        <time>2015-12-28T09:11:57.000Z</time>
      </trkpt>
      <trkpt lat="48.73731" lon="2.07401">
        <ele>153.60000610352</ele>
        <time>2015-12-28T09:11:58.000Z</time>
      </trkpt>
      <trkpt lat="48.73726" lon="2.07395">
        <ele>153.80000305176</ele>
        <time>2015-12-28T09:12:04.000Z</time>
      </trkpt>
      <trkpt lat="48.73719" lon="2.07385">
        <ele>154.19999694824</ele>
        <time>2015-12-28T09:12:13.000Z</time>
      </trkpt>
      <trkpt lat="48.73714" lon="2.0738">
        <ele>154.39999389648</ele>
        <time>2015-12-28T09:12:19.000Z</time>
      </trkpt>
      <trkpt lat="48.73708" lon="2.07373">
        <ele>154.60000610352</ele>
        <time>2015-12-28T09:12:25.000Z</time>
      </trkpt>
      <trkpt lat="48.73705" lon="2.07368">
        <ele>154.80000305176</ele>
        <time>2015-12-28T09:12:30.000Z</time>
      </trkpt>
      <trkpt lat="48.73704" lon="2.07368">
        <ele>155</ele>
        <time>2015-12-28T09:12:31.000Z</time>
      </trkpt>
      <trkpt lat="48.73701" lon="2.07364">
        <ele>155</ele>
        <time>2015-12-28T09:12:35.000Z</time>
      </trkpt>
      <trkpt lat="48.73699" lon="2.07361">
        <ele>155.19999694824</ele>
        <time>2015-12-28T09:12:37.000Z</time>
      </trkpt>
      <trkpt lat="48.73698" lon="2.07361">
        <ele>155.19999694824</ele>
        <time>2015-12-28T09:12:38.000Z</time>
      </trkpt>
      <trkpt lat="48.73696" lon="2.07357">
        <ele>155.39999389648</ele>
        <time>2015-12-28T09:12:41.000Z</time>
      </trkpt>
      <trkpt lat="48.73691" lon="2.07352">
        <ele>155.60000610352</ele>
        <time>2015-12-28T09:12:46.000Z</time>
      </trkpt>
      <trkpt lat="48.73689" lon="2.07348">
        <ele>155.60000610352</ele>
        <time>2015-12-28T09:12:49.000Z</time>
      </trkpt>
      <trkpt lat="48.73687" lon="2.07349">
        <ele>155.80000305176</ele>
        <time>2015-12-28T09:12:51.000Z</time>
      </trkpt>
      <trkpt lat="48.73686" lon="2.07348">
        <ele>155.80000305176</ele>
        <time>2015-12-28T09:12:53.000Z</time>
      </trkpt>
      <trkpt lat="48.73687" lon="2.07348">
        <ele>155.80000305176</ele>
        <time>2015-12-28T09:12:55.000Z</time>
      </trkpt>
      <trkpt lat="48.735" lon="2.07132">
        <ele>162.19999694824</ele>
        <time>2015-12-28T09:21:31.000Z</time>
      </trkpt>
      <trkpt lat="48.73497" lon="2.07135">
        <ele>162.19999694824</ele>
        <time>2015-12-28T09:21:34.000Z</time>
      </trkpt>
      <trkpt lat="48.73495" lon="2.07136">
        <ele>162.19999694824</ele>
        <time>2015-12-28T09:21:36.000Z</time>
      </trkpt>
      <trkpt lat="48.73492" lon="2.07137">
        <ele>162.19999694824</ele>
        <time>2015-12-28T09:21:38.000Z</time>
      </trkpt>
      <trkpt lat="48.73486" lon="2.07141">
        <ele>162</ele>
        <time>2015-12-28T09:21:43.000Z</time>
      </trkpt>
      <trkpt lat="48.73484" lon="2.07143">
        <ele>162</ele>
        <time>2015-12-28T09:21:45.000Z</time>
      </trkpt>
      <trkpt lat="48.73478" lon="2.07147">
        <ele>161.80000305176</ele>
        <time>2015-12-28T09:21:50.000Z</time>
      </trkpt>
      <trkpt lat="48.73472" lon="2.07151">
        <ele>161.60000610352</ele>
        <time>2015-12-28T09:21:56.000Z</time>
      </trkpt>
      <trkpt lat="48.73462" lon="2.07155">
        <ele>161.39999389648</ele>
        <time>2015-12-28T09:22:05.000Z</time>
      </trkpt>
      <trkpt lat="48.73455" lon="2.07159">
        <ele>161.19999694824</ele>
        <time>2015-12-28T09:22:12.000Z</time>
      </trkpt>
      <trkpt lat="48.73454" lon="2.07158">
        <ele>161.19999694824</ele>
        <time>2015-12-28T09:22:13.000Z</time>
      </trkpt>
      <trkpt lat="48.73436" lon="2.07166">
        <ele>161</ele>
        <time>2015-12-28T09:22:59.000Z</time>
      </trkpt>
      <trkpt lat="48.73433" lon="2.07167">
        <ele>161</ele>
        <time>2015-12-28T09:23:01.000Z</time>
      </trkpt>
      <trkpt lat="48.73423" lon="2.07172">
        <ele>161</ele>
        <time>2015-12-28T09:23:09.000Z</time>
      </trkpt>
      <trkpt lat="48.73411" lon="2.07177">
        <ele>161</ele>
        <time>2015-12-28T09:23:18.000Z</time>
      </trkpt>
      <trkpt lat="48.73398" lon="2.07174">
        <ele>161</ele>
        <time>2015-12-28T09:23:28.000Z</time>
      </trkpt>
      <trkpt lat="48.73393" lon="2.07165">
        <ele>161</ele>
        <time>2015-12-28T09:23:34.000Z</time>
      </trkpt>
      <trkpt lat="48.73392" lon="2.07159">
        <ele>161</ele>
        <time>2015-12-28T09:23:39.000Z</time>
      </trkpt>
      <trkpt lat="48.73401" lon="2.07162">
        <ele>161</ele>
        <time>2015-12-28T09:24:20.000Z</time>
      </trkpt>
      <trkpt lat="48.73409" lon="2.07166">
        <ele>161</ele>
        <time>2015-12-28T09:24:24.000Z</time>
      </trkpt>
      <trkpt lat="48.7341" lon="2.07171">
        <ele>161</ele>
        <time>2015-12-28T09:24:28.000Z</time>
      </trkpt>
      <trkpt lat="48.7341" lon="2.0717">
        <ele>161</ele>
        <time>2015-12-28T09:24:29.000Z</time>
      </trkpt>
      <trkpt lat="48.7341" lon="2.0717">
        <ele>161</ele>
        <time>2015-12-28T09:24:30.000Z</time>
      </trkpt>
      <trkpt lat="48.73399" lon="2.07114">
        <ele>161.60000610352</ele>
        <time>2015-12-28T09:25:47.000Z</time>
      </trkpt>
      <trkpt lat="48.73402" lon="2.07109">
        <ele>161.80000305176</ele>
        <time>2015-12-28T09:25:50.000Z</time>
      </trkpt>
      <trkpt lat="48.73408" lon="2.07095">
        <ele>162.19999694824</ele>
        <time>2015-12-28T09:25:59.000Z</time>
      </trkpt>
      <trkpt lat="48.73412" lon="2.07079">
        <ele>162.60000610352</ele>
        <time>2015-12-28T09:26:07.000Z</time>
      </trkpt>
      <trkpt lat="48.73416" lon="2.07063">
        <ele>163</ele>
        <time>2015-12-28T09:26:15.000Z</time>
      </trkpt>
      <trkpt lat="48.73419" lon="2.07048">
        <ele>163.39999389648</ele>
        <time>2015-12-28T09:26:23.000Z</time>
      </trkpt>
      <trkpt lat="48.7342" lon="2.07038">
        <ele>163.39999389648</ele>
        <time>2015-12-28T09:26:28.000Z</time>
      </trkpt>
      <trkpt lat="48.73421" lon="2.07027">
        <ele>163.60000610352</ele>
        <time>2015-12-28T09:26:34.000Z</time>
      </trkpt>
      <trkpt lat="48.73422" lon="2.07017">
        <ele>163.80000305176</ele>
        <time>2015-12-28T09:26:38.000Z</time>
      </trkpt>
      <trkpt lat="48.73424" lon="2.06997">
        <ele>164</ele>
        <time>2015-12-28T09:26:47.000Z</time>
      </trkpt>
      <trkpt lat="48.73427" lon="2.06976">
        <ele>164.19999694824</ele>
        <time>2015-12-28T09:26:57.000Z</time>
      </trkpt>
      <trkpt lat="48.73428" lon="2.06962">
        <ele>164.60000610352</ele>
        <time>2015-12-28T09:27:04.000Z</time>
      </trkpt>
      <trkpt lat="48.73429" lon="2.06947">
        <ele>165</ele>
        <time>2015-12-28T09:27:11.000Z</time>
      </trkpt>
      <trkpt lat="48.73432" lon="2.06931">
        <ele>165.39999389648</ele>
        <time>2015-12-28T09:27:19.000Z</time>
      </trkpt>
      <trkpt lat="48.73432" lon="2.06923">
        <ele>165.60000610352</ele>
        <time>2015-12-28T09:27:23.000Z</time>
      </trkpt>
      <trkpt lat="48.73433" lon="2.0692">
        <ele>165.60000610352</ele>
        <time>2015-12-28T09:27:25.000Z</time>
      </trkpt>
      <trkpt lat="48.73434" lon="2.06911">
        <ele>165.80000305176</ele>
        <time>2015-12-28T09:27:29.000Z</time>
      </trkpt>
      <trkpt lat="48.73436" lon="2.069">
        <ele>165.80000305176</ele>
        <time>2015-12-28T09:27:34.000Z</time>
      </trkpt>
      <trkpt lat="48.73436" lon="2.06898">
        <ele>165.80000305176</ele>
        <time>2015-12-28T09:27:35.000Z</time>
      </trkpt>
      <trkpt lat="48.73439" lon="2.06882">
        <ele>165.19999694824</ele>
        <time>2015-12-28T09:27:43.000Z</time>
      </trkpt>
      <trkpt lat="48.73439" lon="2.06881">
        <ele>165.19999694824</ele>
        <time>2015-12-28T09:27:44.000Z</time>
      </trkpt>
      <trkpt lat="48.7344" lon="2.06872">
        <ele>165</ele>
        <time>2015-12-28T09:27:48.000Z</time>
      </trkpt>
      <trkpt lat="48.7344" lon="2.06869">
        <ele>165</ele>
        <time>2015-12-28T09:27:50.000Z</time>
      </trkpt>
      <trkpt lat="48.73442" lon="2.06863">
        <ele>164.80000305176</ele>
        <time>2015-12-28T09:27:53.000Z</time>
      </trkpt>
      <trkpt lat="48.73442" lon="2.06856">
        <ele>164.60000610352</ele>
        <time>2015-12-28T09:27:56.000Z</time>
      </trkpt>
      <trkpt lat="48.73443" lon="2.06849">
        <ele>164.39999389648</ele>
        <time>2015-12-28T09:28:00.000Z</time>
      </trkpt>
      <trkpt lat="48.73446" lon="2.0683">
        <ele>163.80000305176</ele>
        <time>2015-12-28T09:28:09.000Z</time>
      </trkpt>
      <trkpt lat="48.7345" lon="2.06812">
        <ele>163.60000610352</ele>
        <time>2015-12-28T09:28:19.000Z</time>
      </trkpt>
      <trkpt lat="48.7345" lon="2.06812">
        <ele>163.60000610352</ele>
        <time>2015-12-28T09:28:20.000Z</time>
      </trkpt>
      <trkpt lat="48.7345" lon="2.06809">
        <ele>163.60000610352</ele>
        <time>2015-12-28T09:28:22.000Z</time>
      </trkpt>
      <trkpt lat="48.73449" lon="2.06809">
        <ele>163.60000610352</ele>
        <time>2015-12-28T09:28:23.000Z</time>
      </trkpt>
      <trkpt lat="48.73448" lon="2.06807">
        <ele>163.60000610352</ele>
        <time>2015-12-28T09:28:26.000Z</time>
      </trkpt>
      <trkpt lat="48.73447" lon="2.06807">
        <ele>163.60000610352</ele>
        <time>2015-12-28T09:28:27.000Z</time>
      </trkpt>
      <trkpt lat="48.73446" lon="2.06806">
        <ele>163.60000610352</ele>
        <time>2015-12-28T09:28:28.000Z</time>
      </trkpt>
      <trkpt lat="48.73438" lon="2.06799">
        <ele>164</ele>
        <time>2015-12-28T09:28:36.000Z</time>
      </trkpt>
      <trkpt lat="48.73435" lon="2.06791">
        <ele>164</ele>
        <time>2015-12-28T09:28:41.000Z</time>
      </trkpt>
      <trkpt lat="48.73436" lon="2.0679">
        <ele>164</ele>
        <time>2015-12-28T09:28:43.000Z</time>
      </trkpt>
      <trkpt lat="48.73436" lon="2.0679">
        <ele>164</ele>
        <time>2015-12-28T09:28:44.000Z</time>
      </trkpt>
      <trkpt lat="48.73417" lon="2.06794">
        <ele>164</ele>
        <time>2015-12-28T09:29:39.000Z</time>
      </trkpt>
      <trkpt lat="48.73413" lon="2.06793">
        <ele>164</ele>
        <time>2015-12-28T09:29:42.000Z</time>
      </trkpt>
      <trkpt lat="48.73408" lon="2.0679">
        <ele>164</ele>
        <time>2015-12-28T09:29:46.000Z</time>
      </trkpt>
      <trkpt lat="48.73406" lon="2.06788">
        <ele>164</ele>
        <time>2015-12-28T09:29:48.000Z</time>
      </trkpt>
      <trkpt lat="48.73403" lon="2.06787">
        <ele>164</ele>
        <time>2015-12-28T09:29:51.000Z</time>
      </trkpt>
      <trkpt lat="48.73401" lon="2.06786">
        <ele>164</ele>
        <time>2015-12-28T09:29:52.000Z</time>
      </trkpt>
      <trkpt lat="48.73398" lon="2.06785">
        <ele>164</ele>
        <time>2015-12-28T09:29:55.000Z</time>
      </trkpt>
      <trkpt lat="48.73395" lon="2.06784">
        <ele>164</ele>
        <time>2015-12-28T09:29:57.000Z</time>
      </trkpt>
      <trkpt lat="48.73394" lon="2.06784">
        <ele>164</ele>
        <time>2015-12-28T09:29:59.000Z</time>
      </trkpt>
      <trkpt lat="48.73387" lon="2.06788">
        <ele>164</ele>
        <time>2015-12-28T09:30:04.000Z</time>
      </trkpt>
      <trkpt lat="48.73379" lon="2.0679">
        <ele>164</ele>
        <time>2015-12-28T09:30:11.000Z</time>
      </trkpt>
      <trkpt lat="48.73369" lon="2.06792">
        <ele>164</ele>
        <time>2015-12-28T09:30:19.000Z</time>
      </trkpt>
      <trkpt lat="48.7336" lon="2.06793">
        <ele>164</ele>
        <time>2015-12-28T09:30:26.000Z</time>
      </trkpt>
      <trkpt lat="48.73348" lon="2.06795">
        <ele>164</ele>
        <time>2015-12-28T09:30:35.000Z</time>
      </trkpt>
      <trkpt lat="48.73336" lon="2.06799">
        <ele>163.80000305176</ele>
        <time>2015-12-28T09:30:44.000Z</time>
      </trkpt>
      <trkpt lat="48.73333" lon="2.06799">
        <ele>163.80000305176</ele>
        <time>2015-12-28T09:30:47.000Z</time>
      </trkpt>
      <trkpt lat="48.73329" lon="2.06799">
        <ele>163.60000610352</ele>
        <time>2015-12-28T09:30:50.000Z</time>
      </trkpt>
      <trkpt lat="48.73324" lon="2.06801">
        <ele>163.60000610352</ele>
        <time>2015-12-28T09:30:54.000Z</time>
      </trkpt>
      <trkpt lat="48.73319" lon="2.06802">
        <ele>163.60000610352</ele>
        <time>2015-12-28T09:30:58.000Z</time>
      </trkpt>
      <trkpt lat="48.73309" lon="2.06804">
        <ele>163.39999389648</ele>
        <time>2015-12-28T09:31:05.000Z</time>
      </trkpt>
      <trkpt lat="48.73302" lon="2.06805">
        <ele>163.39999389648</ele>
        <time>2015-12-28T09:31:11.000Z</time>
      </trkpt>
      <trkpt lat="48.73294" lon="2.06807">
        <ele>163.19999694824</ele>
        <time>2015-12-28T09:31:17.000Z</time>
      </trkpt>
      <trkpt lat="48.73282" lon="2.0681">
        <ele>163.19999694824</ele>
        <time>2015-12-28T09:31:26.000Z</time>
      </trkpt>
      <trkpt lat="48.73272" lon="2.06811">
        <ele>163</ele>
        <time>2015-12-28T09:31:34.000Z</time>
      </trkpt>
      <trkpt lat="48.7327" lon="2.06811">
        <ele>163</ele>
        <time>2015-12-28T09:31:35.000Z</time>
      </trkpt>
      <trkpt lat="48.73261" lon="2.06811">
        <ele>163.19999694824</ele>
        <time>2015-12-28T09:31:42.000Z</time>
      </trkpt>
      <trkpt lat="48.73258" lon="2.06811">
        <ele>163.19999694824</ele>
        <time>2015-12-28T09:31:44.000Z</time>
      </trkpt>
      <trkpt lat="48.73251" lon="2.0681">
        <ele>163.19999694824</ele>
        <time>2015-12-28T09:31:50.000Z</time>
      </trkpt>
      <trkpt lat="48.73243" lon="2.06809">
        <ele>163.19999694824</ele>
        <time>2015-12-28T09:31:56.000Z</time>
      </trkpt>
      <trkpt lat="48.73234" lon="2.06806">
        <ele>163.19999694824</ele>
        <time>2015-12-28T09:32:03.000Z</time>
      </trkpt>
      <trkpt lat="48.73221" lon="2.06801">
        <ele>163.39999389648</ele>
        <time>2015-12-28T09:32:12.000Z</time>
      </trkpt>
      <trkpt lat="48.7321" lon="2.06795">
        <ele>163.39999389648</ele>
        <time>2015-12-28T09:32:20.000Z</time>
      </trkpt>
      <trkpt lat="48.73199" lon="2.06791">
        <ele>163.39999389648</ele>
        <time>2015-12-28T09:32:28.000Z</time>
      </trkpt>
      <trkpt lat="48.73193" lon="2.06789">
        <ele>163.39999389648</ele>
        <time>2015-12-28T09:32:32.000Z</time>
      </trkpt>
      <trkpt lat="48.73192" lon="2.06788">
        <ele>163.39999389648</ele>
        <time>2015-12-28T09:32:33.000Z</time>
      </trkpt>
      <trkpt lat="48.73185" lon="2.06782">
        <ele>163.60000610352</ele>
        <time>2015-12-28T09:32:39.000Z</time>
      </trkpt>
      <trkpt lat="48.73176" lon="2.06777">
        <ele>163.60000610352</ele>
        <time>2015-12-28T09:32:46.000Z</time>
      </trkpt>
      <trkpt lat="48.73172" lon="2.06773">
        <ele>163.60000610352</ele>
        <time>2015-12-28T09:32:50.000Z</time>
      </trkpt>
      <trkpt lat="48.73171" lon="2.06771">
        <ele>163.60000610352</ele>
        <time>2015-12-28T09:32:55.000Z</time>
      </trkpt>
      <trkpt lat="48.73154" lon="2.06765">
        <ele>163.80000305176</ele>
        <time>2015-12-28T09:33:11.000Z</time>
      </trkpt>
      <trkpt lat="48.73146" lon="2.06759">
        <ele>163.80000305176</ele>
        <time>2015-12-28T09:33:18.000Z</time>
      </trkpt>
      <trkpt lat="48.73138" lon="2.06753">
        <ele>163.80000305176</ele>
        <time>2015-12-28T09:33:24.000Z</time>
      </trkpt>
      <trkpt lat="48.73128" lon="2.06746">
        <ele>164</ele>
        <time>2015-12-28T09:33:32.000Z</time>
      </trkpt>
      <trkpt lat="48.73121" lon="2.0674">
        <ele>164</ele>
        <time>2015-12-28T09:33:38.000Z</time>
      </trkpt>
      <trkpt lat="48.73112" lon="2.06733">
        <ele>163.80000305176</ele>
        <time>2015-12-28T09:33:46.000Z</time>
      </trkpt>
      <trkpt lat="48.73111" lon="2.0673">
        <ele>163.80000305176</ele>
        <time>2015-12-28T09:33:48.000Z</time>
      </trkpt>
      <trkpt lat="48.7311" lon="2.06731">
        <ele>163.80000305176</ele>
        <time>2015-12-28T09:33:50.000Z</time>
      </trkpt>
      <trkpt lat="48.73108" lon="2.0673">
        <ele>163.80000305176</ele>
        <time>2015-12-28T09:33:52.000Z</time>
      </trkpt>
      <trkpt lat="48.73105" lon="2.06728">
        <ele>163.80000305176</ele>
        <time>2015-12-28T09:33:55.000Z</time>
      </trkpt>
      <trkpt lat="48.731" lon="2.06724">
        <ele>163.80000305176</ele>
        <time>2015-12-28T09:33:59.000Z</time>
      </trkpt>
      <trkpt lat="48.73098" lon="2.06722">
        <ele>163.60000610352</ele>
        <time>2015-12-28T09:34:01.000Z</time>
      </trkpt>
      <trkpt lat="48.73088" lon="2.06715">
        <ele>163.39999389648</ele>
        <time>2015-12-28T09:34:09.000Z</time>
      </trkpt>
      <trkpt lat="48.73078" lon="2.06708">
        <ele>163.19999694824</ele>
        <time>2015-12-28T09:34:18.000Z</time>
      </trkpt>
      <trkpt lat="48.73071" lon="2.06703">
        <ele>163.19999694824</ele>
        <time>2015-12-28T09:34:23.000Z</time>
      </trkpt>
      <trkpt lat="48.73064" lon="2.06699">
        <ele>163</ele>
        <time>2015-12-28T09:34:29.000Z</time>
      </trkpt>
      <trkpt lat="48.73058" lon="2.06694">
        <ele>162.80000305176</ele>
        <time>2015-12-28T09:34:34.000Z</time>
      </trkpt>
      <trkpt lat="48.7305" lon="2.06688">
        <ele>162.60000610352</ele>
        <time>2015-12-28T09:34:42.000Z</time>
      </trkpt>
      <trkpt lat="48.73041" lon="2.06681">
        <ele>162.60000610352</ele>
        <time>2015-12-28T09:34:49.000Z</time>
      </trkpt>
      <trkpt lat="48.73037" lon="2.06679">
        <ele>162.39999389648</ele>
        <time>2015-12-28T09:34:52.000Z</time>
      </trkpt>
      <trkpt lat="48.73033" lon="2.06677">
        <ele>162.39999389648</ele>
        <time>2015-12-28T09:34:55.000Z</time>
      </trkpt>
      <trkpt lat="48.73031" lon="2.06675">
        <ele>162.39999389648</ele>
        <time>2015-12-28T09:34:57.000Z</time>
      </trkpt>
      <trkpt lat="48.73025" lon="2.06672">
        <ele>162.19999694824</ele>
        <time>2015-12-28T09:35:01.000Z</time>
      </trkpt>
      <trkpt lat="48.73023" lon="2.06669">
        <ele>162.19999694824</ele>
        <time>2015-12-28T09:35:03.000Z</time>
      </trkpt>
      <trkpt lat="48.73018" lon="2.06666">
        <ele>162</ele>
        <time>2015-12-28T09:35:07.000Z</time>
      </trkpt>
      <trkpt lat="48.73013" lon="2.06663">
        <ele>161.80000305176</ele>
        <time>2015-12-28T09:35:11.000Z</time>
      </trkpt>
      <trkpt lat="48.73009" lon="2.06661">
        <ele>161.80000305176</ele>
        <time>2015-12-28T09:35:14.000Z</time>
      </trkpt>
      <trkpt lat="48.73001" lon="2.06655">
        <ele>161.60000610352</ele>
        <time>2015-12-28T09:35:21.000Z</time>
      </trkpt>
      <trkpt lat="48.72992" lon="2.06647">
        <ele>161.39999389648</ele>
        <time>2015-12-28T09:35:29.000Z</time>
      </trkpt>
      <trkpt lat="48.72982" lon="2.06638">
        <ele>161</ele>
        <time>2015-12-28T09:35:37.000Z</time>
      </trkpt>
      <trkpt lat="48.72978" lon="2.06629">
        <ele>161</ele>
        <time>2015-12-28T09:35:45.000Z</time>
      </trkpt>
      <trkpt lat="48.72978" lon="2.06629">
        <ele>161</ele>
        <time>2015-12-28T09:35:46.000Z</time>
      </trkpt>
      <trkpt lat="48.72964" lon="2.06617">
        <ele>160.60000610352</ele>
        <time>2015-12-28T09:36:20.000Z</time>
      </trkpt>
      <trkpt lat="48.72962" lon="2.06615">
        <ele>160.60000610352</ele>
        <time>2015-12-28T09:36:22.000Z</time>
      </trkpt>
      <trkpt lat="48.7296" lon="2.06611">
        <ele>160.60000610352</ele>
        <time>2015-12-28T09:36:25.000Z</time>
      </trkpt>
      <trkpt lat="48.72954" lon="2.06605">
        <ele>160.39999389648</ele>
        <time>2015-12-28T09:36:30.000Z</time>
      </trkpt>
      <trkpt lat="48.72947" lon="2.06597">
        <ele>160.19999694824</ele>
        <time>2015-12-28T09:36:37.000Z</time>
      </trkpt>
      <trkpt lat="48.72939" lon="2.06588">
        <ele>160</ele>
        <time>2015-12-28T09:36:44.000Z</time>
      </trkpt>
      <trkpt lat="48.72926" lon="2.06574">
        <ele>160</ele>
        <time>2015-12-28T09:36:57.000Z</time>
      </trkpt>
      <trkpt lat="48.72916" lon="2.06563">
        <ele>160.39999389648</ele>
        <time>2015-12-28T09:37:07.000Z</time>
      </trkpt>
      <trkpt lat="48.72905" lon="2.06553">
        <ele>160.60000610352</ele>
        <time>2015-12-28T09:37:17.000Z</time>
      </trkpt>
      <trkpt lat="48.729" lon="2.06549">
        <ele>160.60000610352</ele>
        <time>2015-12-28T09:37:21.000Z</time>
      </trkpt>
      <trkpt lat="48.72897" lon="2.06546">
        <ele>160.80000305176</ele>
        <time>2015-12-28T09:37:24.000Z</time>
      </trkpt>
      <trkpt lat="48.72892" lon="2.0654">
        <ele>160.80000305176</ele>
        <time>2015-12-28T09:37:31.000Z</time>
      </trkpt>
      <trkpt lat="48.72866" lon="2.06517">
        <ele>161.39999389648</ele>
        <time>2015-12-28T09:38:10.000Z</time>
      </trkpt>
      <trkpt lat="48.72863" lon="2.06515">
        <ele>161.39999389648</ele>
        <time>2015-12-28T09:38:13.000Z</time>
      </trkpt>
      <trkpt lat="48.72857" lon="2.06508">
        <ele>161.60000610352</ele>
        <time>2015-12-28T09:38:20.000Z</time>
      </trkpt>
      <trkpt lat="48.72851" lon="2.06502">
        <ele>161.39999389648</ele>
        <time>2015-12-28T09:38:26.000Z</time>
      </trkpt>
      <trkpt lat="48.72851" lon="2.06501">
        <ele>161.39999389648</ele>
        <time>2015-12-28T09:38:27.000Z</time>
      </trkpt>
      <trkpt lat="48.72849" lon="2.06496">
        <ele>161.19999694824</ele>
        <time>2015-12-28T09:38:30.000Z</time>
      </trkpt>
      <trkpt lat="48.72849" lon="2.06494">
        <ele>161</ele>
        <time>2015-12-28T09:38:33.000Z</time>
      </trkpt>
      <trkpt lat="48.72845" lon="2.06488">
        <ele>160.19999694824</ele>
        <time>2015-12-28T09:38:38.000Z</time>
      </trkpt>
      <trkpt lat="48.72845" lon="2.06487">
        <ele>160</ele>
        <time>2015-12-28T09:38:39.000Z</time>
      </trkpt>
      <trkpt lat="48.7284" lon="2.06479">
        <ele>158.80000305176</ele>
        <time>2015-12-28T09:38:45.000Z</time>
      </trkpt>
      <trkpt lat="48.72837" lon="2.06475">
        <ele>158</ele>
        <time>2015-12-28T09:38:49.000Z</time>
      </trkpt>
      <trkpt lat="48.72836" lon="2.06473">
        <ele>157.80000305176</ele>
        <time>2015-12-28T09:38:50.000Z</time>
      </trkpt>
      <trkpt lat="48.72833" lon="2.06469">
        <ele>156.80000305176</ele>
        <time>2015-12-28T09:38:54.000Z</time>
      </trkpt>
      <trkpt lat="48.72831" lon="2.06468">
        <ele>156.60000610352</ele>
        <time>2015-12-28T09:38:55.000Z</time>
      </trkpt>
      <trkpt lat="48.72827" lon="2.06462">
        <ele>155.39999389648</ele>
        <time>2015-12-28T09:38:59.000Z</time>
      </trkpt>
      <trkpt lat="48.72825" lon="2.0646">
        <ele>155</ele>
        <time>2015-12-28T09:39:01.000Z</time>
      </trkpt>
      <trkpt lat="48.72822" lon="2.06455">
        <ele>154.19999694824</ele>
        <time>2015-12-28T09:39:05.000Z</time>
      </trkpt>
      <trkpt lat="48.72817" lon="2.06449">
        <ele>153</ele>
        <time>2015-12-28T09:39:11.000Z</time>
      </trkpt>
      <trkpt lat="48.72814" lon="2.06445">
        <ele>152.39999389648</ele>
        <time>2015-12-28T09:39:16.000Z</time>
      </trkpt>
      <trkpt lat="48.72814" lon="2.06444">
        <ele>152.19999694824</ele>
        <time>2015-12-28T09:39:18.000Z</time>
      </trkpt>
      <trkpt lat="48.72685" lon="2.063">
        <ele>123</ele>
        <time>2015-12-28T09:42:13.000Z</time>
      </trkpt>
      <trkpt lat="48.72685" lon="2.06293">
        <ele>123</ele>
        <time>2015-12-28T09:42:17.000Z</time>
      </trkpt>
      <trkpt lat="48.72685" lon="2.06288">
        <ele>123.40000152588</ele>
        <time>2015-12-28T09:42:19.000Z</time>
      </trkpt>
      <trkpt lat="48.72684" lon="2.06283">
        <ele>123.59999847412</ele>
        <time>2015-12-28T09:42:22.000Z</time>
      </trkpt>
      <trkpt lat="48.72682" lon="2.06274">
        <ele>123.40000152588</ele>
        <time>2015-12-28T09:42:28.000Z</time>
      </trkpt>
      <trkpt lat="48.7268" lon="2.06271">
        <ele>123.40000152588</ele>
        <time>2015-12-28T09:42:30.000Z</time>
      </trkpt>
      <trkpt lat="48.7268" lon="2.06269">
        <ele>123.40000152588</ele>
        <time>2015-12-28T09:42:31.000Z</time>
      </trkpt>
      <trkpt lat="48.7268" lon="2.06263">
        <ele>123.59999847412</ele>
        <time>2015-12-28T09:42:35.000Z</time>
      </trkpt>
      <trkpt lat="48.7268" lon="2.06261">
        <ele>123.59999847412</ele>
        <time>2015-12-28T09:42:36.000Z</time>
      </trkpt>
      <trkpt lat="48.72679" lon="2.06255">
        <ele>123.80000305176</ele>
        <time>2015-12-28T09:42:40.000Z</time>
      </trkpt>
      <trkpt lat="48.72676" lon="2.06248">
        <ele>123.59999847412</ele>
        <time>2015-12-28T09:42:46.000Z</time>
      </trkpt>
      <trkpt lat="48.72673" lon="2.06239">
        <ele>123.40000152588</ele>
        <time>2015-12-28T09:42:53.000Z</time>
      </trkpt>
      <trkpt lat="48.72673" lon="2.06237">
        <ele>123.40000152588</ele>
        <time>2015-12-28T09:42:55.000Z</time>
      </trkpt>
      <trkpt lat="48.72673" lon="2.06237">
        <ele>123.40000152588</ele>
        <time>2015-12-28T09:42:56.000Z</time>
      </trkpt>
      <trkpt lat="48.72673" lon="2.06225">
        <ele>123.40000152588</ele>
        <time>2015-12-28T09:43:09.000Z</time>
      </trkpt>
      <trkpt lat="48.72672" lon="2.06223">
        <ele>123.19999694824</ele>
        <time>2015-12-28T09:43:10.000Z</time>
      </trkpt>
      <trkpt lat="48.72669" lon="2.06215">
        <ele>122.59999847412</ele>
        <time>2015-12-28T09:43:15.000Z</time>
      </trkpt>
      <trkpt lat="48.72667" lon="2.06207">
        <ele>122</ele>
        <time>2015-12-28T09:43:21.000Z</time>
      </trkpt>
      <trkpt lat="48.72667" lon="2.06206">
        <ele>122</ele>
        <time>2015-12-28T09:43:22.000Z</time>
      </trkpt>
      <trkpt lat="48.72667" lon="2.06204">
        <ele>122</ele>
        <time>2015-12-28T09:43:23.000Z</time>
      </trkpt>
      <trkpt lat="48.72664" lon="2.06198">
        <ele>121.40000152588</ele>
        <time>2015-12-28T09:43:27.000Z</time>
      </trkpt>
      <trkpt lat="48.72662" lon="2.06195">
        <ele>121</ele>
        <time>2015-12-28T09:43:31.000Z</time>
      </trkpt>
      <trkpt lat="48.7266" lon="2.06192">
        <ele>120.59999847412</ele>
        <time>2015-12-28T09:43:33.000Z</time>
      </trkpt>
      <trkpt lat="48.7266" lon="2.06191">
        <ele>120.59999847412</ele>
        <time>2015-12-28T09:43:34.000Z</time>
      </trkpt>
      <trkpt lat="48.72659" lon="2.06187">
        <ele>120.40000152588</ele>
        <time>2015-12-28T09:43:37.000Z</time>
      </trkpt>
      <trkpt lat="48.7266" lon="2.06184">
        <ele>120.19999694824</ele>
        <time>2015-12-28T09:43:40.000Z</time>
      </trkpt>
      <trkpt lat="48.72658" lon="2.06181">
        <ele>120</ele>
        <time>2015-12-28T09:43:43.000Z</time>
      </trkpt>
      <trkpt lat="48.72657" lon="2.0618">
        <ele>119.80000305176</ele>
        <time>2015-12-28T09:43:45.000Z</time>
      </trkpt>
      <trkpt lat="48.72591" lon="2.06106">
        <ele>109.59999847412</ele>
        <time>2015-12-28T09:45:37.000Z</time>
      </trkpt>
      <trkpt lat="48.72591" lon="2.06105">
        <ele>109.40000152588</ele>
        <time>2015-12-28T09:45:38.000Z</time>
      </trkpt>
      <trkpt lat="48.72586" lon="2.06097">
        <ele>108.59999847412</ele>
        <time>2015-12-28T09:45:44.000Z</time>
      </trkpt>
      <trkpt lat="48.72581" lon="2.06092">
        <ele>107.59999847412</ele>
        <time>2015-12-28T09:45:50.000Z</time>
      </trkpt>
      <trkpt lat="48.7258" lon="2.0609">
        <ele>107.40000152588</ele>
        <time>2015-12-28T09:45:53.000Z</time>
      </trkpt>
      <trkpt lat="48.72549" lon="2.06049">
        <ele>100.80000305176</ele>
        <time>2015-12-28T09:47:15.000Z</time>
      </trkpt>
      <trkpt lat="48.72547" lon="2.06047">
        <ele>100.59999847412</ele>
        <time>2015-12-28T09:47:17.000Z</time>
      </trkpt>
      <trkpt lat="48.72542" lon="2.06039">
        <ele>99.199996948242</ele>
        <time>2015-12-28T09:47:23.000Z</time>
      </trkpt>
      <trkpt lat="48.72541" lon="2.06035">
        <ele>98.800003051758</ele>
        <time>2015-12-28T09:47:25.000Z</time>
      </trkpt>
      <trkpt lat="48.72539" lon="2.06029">
        <ele>98.400001525879</ele>
        <time>2015-12-28T09:47:28.000Z</time>
      </trkpt>
      <trkpt lat="48.72535" lon="2.06022">
        <ele>97.400001525879</ele>
        <time>2015-12-28T09:47:34.000Z</time>
      </trkpt>
      <trkpt lat="48.7253" lon="2.06021">
        <ele>96.599998474121</ele>
        <time>2015-12-28T09:47:39.000Z</time>
      </trkpt>
      <trkpt lat="48.72528" lon="2.06019">
        <ele>96</ele>
        <time>2015-12-28T09:47:42.000Z</time>
      </trkpt>
      <trkpt lat="48.72527" lon="2.06018">
        <ele>95.800003051758</ele>
        <time>2015-12-28T09:47:43.000Z</time>
      </trkpt>
      <trkpt lat="48.72525" lon="2.06015">
        <ele>95.400001525879</ele>
        <time>2015-12-28T09:47:45.000Z</time>
      </trkpt>
      <trkpt lat="48.72525" lon="2.06008">
        <ele>95.400001525879</ele>
        <time>2015-12-28T09:47:49.000Z</time>
      </trkpt>
      <trkpt lat="48.72525" lon="2.06006">
        <ele>95.199996948242</ele>
        <time>2015-12-28T09:47:52.000Z</time>
      </trkpt>
      <trkpt lat="48.72487" lon="2.05921">
        <ele>89</ele>
        <time>2015-12-28T09:49:26.000Z</time>
      </trkpt>
      <trkpt lat="48.72486" lon="2.0592">
        <ele>88.800003051758</ele>
        <time>2015-12-28T09:49:27.000Z</time>
      </trkpt>
      <trkpt lat="48.72482" lon="2.05914">
        <ele>88.400001525879</ele>
        <time>2015-12-28T09:49:32.000Z</time>
      </trkpt>
      <trkpt lat="48.72481" lon="2.05911">
        <ele>88.199996948242</ele>
        <time>2015-12-28T09:49:35.000Z</time>
      </trkpt>
      <trkpt lat="48.72481" lon="2.05911">
        <ele>88.199996948242</ele>
        <time>2015-12-28T09:49:36.000Z</time>
      </trkpt>
      <trkpt lat="48.72478" lon="2.05879">
        <ele>87.199996948242</ele>
        <time>2015-12-28T09:50:14.000Z</time>
      </trkpt>
      <trkpt lat="48.72478" lon="2.05877">
        <ele>87.199996948242</ele>
        <time>2015-12-28T09:50:15.000Z</time>
      </trkpt>
      <trkpt lat="48.72476" lon="2.05872">
        <ele>87</ele>
        <time>2015-12-28T09:50:18.000Z</time>
      </trkpt>
      <trkpt lat="48.72476" lon="2.05866">
        <ele>86.800003051758</ele>
        <time>2015-12-28T09:50:21.000Z</time>
      </trkpt>
      <trkpt lat="48.72474" lon="2.05861">
        <ele>86.800003051758</ele>
        <time>2015-12-28T09:50:24.000Z</time>
      </trkpt>
      <trkpt lat="48.72473" lon="2.05855">
        <ele>86.599998474121</ele>
        <time>2015-12-28T09:50:28.000Z</time>
      </trkpt>
      <trkpt lat="48.72474" lon="2.05854">
        <ele>86.599998474121</ele>
        <time>2015-12-28T09:50:29.000Z</time>
      </trkpt>
      <trkpt lat="48.72473" lon="2.05852">
        <ele>86.400001525879</ele>
        <time>2015-12-28T09:50:32.000Z</time>
      </trkpt>
      <trkpt lat="48.72471" lon="2.05828">
        <ele>85.800003051758</ele>
        <time>2015-12-28T09:50:53.000Z</time>
      </trkpt>
      <trkpt lat="48.7247" lon="2.05814">
        <ele>86</ele>
        <time>2015-12-28T09:51:00.000Z</time>
      </trkpt>
      <trkpt lat="48.72469" lon="2.05797">
        <ele>86.400001525879</ele>
        <time>2015-12-28T09:51:09.000Z</time>
      </trkpt>
      <trkpt lat="48.72468" lon="2.05785">
        <ele>86.800003051758</ele>
        <time>2015-12-28T09:51:16.000Z</time>
      </trkpt>
      <trkpt lat="48.72467" lon="2.05783">
        <ele>86.800003051758</ele>
        <time>2015-12-28T09:51:17.000Z</time>
      </trkpt>
      <trkpt lat="48.72466" lon="2.05777">
        <ele>86.800003051758</ele>
        <time>2015-12-28T09:51:21.000Z</time>
      </trkpt>
      <trkpt lat="48.72465" lon="2.05767">
        <ele>87</ele>
        <time>2015-12-28T09:51:26.000Z</time>
      </trkpt>
      <trkpt lat="48.72465" lon="2.05758">
        <ele>86.800003051758</ele>
        <time>2015-12-28T09:51:31.000Z</time>
      </trkpt>
      <trkpt lat="48.72461" lon="2.05748">
        <ele>86.800003051758</ele>
        <time>2015-12-28T09:51:37.000Z</time>
      </trkpt>
      <trkpt lat="48.72461" lon="2.05735">
        <ele>87</ele>
        <time>2015-12-28T09:51:44.000Z</time>
      </trkpt>
      <trkpt lat="48.72458" lon="2.05722">
        <ele>87.800003051758</ele>
        <time>2015-12-28T09:51:53.000Z</time>
      </trkpt>
      <trkpt lat="48.72454" lon="2.05708">
        <ele>88.400001525879</ele>
        <time>2015-12-28T09:52:02.000Z</time>
      </trkpt>
      <trkpt lat="48.72449" lon="2.05701">
        <ele>88.800003051758</ele>
        <time>2015-12-28T09:52:09.000Z</time>
      </trkpt>
      <trkpt lat="48.72443" lon="2.05692">
        <ele>89.400001525879</ele>
        <time>2015-12-28T09:52:18.000Z</time>
      </trkpt>
      <trkpt lat="48.72356" lon="2.05585">
        <ele>98.400001525879</ele>
        <time>2015-12-28T10:00:14.000Z</time>
      </trkpt>
      <trkpt lat="48.72351" lon="2.05587">
        <ele>98.800003051758</ele>
        <time>2015-12-28T10:00:18.000Z</time>
      </trkpt>
      <trkpt lat="48.72346" lon="2.05584">
        <ele>100</ele>
        <time>2015-12-28T10:00:22.000Z</time>
      </trkpt>
      <trkpt lat="48.7234" lon="2.05583">
        <ele>101</ele>
        <time>2015-12-28T10:00:26.000Z</time>
      </trkpt>
      <trkpt lat="48.7234" lon="2.05583">
        <ele>101.19999694824</ele>
        <time>2015-12-28T10:00:27.000Z</time>
      </trkpt>
      <trkpt lat="48.72333" lon="2.05583">
        <ele>102.40000152588</ele>
        <time>2015-12-28T10:00:33.000Z</time>
      </trkpt>
      <trkpt lat="48.72323" lon="2.05581">
        <ele>104.19999694824</ele>
        <time>2015-12-28T10:00:41.000Z</time>
      </trkpt>
      <trkpt lat="48.72318" lon="2.05581">
        <ele>105.19999694824</ele>
        <time>2015-12-28T10:00:46.000Z</time>
      </trkpt>
      <trkpt lat="48.72311" lon="2.0558">
        <ele>106.40000152588</ele>
        <time>2015-12-28T10:00:52.000Z</time>
      </trkpt>
      <trkpt lat="48.72308" lon="2.05579">
        <ele>107</ele>
        <time>2015-12-28T10:00:55.000Z</time>
      </trkpt>
      <trkpt lat="48.72306" lon="2.05579">
        <ele>107.40000152588</ele>
        <time>2015-12-28T10:00:57.000Z</time>
      </trkpt>
      <trkpt lat="48.72305" lon="2.05578">
        <ele>107.59999847412</ele>
        <time>2015-12-28T10:00:58.000Z</time>
      </trkpt>
      <trkpt lat="48.72301" lon="2.05578">
        <ele>108.40000152588</ele>
        <time>2015-12-28T10:01:02.000Z</time>
      </trkpt>
      <trkpt lat="48.72292" lon="2.05578">
        <ele>110</ele>
        <time>2015-12-28T10:01:09.000Z</time>
      </trkpt>
      <trkpt lat="48.72285" lon="2.05575">
        <ele>111.40000152588</ele>
        <time>2015-12-28T10:01:15.000Z</time>
      </trkpt>
      <trkpt lat="48.7228" lon="2.05574">
        <ele>112.40000152588</ele>
        <time>2015-12-28T10:01:20.000Z</time>
      </trkpt>
      <trkpt lat="48.72278" lon="2.05574">
        <ele>112.59999847412</ele>
        <time>2015-12-28T10:01:22.000Z</time>
      </trkpt>
      <trkpt lat="48.72274" lon="2.05575">
        <ele>113.40000152588</ele>
        <time>2015-12-28T10:01:26.000Z</time>
      </trkpt>
      <trkpt lat="48.72272" lon="2.05576">
        <ele>113.80000305176</ele>
        <time>2015-12-28T10:01:28.000Z</time>
      </trkpt>
      <trkpt lat="48.72271" lon="2.05577">
        <ele>113.80000305176</ele>
        <time>2015-12-28T10:01:29.000Z</time>
      </trkpt>
      <trkpt lat="48.72266" lon="2.05581">
        <ele>114.19999694824</ele>
        <time>2015-12-28T10:01:33.000Z</time>
      </trkpt>
      <trkpt lat="48.72262" lon="2.05584">
        <ele>114.59999847412</ele>
        <time>2015-12-28T10:01:37.000Z</time>
      </trkpt>
      <trkpt lat="48.72253" lon="2.05591">
        <ele>115.59999847412</ele>
        <time>2015-12-28T10:01:44.000Z</time>
      </trkpt>
      <trkpt lat="48.72251" lon="2.05592">
        <ele>115.80000305176</ele>
        <time>2015-12-28T10:01:47.000Z</time>
      </trkpt>
      <trkpt lat="48.72247" lon="2.05593">
        <ele>116.19999694824</ele>
        <time>2015-12-28T10:01:50.000Z</time>
      </trkpt>
      <trkpt lat="48.72241" lon="2.05592">
        <ele>117.40000152588</ele>
        <time>2015-12-28T10:01:56.000Z</time>
      </trkpt>
      <trkpt lat="48.72237" lon="2.05592">
        <ele>118</ele>
        <time>2015-12-28T10:01:59.000Z</time>
      </trkpt>
      <trkpt lat="48.72232" lon="2.05592">
        <ele>118.80000305176</ele>
        <time>2015-12-28T10:02:04.000Z</time>
      </trkpt>
      <trkpt lat="48.72224" lon="2.0559">
        <ele>120.59999847412</ele>
        <time>2015-12-28T10:02:13.000Z</time>
      </trkpt>
      <trkpt lat="48.72223" lon="2.0559">
        <ele>120.80000305176</ele>
        <time>2015-12-28T10:02:14.000Z</time>
      </trkpt>
      <trkpt lat="48.72219" lon="2.05588">
        <ele>121.40000152588</ele>
        <time>2015-12-28T10:02:17.000Z</time>
      </trkpt>
      <trkpt lat="48.72215" lon="2.05586">
        <ele>122.19999694824</ele>
        <time>2015-12-28T10:02:21.000Z</time>
      </trkpt>
      <trkpt lat="48.72213" lon="2.05585">
        <ele>122.80000305176</ele>
        <time>2015-12-28T10:02:24.000Z</time>
      </trkpt>
      <trkpt lat="48.72208" lon="2.05584">
        <ele>123.59999847412</ele>
        <time>2015-12-28T10:02:28.000Z</time>
      </trkpt>
      <trkpt lat="48.72206" lon="2.05583">
        <ele>124.19999694824</ele>
        <time>2015-12-28T10:02:30.000Z</time>
      </trkpt>
      <trkpt lat="48.72203" lon="2.05583">
        <ele>124.80000305176</ele>
        <time>2015-12-28T10:02:33.000Z</time>
      </trkpt>
      <trkpt lat="48.72199" lon="2.05583">
        <ele>125.40000152588</ele>
        <time>2015-12-28T10:02:36.000Z</time>
      </trkpt>
      <trkpt lat="48.72194" lon="2.05581">
        <ele>126.40000152588</ele>
        <time>2015-12-28T10:02:40.000Z</time>
      </trkpt>
      <trkpt lat="48.72191" lon="2.0558">
        <ele>126.80000305176</ele>
        <time>2015-12-28T10:02:43.000Z</time>
      </trkpt>
      <trkpt lat="48.72189" lon="2.0558">
        <ele>127.19999694824</ele>
        <time>2015-12-28T10:02:45.000Z</time>
      </trkpt>
      <trkpt lat="48.72187" lon="2.05577">
        <ele>128</ele>
        <time>2015-12-28T10:02:49.000Z</time>
      </trkpt>
      <trkpt lat="48.72185" lon="2.05571">
        <ele>128.39999389648</ele>
        <time>2015-12-28T10:02:53.000Z</time>
      </trkpt>
      <trkpt lat="48.72185" lon="2.05567">
        <ele>128.80000305176</ele>
        <time>2015-12-28T10:02:57.000Z</time>
      </trkpt>
      <trkpt lat="48.72184" lon="2.05566">
        <ele>128.80000305176</ele>
        <time>2015-12-28T10:02:59.000Z</time>
      </trkpt>
      <trkpt lat="48.72176" lon="2.05526">
        <ele>132.19999694824</ele>
        <time>2015-12-28T10:04:02.000Z</time>
      </trkpt>
      <trkpt lat="48.72175" lon="2.05522">
        <ele>132.60000610352</ele>
        <time>2015-12-28T10:04:04.000Z</time>
      </trkpt>
      <trkpt lat="48.72174" lon="2.05501">
        <ele>134.19999694824</ele>
        <time>2015-12-28T10:04:10.000Z</time>
      </trkpt>
      <trkpt lat="48.72173" lon="2.05493">
        <ele>134.80000305176</ele>
        <time>2015-12-28T10:04:13.000Z</time>
      </trkpt>
      <trkpt lat="48.72172" lon="2.05492">
        <ele>135</ele>
        <time>2015-12-28T10:04:14.000Z</time>
      </trkpt>
      <trkpt lat="48.7217" lon="2.05477">
        <ele>138.19999694824</ele>
        <time>2015-12-28T10:04:18.000Z</time>
      </trkpt>
      <trkpt lat="48.72168" lon="2.05465">
        <ele>140.19999694824</ele>
        <time>2015-12-28T10:04:23.000Z</time>
      </trkpt>
      <trkpt lat="48.72168" lon="2.05459">
        <ele>141.39999389648</ele>
        <time>2015-12-28T10:04:27.000Z</time>
      </trkpt>
      <trkpt lat="48.72166" lon="2.05452">
        <ele>142.60000610352</ele>
        <time>2015-12-28T10:04:31.000Z</time>
      </trkpt>
      <trkpt lat="48.72166" lon="2.05446">
        <ele>143.60000610352</ele>
        <time>2015-12-28T10:04:34.000Z</time>
      </trkpt>
      <trkpt lat="48.72166" lon="2.05445">
        <ele>143.80000305176</ele>
        <time>2015-12-28T10:04:35.000Z</time>
      </trkpt>
      <trkpt lat="48.72165" lon="2.0544">
        <ele>144.60000610352</ele>
        <time>2015-12-28T10:04:38.000Z</time>
      </trkpt>
      <trkpt lat="48.72164" lon="2.05439">
        <ele>144.80000305176</ele>
        <time>2015-12-28T10:04:39.000Z</time>
      </trkpt>
      <trkpt lat="48.72163" lon="2.05434">
        <ele>145.80000305176</ele>
        <time>2015-12-28T10:04:43.000Z</time>
      </trkpt>
      <trkpt lat="48.72163" lon="2.05432">
        <ele>146.19999694824</ele>
        <time>2015-12-28T10:04:46.000Z</time>
      </trkpt>
      <trkpt lat="48.72162" lon="2.05425">
        <ele>147.19999694824</ele>
        <time>2015-12-28T10:04:49.000Z</time>
      </trkpt>
      <trkpt lat="48.7216" lon="2.05411">
        <ele>149.60000610352</ele>
        <time>2015-12-28T10:04:53.000Z</time>
      </trkpt>
      <trkpt lat="48.7216" lon="2.05408">
        <ele>150</ele>
        <time>2015-12-28T10:04:54.000Z</time>
      </trkpt>
      <trkpt lat="48.7216" lon="2.05404">
        <ele>150.39999389648</ele>
        <time>2015-12-28T10:04:56.000Z</time>
      </trkpt>
      <trkpt lat="48.72159" lon="2.05402">
        <ele>150.80000305176</ele>
        <time>2015-12-28T10:04:58.000Z</time>
      </trkpt>
      <trkpt lat="48.72158" lon="2.05388">
        <ele>152.19999694824</ele>
        <time>2015-12-28T10:05:05.000Z</time>
      </trkpt>
      <trkpt lat="48.72158" lon="2.05378">
        <ele>153.19999694824</ele>
        <time>2015-12-28T10:05:11.000Z</time>
      </trkpt>
      <trkpt lat="48.72158" lon="2.05377">
        <ele>153.39999389648</ele>
        <time>2015-12-28T10:05:12.000Z</time>
      </trkpt>
      <trkpt lat="48.72157" lon="2.0537">
        <ele>154.39999389648</ele>
        <time>2015-12-28T10:05:17.000Z</time>
      </trkpt>
      <trkpt lat="48.72157" lon="2.05369">
        <ele>154.60000610352</ele>
        <time>2015-12-28T10:05:19.000Z</time>
      </trkpt>
      <trkpt lat="48.72156" lon="2.05358">
        <ele>156.19999694824</ele>
        <time>2015-12-28T10:05:27.000Z</time>
      </trkpt>
      <trkpt lat="48.72155" lon="2.05354">
        <ele>157</ele>
        <time>2015-12-28T10:05:29.000Z</time>
      </trkpt>
      <trkpt lat="48.72154" lon="2.05343">
        <ele>158.39999389648</ele>
        <time>2015-12-28T10:05:35.000Z</time>
      </trkpt>
      <trkpt lat="48.72153" lon="2.05339">
        <ele>159.19999694824</ele>
        <time>2015-12-28T10:05:38.000Z</time>
      </trkpt>
      <trkpt lat="48.72151" lon="2.05334">
        <ele>160</ele>
        <time>2015-12-28T10:05:41.000Z</time>
      </trkpt>
      <trkpt lat="48.72151" lon="2.0533">
        <ele>160.60000610352</ele>
        <time>2015-12-28T10:05:43.000Z</time>
      </trkpt>
      <trkpt lat="48.7215" lon="2.05329">
        <ele>160.80000305176</ele>
        <time>2015-12-28T10:05:44.000Z</time>
      </trkpt>
      <trkpt lat="48.72148" lon="2.05318">
        <ele>161.60000610352</ele>
        <time>2015-12-28T10:05:50.000Z</time>
      </trkpt>
      <trkpt lat="48.72147" lon="2.05317">
        <ele>161.80000305176</ele>
        <time>2015-12-28T10:05:51.000Z</time>
      </trkpt>
      <trkpt lat="48.72144" lon="2.05319">
        <ele>161.80000305176</ele>
        <time>2015-12-28T10:05:55.000Z</time>
      </trkpt>
      <trkpt lat="48.7214" lon="2.05325">
        <ele>161.80000305176</ele>
        <time>2015-12-28T10:06:00.000Z</time>
      </trkpt>
      <trkpt lat="48.72134" lon="2.05334">
        <ele>161</ele>
        <time>2015-12-28T10:06:06.000Z</time>
      </trkpt>
      <trkpt lat="48.72133" lon="2.05335">
        <ele>161</ele>
        <time>2015-12-28T10:06:07.000Z</time>
      </trkpt>
      <trkpt lat="48.72129" lon="2.05338">
        <ele>160.80000305176</ele>
        <time>2015-12-28T10:06:10.000Z</time>
      </trkpt>
      <trkpt lat="48.72125" lon="2.0534">
        <ele>160.80000305176</ele>
        <time>2015-12-28T10:06:13.000Z</time>
      </trkpt>
      <trkpt lat="48.72124" lon="2.0534">
        <ele>160.80000305176</ele>
        <time>2015-12-28T10:06:14.000Z</time>
      </trkpt>
      <trkpt lat="48.72121" lon="2.05341">
        <ele>160.80000305176</ele>
        <time>2015-12-28T10:06:17.000Z</time>
      </trkpt>
      <trkpt lat="48.72116" lon="2.0534">
        <ele>161.39999389648</ele>
        <time>2015-12-28T10:06:22.000Z</time>
      </trkpt>
      <trkpt lat="48.72114" lon="2.05339">
        <ele>161.60000610352</ele>
        <time>2015-12-28T10:06:24.000Z</time>
      </trkpt>
      <trkpt lat="48.72109" lon="2.0534">
        <ele>162</ele>
        <time>2015-12-28T10:06:28.000Z</time>
      </trkpt>
      <trkpt lat="48.72107" lon="2.05339">
        <ele>162.39999389648</ele>
        <time>2015-12-28T10:06:30.000Z</time>
      </trkpt>
      <trkpt lat="48.72103" lon="2.05338">
        <ele>162.80000305176</ele>
        <time>2015-12-28T10:06:33.000Z</time>
      </trkpt>
      <trkpt lat="48.721" lon="2.05339">
        <ele>162.80000305176</ele>
        <time>2015-12-28T10:06:35.000Z</time>
      </trkpt>
      <trkpt lat="48.72092" lon="2.05338">
        <ele>162.60000610352</ele>
        <time>2015-12-28T10:06:41.000Z</time>
      </trkpt>
      <trkpt lat="48.72084" lon="2.05337">
        <ele>162.60000610352</ele>
        <time>2015-12-28T10:06:47.000Z</time>
      </trkpt>
      <trkpt lat="48.72073" lon="2.05337">
        <ele>162.60000610352</ele>
        <time>2015-12-28T10:06:54.000Z</time>
      </trkpt>
      <trkpt lat="48.72065" lon="2.05337">
        <ele>162.39999389648</ele>
        <time>2015-12-28T10:06:59.000Z</time>
      </trkpt>
      <trkpt lat="48.72062" lon="2.05337">
        <ele>162.39999389648</ele>
        <time>2015-12-28T10:07:01.000Z</time>
      </trkpt>
      <trkpt lat="48.72054" lon="2.0534">
        <ele>162</ele>
        <time>2015-12-28T10:07:05.000Z</time>
      </trkpt>
      <trkpt lat="48.72047" lon="2.05339">
        <ele>162</ele>
        <time>2015-12-28T10:07:10.000Z</time>
      </trkpt>
      <trkpt lat="48.72036" lon="2.05338">
        <ele>162</ele>
        <time>2015-12-28T10:07:17.000Z</time>
      </trkpt>
      <trkpt lat="48.7203" lon="2.05338">
        <ele>162</ele>
        <time>2015-12-28T10:07:21.000Z</time>
      </trkpt>
      <trkpt lat="48.72027" lon="2.05337">
        <ele>162.19999694824</ele>
        <time>2015-12-28T10:07:23.000Z</time>
      </trkpt>
      <trkpt lat="48.72024" lon="2.05338">
        <ele>162.19999694824</ele>
        <time>2015-12-28T10:07:24.000Z</time>
      </trkpt>
      <trkpt lat="48.72019" lon="2.05338">
        <ele>162.19999694824</ele>
        <time>2015-12-28T10:07:27.000Z</time>
      </trkpt>
      <trkpt lat="48.72014" lon="2.05337">
        <ele>162</ele>
        <time>2015-12-28T10:07:30.000Z</time>
      </trkpt>
      <trkpt lat="48.72006" lon="2.05336">
        <ele>161.80000305176</ele>
        <time>2015-12-28T10:07:35.000Z</time>
      </trkpt>
      <trkpt lat="48.71998" lon="2.05336">
        <ele>161.39999389648</ele>
        <time>2015-12-28T10:07:41.000Z</time>
      </trkpt>
      <trkpt lat="48.7199" lon="2.05331">
        <ele>161.60000610352</ele>
        <time>2015-12-28T10:07:47.000Z</time>
      </trkpt>
      <trkpt lat="48.71981" lon="2.0532">
        <ele>161.60000610352</ele>
        <time>2015-12-28T10:07:55.000Z</time>
      </trkpt>
      <trkpt lat="48.71978" lon="2.05316">
        <ele>161.60000610352</ele>
        <time>2015-12-28T10:07:58.000Z</time>
      </trkpt>
      <trkpt lat="48.71974" lon="2.05309">
        <ele>161.60000610352</ele>
        <time>2015-12-28T10:08:02.000Z</time>
      </trkpt>
      <trkpt lat="48.71969" lon="2.05303">
        <ele>161.39999389648</ele>
        <time>2015-12-28T10:08:07.000Z</time>
      </trkpt>
      <trkpt lat="48.71967" lon="2.05301">
        <ele>161.39999389648</ele>
        <time>2015-12-28T10:08:08.000Z</time>
      </trkpt>
      <trkpt lat="48.7196" lon="2.0529">
        <ele>161.19999694824</ele>
        <time>2015-12-28T10:08:14.000Z</time>
      </trkpt>
      <trkpt lat="48.71957" lon="2.05287">
        <ele>161.19999694824</ele>
        <time>2015-12-28T10:08:16.000Z</time>
      </trkpt>
      <trkpt lat="48.71946" lon="2.05277">
        <ele>161</ele>
        <time>2015-12-28T10:08:24.000Z</time>
      </trkpt>
      <trkpt lat="48.7194" lon="2.05276">
        <ele>160.80000305176</ele>
        <time>2015-12-28T10:08:28.000Z</time>
      </trkpt>
      <trkpt lat="48.71934" lon="2.05276">
        <ele>160.80000305176</ele>
        <time>2015-12-28T10:08:32.000Z</time>
      </trkpt>
      <trkpt lat="48.7192" lon="2.05274">
        <ele>161.39999389648</ele>
        <time>2015-12-28T10:08:41.000Z</time>
      </trkpt>
      <trkpt lat="48.7191" lon="2.05274">
        <ele>162</ele>
        <time>2015-12-28T10:08:48.000Z</time>
      </trkpt>
      <trkpt lat="48.719" lon="2.05272">
        <ele>162.39999389648</ele>
        <time>2015-12-28T10:08:55.000Z</time>
      </trkpt>
      <trkpt lat="48.71897" lon="2.05271">
        <ele>162.60000610352</ele>
        <time>2015-12-28T10:08:57.000Z</time>
      </trkpt>
      <trkpt lat="48.71893" lon="2.0527">
        <ele>162.80000305176</ele>
        <time>2015-12-28T10:09:00.000Z</time>
      </trkpt>
      <trkpt lat="48.71891" lon="2.05269">
        <ele>162.80000305176</ele>
        <time>2015-12-28T10:09:01.000Z</time>
      </trkpt>
      <trkpt lat="48.71886" lon="2.05266">
        <ele>163.19999694824</ele>
        <time>2015-12-28T10:09:05.000Z</time>
      </trkpt>
      <trkpt lat="48.71876" lon="2.05264">
        <ele>163.60000610352</ele>
        <time>2015-12-28T10:09:11.000Z</time>
      </trkpt>
      <trkpt lat="48.71875" lon="2.05263">
        <ele>163.80000305176</ele>
        <time>2015-12-28T10:09:12.000Z</time>
      </trkpt>
      <trkpt lat="48.71871" lon="2.05261">
        <ele>163.80000305176</ele>
        <time>2015-12-28T10:09:15.000Z</time>
      </trkpt>
      <trkpt lat="48.71869" lon="2.05261">
        <ele>164</ele>
        <time>2015-12-28T10:09:16.000Z</time>
      </trkpt>
      <trkpt lat="48.7186" lon="2.0526">
        <ele>164</ele>
        <time>2015-12-28T10:09:22.000Z</time>
      </trkpt>
      <trkpt lat="48.71849" lon="2.05254">
        <ele>164.19999694824</ele>
        <time>2015-12-28T10:09:30.000Z</time>
      </trkpt>
      <trkpt lat="48.71837" lon="2.0525">
        <ele>163.39999389648</ele>
        <time>2015-12-28T10:09:38.000Z</time>
      </trkpt>
      <trkpt lat="48.7182" lon="2.05254">
        <ele>162</ele>
        <time>2015-12-28T10:09:47.000Z</time>
      </trkpt>
      <trkpt lat="48.71816" lon="2.05255">
        <ele>161.60000610352</ele>
        <time>2015-12-28T10:09:50.000Z</time>
      </trkpt>
      <trkpt lat="48.71806" lon="2.05255">
        <ele>161</ele>
        <time>2015-12-28T10:09:57.000Z</time>
      </trkpt>
      <trkpt lat="48.71793" lon="2.05255">
        <ele>160</ele>
        <time>2015-12-28T10:10:06.000Z</time>
      </trkpt>
      <trkpt lat="48.7179" lon="2.05255">
        <ele>159.80000305176</ele>
        <time>2015-12-28T10:10:08.000Z</time>
      </trkpt>
      <trkpt lat="48.71785" lon="2.05254">
        <ele>159.39999389648</ele>
        <time>2015-12-28T10:10:11.000Z</time>
      </trkpt>
      <trkpt lat="48.71776" lon="2.05254">
        <ele>158.60000610352</ele>
        <time>2015-12-28T10:10:16.000Z</time>
      </trkpt>
      <trkpt lat="48.71775" lon="2.05255">
        <ele>158.39999389648</ele>
        <time>2015-12-28T10:10:17.000Z</time>
      </trkpt>
      <trkpt lat="48.71768" lon="2.05255">
        <ele>157.80000305176</ele>
        <time>2015-12-28T10:10:22.000Z</time>
      </trkpt>
      <trkpt lat="48.71765" lon="2.05257">
        <ele>157.80000305176</ele>
        <time>2015-12-28T10:10:24.000Z</time>
      </trkpt>
      <trkpt lat="48.71759" lon="2.05256">
        <ele>158.19999694824</ele>
        <time>2015-12-28T10:10:28.000Z</time>
      </trkpt>
      <trkpt lat="48.71758" lon="2.05257">
        <ele>158.19999694824</ele>
        <time>2015-12-28T10:10:29.000Z</time>
      </trkpt>
      <trkpt lat="48.71747" lon="2.05259">
        <ele>158.60000610352</ele>
        <time>2015-12-28T10:10:35.000Z</time>
      </trkpt>
      <trkpt lat="48.71737" lon="2.05265">
        <ele>158.39999389648</ele>
        <time>2015-12-28T10:10:42.000Z</time>
      </trkpt>
      <trkpt lat="48.71726" lon="2.0527">
        <ele>158.60000610352</ele>
        <time>2015-12-28T10:10:49.000Z</time>
      </trkpt>
      <trkpt lat="48.71714" lon="2.05271">
        <ele>159</ele>
        <time>2015-12-28T10:10:57.000Z</time>
      </trkpt>
      <trkpt lat="48.71703" lon="2.0527">
        <ele>160</ele>
        <time>2015-12-28T10:11:05.000Z</time>
      </trkpt>
      <trkpt lat="48.7169" lon="2.05271">
        <ele>161</ele>
        <time>2015-12-28T10:11:14.000Z</time>
      </trkpt>
      <trkpt lat="48.71682" lon="2.05271">
        <ele>161.60000610352</ele>
        <time>2015-12-28T10:11:20.000Z</time>
      </trkpt>
      <trkpt lat="48.71674" lon="2.05273">
        <ele>162</ele>
        <time>2015-12-28T10:11:26.000Z</time>
      </trkpt>
      <trkpt lat="48.7167" lon="2.05276">
        <ele>162</ele>
        <time>2015-12-28T10:11:29.000Z</time>
      </trkpt>
      <trkpt lat="48.71667" lon="2.05277">
        <ele>162</ele>
        <time>2015-12-28T10:11:31.000Z</time>
      </trkpt>
      <trkpt lat="48.71664" lon="2.05279">
        <ele>162.19999694824</ele>
        <time>2015-12-28T10:11:33.000Z</time>
      </trkpt>
      <trkpt lat="48.71657" lon="2.05284">
        <ele>162.39999389648</ele>
        <time>2015-12-28T10:11:38.000Z</time>
      </trkpt>
      <trkpt lat="48.71648" lon="2.05289">
        <ele>162.80000305176</ele>
        <time>2015-12-28T10:11:45.000Z</time>
      </trkpt>
      <trkpt lat="48.71639" lon="2.05294">
        <ele>164.39999389648</ele>
        <time>2015-12-28T10:11:51.000Z</time>
      </trkpt>
      <trkpt lat="48.7163" lon="2.053">
        <ele>166</ele>
        <time>2015-12-28T10:11:58.000Z</time>
      </trkpt>
      <trkpt lat="48.71627" lon="2.05304">
        <ele>166.60000610352</ele>
        <time>2015-12-28T10:12:01.000Z</time>
      </trkpt>
      <trkpt lat="48.71625" lon="2.05307">
        <ele>167</ele>
        <time>2015-12-28T10:12:03.000Z</time>
      </trkpt>
      <trkpt lat="48.71618" lon="2.05313">
        <ele>168.19999694824</ele>
        <time>2015-12-28T10:12:08.000Z</time>
      </trkpt>
      <trkpt lat="48.71611" lon="2.0532">
        <ele>169.60000610352</ele>
        <time>2015-12-28T10:12:14.000Z</time>
      </trkpt>
      <trkpt lat="48.71608" lon="2.05322">
        <ele>170.19999694824</ele>
        <time>2015-12-28T10:12:16.000Z</time>
      </trkpt>
      <trkpt lat="48.716" lon="2.05328">
        <ele>171</ele>
        <time>2015-12-28T10:12:22.000Z</time>
      </trkpt>
      <trkpt lat="48.71591" lon="2.05337">
        <ele>170.60000610352</ele>
        <time>2015-12-28T10:12:29.000Z</time>
      </trkpt>
      <trkpt lat="48.71586" lon="2.05341">
        <ele>170.39999389648</ele>
        <time>2015-12-28T10:12:33.000Z</time>
      </trkpt>
      <trkpt lat="48.71584" lon="2.05343">
        <ele>170.39999389648</ele>
        <time>2015-12-28T10:12:35.000Z</time>
      </trkpt>
      <trkpt lat="48.71577" lon="2.05347">
        <ele>170.19999694824</ele>
        <time>2015-12-28T10:12:40.000Z</time>
      </trkpt>
      <trkpt lat="48.71575" lon="2.05347">
        <ele>170.19999694824</ele>
        <time>2015-12-28T10:12:42.000Z</time>
      </trkpt>
      <trkpt lat="48.71574" lon="2.05348">
        <ele>170.19999694824</ele>
        <time>2015-12-28T10:12:43.000Z</time>
      </trkpt>
      <trkpt lat="48.71567" lon="2.05353">
        <ele>170</ele>
        <time>2015-12-28T10:12:48.000Z</time>
      </trkpt>
      <trkpt lat="48.71558" lon="2.05357">
        <ele>169.80000305176</ele>
        <time>2015-12-28T10:12:54.000Z</time>
      </trkpt>
      <trkpt lat="48.71555" lon="2.05359">
        <ele>169.80000305176</ele>
        <time>2015-12-28T10:12:56.000Z</time>
      </trkpt>
      <trkpt lat="48.71551" lon="2.0536">
        <ele>170</ele>
        <time>2015-12-28T10:12:59.000Z</time>
      </trkpt>
      <trkpt lat="48.71544" lon="2.05362">
        <ele>170.60000610352</ele>
        <time>2015-12-28T10:13:05.000Z</time>
      </trkpt>
      <trkpt lat="48.71537" lon="2.05364">
        <ele>171.19999694824</ele>
        <time>2015-12-28T10:13:11.000Z</time>
      </trkpt>
      <trkpt lat="48.71533" lon="2.05366">
        <ele>171.60000610352</ele>
        <time>2015-12-28T10:13:14.000Z</time>
      </trkpt>
      <trkpt lat="48.71532" lon="2.05366">
        <ele>171.60000610352</ele>
        <time>2015-12-28T10:13:15.000Z</time>
      </trkpt>
      <trkpt lat="48.71523" lon="2.05368">
        <ele>172.39999389648</ele>
        <time>2015-12-28T10:13:22.000Z</time>
      </trkpt>
      <trkpt lat="48.71516" lon="2.05367">
        <ele>172.60000610352</ele>
        <time>2015-12-28T10:13:27.000Z</time>
      </trkpt>
      <trkpt lat="48.71515" lon="2.05367">
        <ele>172.60000610352</ele>
        <time>2015-12-28T10:13:28.000Z</time>
      </trkpt>
      <trkpt lat="48.71501" lon="2.05367">
        <ele>172.60000610352</ele>
        <time>2015-12-28T10:13:37.000Z</time>
      </trkpt>
      <trkpt lat="48.7149" lon="2.05367">
        <ele>172.80000305176</ele>
        <time>2015-12-28T10:13:44.000Z</time>
      </trkpt>
      <trkpt lat="48.71484" lon="2.05367">
        <ele>173</ele>
        <time>2015-12-28T10:13:48.000Z</time>
      </trkpt>
      <trkpt lat="48.71483" lon="2.05367">
        <ele>173</ele>
        <time>2015-12-28T10:13:49.000Z</time>
      </trkpt>
      <trkpt lat="48.71482" lon="2.05368">
        <ele>173</ele>
        <time>2015-12-28T10:13:50.000Z</time>
      </trkpt>
      <trkpt lat="48.71479" lon="2.05368">
        <ele>173</ele>
        <time>2015-12-28T10:13:52.000Z</time>
      </trkpt>
      <trkpt lat="48.71476" lon="2.05367">
        <ele>173</ele>
        <time>2015-12-28T10:13:54.000Z</time>
      </trkpt>
      <trkpt lat="48.71474" lon="2.05367">
        <ele>173</ele>
        <time>2015-12-28T10:13:56.000Z</time>
      </trkpt>
      <trkpt lat="48.71467" lon="2.05367">
        <ele>173.19999694824</ele>
        <time>2015-12-28T10:14:01.000Z</time>
      </trkpt>
      <trkpt lat="48.71462" lon="2.05366">
        <ele>173.19999694824</ele>
        <time>2015-12-28T10:14:04.000Z</time>
      </trkpt>
      <trkpt lat="48.71458" lon="2.05364">
        <ele>173.19999694824</ele>
        <time>2015-12-28T10:14:07.000Z</time>
      </trkpt>
      <trkpt lat="48.71453" lon="2.05363">
        <ele>173.19999694824</ele>
        <time>2015-12-28T10:14:10.000Z</time>
      </trkpt>
      <trkpt lat="48.71449" lon="2.05361">
        <ele>173.19999694824</ele>
        <time>2015-12-28T10:14:13.000Z</time>
      </trkpt>
      <trkpt lat="48.71436" lon="2.05355">
        <ele>173</ele>
        <time>2015-12-28T10:14:22.000Z</time>
      </trkpt>
      <trkpt lat="48.71428" lon="2.05352">
        <ele>172.80000305176</ele>
        <time>2015-12-28T10:14:28.000Z</time>
      </trkpt>
      <trkpt lat="48.71419" lon="2.05348">
        <ele>172.60000610352</ele>
        <time>2015-12-28T10:14:34.000Z</time>
      </trkpt>
      <trkpt lat="48.71408" lon="2.05344">
        <ele>172.39999389648</ele>
        <time>2015-12-28T10:14:42.000Z</time>
      </trkpt>
      <trkpt lat="48.714" lon="2.05342">
        <ele>172.19999694824</ele>
        <time>2015-12-28T10:14:48.000Z</time>
      </trkpt>
      <trkpt lat="48.71392" lon="2.05337">
        <ele>171.80000305176</ele>
        <time>2015-12-28T10:14:54.000Z</time>
      </trkpt>
      <trkpt lat="48.71382" lon="2.05332">
        <ele>171.60000610352</ele>
        <time>2015-12-28T10:15:01.000Z</time>
      </trkpt>
      <trkpt lat="48.71374" lon="2.05329">
        <ele>171.39999389648</ele>
        <time>2015-12-28T10:15:07.000Z</time>
      </trkpt>
      <trkpt lat="48.71363" lon="2.05325">
        <ele>171</ele>
        <time>2015-12-28T10:15:15.000Z</time>
      </trkpt>
      <trkpt lat="48.71354" lon="2.05323">
        <ele>170.80000305176</ele>
        <time>2015-12-28T10:15:22.000Z</time>
      </trkpt>
      <trkpt lat="48.71344" lon="2.05318">
        <ele>171.39999389648</ele>
        <time>2015-12-28T10:15:29.000Z</time>
      </trkpt>
      <trkpt lat="48.71333" lon="2.05314">
        <ele>171.60000610352</ele>
        <time>2015-12-28T10:15:37.000Z</time>
      </trkpt>
      <trkpt lat="48.71323" lon="2.05311">
        <ele>172</ele>
        <time>2015-12-28T10:15:43.000Z</time>
      </trkpt>
      <trkpt lat="48.71316" lon="2.05304">
        <ele>172.19999694824</ele>
        <time>2015-12-28T10:15:49.000Z</time>
      </trkpt>
      <trkpt lat="48.71306" lon="2.05294">
        <ele>172.60000610352</ele>
        <time>2015-12-28T10:15:57.000Z</time>
      </trkpt>
      <trkpt lat="48.71296" lon="2.0528">
        <ele>173</ele>
        <time>2015-12-28T10:16:06.000Z</time>
      </trkpt>
      <trkpt lat="48.71288" lon="2.05261">
        <ele>173.39999389648</ele>
        <time>2015-12-28T10:16:16.000Z</time>
      </trkpt>
      <trkpt lat="48.71282" lon="2.05243">
        <ele>173.19999694824</ele>
        <time>2015-12-28T10:16:24.000Z</time>
      </trkpt>
      <trkpt lat="48.71277" lon="2.05227">
        <ele>173.19999694824</ele>
        <time>2015-12-28T10:16:32.000Z</time>
      </trkpt>
      <trkpt lat="48.71273" lon="2.05211">
        <ele>173.39999389648</ele>
        <time>2015-12-28T10:16:40.000Z</time>
      </trkpt>
      <trkpt lat="48.71267" lon="2.05194">
        <ele>173.39999389648</ele>
        <time>2015-12-28T10:16:48.000Z</time>
      </trkpt>
      <trkpt lat="48.71263" lon="2.0518">
        <ele>173</ele>
        <time>2015-12-28T10:16:55.000Z</time>
      </trkpt>
      <trkpt lat="48.7126" lon="2.05173">
        <ele>173</ele>
        <time>2015-12-28T10:16:59.000Z</time>
      </trkpt>
      <trkpt lat="48.71259" lon="2.05171">
        <ele>172.80000305176</ele>
        <time>2015-12-28T10:17:00.000Z</time>
      </trkpt>
      <trkpt lat="48.71253" lon="2.05162">
        <ele>172.60000610352</ele>
        <time>2015-12-28T10:17:06.000Z</time>
      </trkpt>
      <trkpt lat="48.71248" lon="2.05146">
        <ele>172.80000305176</ele>
        <time>2015-12-28T10:17:13.000Z</time>
      </trkpt>
      <trkpt lat="48.71242" lon="2.05129">
        <ele>173</ele>
        <time>2015-12-28T10:17:21.000Z</time>
      </trkpt>
      <trkpt lat="48.71238" lon="2.05116">
        <ele>172.60000610352</ele>
        <time>2015-12-28T10:17:27.000Z</time>
      </trkpt>
      <trkpt lat="48.7123" lon="2.05096">
        <ele>171.80000305176</ele>
        <time>2015-12-28T10:17:37.000Z</time>
      </trkpt>
      <trkpt lat="48.71227" lon="2.05086">
        <ele>171.60000610352</ele>
        <time>2015-12-28T10:17:42.000Z</time>
      </trkpt>
      <trkpt lat="48.71226" lon="2.05082">
        <ele>171.39999389648</ele>
        <time>2015-12-28T10:17:44.000Z</time>
      </trkpt>
      <trkpt lat="48.71221" lon="2.05062">
        <ele>171</ele>
        <time>2015-12-28T10:17:53.000Z</time>
      </trkpt>
      <trkpt lat="48.71218" lon="2.05049">
        <ele>170.80000305176</ele>
        <time>2015-12-28T10:17:59.000Z</time>
      </trkpt>
      <trkpt lat="48.71214" lon="2.05033">
        <ele>170.60000610352</ele>
        <time>2015-12-28T10:18:06.000Z</time>
      </trkpt>
      <trkpt lat="48.71209" lon="2.05015">
        <ele>170.39999389648</ele>
        <time>2015-12-28T10:18:14.000Z</time>
      </trkpt>
      <trkpt lat="48.71204" lon="2.04999">
        <ele>170.19999694824</ele>
        <time>2015-12-28T10:18:21.000Z</time>
      </trkpt>
      <trkpt lat="48.712" lon="2.04987">
        <ele>170.19999694824</ele>
        <time>2015-12-28T10:18:27.000Z</time>
      </trkpt>
      <trkpt lat="48.71196" lon="2.0497">
        <ele>170.80000305176</ele>
        <time>2015-12-28T10:18:35.000Z</time>
      </trkpt>
      <trkpt lat="48.71195" lon="2.04969">
        <ele>170.80000305176</ele>
        <time>2015-12-28T10:18:36.000Z</time>
      </trkpt>
      <trkpt lat="48.71192" lon="2.04962">
        <ele>171</ele>
        <time>2015-12-28T10:18:40.000Z</time>
      </trkpt>
      <trkpt lat="48.71187" lon="2.04949">
        <ele>171.60000610352</ele>
        <time>2015-12-28T10:18:47.000Z</time>
      </trkpt>
      <trkpt lat="48.71183" lon="2.04941">
        <ele>171.39999389648</ele>
        <time>2015-12-28T10:18:52.000Z</time>
      </trkpt>
      <trkpt lat="48.71182" lon="2.04936">
        <ele>171.39999389648</ele>
        <time>2015-12-28T10:18:54.000Z</time>
      </trkpt>
      <trkpt lat="48.71181" lon="2.04924">
        <ele>171.39999389648</ele>
        <time>2015-12-28T10:18:59.000Z</time>
      </trkpt>
      <trkpt lat="48.71181" lon="2.04922">
        <ele>171.39999389648</ele>
        <time>2015-12-28T10:19:00.000Z</time>
      </trkpt>
      <trkpt lat="48.7118" lon="2.0491">
        <ele>171.60000610352</ele>
        <time>2015-12-28T10:19:06.000Z</time>
      </trkpt>
      <trkpt lat="48.7118" lon="2.04908">
        <ele>171.60000610352</ele>
        <time>2015-12-28T10:19:07.000Z</time>
      </trkpt>
      <trkpt lat="48.7118" lon="2.04901">
        <ele>171.39999389648</ele>
        <time>2015-12-28T10:19:10.000Z</time>
      </trkpt>
      <trkpt lat="48.7118" lon="2.04896">
        <ele>171.39999389648</ele>
        <time>2015-12-28T10:19:12.000Z</time>
      </trkpt>
      <trkpt lat="48.71179" lon="2.04886">
        <ele>171.19999694824</ele>
        <time>2015-12-28T10:19:16.000Z</time>
      </trkpt>
      <trkpt lat="48.71178" lon="2.04881">
        <ele>171.19999694824</ele>
        <time>2015-12-28T10:19:18.000Z</time>
      </trkpt>
      <trkpt lat="48.71177" lon="2.04864">
        <ele>171</ele>
        <time>2015-12-28T10:19:25.000Z</time>
      </trkpt>
      <trkpt lat="48.71177" lon="2.0486">
        <ele>171</ele>
        <time>2015-12-28T10:19:27.000Z</time>
      </trkpt>
      <trkpt lat="48.71176" lon="2.04853">
        <ele>171</ele>
        <time>2015-12-28T10:19:30.000Z</time>
      </trkpt>
      <trkpt lat="48.71175" lon="2.04834">
        <ele>170.80000305176</ele>
        <time>2015-12-28T10:19:38.000Z</time>
      </trkpt>
      <trkpt lat="48.71175" lon="2.04828">
        <ele>170.80000305176</ele>
        <time>2015-12-28T10:19:41.000Z</time>
      </trkpt>
      <trkpt lat="48.71174" lon="2.04823">
        <ele>170.80000305176</ele>
        <time>2015-12-28T10:19:43.000Z</time>
      </trkpt>
      <trkpt lat="48.71173" lon="2.04811">
        <ele>170.80000305176</ele>
        <time>2015-12-28T10:19:48.000Z</time>
      </trkpt>
      <trkpt lat="48.71173" lon="2.04805">
        <ele>170.80000305176</ele>
        <time>2015-12-28T10:19:51.000Z</time>
      </trkpt>
      <trkpt lat="48.71172" lon="2.04794">
        <ele>170.80000305176</ele>
        <time>2015-12-28T10:19:56.000Z</time>
      </trkpt>
      <trkpt lat="48.71171" lon="2.04789">
        <ele>170.60000610352</ele>
        <time>2015-12-28T10:19:58.000Z</time>
      </trkpt>
      <trkpt lat="48.7117" lon="2.04777">
        <ele>170.60000610352</ele>
        <time>2015-12-28T10:20:04.000Z</time>
      </trkpt>
      <trkpt lat="48.7117" lon="2.04769">
        <ele>170.60000610352</ele>
        <time>2015-12-28T10:20:08.000Z</time>
      </trkpt>
      <trkpt lat="48.7117" lon="2.04767">
        <ele>170.60000610352</ele>
        <time>2015-12-28T10:20:09.000Z</time>
      </trkpt>
      <trkpt lat="48.71172" lon="2.04754">
        <ele>170.80000305176</ele>
        <time>2015-12-28T10:20:15.000Z</time>
      </trkpt>
      <trkpt lat="48.71172" lon="2.04738">
        <ele>170.60000610352</ele>
        <time>2015-12-28T10:20:22.000Z</time>
      </trkpt>
      <trkpt lat="48.71171" lon="2.04734">
        <ele>170.19999694824</ele>
        <time>2015-12-28T10:20:24.000Z</time>
      </trkpt>
      <trkpt lat="48.7117" lon="2.04732">
        <ele>170.19999694824</ele>
        <time>2015-12-28T10:20:25.000Z</time>
      </trkpt>
      <trkpt lat="48.71168" lon="2.04729">
        <ele>169.80000305176</ele>
        <time>2015-12-28T10:20:27.000Z</time>
      </trkpt>
      <trkpt lat="48.71164" lon="2.04716">
        <ele>168.80000305176</ele>
        <time>2015-12-28T10:20:34.000Z</time>
      </trkpt>
      <trkpt lat="48.7116" lon="2.04703">
        <ele>167.80000305176</ele>
        <time>2015-12-28T10:20:41.000Z</time>
      </trkpt>
      <trkpt lat="48.71158" lon="2.04693">
        <ele>167</ele>
        <time>2015-12-28T10:20:46.000Z</time>
      </trkpt>
      <trkpt lat="48.71157" lon="2.04686">
        <ele>166.39999389648</ele>
        <time>2015-12-28T10:20:49.000Z</time>
      </trkpt>
      <trkpt lat="48.71155" lon="2.04667">
        <ele>165.19999694824</ele>
        <time>2015-12-28T10:20:57.000Z</time>
      </trkpt>
      <trkpt lat="48.71155" lon="2.04662">
        <ele>164.80000305176</ele>
        <time>2015-12-28T10:20:59.000Z</time>
      </trkpt>
      <trkpt lat="48.71155" lon="2.04655">
        <ele>164.39999389648</ele>
        <time>2015-12-28T10:21:02.000Z</time>
      </trkpt>
      <trkpt lat="48.71155" lon="2.04651">
        <ele>164</ele>
        <time>2015-12-28T10:21:04.000Z</time>
      </trkpt>
      <trkpt lat="48.71155" lon="2.04648">
        <ele>163.60000610352</ele>
        <time>2015-12-28T10:21:05.000Z</time>
      </trkpt>
      <trkpt lat="48.71155" lon="2.04639">
        <ele>162.80000305176</ele>
        <time>2015-12-28T10:21:09.000Z</time>
      </trkpt>
      <trkpt lat="48.71156" lon="2.04622">
        <ele>161.39999389648</ele>
        <time>2015-12-28T10:21:16.000Z</time>
      </trkpt>
      <trkpt lat="48.71156" lon="2.04604">
        <ele>159.80000305176</ele>
        <time>2015-12-28T10:21:23.000Z</time>
      </trkpt>
      <trkpt lat="48.71157" lon="2.04578">
        <ele>157.80000305176</ele>
        <time>2015-12-28T10:21:34.000Z</time>
      </trkpt>
      <trkpt lat="48.71158" lon="2.04555">
        <ele>157</ele>
        <time>2015-12-28T10:21:44.000Z</time>
      </trkpt>
      <trkpt lat="48.71159" lon="2.0454">
        <ele>156.80000305176</ele>
        <time>2015-12-28T10:21:50.000Z</time>
      </trkpt>
      <trkpt lat="48.71159" lon="2.04522">
        <ele>156.60000610352</ele>
        <time>2015-12-28T10:21:58.000Z</time>
      </trkpt>
      <trkpt lat="48.71161" lon="2.045">
        <ele>156.60000610352</ele>
        <time>2015-12-28T10:22:08.000Z</time>
      </trkpt>
      <trkpt lat="48.71161" lon="2.04477">
        <ele>156.19999694824</ele>
        <time>2015-12-28T10:22:18.000Z</time>
      </trkpt>
      <trkpt lat="48.71161" lon="2.04466">
        <ele>156</ele>
        <time>2015-12-28T10:22:23.000Z</time>
      </trkpt>
      <trkpt lat="48.71161" lon="2.04462">
        <ele>156</ele>
        <time>2015-12-28T10:22:25.000Z</time>
      </trkpt>
      <trkpt lat="48.71161" lon="2.04447">
        <ele>156</ele>
        <time>2015-12-28T10:22:32.000Z</time>
      </trkpt>
      <trkpt lat="48.71162" lon="2.0443">
        <ele>156</ele>
        <time>2015-12-28T10:22:40.000Z</time>
      </trkpt>
      <trkpt lat="48.71163" lon="2.04415">
        <ele>156</ele>
        <time>2015-12-28T10:22:47.000Z</time>
      </trkpt>
      <trkpt lat="48.71163" lon="2.04399">
        <ele>156.60000610352</ele>
        <time>2015-12-28T10:22:54.000Z</time>
      </trkpt>
      <trkpt lat="48.71164" lon="2.04375">
        <ele>157</ele>
        <time>2015-12-28T10:23:05.000Z</time>
      </trkpt>
      <trkpt lat="48.71166" lon="2.04355">
        <ele>156.80000305176</ele>
        <time>2015-12-28T10:23:14.000Z</time>
      </trkpt>
      <trkpt lat="48.71164" lon="2.04332">
        <ele>156.39999389648</ele>
        <time>2015-12-28T10:23:24.000Z</time>
      </trkpt>
      <trkpt lat="48.71161" lon="2.0432">
        <ele>156.19999694824</ele>
        <time>2015-12-28T10:23:30.000Z</time>
      </trkpt>
      <trkpt lat="48.71158" lon="2.04311">
        <ele>156.39999389648</ele>
        <time>2015-12-28T10:23:36.000Z</time>
      </trkpt>
      <trkpt lat="48.71156" lon="2.0431">
        <ele>156.39999389648</ele>
        <time>2015-12-28T10:23:40.000Z</time>
      </trkpt>
      <trkpt lat="48.71144" lon="2.04326">
        <ele>155</ele>
        <time>2015-12-28T10:24:06.000Z</time>
      </trkpt>
      <trkpt lat="48.71138" lon="2.04342">
        <ele>154.60000610352</ele>
        <time>2015-12-28T10:24:15.000Z</time>
      </trkpt>
      <trkpt lat="48.71131" lon="2.04358">
        <ele>154</ele>
        <time>2015-12-28T10:24:25.000Z</time>
      </trkpt>
      <trkpt lat="48.71121" lon="2.04375">
        <ele>152.39999389648</ele>
        <time>2015-12-28T10:24:36.000Z</time>
      </trkpt>
      <trkpt lat="48.71113" lon="2.04391">
        <ele>150.80000305176</ele>
        <time>2015-12-28T10:24:46.000Z</time>
      </trkpt>
      <trkpt lat="48.71107" lon="2.04401">
        <ele>149.60000610352</ele>
        <time>2015-12-28T10:24:53.000Z</time>
      </trkpt>
      <trkpt lat="48.711" lon="2.04416">
        <ele>148.39999389648</ele>
        <time>2015-12-28T10:25:02.000Z</time>
      </trkpt>
      <trkpt lat="48.71093" lon="2.04432">
        <ele>147.19999694824</ele>
        <time>2015-12-28T10:25:12.000Z</time>
      </trkpt>
      <trkpt lat="48.71086" lon="2.04445">
        <ele>146.19999694824</ele>
        <time>2015-12-28T10:25:20.000Z</time>
      </trkpt>
      <trkpt lat="48.7108" lon="2.04456">
        <ele>145</ele>
        <time>2015-12-28T10:25:27.000Z</time>
      </trkpt>
      <trkpt lat="48.71075" lon="2.04463">
        <ele>144</ele>
        <time>2015-12-28T10:25:32.000Z</time>
      </trkpt>
      <trkpt lat="48.71073" lon="2.04464">
        <ele>143.80000305176</ele>
        <time>2015-12-28T10:25:33.000Z</time>
      </trkpt>
      <trkpt lat="48.71064" lon="2.04473">
        <ele>141.39999389648</ele>
        <time>2015-12-28T10:25:41.000Z</time>
      </trkpt>
      <trkpt lat="48.71057" lon="2.0448">
        <ele>139.60000610352</ele>
        <time>2015-12-28T10:25:48.000Z</time>
      </trkpt>
      <trkpt lat="48.7105" lon="2.04488">
        <ele>137.60000610352</ele>
        <time>2015-12-28T10:25:54.000Z</time>
      </trkpt>
      <trkpt lat="48.71039" lon="2.04498">
        <ele>135</ele>
        <time>2015-12-28T10:26:03.000Z</time>
      </trkpt>
      <trkpt lat="48.7103" lon="2.04508">
        <ele>133</ele>
        <time>2015-12-28T10:26:11.000Z</time>
      </trkpt>
      <trkpt lat="48.71023" lon="2.04517">
        <ele>131.80000305176</ele>
        <time>2015-12-28T10:26:18.000Z</time>
      </trkpt>
      <trkpt lat="48.71016" lon="2.04527">
        <ele>130.39999389648</ele>
        <time>2015-12-28T10:26:25.000Z</time>
      </trkpt>
      <trkpt lat="48.71012" lon="2.04538">
        <ele>129.60000610352</ele>
        <time>2015-12-28T10:26:31.000Z</time>
      </trkpt>
      <trkpt lat="48.71007" lon="2.04552">
        <ele>128.80000305176</ele>
        <time>2015-12-28T10:26:38.000Z</time>
      </trkpt>
      <trkpt lat="48.71001" lon="2.04567">
        <ele>127.59999847412</ele>
        <time>2015-12-28T10:26:46.000Z</time>
      </trkpt>
      <trkpt lat="48.70995" lon="2.04582">
        <ele>126.19999694824</ele>
        <time>2015-12-28T10:26:54.000Z</time>
      </trkpt>
      <trkpt lat="48.70995" lon="2.04584">
        <ele>126.40000152588</ele>
        <time>2015-12-28T10:26:55.000Z</time>
      </trkpt>
      <trkpt lat="48.70993" lon="2.0459">
        <ele>126</ele>
        <time>2015-12-28T10:26:59.000Z</time>
      </trkpt>
      <trkpt lat="48.70988" lon="2.04604">
        <ele>125.19999694824</ele>
        <time>2015-12-28T10:27:07.000Z</time>
      </trkpt>
      <trkpt lat="48.70982" lon="2.04617">
        <ele>124.19999694824</ele>
        <time>2015-12-28T10:27:14.000Z</time>
      </trkpt>
      <trkpt lat="48.70977" lon="2.04632">
        <ele>122.19999694824</ele>
        <time>2015-12-28T10:27:23.000Z</time>
      </trkpt>
      <trkpt lat="48.70973" lon="2.04643">
        <ele>120.40000152588</ele>
        <time>2015-12-28T10:27:30.000Z</time>
      </trkpt>
      <trkpt lat="48.70968" lon="2.04661">
        <ele>118.40000152588</ele>
        <time>2015-12-28T10:27:40.000Z</time>
      </trkpt>
      <trkpt lat="48.70965" lon="2.04675">
        <ele>117.80000305176</ele>
        <time>2015-12-28T10:27:48.000Z</time>
      </trkpt>
      <trkpt lat="48.70962" lon="2.04694">
        <ele>117.40000152588</ele>
        <time>2015-12-28T10:27:57.000Z</time>
      </trkpt>
      <trkpt lat="48.70958" lon="2.04713">
        <ele>116.80000305176</ele>
        <time>2015-12-28T10:28:06.000Z</time>
      </trkpt>
      <trkpt lat="48.70949" lon="2.04739">
        <ele>114.80000305176</ele>
        <time>2015-12-28T10:28:19.000Z</time>
      </trkpt>
      <trkpt lat="48.70944" lon="2.04752">
        <ele>113.40000152588</ele>
        <time>2015-12-28T10:28:26.000Z</time>
      </trkpt>
      <trkpt lat="48.7094" lon="2.04762">
        <ele>112.59999847412</ele>
        <time>2015-12-28T10:28:32.000Z</time>
      </trkpt>
      <trkpt lat="48.70933" lon="2.04779">
        <ele>111.80000305176</ele>
        <time>2015-12-28T10:28:42.000Z</time>
      </trkpt>
      <trkpt lat="48.70927" lon="2.04796">
        <ele>112</ele>
        <time>2015-12-28T10:28:50.000Z</time>
      </trkpt>
      <trkpt lat="48.70924" lon="2.04805">
        <ele>112</ele>
        <time>2015-12-28T10:28:55.000Z</time>
      </trkpt>
      <trkpt lat="48.70919" lon="2.04821">
        <ele>111.59999847412</ele>
        <time>2015-12-28T10:29:03.000Z</time>
      </trkpt>
      <trkpt lat="48.70913" lon="2.04835">
        <ele>111.40000152588</ele>
        <time>2015-12-28T10:29:12.000Z</time>
      </trkpt>
      <trkpt lat="48.70906" lon="2.04849">
        <ele>111.59999847412</ele>
        <time>2015-12-28T10:29:20.000Z</time>
      </trkpt>
      <trkpt lat="48.70899" lon="2.04862">
        <ele>111.59999847412</ele>
        <time>2015-12-28T10:29:29.000Z</time>
      </trkpt>
      <trkpt lat="48.70891" lon="2.0487">
        <ele>110.19999694824</ele>
        <time>2015-12-28T10:29:36.000Z</time>
      </trkpt>
      <trkpt lat="48.70884" lon="2.04877">
        <ele>108.19999694824</ele>
        <time>2015-12-28T10:29:42.000Z</time>
      </trkpt>
      <trkpt lat="48.70883" lon="2.04878">
        <ele>107.80000305176</ele>
        <time>2015-12-28T10:29:43.000Z</time>
      </trkpt>
      <trkpt lat="48.70873" lon="2.04884">
        <ele>104.59999847412</ele>
        <time>2015-12-28T10:29:51.000Z</time>
      </trkpt>
      <trkpt lat="48.70865" lon="2.04892">
        <ele>102.19999694824</ele>
        <time>2015-12-28T10:29:58.000Z</time>
      </trkpt>
      <trkpt lat="48.70856" lon="2.049">
        <ele>99.599998474121</ele>
        <time>2015-12-28T10:30:05.000Z</time>
      </trkpt>
      <trkpt lat="48.70846" lon="2.04908">
        <ele>98.199996948242</ele>
        <time>2015-12-28T10:30:13.000Z</time>
      </trkpt>
      <trkpt lat="48.70835" lon="2.04912">
        <ele>97</ele>
        <time>2015-12-28T10:30:21.000Z</time>
      </trkpt>
      <trkpt lat="48.70825" lon="2.04914">
        <ele>95.800003051758</ele>
        <time>2015-12-28T10:30:28.000Z</time>
      </trkpt>
      <trkpt lat="48.70816" lon="2.04912">
        <ele>94.800003051758</ele>
        <time>2015-12-28T10:30:34.000Z</time>
      </trkpt>
      <trkpt lat="48.70807" lon="2.0491">
        <ele>93.400001525879</ele>
        <time>2015-12-28T10:30:41.000Z</time>
      </trkpt>
      <trkpt lat="48.70806" lon="2.04909">
        <ele>93.199996948242</ele>
        <time>2015-12-28T10:30:42.000Z</time>
      </trkpt>
      <trkpt lat="48.70799" lon="2.04908">
        <ele>92.400001525879</ele>
        <time>2015-12-28T10:30:47.000Z</time>
      </trkpt>
      <trkpt lat="48.70788" lon="2.04907">
        <ele>91</ele>
        <time>2015-12-28T10:30:54.000Z</time>
      </trkpt>
      <trkpt lat="48.70777" lon="2.04903">
        <ele>89.599998474121</ele>
        <time>2015-12-28T10:31:02.000Z</time>
      </trkpt>
      <trkpt lat="48.70761" lon="2.04896">
        <ele>88</ele>
        <time>2015-12-28T10:31:13.000Z</time>
      </trkpt>
      <trkpt lat="48.70752" lon="2.04892">
        <ele>87.199996948242</ele>
        <time>2015-12-28T10:31:20.000Z</time>
      </trkpt>
      <trkpt lat="48.70749" lon="2.04889">
        <ele>87</ele>
        <time>2015-12-28T10:31:24.000Z</time>
      </trkpt>
      <trkpt lat="48.70748" lon="2.04882">
        <ele>86.800003051758</ele>
        <time>2015-12-28T10:31:27.000Z</time>
      </trkpt>
      <trkpt lat="48.70749" lon="2.0487">
        <ele>86.800003051758</ele>
        <time>2015-12-28T10:31:32.000Z</time>
      </trkpt>
      <trkpt lat="48.70749" lon="2.04866">
        <ele>86.800003051758</ele>
        <time>2015-12-28T10:31:34.000Z</time>
      </trkpt>
      <trkpt lat="48.70752" lon="2.04846">
        <ele>86.800003051758</ele>
        <time>2015-12-28T10:31:43.000Z</time>
      </trkpt>
      <trkpt lat="48.70755" lon="2.04825">
        <ele>86.599998474121</ele>
        <time>2015-12-28T10:31:52.000Z</time>
      </trkpt>
      <trkpt lat="48.70757" lon="2.04808">
        <ele>86.400001525879</ele>
        <time>2015-12-28T10:31:59.000Z</time>
      </trkpt>
      <trkpt lat="48.70761" lon="2.0478">
        <ele>86</ele>
        <time>2015-12-28T10:32:11.000Z</time>
      </trkpt>
      <trkpt lat="48.70762" lon="2.04764">
        <ele>85.800003051758</ele>
        <time>2015-12-28T10:32:18.000Z</time>
      </trkpt>
      <trkpt lat="48.70765" lon="2.04736">
        <ele>85.599998474121</ele>
        <time>2015-12-28T10:32:30.000Z</time>
      </trkpt>
      <trkpt lat="48.70767" lon="2.04718">
        <ele>85.199996948242</ele>
        <time>2015-12-28T10:32:38.000Z</time>
      </trkpt>
      <trkpt lat="48.70769" lon="2.04693">
        <ele>84.800003051758</ele>
        <time>2015-12-28T10:32:48.000Z</time>
      </trkpt>
      <trkpt lat="48.7077" lon="2.04675">
        <ele>84.400001525879</ele>
        <time>2015-12-28T10:32:56.000Z</time>
      </trkpt>
      <trkpt lat="48.70769" lon="2.04662">
        <ele>84</ele>
        <time>2015-12-28T10:33:02.000Z</time>
      </trkpt>
      <trkpt lat="48.7077" lon="2.04643">
        <ele>84.400001525879</ele>
        <time>2015-12-28T10:33:10.000Z</time>
      </trkpt>
      <trkpt lat="48.70769" lon="2.04619">
        <ele>84.800003051758</ele>
        <time>2015-12-28T10:33:20.000Z</time>
      </trkpt>
      <trkpt lat="48.70769" lon="2.04603">
        <ele>85.199996948242</ele>
        <time>2015-12-28T10:33:27.000Z</time>
      </trkpt>
      <trkpt lat="48.70769" lon="2.04589">
        <ele>85.599998474121</ele>
        <time>2015-12-28T10:33:33.000Z</time>
      </trkpt>
      <trkpt lat="48.7077" lon="2.04568">
        <ele>86</ele>
        <time>2015-12-28T10:33:42.000Z</time>
      </trkpt>
      <trkpt lat="48.70771" lon="2.0455">
        <ele>86</ele>
        <time>2015-12-28T10:33:49.000Z</time>
      </trkpt>
      <trkpt lat="48.70772" lon="2.04533">
        <ele>86.199996948242</ele>
        <time>2015-12-28T10:33:56.000Z</time>
      </trkpt>
      <trkpt lat="48.70774" lon="2.04508">
        <ele>86.400001525879</ele>
        <time>2015-12-28T10:34:06.000Z</time>
      </trkpt>
      <trkpt lat="48.70775" lon="2.04497">
        <ele>86.400001525879</ele>
        <time>2015-12-28T10:34:11.000Z</time>
      </trkpt>
      <trkpt lat="48.70777" lon="2.04478">
        <ele>86.599998474121</ele>
        <time>2015-12-28T10:34:19.000Z</time>
      </trkpt>
      <trkpt lat="48.70778" lon="2.04467">
        <ele>86.599998474121</ele>
        <time>2015-12-28T10:34:24.000Z</time>
      </trkpt>
      <trkpt lat="48.70778" lon="2.04465">
        <ele>86.599998474121</ele>
        <time>2015-12-28T10:34:25.000Z</time>
      </trkpt>
      <trkpt lat="48.70779" lon="2.04448">
        <ele>86.599998474121</ele>
        <time>2015-12-28T10:34:33.000Z</time>
      </trkpt>
      <trkpt lat="48.70781" lon="2.04429">
        <ele>86.800003051758</ele>
        <time>2015-12-28T10:34:42.000Z</time>
      </trkpt>
      <trkpt lat="48.70783" lon="2.04407">
        <ele>87.199996948242</ele>
        <time>2015-12-28T10:34:51.000Z</time>
      </trkpt>
      <trkpt lat="48.70783" lon="2.04405">
        <ele>87.199996948242</ele>
        <time>2015-12-28T10:34:52.000Z</time>
      </trkpt>
      <trkpt lat="48.70782" lon="2.04395">
        <ele>87.400001525879</ele>
        <time>2015-12-28T10:34:57.000Z</time>
      </trkpt>
      <trkpt lat="48.70781" lon="2.0439">
        <ele>87.400001525879</ele>
        <time>2015-12-28T10:35:00.000Z</time>
      </trkpt>
      <trkpt lat="48.70782" lon="2.04386">
        <ele>87.599998474121</ele>
        <time>2015-12-28T10:35:03.000Z</time>
      </trkpt>
      <trkpt lat="48.70782" lon="2.04385">
        <ele>87.599998474121</ele>
        <time>2015-12-28T10:35:06.000Z</time>
      </trkpt>
      <trkpt lat="48.70751" lon="2.04371">
        <ele>85.199996948242</ele>
        <time>2015-12-28T10:37:03.000Z</time>
      </trkpt>
      <trkpt lat="48.70751" lon="2.0437">
        <ele>85.400001525879</ele>
        <time>2015-12-28T10:37:04.000Z</time>
      </trkpt>
      <trkpt lat="48.7075" lon="2.04364">
        <ele>85.400001525879</ele>
        <time>2015-12-28T10:37:08.000Z</time>
      </trkpt>
      <trkpt lat="48.70751" lon="2.04362">
        <ele>85.599998474121</ele>
        <time>2015-12-28T10:37:09.000Z</time>
      </trkpt>
      <trkpt lat="48.70751" lon="2.04359">
        <ele>85.599998474121</ele>
        <time>2015-12-28T10:37:13.000Z</time>
      </trkpt>
      <trkpt lat="48.70756" lon="2.04369">
        <ele>85.800003051758</ele>
        <time>2015-12-28T10:39:23.000Z</time>
      </trkpt>
      <trkpt lat="48.70761" lon="2.04376">
        <ele>86</ele>
        <time>2015-12-28T10:39:29.000Z</time>
      </trkpt>
      <trkpt lat="48.70762" lon="2.04377">
        <ele>86</ele>
        <time>2015-12-28T10:39:31.000Z</time>
      </trkpt>
      <trkpt lat="48.70749" lon="2.0435">
        <ele>85.599998474121</ele>
        <time>2015-12-28T10:47:05.000Z</time>
      </trkpt>
      <trkpt lat="48.7075" lon="2.04348">
        <ele>85.800003051758</ele>
        <time>2015-12-28T10:47:06.000Z</time>
      </trkpt>
      <trkpt lat="48.70751" lon="2.04342">
        <ele>86</ele>
        <time>2015-12-28T10:47:09.000Z</time>
      </trkpt>
      <trkpt lat="48.70752" lon="2.04331">
        <ele>86.400001525879</ele>
        <time>2015-12-28T10:47:14.000Z</time>
      </trkpt>
      <trkpt lat="48.70755" lon="2.0431">
        <ele>86.400001525879</ele>
        <time>2015-12-28T10:47:24.000Z</time>
      </trkpt>
      <trkpt lat="48.70756" lon="2.04291">
        <ele>86.199996948242</ele>
        <time>2015-12-28T10:47:33.000Z</time>
      </trkpt>
      <trkpt lat="48.70756" lon="2.04277">
        <ele>86</ele>
        <time>2015-12-28T10:47:41.000Z</time>
      </trkpt>
      <trkpt lat="48.70757" lon="2.04271">
        <ele>86</ele>
        <time>2015-12-28T10:47:45.000Z</time>
      </trkpt>
      <trkpt lat="48.70756" lon="2.04266">
        <ele>86</ele>
        <time>2015-12-28T10:47:47.000Z</time>
      </trkpt>
      <trkpt lat="48.70755" lon="2.04261">
        <ele>85.800003051758</ele>
        <time>2015-12-28T10:47:50.000Z</time>
      </trkpt>
      <trkpt lat="48.70755" lon="2.04257">
        <ele>85.800003051758</ele>
        <time>2015-12-28T10:47:52.000Z</time>
      </trkpt>
      <trkpt lat="48.70755" lon="2.04238">
        <ele>85.599998474121</ele>
        <time>2015-12-28T10:48:01.000Z</time>
      </trkpt>
      <trkpt lat="48.70755" lon="2.04221">
        <ele>85.599998474121</ele>
        <time>2015-12-28T10:48:09.000Z</time>
      </trkpt>
      <trkpt lat="48.70755" lon="2.04207">
        <ele>85.400001525879</ele>
        <time>2015-12-28T10:48:16.000Z</time>
      </trkpt>
      <trkpt lat="48.70755" lon="2.04199">
        <ele>85.400001525879</ele>
        <time>2015-12-28T10:48:21.000Z</time>
      </trkpt>
      <trkpt lat="48.70754" lon="2.04189">
        <ele>85.199996948242</ele>
        <time>2015-12-28T10:48:26.000Z</time>
      </trkpt>
      <trkpt lat="48.70754" lon="2.04183">
        <ele>85.199996948242</ele>
        <time>2015-12-28T10:48:29.000Z</time>
      </trkpt>
      <trkpt lat="48.70754" lon="2.04179">
        <ele>85</ele>
        <time>2015-12-28T10:48:31.000Z</time>
      </trkpt>
      <trkpt lat="48.70754" lon="2.04174">
        <ele>85</ele>
        <time>2015-12-28T10:48:33.000Z</time>
      </trkpt>
      <trkpt lat="48.70753" lon="2.04169">
        <ele>85</ele>
        <time>2015-12-28T10:48:36.000Z</time>
      </trkpt>
      <trkpt lat="48.70753" lon="2.04162">
        <ele>84.800003051758</ele>
        <time>2015-12-28T10:48:40.000Z</time>
      </trkpt>
      <trkpt lat="48.70754" lon="2.04153">
        <ele>85</ele>
        <time>2015-12-28T10:48:45.000Z</time>
      </trkpt>
      <trkpt lat="48.70755" lon="2.04149">
        <ele>85.199996948242</ele>
        <time>2015-12-28T10:48:47.000Z</time>
      </trkpt>
      <trkpt lat="48.70756" lon="2.0414">
        <ele>85.400001525879</ele>
        <time>2015-12-28T10:48:51.000Z</time>
      </trkpt>
      <trkpt lat="48.70756" lon="2.04127">
        <ele>85.800003051758</ele>
        <time>2015-12-28T10:48:58.000Z</time>
      </trkpt>
      <trkpt lat="48.70757" lon="2.0411">
        <ele>86.199996948242</ele>
        <time>2015-12-28T10:49:06.000Z</time>
      </trkpt>
      <trkpt lat="48.70757" lon="2.04103">
        <ele>86.400001525879</ele>
        <time>2015-12-28T10:49:10.000Z</time>
      </trkpt>
      <trkpt lat="48.70757" lon="2.04101">
        <ele>86.400001525879</ele>
        <time>2015-12-28T10:49:11.000Z</time>
      </trkpt>
      <trkpt lat="48.70757" lon="2.04089">
        <ele>86.800003051758</ele>
        <time>2015-12-28T10:49:17.000Z</time>
      </trkpt>
      <trkpt lat="48.70757" lon="2.04086">
        <ele>86.800003051758</ele>
        <time>2015-12-28T10:49:18.000Z</time>
      </trkpt>
      <trkpt lat="48.70757" lon="2.04079">
        <ele>87</ele>
        <time>2015-12-28T10:49:21.000Z</time>
      </trkpt>
      <trkpt lat="48.70757" lon="2.04076">
        <ele>87</ele>
        <time>2015-12-28T10:49:23.000Z</time>
      </trkpt>
      <trkpt lat="48.70757" lon="2.04071">
        <ele>87</ele>
        <time>2015-12-28T10:49:25.000Z</time>
      </trkpt>
      <trkpt lat="48.70757" lon="2.04061">
        <ele>86.800003051758</ele>
        <time>2015-12-28T10:49:30.000Z</time>
      </trkpt>
      <trkpt lat="48.70757" lon="2.04051">
        <ele>86.599998474121</ele>
        <time>2015-12-28T10:49:35.000Z</time>
      </trkpt>
      <trkpt lat="48.70759" lon="2.04033">
        <ele>86.599998474121</ele>
        <time>2015-12-28T10:49:43.000Z</time>
      </trkpt>
      <trkpt lat="48.70759" lon="2.04029">
        <ele>86.400001525879</ele>
        <time>2015-12-28T10:49:48.000Z</time>
      </trkpt>
      <trkpt lat="48.70757" lon="2.04019">
        <ele>86.199996948242</ele>
        <time>2015-12-28T10:49:56.000Z</time>
      </trkpt>
      <trkpt lat="48.70757" lon="2.04018">
        <ele>86.199996948242</ele>
        <time>2015-12-28T10:49:57.000Z</time>
      </trkpt>
      <trkpt lat="48.70758" lon="2.04004">
        <ele>86.199996948242</ele>
        <time>2015-12-28T10:50:04.000Z</time>
      </trkpt>
      <trkpt lat="48.70759" lon="2.04002">
        <ele>86.199996948242</ele>
        <time>2015-12-28T10:50:05.000Z</time>
      </trkpt>
      <trkpt lat="48.7076" lon="2.03992">
        <ele>86.199996948242</ele>
        <time>2015-12-28T10:50:10.000Z</time>
      </trkpt>
      <trkpt lat="48.7076" lon="2.03977">
        <ele>86</ele>
        <time>2015-12-28T10:50:17.000Z</time>
      </trkpt>
      <trkpt lat="48.70758" lon="2.0397">
        <ele>85.800003051758</ele>
        <time>2015-12-28T10:50:21.000Z</time>
      </trkpt>
      <trkpt lat="48.70759" lon="2.03969">
        <ele>85.800003051758</ele>
        <time>2015-12-28T10:50:22.000Z</time>
      </trkpt>
      <trkpt lat="48.70759" lon="2.0397">
        <ele>85.800003051758</ele>
        <time>2015-12-28T10:50:23.000Z</time>
      </trkpt>
      <trkpt lat="48.70755" lon="2.0396">
        <ele>85.199996948242</ele>
        <time>2015-12-28T11:09:54.000Z</time>
      </trkpt>
      <trkpt lat="48.70755" lon="2.03959">
        <ele>85.199996948242</ele>
        <time>2015-12-28T11:09:55.000Z</time>
      </trkpt>
      <trkpt lat="48.70752" lon="2.0395">
        <ele>85</ele>
        <time>2015-12-28T11:10:01.000Z</time>
      </trkpt>
      <trkpt lat="48.70751" lon="2.03944">
        <ele>84.599998474121</ele>
        <time>2015-12-28T11:10:05.000Z</time>
      </trkpt>
      <trkpt lat="48.70748" lon="2.03935">
        <ele>84.400001525879</ele>
        <time>2015-12-28T11:10:11.000Z</time>
      </trkpt>
      <trkpt lat="48.70747" lon="2.03929">
        <ele>84</ele>
        <time>2015-12-28T11:10:15.000Z</time>
      </trkpt>
      <trkpt lat="48.70745" lon="2.03928">
        <ele>84</ele>
        <time>2015-12-28T11:10:17.000Z</time>
      </trkpt>
      <trkpt lat="48.70745" lon="2.03927">
        <ele>84</ele>
        <time>2015-12-28T11:10:18.000Z</time>
      </trkpt>
      <trkpt lat="48.70745" lon="2.03928">
        <ele>84</ele>
        <time>2015-12-28T11:10:20.000Z</time>
      </trkpt>
      <trkpt lat="48.70715" lon="2.03968">
        <ele>82.400001525879</ele>
        <time>2015-12-28T11:11:03.000Z</time>
      </trkpt>
      <trkpt lat="48.70711" lon="2.03969">
        <ele>82</ele>
        <time>2015-12-28T11:11:06.000Z</time>
      </trkpt>
      <trkpt lat="48.70711" lon="2.0397">
        <ele>82</ele>
        <time>2015-12-28T11:11:07.000Z</time>
      </trkpt>
      <trkpt lat="48.70699" lon="2.03975">
        <ele>81</ele>
        <time>2015-12-28T11:11:16.000Z</time>
      </trkpt>
      <trkpt lat="48.70691" lon="2.03977">
        <ele>80.400001525879</ele>
        <time>2015-12-28T11:11:23.000Z</time>
      </trkpt>
      <trkpt lat="48.70683" lon="2.03978">
        <ele>80</ele>
        <time>2015-12-28T11:11:32.000Z</time>
      </trkpt>
      <trkpt lat="48.70655" lon="2.03966">
        <ele>79.599998474121</ele>
        <time>2015-12-28T11:15:33.000Z</time>
      </trkpt>
      <trkpt lat="48.70653" lon="2.03962">
        <ele>79.599998474121</ele>
        <time>2015-12-28T11:15:36.000Z</time>
      </trkpt>
      <trkpt lat="48.70648" lon="2.03954">
        <ele>79.599998474121</ele>
        <time>2015-12-28T11:15:43.000Z</time>
      </trkpt>
      <trkpt lat="48.70647" lon="2.03953">
        <ele>79.599998474121</ele>
        <time>2015-12-28T11:15:44.000Z</time>
      </trkpt>
      <trkpt lat="48.70643" lon="2.03948">
        <ele>79.400001525879</ele>
        <time>2015-12-28T11:15:48.000Z</time>
      </trkpt>
      <trkpt lat="48.70643" lon="2.03947">
        <ele>79.400001525879</ele>
        <time>2015-12-28T11:15:49.000Z</time>
      </trkpt>
      <trkpt lat="48.70636" lon="2.03938">
        <ele>79.400001525879</ele>
        <time>2015-12-28T11:15:56.000Z</time>
      </trkpt>
      <trkpt lat="48.70635" lon="2.03938">
        <ele>79.400001525879</ele>
        <time>2015-12-28T11:15:57.000Z</time>
      </trkpt>
      <trkpt lat="48.70633" lon="2.03937">
        <ele>79.400001525879</ele>
        <time>2015-12-28T11:16:01.000Z</time>
      </trkpt>
      <trkpt lat="48.7061" lon="2.03952">
        <ele>79</ele>
        <time>2015-12-28T11:16:50.000Z</time>
      </trkpt>
      <trkpt lat="48.70602" lon="2.03954">
        <ele>79</ele>
        <time>2015-12-28T11:16:57.000Z</time>
      </trkpt>
      <trkpt lat="48.70591" lon="2.03959">
        <ele>79.199996948242</ele>
        <time>2015-12-28T11:17:05.000Z</time>
      </trkpt>
      <trkpt lat="48.70583" lon="2.03964">
        <ele>79.199996948242</ele>
        <time>2015-12-28T11:17:11.000Z</time>
      </trkpt>
      <trkpt lat="48.70578" lon="2.03966">
        <ele>79.400001525879</ele>
        <time>2015-12-28T11:17:16.000Z</time>
      </trkpt>
      <trkpt lat="48.70578" lon="2.03967">
        <ele>79.400001525879</ele>
        <time>2015-12-28T11:17:17.000Z</time>
      </trkpt>
      <trkpt lat="48.70577" lon="2.03967">
        <ele>79.400001525879</ele>
        <time>2015-12-28T11:17:19.000Z</time>
      </trkpt>
      <trkpt lat="48.7056" lon="2.03944">
        <ele>79.599998474121</ele>
        <time>2015-12-28T11:18:05.000Z</time>
      </trkpt>
      <trkpt lat="48.7056" lon="2.03942">
        <ele>79.599998474121</ele>
        <time>2015-12-28T11:18:07.000Z</time>
      </trkpt>
      <trkpt lat="48.70557" lon="2.03928">
        <ele>79.599998474121</ele>
        <time>2015-12-28T11:18:14.000Z</time>
      </trkpt>
      <trkpt lat="48.70555" lon="2.03917">
        <ele>79.599998474121</ele>
        <time>2015-12-28T11:18:20.000Z</time>
      </trkpt>
      <trkpt lat="48.70551" lon="2.03904">
        <ele>79.599998474121</ele>
        <time>2015-12-28T11:18:27.000Z</time>
      </trkpt>
      <trkpt lat="48.70546" lon="2.03891">
        <ele>79.599998474121</ele>
        <time>2015-12-28T11:18:34.000Z</time>
      </trkpt>
      <trkpt lat="48.70538" lon="2.03871">
        <ele>79.800003051758</ele>
        <time>2015-12-28T11:18:45.000Z</time>
      </trkpt>
      <trkpt lat="48.70527" lon="2.03853">
        <ele>80</ele>
        <time>2015-12-28T11:18:56.000Z</time>
      </trkpt>
      <trkpt lat="48.70522" lon="2.03845">
        <ele>80</ele>
        <time>2015-12-28T11:19:02.000Z</time>
      </trkpt>
      <trkpt lat="48.70517" lon="2.03837">
        <ele>80.199996948242</ele>
        <time>2015-12-28T11:19:07.000Z</time>
      </trkpt>
      <trkpt lat="48.7051" lon="2.03827">
        <ele>80.400001525879</ele>
        <time>2015-12-28T11:19:14.000Z</time>
      </trkpt>
      <trkpt lat="48.70504" lon="2.03816">
        <ele>80.599998474121</ele>
        <time>2015-12-28T11:19:21.000Z</time>
      </trkpt>
      <trkpt lat="48.70503" lon="2.03805">
        <ele>80.599998474121</ele>
        <time>2015-12-28T11:19:28.000Z</time>
      </trkpt>
      <trkpt lat="48.70503" lon="2.03803">
        <ele>80.599998474121</ele>
        <time>2015-12-28T11:19:29.000Z</time>
      </trkpt>
      <trkpt lat="48.70503" lon="2.03795">
        <ele>80.599998474121</ele>
        <time>2015-12-28T11:19:35.000Z</time>
      </trkpt>
      <trkpt lat="48.70503" lon="2.03795">
        <ele>80.599998474121</ele>
        <time>2015-12-28T11:19:37.000Z</time>
      </trkpt>
      <trkpt lat="48.70454" lon="2.03793">
        <ele>82.400001525879</ele>
        <time>2015-12-28T11:23:16.000Z</time>
      </trkpt>
      <trkpt lat="48.70454" lon="2.03798">
        <ele>82.400001525879</ele>
        <time>2015-12-28T11:23:18.000Z</time>
      </trkpt>
      <trkpt lat="48.70455" lon="2.0381">
        <ele>82.400001525879</ele>
        <time>2015-12-28T11:23:24.000Z</time>
      </trkpt>
      <trkpt lat="48.70454" lon="2.03813">
        <ele>82.400001525879</ele>
        <time>2015-12-28T11:23:25.000Z</time>
      </trkpt>
      <trkpt lat="48.70456" lon="2.03821">
        <ele>82.400001525879</ele>
        <time>2015-12-28T11:23:29.000Z</time>
      </trkpt>
      <trkpt lat="48.70457" lon="2.03842">
        <ele>82.199996948242</ele>
        <time>2015-12-28T11:23:39.000Z</time>
      </trkpt>
      <trkpt lat="48.70456" lon="2.0386">
        <ele>82.400001525879</ele>
        <time>2015-12-28T11:23:48.000Z</time>
      </trkpt>
      <trkpt lat="48.70456" lon="2.03866">
        <ele>82.599998474121</ele>
        <time>2015-12-28T11:23:51.000Z</time>
      </trkpt>
      <trkpt lat="48.70456" lon="2.03867">
        <ele>82.599998474121</ele>
        <time>2015-12-28T11:23:52.000Z</time>
      </trkpt>
      <trkpt lat="48.70456" lon="2.03874">
        <ele>82.599998474121</ele>
        <time>2015-12-28T11:23:55.000Z</time>
      </trkpt>
      <trkpt lat="48.70456" lon="2.03878">
        <ele>82.800003051758</ele>
        <time>2015-12-28T11:23:57.000Z</time>
      </trkpt>
      <trkpt lat="48.70455" lon="2.03893">
        <ele>83</ele>
        <time>2015-12-28T11:24:04.000Z</time>
      </trkpt>
      <trkpt lat="48.70455" lon="2.03895">
        <ele>83</ele>
        <time>2015-12-28T11:24:05.000Z</time>
      </trkpt>
      <trkpt lat="48.70453" lon="2.03902">
        <ele>83.199996948242</ele>
        <time>2015-12-28T11:24:09.000Z</time>
      </trkpt>
      <trkpt lat="48.70452" lon="2.03906">
        <ele>83.199996948242</ele>
        <time>2015-12-28T11:24:11.000Z</time>
      </trkpt>
      <trkpt lat="48.7045" lon="2.03916">
        <ele>83.199996948242</ele>
        <time>2015-12-28T11:24:16.000Z</time>
      </trkpt>
      <trkpt lat="48.7045" lon="2.03918">
        <ele>83.199996948242</ele>
        <time>2015-12-28T11:24:17.000Z</time>
      </trkpt>
      <trkpt lat="48.70446" lon="2.03934">
        <ele>83.400001525879</ele>
        <time>2015-12-28T11:24:24.000Z</time>
      </trkpt>
      <trkpt lat="48.70442" lon="2.03937">
        <ele>83.599998474121</ele>
        <time>2015-12-28T11:24:27.000Z</time>
      </trkpt>
      <trkpt lat="48.70441" lon="2.03938">
        <ele>83.800003051758</ele>
        <time>2015-12-28T11:24:28.000Z</time>
      </trkpt>
      <trkpt lat="48.70431" lon="2.03941">
        <ele>84.400001525879</ele>
        <time>2015-12-28T11:24:35.000Z</time>
      </trkpt>
      <trkpt lat="48.70426" lon="2.03943">
        <ele>84.800003051758</ele>
        <time>2015-12-28T11:24:39.000Z</time>
      </trkpt>
      <trkpt lat="48.70419" lon="2.03945">
        <ele>85.400001525879</ele>
        <time>2015-12-28T11:24:44.000Z</time>
      </trkpt>
      <trkpt lat="48.70413" lon="2.03946">
        <ele>85.800003051758</ele>
        <time>2015-12-28T11:24:49.000Z</time>
      </trkpt>
      <trkpt lat="48.70405" lon="2.03948">
        <ele>86.199996948242</ele>
        <time>2015-12-28T11:24:55.000Z</time>
      </trkpt>
      <trkpt lat="48.70395" lon="2.0395">
        <ele>87</ele>
        <time>2015-12-28T11:25:03.000Z</time>
      </trkpt>
      <trkpt lat="48.70388" lon="2.0395">
        <ele>87.599998474121</ele>
        <time>2015-12-28T11:25:10.000Z</time>
      </trkpt>
      <trkpt lat="48.70386" lon="2.03951">
        <ele>87.599998474121</ele>
        <time>2015-12-28T11:25:11.000Z</time>
      </trkpt>
      <trkpt lat="48.7038" lon="2.03952">
        <ele>88</ele>
        <time>2015-12-28T11:25:16.000Z</time>
      </trkpt>
      <trkpt lat="48.70374" lon="2.03955">
        <ele>88.599998474121</ele>
        <time>2015-12-28T11:25:22.000Z</time>
      </trkpt>
      <trkpt lat="48.70363" lon="2.0396">
        <ele>89.400001525879</ele>
        <time>2015-12-28T11:25:31.000Z</time>
      </trkpt>
      <trkpt lat="48.70357" lon="2.03967">
        <ele>89.800003051758</ele>
        <time>2015-12-28T11:25:39.000Z</time>
      </trkpt>
      <trkpt lat="48.70356" lon="2.03967">
        <ele>89.800003051758</ele>
        <time>2015-12-28T11:25:40.000Z</time>
      </trkpt>
      <trkpt lat="48.70302" lon="2.04015">
        <ele>93</ele>
        <time>2015-12-28T11:26:39.000Z</time>
      </trkpt>
      <trkpt lat="48.70299" lon="2.04016">
        <ele>93.199996948242</ele>
        <time>2015-12-28T11:26:42.000Z</time>
      </trkpt>
      <trkpt lat="48.70291" lon="2.04022">
        <ele>93.800003051758</ele>
        <time>2015-12-28T11:26:50.000Z</time>
      </trkpt>
      <trkpt lat="48.70286" lon="2.04025">
        <ele>94</ele>
        <time>2015-12-28T11:26:55.000Z</time>
      </trkpt>
      <trkpt lat="48.70284" lon="2.04027">
        <ele>94.199996948242</ele>
        <time>2015-12-28T11:26:59.000Z</time>
      </trkpt>
      <trkpt lat="48.70282" lon="2.04027">
        <ele>94.199996948242</ele>
        <time>2015-12-28T11:27:04.000Z</time>
      </trkpt>
      <trkpt lat="48.70102" lon="2.04085">
        <ele>116.19999694824</ele>
        <time>2015-12-28T11:31:39.000Z</time>
      </trkpt>
      <trkpt lat="48.70102" lon="2.04084">
        <ele>116.40000152588</ele>
        <time>2015-12-28T11:31:40.000Z</time>
      </trkpt>
      <trkpt lat="48.70098" lon="2.04085">
        <ele>117</ele>
        <time>2015-12-28T11:31:46.000Z</time>
      </trkpt>
      <trkpt lat="48.70097" lon="2.04085">
        <ele>117.19999694824</ele>
        <time>2015-12-28T11:31:47.000Z</time>
      </trkpt>
      <trkpt lat="48.70091" lon="2.04085">
        <ele>118.19999694824</ele>
        <time>2015-12-28T11:31:53.000Z</time>
      </trkpt>
      <trkpt lat="48.70085" lon="2.04086">
        <ele>119.59999847412</ele>
        <time>2015-12-28T11:31:59.000Z</time>
      </trkpt>
      <trkpt lat="48.70078" lon="2.04084">
        <ele>120.80000305176</ele>
        <time>2015-12-28T11:32:05.000Z</time>
      </trkpt>
      <trkpt lat="48.70073" lon="2.0408">
        <ele>121.59999847412</ele>
        <time>2015-12-28T11:32:11.000Z</time>
      </trkpt>
      <trkpt lat="48.70071" lon="2.04079">
        <ele>121.80000305176</ele>
        <time>2015-12-28T11:32:13.000Z</time>
      </trkpt>
      <trkpt lat="48.7007" lon="2.04081">
        <ele>122</ele>
        <time>2015-12-28T11:32:14.000Z</time>
      </trkpt>
      <trkpt lat="48.7007" lon="2.04081">
        <ele>122</ele>
        <time>2015-12-28T11:32:15.000Z</time>
      </trkpt>
      <trkpt lat="48.70069" lon="2.04082">
        <ele>122.19999694824</ele>
        <time>2015-12-28T11:32:17.000Z</time>
      </trkpt>
      <trkpt lat="48.70066" lon="2.04082">
        <ele>122.80000305176</ele>
        <time>2015-12-28T11:32:21.000Z</time>
      </trkpt>
      <trkpt lat="48.70063" lon="2.04083">
        <ele>123.40000152588</ele>
        <time>2015-12-28T11:32:26.000Z</time>
      </trkpt>
      <trkpt lat="48.70062" lon="2.04085">
        <ele>123.59999847412</ele>
        <time>2015-12-28T11:32:30.000Z</time>
      </trkpt>
      <trkpt lat="48.69858" lon="2.03978">
        <ele>162.19999694824</ele>
        <time>2015-12-28T11:42:19.000Z</time>
      </trkpt>
      <trkpt lat="48.69857" lon="2.03977">
        <ele>162.39999389648</ele>
        <time>2015-12-28T11:42:20.000Z</time>
      </trkpt>
      <trkpt lat="48.69854" lon="2.03976">
        <ele>163.19999694824</ele>
        <time>2015-12-28T11:42:23.000Z</time>
      </trkpt>
      <trkpt lat="48.69851" lon="2.03973">
        <ele>163.39999389648</ele>
        <time>2015-12-28T11:42:26.000Z</time>
      </trkpt>
      <trkpt lat="48.6985" lon="2.03972">
        <ele>163.60000610352</ele>
        <time>2015-12-28T11:42:27.000Z</time>
      </trkpt>
      <trkpt lat="48.69845" lon="2.0397">
        <ele>164.19999694824</ele>
        <time>2015-12-28T11:42:32.000Z</time>
      </trkpt>
      <trkpt lat="48.69842" lon="2.03969">
        <ele>164.60000610352</ele>
        <time>2015-12-28T11:42:35.000Z</time>
      </trkpt>
      <trkpt lat="48.69838" lon="2.03968">
        <ele>165</ele>
        <time>2015-12-28T11:42:38.000Z</time>
      </trkpt>
      <trkpt lat="48.69838" lon="2.03967">
        <ele>165</ele>
        <time>2015-12-28T11:42:39.000Z</time>
      </trkpt>
      <trkpt lat="48.69837" lon="2.03966">
        <ele>165</ele>
        <time>2015-12-28T11:42:40.000Z</time>
      </trkpt>
      <trkpt lat="48.69832" lon="2.03964">
        <ele>165.60000610352</ele>
        <time>2015-12-28T11:42:43.000Z</time>
      </trkpt>
      <trkpt lat="48.69831" lon="2.03964">
        <ele>165.80000305176</ele>
        <time>2015-12-28T11:42:44.000Z</time>
      </trkpt>
      <trkpt lat="48.69826" lon="2.03961">
        <ele>166.39999389648</ele>
        <time>2015-12-28T11:42:49.000Z</time>
      </trkpt>
      <trkpt lat="48.69825" lon="2.03958">
        <ele>166.39999389648</ele>
        <time>2015-12-28T11:42:51.000Z</time>
      </trkpt>
      <trkpt lat="48.69821" lon="2.03956">
        <ele>167</ele>
        <time>2015-12-28T11:42:54.000Z</time>
      </trkpt>
      <trkpt lat="48.69818" lon="2.03954">
        <ele>167.39999389648</ele>
        <time>2015-12-28T11:42:57.000Z</time>
      </trkpt>
      <trkpt lat="48.69816" lon="2.03952">
        <ele>167.60000610352</ele>
        <time>2015-12-28T11:42:59.000Z</time>
      </trkpt>
      <trkpt lat="48.69814" lon="2.03951">
        <ele>167.60000610352</ele>
        <time>2015-12-28T11:43:00.000Z</time>
      </trkpt>
      <trkpt lat="48.69808" lon="2.03948">
        <ele>168.39999389648</ele>
        <time>2015-12-28T11:43:06.000Z</time>
      </trkpt>
      <trkpt lat="48.69802" lon="2.03941">
        <ele>168.80000305176</ele>
        <time>2015-12-28T11:43:12.000Z</time>
      </trkpt>
      <trkpt lat="48.69799" lon="2.03939">
        <ele>169.19999694824</ele>
        <time>2015-12-28T11:43:15.000Z</time>
      </trkpt>
      <trkpt lat="48.69797" lon="2.03938">
        <ele>169.39999389648</ele>
        <time>2015-12-28T11:43:17.000Z</time>
      </trkpt>
      <trkpt lat="48.69789" lon="2.03933">
        <ele>170.19999694824</ele>
        <time>2015-12-28T11:43:23.000Z</time>
      </trkpt>
      <trkpt lat="48.69785" lon="2.03932">
        <ele>170.60000610352</ele>
        <time>2015-12-28T11:43:26.000Z</time>
      </trkpt>
      <trkpt lat="48.69784" lon="2.03932">
        <ele>170.60000610352</ele>
        <time>2015-12-28T11:43:27.000Z</time>
      </trkpt>
      <trkpt lat="48.69783" lon="2.03931">
        <ele>170.80000305176</ele>
        <time>2015-12-28T11:43:28.000Z</time>
      </trkpt>
      <trkpt lat="48.69778" lon="2.03927">
        <ele>171.19999694824</ele>
        <time>2015-12-28T11:43:33.000Z</time>
      </trkpt>
      <trkpt lat="48.69777" lon="2.03926">
        <ele>171.39999389648</ele>
        <time>2015-12-28T11:43:34.000Z</time>
      </trkpt>
      <trkpt lat="48.69771" lon="2.03922">
        <ele>171.80000305176</ele>
        <time>2015-12-28T11:43:39.000Z</time>
      </trkpt>
      <trkpt lat="48.6977" lon="2.03921">
        <ele>172</ele>
        <time>2015-12-28T11:43:40.000Z</time>
      </trkpt>
      <trkpt lat="48.69766" lon="2.03918">
        <ele>172</ele>
        <time>2015-12-28T11:43:44.000Z</time>
      </trkpt>
      <trkpt lat="48.69759" lon="2.03914">
        <ele>172.19999694824</ele>
        <time>2015-12-28T11:43:50.000Z</time>
      </trkpt>
      <trkpt lat="48.69753" lon="2.0391">
        <ele>172.19999694824</ele>
        <time>2015-12-28T11:43:56.000Z</time>
      </trkpt>
      <trkpt lat="48.69748" lon="2.03906">
        <ele>172.19999694824</ele>
        <time>2015-12-28T11:44:01.000Z</time>
      </trkpt>
      <trkpt lat="48.69745" lon="2.03904">
        <ele>172.19999694824</ele>
        <time>2015-12-28T11:44:04.000Z</time>
      </trkpt>
      <trkpt lat="48.69744" lon="2.03903">
        <ele>172.19999694824</ele>
        <time>2015-12-28T11:44:05.000Z</time>
      </trkpt>
      <trkpt lat="48.69744" lon="2.03903">
        <ele>172.19999694824</ele>
        <time>2015-12-28T11:44:06.000Z</time>
      </trkpt>
      <trkpt lat="48.6974" lon="2.03902">
        <ele>172.19999694824</ele>
        <time>2015-12-28T11:44:09.000Z</time>
      </trkpt>
      <trkpt lat="48.69737" lon="2.03901">
        <ele>172.19999694824</ele>
        <time>2015-12-28T11:44:12.000Z</time>
      </trkpt>
      <trkpt lat="48.69735" lon="2.03899">
        <ele>172.19999694824</ele>
        <time>2015-12-28T11:44:14.000Z</time>
      </trkpt>
      <trkpt lat="48.69732" lon="2.03897">
        <ele>172.19999694824</ele>
        <time>2015-12-28T11:44:16.000Z</time>
      </trkpt>
      <trkpt lat="48.69729" lon="2.03895">
        <ele>172.19999694824</ele>
        <time>2015-12-28T11:44:18.000Z</time>
      </trkpt>
      <trkpt lat="48.69729" lon="2.03894">
        <ele>172.19999694824</ele>
        <time>2015-12-28T11:44:19.000Z</time>
      </trkpt>
      <trkpt lat="48.69725" lon="2.03892">
        <ele>172.19999694824</ele>
        <time>2015-12-28T11:44:22.000Z</time>
      </trkpt>
      <trkpt lat="48.69722" lon="2.03889">
        <ele>172</ele>
        <time>2015-12-28T11:44:25.000Z</time>
      </trkpt>
      <trkpt lat="48.69719" lon="2.03887">
        <ele>172</ele>
        <time>2015-12-28T11:44:27.000Z</time>
      </trkpt>
      <trkpt lat="48.69717" lon="2.03885">
        <ele>172</ele>
        <time>2015-12-28T11:44:29.000Z</time>
      </trkpt>
      <trkpt lat="48.69712" lon="2.03882">
        <ele>172</ele>
        <time>2015-12-28T11:44:33.000Z</time>
      </trkpt>
      <trkpt lat="48.69708" lon="2.03879">
        <ele>172</ele>
        <time>2015-12-28T11:44:38.000Z</time>
      </trkpt>
      <trkpt lat="48.69706" lon="2.03878">
        <ele>172</ele>
        <time>2015-12-28T11:44:40.000Z</time>
      </trkpt>
      <trkpt lat="48.69704" lon="2.03875">
        <ele>172</ele>
        <time>2015-12-28T11:44:42.000Z</time>
      </trkpt>
      <trkpt lat="48.69699" lon="2.03871">
        <ele>172</ele>
        <time>2015-12-28T11:44:46.000Z</time>
      </trkpt>
      <trkpt lat="48.69697" lon="2.03869">
        <ele>172</ele>
        <time>2015-12-28T11:44:48.000Z</time>
      </trkpt>
      <trkpt lat="48.6969" lon="2.03862">
        <ele>171.80000305176</ele>
        <time>2015-12-28T11:44:54.000Z</time>
      </trkpt>
      <trkpt lat="48.69689" lon="2.03861">
        <ele>171.80000305176</ele>
        <time>2015-12-28T11:44:55.000Z</time>
      </trkpt>
      <trkpt lat="48.69678" lon="2.03855">
        <ele>171.60000610352</ele>
        <time>2015-12-28T11:45:03.000Z</time>
      </trkpt>
      <trkpt lat="48.69672" lon="2.0385">
        <ele>171.60000610352</ele>
        <time>2015-12-28T11:45:09.000Z</time>
      </trkpt>
      <trkpt lat="48.69666" lon="2.03845">
        <ele>171.39999389648</ele>
        <time>2015-12-28T11:45:15.000Z</time>
      </trkpt>
      <trkpt lat="48.69665" lon="2.03844">
        <ele>171.39999389648</ele>
        <time>2015-12-28T11:45:16.000Z</time>
      </trkpt>
      <trkpt lat="48.69663" lon="2.03845">
        <ele>171.39999389648</ele>
        <time>2015-12-28T11:45:17.000Z</time>
      </trkpt>
      <trkpt lat="48.69662" lon="2.03845">
        <ele>171.39999389648</ele>
        <time>2015-12-28T11:45:19.000Z</time>
      </trkpt>
      <trkpt lat="48.69662" lon="2.03844">
        <ele>171.39999389648</ele>
        <time>2015-12-28T11:45:20.000Z</time>
      </trkpt>
      <trkpt lat="48.69661" lon="2.03843">
        <ele>171.39999389648</ele>
        <time>2015-12-28T11:45:22.000Z</time>
      </trkpt>
      <trkpt lat="48.69659" lon="2.03842">
        <ele>171.39999389648</ele>
        <time>2015-12-28T11:45:24.000Z</time>
      </trkpt>
      <trkpt lat="48.69657" lon="2.03842">
        <ele>171.39999389648</ele>
        <time>2015-12-28T11:45:26.000Z</time>
      </trkpt>
      <trkpt lat="48.69655" lon="2.0384">
        <ele>171.39999389648</ele>
        <time>2015-12-28T11:45:30.000Z</time>
      </trkpt>
      <trkpt lat="48.69653" lon="2.03838">
        <ele>171.39999389648</ele>
        <time>2015-12-28T11:45:32.000Z</time>
      </trkpt>
      <trkpt lat="48.6965" lon="2.03836">
        <ele>171.19999694824</ele>
        <time>2015-12-28T11:45:35.000Z</time>
      </trkpt>
      <trkpt lat="48.69649" lon="2.03835">
        <ele>171.19999694824</ele>
        <time>2015-12-28T11:45:36.000Z</time>
      </trkpt>
      <trkpt lat="48.69648" lon="2.03834">
        <ele>171.19999694824</ele>
        <time>2015-12-28T11:45:38.000Z</time>
      </trkpt>
      <trkpt lat="48.69644" lon="2.03832">
        <ele>171.19999694824</ele>
        <time>2015-12-28T11:45:41.000Z</time>
      </trkpt>
      <trkpt lat="48.69642" lon="2.0383">
        <ele>171.19999694824</ele>
        <time>2015-12-28T11:45:43.000Z</time>
      </trkpt>
      <trkpt lat="48.6964" lon="2.03829">
        <ele>171</ele>
        <time>2015-12-28T11:45:45.000Z</time>
      </trkpt>
      <trkpt lat="48.69635" lon="2.03825">
        <ele>171</ele>
        <time>2015-12-28T11:45:50.000Z</time>
      </trkpt>
      <trkpt lat="48.69628" lon="2.03822">
        <ele>171</ele>
        <time>2015-12-28T11:45:55.000Z</time>
      </trkpt>
      <trkpt lat="48.69621" lon="2.03818">
        <ele>171</ele>
        <time>2015-12-28T11:46:01.000Z</time>
      </trkpt>
      <trkpt lat="48.69619" lon="2.03818">
        <ele>171</ele>
        <time>2015-12-28T11:46:04.000Z</time>
      </trkpt>
      <trkpt lat="48.69617" lon="2.03817">
        <ele>170.80000305176</ele>
        <time>2015-12-28T11:46:06.000Z</time>
      </trkpt>
      <trkpt lat="48.69616" lon="2.03816">
        <ele>170.80000305176</ele>
        <time>2015-12-28T11:46:07.000Z</time>
      </trkpt>
      <trkpt lat="48.69611" lon="2.03814">
        <ele>170.80000305176</ele>
        <time>2015-12-28T11:46:11.000Z</time>
      </trkpt>
      <trkpt lat="48.69604" lon="2.03809">
        <ele>170.80000305176</ele>
        <time>2015-12-28T11:46:16.000Z</time>
      </trkpt>
      <trkpt lat="48.69602" lon="2.03808">
        <ele>170.80000305176</ele>
        <time>2015-12-28T11:46:18.000Z</time>
      </trkpt>
      <trkpt lat="48.69596" lon="2.03805">
        <ele>170.39999389648</ele>
        <time>2015-12-28T11:46:22.000Z</time>
      </trkpt>
      <trkpt lat="48.69595" lon="2.03805">
        <ele>170.39999389648</ele>
        <time>2015-12-28T11:46:23.000Z</time>
      </trkpt>
      <trkpt lat="48.69589" lon="2.03804">
        <ele>170</ele>
        <time>2015-12-28T11:46:28.000Z</time>
      </trkpt>
      <trkpt lat="48.69588" lon="2.03804">
        <ele>170</ele>
        <time>2015-12-28T11:46:29.000Z</time>
      </trkpt>
      <trkpt lat="48.69585" lon="2.03803">
        <ele>169.80000305176</ele>
        <time>2015-12-28T11:46:32.000Z</time>
      </trkpt>
      <trkpt lat="48.69583" lon="2.03803">
        <ele>169.80000305176</ele>
        <time>2015-12-28T11:46:34.000Z</time>
      </trkpt>
      <trkpt lat="48.6958" lon="2.03804">
        <ele>169.60000610352</ele>
        <time>2015-12-28T11:46:37.000Z</time>
      </trkpt>
      <trkpt lat="48.6958" lon="2.03804">
        <ele>169.60000610352</ele>
        <time>2015-12-28T11:46:38.000Z</time>
      </trkpt>
      <trkpt lat="48.69577" lon="2.03804">
        <ele>169.60000610352</ele>
        <time>2015-12-28T11:46:42.000Z</time>
      </trkpt>
      <trkpt lat="48.69523" lon="2.03741">
        <ele>166</ele>
        <time>2015-12-28T11:50:28.000Z</time>
      </trkpt>
      <trkpt lat="48.69519" lon="2.03739">
        <ele>165.80000305176</ele>
        <time>2015-12-28T11:50:32.000Z</time>
      </trkpt>
      <trkpt lat="48.69518" lon="2.03739">
        <ele>165.80000305176</ele>
        <time>2015-12-28T11:50:33.000Z</time>
      </trkpt>
      <trkpt lat="48.69514" lon="2.03738">
        <ele>165.80000305176</ele>
        <time>2015-12-28T11:50:36.000Z</time>
      </trkpt>
      <trkpt lat="48.69511" lon="2.03736">
        <ele>165.60000610352</ele>
        <time>2015-12-28T11:50:38.000Z</time>
      </trkpt>
      <trkpt lat="48.69506" lon="2.03732">
        <ele>165.39999389648</ele>
        <time>2015-12-28T11:50:42.000Z</time>
      </trkpt>
      <trkpt lat="48.69501" lon="2.03729">
        <ele>165.19999694824</ele>
        <time>2015-12-28T11:50:46.000Z</time>
      </trkpt>
      <trkpt lat="48.69493" lon="2.03724">
        <ele>165</ele>
        <time>2015-12-28T11:50:52.000Z</time>
      </trkpt>
      <trkpt lat="48.69489" lon="2.03723">
        <ele>165</ele>
        <time>2015-12-28T11:50:55.000Z</time>
      </trkpt>
      <trkpt lat="48.69484" lon="2.03719">
        <ele>164.80000305176</ele>
        <time>2015-12-28T11:50:59.000Z</time>
      </trkpt>
      <trkpt lat="48.69474" lon="2.03712">
        <ele>164.39999389648</ele>
        <time>2015-12-28T11:51:07.000Z</time>
      </trkpt>
      <trkpt lat="48.69465" lon="2.03707">
        <ele>164</ele>
        <time>2015-12-28T11:51:14.000Z</time>
      </trkpt>
      <trkpt lat="48.69465" lon="2.03707">
        <ele>164</ele>
        <time>2015-12-28T11:51:15.000Z</time>
      </trkpt>
      <trkpt lat="48.69464" lon="2.03707">
        <ele>164</ele>
        <time>2015-12-28T11:51:16.000Z</time>
      </trkpt>
      <trkpt lat="48.69449" lon="2.03711">
        <ele>164</ele>
        <time>2015-12-28T11:51:38.000Z</time>
      </trkpt>
      <trkpt lat="48.69448" lon="2.03707">
        <ele>163.80000305176</ele>
        <time>2015-12-28T11:51:40.000Z</time>
      </trkpt>
      <trkpt lat="48.69443" lon="2.03697">
        <ele>163.39999389648</ele>
        <time>2015-12-28T11:51:46.000Z</time>
      </trkpt>
      <trkpt lat="48.69442" lon="2.03696">
        <ele>163.39999389648</ele>
        <time>2015-12-28T11:51:47.000Z</time>
      </trkpt>
      <trkpt lat="48.69438" lon="2.03692">
        <ele>163.19999694824</ele>
        <time>2015-12-28T11:51:51.000Z</time>
      </trkpt>
      <trkpt lat="48.69434" lon="2.0369">
        <ele>163</ele>
        <time>2015-12-28T11:51:54.000Z</time>
      </trkpt>
      <trkpt lat="48.69431" lon="2.03687">
        <ele>162.80000305176</ele>
        <time>2015-12-28T11:51:57.000Z</time>
      </trkpt>
      <trkpt lat="48.69428" lon="2.03684">
        <ele>162.60000610352</ele>
        <time>2015-12-28T11:52:01.000Z</time>
      </trkpt>
      <trkpt lat="48.69426" lon="2.03683">
        <ele>162.60000610352</ele>
        <time>2015-12-28T11:52:02.000Z</time>
      </trkpt>
      <trkpt lat="48.69421" lon="2.03679">
        <ele>162.39999389648</ele>
        <time>2015-12-28T11:52:07.000Z</time>
      </trkpt>
      <trkpt lat="48.69419" lon="2.03676">
        <ele>162.19999694824</ele>
        <time>2015-12-28T11:52:09.000Z</time>
      </trkpt>
      <trkpt lat="48.69417" lon="2.03675">
        <ele>162</ele>
        <time>2015-12-28T11:52:11.000Z</time>
      </trkpt>
      <trkpt lat="48.6941" lon="2.03673">
        <ele>161.80000305176</ele>
        <time>2015-12-28T11:52:14.000Z</time>
      </trkpt>
      <trkpt lat="48.69408" lon="2.03673">
        <ele>161.80000305176</ele>
        <time>2015-12-28T11:52:15.000Z</time>
      </trkpt>
      <trkpt lat="48.69402" lon="2.0367">
        <ele>161.60000610352</ele>
        <time>2015-12-28T11:52:19.000Z</time>
      </trkpt>
      <trkpt lat="48.69397" lon="2.03664">
        <ele>161.19999694824</ele>
        <time>2015-12-28T11:52:23.000Z</time>
      </trkpt>
      <trkpt lat="48.69392" lon="2.03661">
        <ele>161</ele>
        <time>2015-12-28T11:52:27.000Z</time>
      </trkpt>
      <trkpt lat="48.69384" lon="2.03655">
        <ele>160.60000610352</ele>
        <time>2015-12-28T11:52:34.000Z</time>
      </trkpt>
      <trkpt lat="48.6938" lon="2.03652">
        <ele>160.39999389648</ele>
        <time>2015-12-28T11:52:37.000Z</time>
      </trkpt>
      <trkpt lat="48.69376" lon="2.03649">
        <ele>160</ele>
        <time>2015-12-28T11:52:40.000Z</time>
      </trkpt>
      <trkpt lat="48.69373" lon="2.03647">
        <ele>159.80000305176</ele>
        <time>2015-12-28T11:52:43.000Z</time>
      </trkpt>
      <trkpt lat="48.69367" lon="2.03645">
        <ele>159.60000610352</ele>
        <time>2015-12-28T11:52:46.000Z</time>
      </trkpt>
      <trkpt lat="48.69354" lon="2.0364">
        <ele>159.19999694824</ele>
        <time>2015-12-28T11:52:54.000Z</time>
      </trkpt>
      <trkpt lat="48.69347" lon="2.03634">
        <ele>159.19999694824</ele>
        <time>2015-12-28T11:53:00.000Z</time>
      </trkpt>
      <trkpt lat="48.69338" lon="2.03627">
        <ele>159.39999389648</ele>
        <time>2015-12-28T11:53:07.000Z</time>
      </trkpt>
      <trkpt lat="48.69329" lon="2.03623">
        <ele>159.80000305176</ele>
        <time>2015-12-28T11:53:13.000Z</time>
      </trkpt>
      <trkpt lat="48.69321" lon="2.03618">
        <ele>160</ele>
        <time>2015-12-28T11:53:19.000Z</time>
      </trkpt>
      <trkpt lat="48.69315" lon="2.03613">
        <ele>160</ele>
        <time>2015-12-28T11:53:24.000Z</time>
      </trkpt>
      <trkpt lat="48.69313" lon="2.03611">
        <ele>160</ele>
        <time>2015-12-28T11:53:26.000Z</time>
      </trkpt>
      <trkpt lat="48.69308" lon="2.03606">
        <ele>160.19999694824</ele>
        <time>2015-12-28T11:53:31.000Z</time>
      </trkpt>
      <trkpt lat="48.69306" lon="2.03604">
        <ele>160.19999694824</ele>
        <time>2015-12-28T11:53:33.000Z</time>
      </trkpt>
      <trkpt lat="48.69303" lon="2.03602">
        <ele>160.19999694824</ele>
        <time>2015-12-28T11:53:35.000Z</time>
      </trkpt>
      <trkpt lat="48.69301" lon="2.03601">
        <ele>160.39999389648</ele>
        <time>2015-12-28T11:53:37.000Z</time>
      </trkpt>
      <trkpt lat="48.69297" lon="2.03598">
        <ele>160.39999389648</ele>
        <time>2015-12-28T11:53:40.000Z</time>
      </trkpt>
      <trkpt lat="48.69295" lon="2.03594">
        <ele>160.39999389648</ele>
        <time>2015-12-28T11:53:43.000Z</time>
      </trkpt>
      <trkpt lat="48.69286" lon="2.03585">
        <ele>160.39999389648</ele>
        <time>2015-12-28T11:53:51.000Z</time>
      </trkpt>
      <trkpt lat="48.69278" lon="2.03578">
        <ele>160.60000610352</ele>
        <time>2015-12-28T11:53:58.000Z</time>
      </trkpt>
      <trkpt lat="48.69277" lon="2.03578">
        <ele>160.80000305176</ele>
        <time>2015-12-28T11:53:59.000Z</time>
      </trkpt>
      <trkpt lat="48.69271" lon="2.03574">
        <ele>161</ele>
        <time>2015-12-28T11:54:04.000Z</time>
      </trkpt>
      <trkpt lat="48.69269" lon="2.03573">
        <ele>161</ele>
        <time>2015-12-28T11:54:05.000Z</time>
      </trkpt>
      <trkpt lat="48.69264" lon="2.03567">
        <ele>161</ele>
        <time>2015-12-28T11:54:10.000Z</time>
      </trkpt>
      <trkpt lat="48.69262" lon="2.03565">
        <ele>161</ele>
        <time>2015-12-28T11:54:12.000Z</time>
      </trkpt>
      <trkpt lat="48.69254" lon="2.03559">
        <ele>161</ele>
        <time>2015-12-28T11:54:18.000Z</time>
      </trkpt>
      <trkpt lat="48.69248" lon="2.03554">
        <ele>161</ele>
        <time>2015-12-28T11:54:24.000Z</time>
      </trkpt>
      <trkpt lat="48.6924" lon="2.03549">
        <ele>161</ele>
        <time>2015-12-28T11:54:30.000Z</time>
      </trkpt>
      <trkpt lat="48.69239" lon="2.03548">
        <ele>161</ele>
        <time>2015-12-28T11:54:31.000Z</time>
      </trkpt>
      <trkpt lat="48.69234" lon="2.03546">
        <ele>160.80000305176</ele>
        <time>2015-12-28T11:54:35.000Z</time>
      </trkpt>
      <trkpt lat="48.69232" lon="2.03545">
        <ele>160.80000305176</ele>
        <time>2015-12-28T11:54:36.000Z</time>
      </trkpt>
      <trkpt lat="48.69227" lon="2.03543">
        <ele>160.80000305176</ele>
        <time>2015-12-28T11:54:40.000Z</time>
      </trkpt>
      <trkpt lat="48.69222" lon="2.03538">
        <ele>160.80000305176</ele>
        <time>2015-12-28T11:54:44.000Z</time>
      </trkpt>
      <trkpt lat="48.69211" lon="2.0353">
        <ele>160.60000610352</ele>
        <time>2015-12-28T11:54:53.000Z</time>
      </trkpt>
      <trkpt lat="48.69199" lon="2.03522">
        <ele>160.60000610352</ele>
        <time>2015-12-28T11:55:02.000Z</time>
      </trkpt>
      <trkpt lat="48.69189" lon="2.03515">
        <ele>160.60000610352</ele>
        <time>2015-12-28T11:55:10.000Z</time>
      </trkpt>
      <trkpt lat="48.69178" lon="2.03509">
        <ele>160.19999694824</ele>
        <time>2015-12-28T11:55:17.000Z</time>
      </trkpt>
      <trkpt lat="48.69165" lon="2.03497">
        <ele>159.80000305176</ele>
        <time>2015-12-28T11:55:26.000Z</time>
      </trkpt>
      <trkpt lat="48.69154" lon="2.03489">
        <ele>159.60000610352</ele>
        <time>2015-12-28T11:55:33.000Z</time>
      </trkpt>
      <trkpt lat="48.69143" lon="2.03479">
        <ele>159.60000610352</ele>
        <time>2015-12-28T11:55:40.000Z</time>
      </trkpt>
      <trkpt lat="48.69134" lon="2.03465">
        <ele>159.80000305176</ele>
        <time>2015-12-28T11:55:47.000Z</time>
      </trkpt>
      <trkpt lat="48.69123" lon="2.03448">
        <ele>160</ele>
        <time>2015-12-28T11:55:57.000Z</time>
      </trkpt>
      <trkpt lat="48.69119" lon="2.03442">
        <ele>160.19999694824</ele>
        <time>2015-12-28T11:56:00.000Z</time>
      </trkpt>
      <trkpt lat="48.69118" lon="2.03436">
        <ele>160.39999389648</ele>
        <time>2015-12-28T11:56:03.000Z</time>
      </trkpt>
      <trkpt lat="48.69119" lon="2.03434">
        <ele>160.60000610352</ele>
        <time>2015-12-28T11:56:04.000Z</time>
      </trkpt>
      <trkpt lat="48.6912" lon="2.03423">
        <ele>161</ele>
        <time>2015-12-28T11:56:09.000Z</time>
      </trkpt>
      <trkpt lat="48.69119" lon="2.03419">
        <ele>161</ele>
        <time>2015-12-28T11:56:11.000Z</time>
      </trkpt>
      <trkpt lat="48.69116" lon="2.03411">
        <ele>161.19999694824</ele>
        <time>2015-12-28T11:56:15.000Z</time>
      </trkpt>
      <trkpt lat="48.69114" lon="2.03404">
        <ele>161.39999389648</ele>
        <time>2015-12-28T11:56:18.000Z</time>
      </trkpt>
      <trkpt lat="48.69112" lon="2.03399">
        <ele>161.80000305176</ele>
        <time>2015-12-28T11:56:21.000Z</time>
      </trkpt>
      <trkpt lat="48.69107" lon="2.03384">
        <ele>162.60000610352</ele>
        <time>2015-12-28T11:56:28.000Z</time>
      </trkpt>
      <trkpt lat="48.691" lon="2.03373">
        <ele>163</ele>
        <time>2015-12-28T11:56:35.000Z</time>
      </trkpt>
      <trkpt lat="48.69089" lon="2.03367">
        <ele>162.80000305176</ele>
        <time>2015-12-28T11:56:42.000Z</time>
      </trkpt>
      <trkpt lat="48.69081" lon="2.03363">
        <ele>162.60000610352</ele>
        <time>2015-12-28T11:56:47.000Z</time>
      </trkpt>
      <trkpt lat="48.69077" lon="2.0336">
        <ele>162.60000610352</ele>
        <time>2015-12-28T11:56:50.000Z</time>
      </trkpt>
      <trkpt lat="48.69072" lon="2.03352">
        <ele>163</ele>
        <time>2015-12-28T11:56:56.000Z</time>
      </trkpt>
      <trkpt lat="48.69066" lon="2.03347">
        <ele>163</ele>
        <time>2015-12-28T11:57:01.000Z</time>
      </trkpt>
      <trkpt lat="48.69065" lon="2.03346">
        <ele>163</ele>
        <time>2015-12-28T11:57:02.000Z</time>
      </trkpt>
      <trkpt lat="48.69058" lon="2.03341">
        <ele>162.80000305176</ele>
        <time>2015-12-28T11:57:07.000Z</time>
      </trkpt>
      <trkpt lat="48.69056" lon="2.0334">
        <ele>162.80000305176</ele>
        <time>2015-12-28T11:57:08.000Z</time>
      </trkpt>
      <trkpt lat="48.69052" lon="2.03339">
        <ele>162.80000305176</ele>
        <time>2015-12-28T11:57:11.000Z</time>
      </trkpt>
      <trkpt lat="48.69044" lon="2.03336">
        <ele>162.60000610352</ele>
        <time>2015-12-28T11:57:16.000Z</time>
      </trkpt>
      <trkpt lat="48.69041" lon="2.03337">
        <ele>162.39999389648</ele>
        <time>2015-12-28T11:57:18.000Z</time>
      </trkpt>
      <trkpt lat="48.69032" lon="2.03335">
        <ele>162</ele>
        <time>2015-12-28T11:57:24.000Z</time>
      </trkpt>
      <trkpt lat="48.69029" lon="2.03332">
        <ele>162</ele>
        <time>2015-12-28T11:57:26.000Z</time>
      </trkpt>
      <trkpt lat="48.6902" lon="2.03328">
        <ele>161.80000305176</ele>
        <time>2015-12-28T11:57:32.000Z</time>
      </trkpt>
      <trkpt lat="48.69008" lon="2.03322">
        <ele>162.39999389648</ele>
        <time>2015-12-28T11:57:40.000Z</time>
      </trkpt>
      <trkpt lat="48.68996" lon="2.03316">
        <ele>163</ele>
        <time>2015-12-28T11:57:47.000Z</time>
      </trkpt>
      <trkpt lat="48.68977" lon="2.03307">
        <ele>163.80000305176</ele>
        <time>2015-12-28T11:57:53.000Z</time>
      </trkpt>
      <trkpt lat="48.68943" lon="2.03292">
        <ele>165.19999694824</ele>
        <time>2015-12-28T11:58:03.000Z</time>
      </trkpt>
      <trkpt lat="48.68921" lon="2.03284">
        <ele>165.60000610352</ele>
        <time>2015-12-28T11:58:09.000Z</time>
      </trkpt>
      <trkpt lat="48.68902" lon="2.03278">
        <ele>165.80000305176</ele>
        <time>2015-12-28T11:58:14.000Z</time>
      </trkpt>
      <trkpt lat="48.68876" lon="2.03264">
        <ele>166.39999389648</ele>
        <time>2015-12-28T11:58:21.000Z</time>
      </trkpt>
      <trkpt lat="48.68852" lon="2.03252">
        <ele>167.39999389648</ele>
        <time>2015-12-28T11:58:28.000Z</time>
      </trkpt>
      <trkpt lat="48.68821" lon="2.0324">
        <ele>167.80000305176</ele>
        <time>2015-12-28T11:58:37.000Z</time>
      </trkpt>
      <trkpt lat="48.68788" lon="2.03225">
        <ele>169.19999694824</ele>
        <time>2015-12-28T11:58:46.000Z</time>
      </trkpt>
      <trkpt lat="48.68754" lon="2.03211">
        <ele>170.19999694824</ele>
        <time>2015-12-28T11:58:55.000Z</time>
      </trkpt>
      <trkpt lat="48.68719" lon="2.03197">
        <ele>171.39999389648</ele>
        <time>2015-12-28T11:59:04.000Z</time>
      </trkpt>
      <trkpt lat="48.68692" lon="2.03181">
        <ele>173</ele>
        <time>2015-12-28T11:59:11.000Z</time>
      </trkpt>
      <trkpt lat="48.68661" lon="2.03168">
        <ele>174</ele>
        <time>2015-12-28T11:59:19.000Z</time>
      </trkpt>
      <trkpt lat="48.68652" lon="2.03165">
        <ele>174.19999694824</ele>
        <time>2015-12-28T11:59:21.000Z</time>
      </trkpt>
      <trkpt lat="48.6864" lon="2.0316">
        <ele>174.39999389648</ele>
        <time>2015-12-28T11:59:24.000Z</time>
      </trkpt>
      <trkpt lat="48.6861" lon="2.03148">
        <ele>174.80000305176</ele>
        <time>2015-12-28T11:59:32.000Z</time>
      </trkpt>
      <trkpt lat="48.68596" lon="2.03143">
        <ele>175</ele>
        <time>2015-12-28T11:59:37.000Z</time>
      </trkpt>
      <trkpt lat="48.68594" lon="2.03143">
        <ele>175</ele>
        <time>2015-12-28T11:59:38.000Z</time>
      </trkpt>
      <trkpt lat="48.68579" lon="2.03149">
        <ele>175</ele>
        <time>2015-12-28T11:59:43.000Z</time>
      </trkpt>
      <trkpt lat="48.6857" lon="2.03158">
        <ele>175.19999694824</ele>
        <time>2015-12-28T11:59:48.000Z</time>
      </trkpt>
      <trkpt lat="48.68564" lon="2.03173">
        <ele>174.39999389648</ele>
        <time>2015-12-28T11:59:55.000Z</time>
      </trkpt>
      <trkpt lat="48.6856" lon="2.03185">
        <ele>173.60000610352</ele>
        <time>2015-12-28T12:00:00.000Z</time>
      </trkpt>
      <trkpt lat="48.68551" lon="2.032">
        <ele>173.19999694824</ele>
        <time>2015-12-28T12:00:08.000Z</time>
      </trkpt>
      <trkpt lat="48.68538" lon="2.03198">
        <ele>174.19999694824</ele>
        <time>2015-12-28T12:00:16.000Z</time>
      </trkpt>
      <trkpt lat="48.68536" lon="2.03199">
        <ele>174.39999389648</ele>
        <time>2015-12-28T12:00:17.000Z</time>
      </trkpt>
      <trkpt lat="48.68531" lon="2.03197">
        <ele>174.80000305176</ele>
        <time>2015-12-28T12:00:20.000Z</time>
      </trkpt>
      <trkpt lat="48.68524" lon="2.03194">
        <ele>175.39999389648</ele>
        <time>2015-12-28T12:00:24.000Z</time>
      </trkpt>
      <trkpt lat="48.68517" lon="2.03191">
        <ele>176</ele>
        <time>2015-12-28T12:00:28.000Z</time>
      </trkpt>
      <trkpt lat="48.68515" lon="2.0319">
        <ele>176</ele>
        <time>2015-12-28T12:00:29.000Z</time>
      </trkpt>
      <trkpt lat="48.68505" lon="2.03187">
        <ele>176.39999389648</ele>
        <time>2015-12-28T12:00:36.000Z</time>
      </trkpt>
      <trkpt lat="48.68497" lon="2.03183">
        <ele>176.60000610352</ele>
        <time>2015-12-28T12:00:42.000Z</time>
      </trkpt>
      <trkpt lat="48.68495" lon="2.03181">
        <ele>176.80000305176</ele>
        <time>2015-12-28T12:00:44.000Z</time>
      </trkpt>
      <trkpt lat="48.68491" lon="2.03181">
        <ele>176.80000305176</ele>
        <time>2015-12-28T12:00:47.000Z</time>
      </trkpt>
      <trkpt lat="48.68482" lon="2.03178">
        <ele>177.19999694824</ele>
        <time>2015-12-28T12:00:53.000Z</time>
      </trkpt>
      <trkpt lat="48.6848" lon="2.03177">
        <ele>177.19999694824</ele>
        <time>2015-12-28T12:00:54.000Z</time>
      </trkpt>
      <trkpt lat="48.68473" lon="2.03176">
        <ele>177.60000610352</ele>
        <time>2015-12-28T12:00:58.000Z</time>
      </trkpt>
      <trkpt lat="48.68463" lon="2.03173">
        <ele>177.80000305176</ele>
        <time>2015-12-28T12:01:02.000Z</time>
      </trkpt>
      <trkpt lat="48.68453" lon="2.03169">
        <ele>178.19999694824</ele>
        <time>2015-12-28T12:01:08.000Z</time>
      </trkpt>
      <trkpt lat="48.6844" lon="2.03166">
        <ele>178.80000305176</ele>
        <time>2015-12-28T12:01:16.000Z</time>
      </trkpt>
      <trkpt lat="48.68431" lon="2.03163">
        <ele>178.80000305176</ele>
        <time>2015-12-28T12:01:22.000Z</time>
      </trkpt>
      <trkpt lat="48.68422" lon="2.0316">
        <ele>178.60000610352</ele>
        <time>2015-12-28T12:01:28.000Z</time>
      </trkpt>
      <trkpt lat="48.68419" lon="2.03158">
        <ele>178.60000610352</ele>
        <time>2015-12-28T12:01:30.000Z</time>
      </trkpt>
      <trkpt lat="48.68411" lon="2.03154">
        <ele>178.39999389648</ele>
        <time>2015-12-28T12:01:36.000Z</time>
      </trkpt>
      <trkpt lat="48.68401" lon="2.03152">
        <ele>178.19999694824</ele>
        <time>2015-12-28T12:01:42.000Z</time>
      </trkpt>
      <trkpt lat="48.68389" lon="2.03149">
        <ele>178</ele>
        <time>2015-12-28T12:01:50.000Z</time>
      </trkpt>
      <trkpt lat="48.68378" lon="2.03145">
        <ele>177.80000305176</ele>
        <time>2015-12-28T12:01:58.000Z</time>
      </trkpt>
      <trkpt lat="48.68369" lon="2.03141">
        <ele>177.60000610352</ele>
        <time>2015-12-28T12:02:04.000Z</time>
      </trkpt>
      <trkpt lat="48.6836" lon="2.03137">
        <ele>177.39999389648</ele>
        <time>2015-12-28T12:02:11.000Z</time>
      </trkpt>
      <trkpt lat="48.68349" lon="2.03134">
        <ele>177.19999694824</ele>
        <time>2015-12-28T12:02:18.000Z</time>
      </trkpt>
      <trkpt lat="48.68339" lon="2.0313">
        <ele>177.39999389648</ele>
        <time>2015-12-28T12:02:25.000Z</time>
      </trkpt>
      <trkpt lat="48.68328" lon="2.03125">
        <ele>177.39999389648</ele>
        <time>2015-12-28T12:02:33.000Z</time>
      </trkpt>
      <trkpt lat="48.6832" lon="2.03121">
        <ele>177.39999389648</ele>
        <time>2015-12-28T12:02:39.000Z</time>
      </trkpt>
      <trkpt lat="48.6831" lon="2.03117">
        <ele>177.39999389648</ele>
        <time>2015-12-28T12:02:46.000Z</time>
      </trkpt>
      <trkpt lat="48.68298" lon="2.03113">
        <ele>177.39999389648</ele>
        <time>2015-12-28T12:02:54.000Z</time>
      </trkpt>
      <trkpt lat="48.68292" lon="2.03112">
        <ele>177.39999389648</ele>
        <time>2015-12-28T12:02:58.000Z</time>
      </trkpt>
      <trkpt lat="48.68289" lon="2.03111">
        <ele>177.39999389648</ele>
        <time>2015-12-28T12:03:00.000Z</time>
      </trkpt>
      <trkpt lat="48.68287" lon="2.0311">
        <ele>177.39999389648</ele>
        <time>2015-12-28T12:03:02.000Z</time>
      </trkpt>
      <trkpt lat="48.68283" lon="2.03108">
        <ele>177.39999389648</ele>
        <time>2015-12-28T12:03:05.000Z</time>
      </trkpt>
      <trkpt lat="48.68274" lon="2.03103">
        <ele>177.39999389648</ele>
        <time>2015-12-28T12:03:12.000Z</time>
      </trkpt>
      <trkpt lat="48.68273" lon="2.03103">
        <ele>177.39999389648</ele>
        <time>2015-12-28T12:03:13.000Z</time>
      </trkpt>
      <trkpt lat="48.68265" lon="2.03101">
        <ele>177</ele>
        <time>2015-12-28T12:03:19.000Z</time>
      </trkpt>
      <trkpt lat="48.68257" lon="2.03097">
        <ele>176.19999694824</ele>
        <time>2015-12-28T12:03:25.000Z</time>
      </trkpt>
      <trkpt lat="48.68256" lon="2.03096">
        <ele>176.19999694824</ele>
        <time>2015-12-28T12:03:28.000Z</time>
      </trkpt>
      <trkpt lat="48.68244" lon="2.03088">
        <ele>175.19999694824</ele>
        <time>2015-12-28T12:03:52.000Z</time>
      </trkpt>
      <trkpt lat="48.68241" lon="2.03087">
        <ele>175</ele>
        <time>2015-12-28T12:03:54.000Z</time>
      </trkpt>
      <trkpt lat="48.68232" lon="2.0308">
        <ele>174.19999694824</ele>
        <time>2015-12-28T12:04:01.000Z</time>
      </trkpt>
      <trkpt lat="48.68231" lon="2.03078">
        <ele>174.19999694824</ele>
        <time>2015-12-28T12:04:02.000Z</time>
      </trkpt>
      <trkpt lat="48.6823" lon="2.03075">
        <ele>174.19999694824</ele>
        <time>2015-12-28T12:04:04.000Z</time>
      </trkpt>
      <trkpt lat="48.68229" lon="2.03072">
        <ele>174</ele>
        <time>2015-12-28T12:04:06.000Z</time>
      </trkpt>
      <trkpt lat="48.68228" lon="2.03068">
        <ele>173.80000305176</ele>
        <time>2015-12-28T12:04:08.000Z</time>
      </trkpt>
      <trkpt lat="48.68225" lon="2.03057">
        <ele>173.39999389648</ele>
        <time>2015-12-28T12:04:13.000Z</time>
      </trkpt>
      <trkpt lat="48.68225" lon="2.0305">
        <ele>173</ele>
        <time>2015-12-28T12:04:16.000Z</time>
      </trkpt>
      <trkpt lat="48.68224" lon="2.03043">
        <ele>172.80000305176</ele>
        <time>2015-12-28T12:04:19.000Z</time>
      </trkpt>
      <trkpt lat="48.68223" lon="2.03038">
        <ele>172.60000610352</ele>
        <time>2015-12-28T12:04:22.000Z</time>
      </trkpt>
      <trkpt lat="48.6822" lon="2.03031">
        <ele>172.19999694824</ele>
        <time>2015-12-28T12:04:26.000Z</time>
      </trkpt>
      <trkpt lat="48.68219" lon="2.03029">
        <ele>172</ele>
        <time>2015-12-28T12:04:28.000Z</time>
      </trkpt>
      <trkpt lat="48.68215" lon="2.03024">
        <ele>171.39999389648</ele>
        <time>2015-12-28T12:04:31.000Z</time>
      </trkpt>
      <trkpt lat="48.68205" lon="2.03015">
        <ele>170.39999389648</ele>
        <time>2015-12-28T12:04:38.000Z</time>
      </trkpt>
      <trkpt lat="48.68205" lon="2.03014">
        <ele>170.19999694824</ele>
        <time>2015-12-28T12:04:40.000Z</time>
      </trkpt>
      <trkpt lat="48.68164" lon="2.02998">
        <ele>167.80000305176</ele>
        <time>2015-12-28T12:07:30.000Z</time>
      </trkpt>
      <trkpt lat="48.68163" lon="2.02997">
        <ele>167.80000305176</ele>
        <time>2015-12-28T12:07:31.000Z</time>
      </trkpt>
      <trkpt lat="48.68155" lon="2.02998">
        <ele>167.80000305176</ele>
        <time>2015-12-28T12:07:37.000Z</time>
      </trkpt>
      <trkpt lat="48.68153" lon="2.02997">
        <ele>167.80000305176</ele>
        <time>2015-12-28T12:07:38.000Z</time>
      </trkpt>
      <trkpt lat="48.68142" lon="2.02997">
        <ele>167.60000610352</ele>
        <time>2015-12-28T12:07:46.000Z</time>
      </trkpt>
      <trkpt lat="48.68134" lon="2.02995">
        <ele>167.39999389648</ele>
        <time>2015-12-28T12:07:52.000Z</time>
      </trkpt>
      <trkpt lat="48.68132" lon="2.02995">
        <ele>167.39999389648</ele>
        <time>2015-12-28T12:07:53.000Z</time>
      </trkpt>
      <trkpt lat="48.68124" lon="2.02997">
        <ele>167.39999389648</ele>
        <time>2015-12-28T12:07:59.000Z</time>
      </trkpt>
      <trkpt lat="48.68114" lon="2.02998">
        <ele>167.19999694824</ele>
        <time>2015-12-28T12:08:06.000Z</time>
      </trkpt>
      <trkpt lat="48.68107" lon="2.02997">
        <ele>167.19999694824</ele>
        <time>2015-12-28T12:08:12.000Z</time>
      </trkpt>
      <trkpt lat="48.68097" lon="2.02997">
        <ele>166.80000305176</ele>
        <time>2015-12-28T12:08:19.000Z</time>
      </trkpt>
      <trkpt lat="48.68087" lon="2.02996">
        <ele>166.39999389648</ele>
        <time>2015-12-28T12:08:26.000Z</time>
      </trkpt>
      <trkpt lat="48.68073" lon="2.02994">
        <ele>165.80000305176</ele>
        <time>2015-12-28T12:08:35.000Z</time>
      </trkpt>
      <trkpt lat="48.68058" lon="2.02992">
        <ele>165.39999389648</ele>
        <time>2015-12-28T12:08:44.000Z</time>
      </trkpt>
      <trkpt lat="48.68052" lon="2.02991">
        <ele>165.19999694824</ele>
        <time>2015-12-28T12:08:49.000Z</time>
      </trkpt>
      <trkpt lat="48.6805" lon="2.02989">
        <ele>165</ele>
        <time>2015-12-28T12:08:51.000Z</time>
      </trkpt>
      <trkpt lat="48.68039" lon="2.02978">
        <ele>164.39999389648</ele>
        <time>2015-12-28T12:09:00.000Z</time>
      </trkpt>
      <trkpt lat="48.68038" lon="2.02976">
        <ele>164.19999694824</ele>
        <time>2015-12-28T12:09:01.000Z</time>
      </trkpt>
      <trkpt lat="48.68033" lon="2.0297">
        <ele>164</ele>
        <time>2015-12-28T12:09:05.000Z</time>
      </trkpt>
      <trkpt lat="48.68026" lon="2.02962">
        <ele>163.60000610352</ele>
        <time>2015-12-28T12:09:11.000Z</time>
      </trkpt>
      <trkpt lat="48.68025" lon="2.02961">
        <ele>163.39999389648</ele>
        <time>2015-12-28T12:09:12.000Z</time>
      </trkpt>
      <trkpt lat="48.68016" lon="2.02953">
        <ele>163.19999694824</ele>
        <time>2015-12-28T12:09:19.000Z</time>
      </trkpt>
      <trkpt lat="48.68002" lon="2.02945">
        <ele>163.80000305176</ele>
        <time>2015-12-28T12:09:29.000Z</time>
      </trkpt>
      <trkpt lat="48.6799" lon="2.02942">
        <ele>164.19999694824</ele>
        <time>2015-12-28T12:09:37.000Z</time>
      </trkpt>
      <trkpt lat="48.6798" lon="2.02936">
        <ele>164.60000610352</ele>
        <time>2015-12-28T12:09:44.000Z</time>
      </trkpt>
      <trkpt lat="48.6797" lon="2.02925">
        <ele>164.80000305176</ele>
        <time>2015-12-28T12:09:52.000Z</time>
      </trkpt>
      <trkpt lat="48.67964" lon="2.02906">
        <ele>164.60000610352</ele>
        <time>2015-12-28T12:10:01.000Z</time>
      </trkpt>
      <trkpt lat="48.67965" lon="2.02896">
        <ele>164.39999389648</ele>
        <time>2015-12-28T12:10:06.000Z</time>
      </trkpt>
      <trkpt lat="48.67965" lon="2.02894">
        <ele>164.39999389648</ele>
        <time>2015-12-28T12:10:07.000Z</time>
      </trkpt>
      <trkpt lat="48.67967" lon="2.02887">
        <ele>164.19999694824</ele>
        <time>2015-12-28T12:10:11.000Z</time>
      </trkpt>
      <trkpt lat="48.67968" lon="2.02881">
        <ele>164.19999694824</ele>
        <time>2015-12-28T12:10:14.000Z</time>
      </trkpt>
      <trkpt lat="48.6797" lon="2.02864">
        <ele>163.80000305176</ele>
        <time>2015-12-28T12:10:22.000Z</time>
      </trkpt>
      <trkpt lat="48.67975" lon="2.02842">
        <ele>163.19999694824</ele>
        <time>2015-12-28T12:10:32.000Z</time>
      </trkpt>
      <trkpt lat="48.67977" lon="2.0283">
        <ele>162.60000610352</ele>
        <time>2015-12-28T12:10:40.000Z</time>
      </trkpt>
      <trkpt lat="48.67972" lon="2.02813">
        <ele>162.60000610352</ele>
        <time>2015-12-28T12:10:50.000Z</time>
      </trkpt>
      <trkpt lat="48.67972" lon="2.02807">
        <ele>162.60000610352</ele>
        <time>2015-12-28T12:10:53.000Z</time>
      </trkpt>
      <trkpt lat="48.67973" lon="2.02797">
        <ele>162.39999389648</ele>
        <time>2015-12-28T12:10:58.000Z</time>
      </trkpt>
      <trkpt lat="48.67974" lon="2.02793">
        <ele>162.39999389648</ele>
        <time>2015-12-28T12:11:00.000Z</time>
      </trkpt>
      <trkpt lat="48.67979" lon="2.02782">
        <ele>162</ele>
        <time>2015-12-28T12:11:06.000Z</time>
      </trkpt>
      <trkpt lat="48.67983" lon="2.02766">
        <ele>162.39999389648</ele>
        <time>2015-12-28T12:11:14.000Z</time>
      </trkpt>
      <trkpt lat="48.67984" lon="2.02761">
        <ele>162.39999389648</ele>
        <time>2015-12-28T12:11:16.000Z</time>
      </trkpt>
      <trkpt lat="48.67984" lon="2.0276">
        <ele>162.39999389648</ele>
        <time>2015-12-28T12:11:18.000Z</time>
      </trkpt>
      <trkpt lat="48.67984" lon="2.02759">
        <ele>162.39999389648</ele>
        <time>2015-12-28T12:11:19.000Z</time>
      </trkpt>
      <trkpt lat="48.67986" lon="2.02743">
        <ele>162.80000305176</ele>
        <time>2015-12-28T12:11:28.000Z</time>
      </trkpt>
      <trkpt lat="48.67987" lon="2.02739">
        <ele>162.60000610352</ele>
        <time>2015-12-28T12:11:30.000Z</time>
      </trkpt>
      <trkpt lat="48.67986" lon="2.02738">
        <ele>162.60000610352</ele>
        <time>2015-12-28T12:11:31.000Z</time>
      </trkpt>
      <trkpt lat="48.67984" lon="2.02731">
        <ele>162.19999694824</ele>
        <time>2015-12-28T12:11:35.000Z</time>
      </trkpt>
      <trkpt lat="48.67985" lon="2.02723">
        <ele>161.60000610352</ele>
        <time>2015-12-28T12:11:40.000Z</time>
      </trkpt>
      <trkpt lat="48.67984" lon="2.02722">
        <ele>161.60000610352</ele>
        <time>2015-12-28T12:11:41.000Z</time>
      </trkpt>
      <trkpt lat="48.67983" lon="2.02715">
        <ele>161.19999694824</ele>
        <time>2015-12-28T12:11:45.000Z</time>
      </trkpt>
      <trkpt lat="48.6798" lon="2.02708">
        <ele>160.80000305176</ele>
        <time>2015-12-28T12:11:51.000Z</time>
      </trkpt>
      <trkpt lat="48.67978" lon="2.02702">
        <ele>160.60000610352</ele>
        <time>2015-12-28T12:11:54.000Z</time>
      </trkpt>
      <trkpt lat="48.67977" lon="2.02699">
        <ele>160.39999389648</ele>
        <time>2015-12-28T12:11:56.000Z</time>
      </trkpt>
      <trkpt lat="48.67974" lon="2.02695">
        <ele>160.19999694824</ele>
        <time>2015-12-28T12:11:59.000Z</time>
      </trkpt>
      <trkpt lat="48.67972" lon="2.02693">
        <ele>160.19999694824</ele>
        <time>2015-12-28T12:12:01.000Z</time>
      </trkpt>
      <trkpt lat="48.67969" lon="2.0269">
        <ele>160</ele>
        <time>2015-12-28T12:12:04.000Z</time>
      </trkpt>
      <trkpt lat="48.67967" lon="2.02689">
        <ele>160</ele>
        <time>2015-12-28T12:12:07.000Z</time>
      </trkpt>
      <trkpt lat="48.67964" lon="2.02687">
        <ele>160</ele>
        <time>2015-12-28T12:12:12.000Z</time>
      </trkpt>
      <trkpt lat="48.67963" lon="2.02687">
        <ele>160</ele>
        <time>2015-12-28T12:12:13.000Z</time>
      </trkpt>
      <trkpt lat="48.67957" lon="2.02683">
        <ele>160</ele>
        <time>2015-12-28T12:12:17.000Z</time>
      </trkpt>
      <trkpt lat="48.67955" lon="2.02682">
        <ele>160</ele>
        <time>2015-12-28T12:12:19.000Z</time>
      </trkpt>
      <trkpt lat="48.67953" lon="2.02681">
        <ele>160</ele>
        <time>2015-12-28T12:12:21.000Z</time>
      </trkpt>
      <trkpt lat="48.67952" lon="2.02681">
        <ele>160</ele>
        <time>2015-12-28T12:12:22.000Z</time>
      </trkpt>
      <trkpt lat="48.67947" lon="2.02677">
        <ele>159.80000305176</ele>
        <time>2015-12-28T12:12:26.000Z</time>
      </trkpt>
      <trkpt lat="48.67943" lon="2.02675">
        <ele>159.80000305176</ele>
        <time>2015-12-28T12:12:28.000Z</time>
      </trkpt>
      <trkpt lat="48.67939" lon="2.02669">
        <ele>159.60000610352</ele>
        <time>2015-12-28T12:12:30.000Z</time>
      </trkpt>
      <trkpt lat="48.67934" lon="2.02661">
        <ele>159</ele>
        <time>2015-12-28T12:12:35.000Z</time>
      </trkpt>
      <trkpt lat="48.67928" lon="2.02657">
        <ele>158.80000305176</ele>
        <time>2015-12-28T12:12:40.000Z</time>
      </trkpt>
      <trkpt lat="48.67927" lon="2.02657">
        <ele>158.80000305176</ele>
        <time>2015-12-28T12:12:41.000Z</time>
      </trkpt>
      <trkpt lat="48.6792" lon="2.02657">
        <ele>158.60000610352</ele>
        <time>2015-12-28T12:12:46.000Z</time>
      </trkpt>
      <trkpt lat="48.67919" lon="2.02656">
        <ele>158.60000610352</ele>
        <time>2015-12-28T12:12:47.000Z</time>
      </trkpt>
      <trkpt lat="48.6791" lon="2.02649">
        <ele>158.39999389648</ele>
        <time>2015-12-28T12:12:53.000Z</time>
      </trkpt>
      <trkpt lat="48.679" lon="2.02638">
        <ele>158.19999694824</ele>
        <time>2015-12-28T12:13:00.000Z</time>
      </trkpt>
      <trkpt lat="48.67893" lon="2.02628">
        <ele>158</ele>
        <time>2015-12-28T12:13:06.000Z</time>
      </trkpt>
      <trkpt lat="48.67885" lon="2.02616">
        <ele>157.80000305176</ele>
        <time>2015-12-28T12:13:13.000Z</time>
      </trkpt>
      <trkpt lat="48.67875" lon="2.02605">
        <ele>157.60000610352</ele>
        <time>2015-12-28T12:13:20.000Z</time>
      </trkpt>
      <trkpt lat="48.6787" lon="2.02592">
        <ele>157.39999389648</ele>
        <time>2015-12-28T12:13:27.000Z</time>
      </trkpt>
      <trkpt lat="48.67864" lon="2.02579">
        <ele>157.19999694824</ele>
        <time>2015-12-28T12:13:35.000Z</time>
      </trkpt>
      <trkpt lat="48.67863" lon="2.02575">
        <ele>157.19999694824</ele>
        <time>2015-12-28T12:13:37.000Z</time>
      </trkpt>
      <trkpt lat="48.67863" lon="2.02572">
        <ele>157.80000305176</ele>
        <time>2015-12-28T12:13:39.000Z</time>
      </trkpt>
      <trkpt lat="48.67861" lon="2.02561">
        <ele>159.19999694824</ele>
        <time>2015-12-28T12:13:44.000Z</time>
      </trkpt>
      <trkpt lat="48.67861" lon="2.02559">
        <ele>159.60000610352</ele>
        <time>2015-12-28T12:13:45.000Z</time>
      </trkpt>
      <trkpt lat="48.67862" lon="2.02546">
        <ele>161.39999389648</ele>
        <time>2015-12-28T12:13:49.000Z</time>
      </trkpt>
      <trkpt lat="48.67863" lon="2.02534">
        <ele>163.19999694824</ele>
        <time>2015-12-28T12:13:54.000Z</time>
      </trkpt>
      <trkpt lat="48.67864" lon="2.0253">
        <ele>163.80000305176</ele>
        <time>2015-12-28T12:13:56.000Z</time>
      </trkpt>
      <trkpt lat="48.67865" lon="2.02521">
        <ele>165.19999694824</ele>
        <time>2015-12-28T12:14:00.000Z</time>
      </trkpt>
      <trkpt lat="48.67865" lon="2.02519">
        <ele>165.39999389648</ele>
        <time>2015-12-28T12:14:01.000Z</time>
      </trkpt>
      <trkpt lat="48.67864" lon="2.02513">
        <ele>166.19999694824</ele>
        <time>2015-12-28T12:14:04.000Z</time>
      </trkpt>
      <trkpt lat="48.67865" lon="2.0251">
        <ele>166.80000305176</ele>
        <time>2015-12-28T12:14:06.000Z</time>
      </trkpt>
      <trkpt lat="48.67865" lon="2.02492">
        <ele>167.80000305176</ele>
        <time>2015-12-28T12:14:13.000Z</time>
      </trkpt>
      <trkpt lat="48.67865" lon="2.0248">
        <ele>168.19999694824</ele>
        <time>2015-12-28T12:14:18.000Z</time>
      </trkpt>
      <trkpt lat="48.67865" lon="2.02458">
        <ele>169</ele>
        <time>2015-12-28T12:14:25.000Z</time>
      </trkpt>
      <trkpt lat="48.67864" lon="2.02444">
        <ele>169.60000610352</ele>
        <time>2015-12-28T12:14:30.000Z</time>
      </trkpt>
      <trkpt lat="48.67863" lon="2.02432">
        <ele>170.19999694824</ele>
        <time>2015-12-28T12:14:36.000Z</time>
      </trkpt>
      <trkpt lat="48.67863" lon="2.02422">
        <ele>170.60000610352</ele>
        <time>2015-12-28T12:14:41.000Z</time>
      </trkpt>
      <trkpt lat="48.67865" lon="2.02405">
        <ele>171.19999694824</ele>
        <time>2015-12-28T12:14:49.000Z</time>
      </trkpt>
      <trkpt lat="48.67867" lon="2.02389">
        <ele>171</ele>
        <time>2015-12-28T12:14:56.000Z</time>
      </trkpt>
      <trkpt lat="48.67868" lon="2.02372">
        <ele>170.80000305176</ele>
        <time>2015-12-28T12:15:04.000Z</time>
      </trkpt>
      <trkpt lat="48.6787" lon="2.02358">
        <ele>170.80000305176</ele>
        <time>2015-12-28T12:15:11.000Z</time>
      </trkpt>
      <trkpt lat="48.67869" lon="2.02355">
        <ele>170.80000305176</ele>
        <time>2015-12-28T12:15:14.000Z</time>
      </trkpt>
      <trkpt lat="48.67861" lon="2.02298">
        <ele>172</ele>
        <time>2015-12-28T12:17:30.000Z</time>
      </trkpt>
      <trkpt lat="48.67861" lon="2.02296">
        <ele>172</ele>
        <time>2015-12-28T12:17:31.000Z</time>
      </trkpt>
      <trkpt lat="48.6786" lon="2.02283">
        <ele>172.19999694824</ele>
        <time>2015-12-28T12:17:37.000Z</time>
      </trkpt>
      <trkpt lat="48.6786" lon="2.02277">
        <ele>172.39999389648</ele>
        <time>2015-12-28T12:17:40.000Z</time>
      </trkpt>
      <trkpt lat="48.67861" lon="2.02271">
        <ele>172.39999389648</ele>
        <time>2015-12-28T12:17:43.000Z</time>
      </trkpt>
      <trkpt lat="48.67863" lon="2.02264">
        <ele>172.39999389648</ele>
        <time>2015-12-28T12:17:47.000Z</time>
      </trkpt>
      <trkpt lat="48.67864" lon="2.02255">
        <ele>172.39999389648</ele>
        <time>2015-12-28T12:17:51.000Z</time>
      </trkpt>
      <trkpt lat="48.67869" lon="2.02238">
        <ele>173</ele>
        <time>2015-12-28T12:17:59.000Z</time>
      </trkpt>
      <trkpt lat="48.67871" lon="2.02218">
        <ele>172.80000305176</ele>
        <time>2015-12-28T12:18:07.000Z</time>
      </trkpt>
      <trkpt lat="48.67871" lon="2.02203">
        <ele>172.60000610352</ele>
        <time>2015-12-28T12:18:13.000Z</time>
      </trkpt>
      <trkpt lat="48.67869" lon="2.02193">
        <ele>172.39999389648</ele>
        <time>2015-12-28T12:18:18.000Z</time>
      </trkpt>
      <trkpt lat="48.67866" lon="2.02173">
        <ele>172.19999694824</ele>
        <time>2015-12-28T12:18:27.000Z</time>
      </trkpt>
      <trkpt lat="48.67866" lon="2.0217">
        <ele>172.19999694824</ele>
        <time>2015-12-28T12:18:28.000Z</time>
      </trkpt>
      <trkpt lat="48.67865" lon="2.02159">
        <ele>172</ele>
        <time>2015-12-28T12:18:33.000Z</time>
      </trkpt>
      <trkpt lat="48.67865" lon="2.02156">
        <ele>172</ele>
        <time>2015-12-28T12:18:34.000Z</time>
      </trkpt>
      <trkpt lat="48.67865" lon="2.02144">
        <ele>172</ele>
        <time>2015-12-28T12:18:39.000Z</time>
      </trkpt>
      <trkpt lat="48.67865" lon="2.0214">
        <ele>172</ele>
        <time>2015-12-28T12:18:41.000Z</time>
      </trkpt>
      <trkpt lat="48.67864" lon="2.02137">
        <ele>172</ele>
        <time>2015-12-28T12:18:43.000Z</time>
      </trkpt>
      <trkpt lat="48.67864" lon="2.02132">
        <ele>172</ele>
        <time>2015-12-28T12:18:45.000Z</time>
      </trkpt>
      <trkpt lat="48.67863" lon="2.02119">
        <ele>172</ele>
        <time>2015-12-28T12:18:50.000Z</time>
      </trkpt>
      <trkpt lat="48.67862" lon="2.02101">
        <ele>172</ele>
        <time>2015-12-28T12:18:57.000Z</time>
      </trkpt>
      <trkpt lat="48.67861" lon="2.02086">
        <ele>172</ele>
        <time>2015-12-28T12:19:03.000Z</time>
      </trkpt>
      <trkpt lat="48.6786" lon="2.02068">
        <ele>171.39999389648</ele>
        <time>2015-12-28T12:19:10.000Z</time>
      </trkpt>
      <trkpt lat="48.67859" lon="2.02042">
        <ele>171.60000610352</ele>
        <time>2015-12-28T12:19:20.000Z</time>
      </trkpt>
      <trkpt lat="48.6786" lon="2.02039">
        <ele>171.60000610352</ele>
        <time>2015-12-28T12:19:21.000Z</time>
      </trkpt>
      <trkpt lat="48.67863" lon="2.02026">
        <ele>171.39999389648</ele>
        <time>2015-12-28T12:19:26.000Z</time>
      </trkpt>
      <trkpt lat="48.67865" lon="2.02011">
        <ele>171.19999694824</ele>
        <time>2015-12-28T12:19:32.000Z</time>
      </trkpt>
      <trkpt lat="48.67866" lon="2.02004">
        <ele>171</ele>
        <time>2015-12-28T12:19:35.000Z</time>
      </trkpt>
      <trkpt lat="48.67867" lon="2.01999">
        <ele>171.19999694824</ele>
        <time>2015-12-28T12:19:37.000Z</time>
      </trkpt>
      <trkpt lat="48.67869" lon="2.0199">
        <ele>171.39999389648</ele>
        <time>2015-12-28T12:19:41.000Z</time>
      </trkpt>
      <trkpt lat="48.67871" lon="2.01983">
        <ele>171.19999694824</ele>
        <time>2015-12-28T12:19:44.000Z</time>
      </trkpt>
      <trkpt lat="48.67871" lon="2.01981">
        <ele>171.19999694824</ele>
        <time>2015-12-28T12:19:45.000Z</time>
      </trkpt>
      <trkpt lat="48.67872" lon="2.01971">
        <ele>171</ele>
        <time>2015-12-28T12:19:49.000Z</time>
      </trkpt>
      <trkpt lat="48.67874" lon="2.01951">
        <ele>170.80000305176</ele>
        <time>2015-12-28T12:19:57.000Z</time>
      </trkpt>
      <trkpt lat="48.67876" lon="2.01934">
        <ele>170.39999389648</ele>
        <time>2015-12-28T12:20:04.000Z</time>
      </trkpt>
      <trkpt lat="48.67878" lon="2.01919">
        <ele>171.39999389648</ele>
        <time>2015-12-28T12:20:10.000Z</time>
      </trkpt>
      <trkpt lat="48.67878" lon="2.01915">
        <ele>171.80000305176</ele>
        <time>2015-12-28T12:20:12.000Z</time>
      </trkpt>
      <trkpt lat="48.67879" lon="2.0191">
        <ele>172.19999694824</ele>
        <time>2015-12-28T12:20:14.000Z</time>
      </trkpt>
      <trkpt lat="48.6788" lon="2.01908">
        <ele>172.39999389648</ele>
        <time>2015-12-28T12:20:15.000Z</time>
      </trkpt>
      <trkpt lat="48.67881" lon="2.019">
        <ele>172.60000610352</ele>
        <time>2015-12-28T12:20:18.000Z</time>
      </trkpt>
      <trkpt lat="48.67881" lon="2.01888">
        <ele>172.80000305176</ele>
        <time>2015-12-28T12:20:23.000Z</time>
      </trkpt>
      <trkpt lat="48.67883" lon="2.01873">
        <ele>173.39999389648</ele>
        <time>2015-12-28T12:20:29.000Z</time>
      </trkpt>
      <trkpt lat="48.67885" lon="2.0186">
        <ele>173.60000610352</ele>
        <time>2015-12-28T12:20:35.000Z</time>
      </trkpt>
      <trkpt lat="48.67885" lon="2.01851">
        <ele>173.80000305176</ele>
        <time>2015-12-28T12:20:39.000Z</time>
      </trkpt>
      <trkpt lat="48.67885" lon="2.01846">
        <ele>173.80000305176</ele>
        <time>2015-12-28T12:20:41.000Z</time>
      </trkpt>
      <trkpt lat="48.67886" lon="2.01827">
        <ele>173.80000305176</ele>
        <time>2015-12-28T12:20:48.000Z</time>
      </trkpt>
      <trkpt lat="48.67888" lon="2.01811">
        <ele>173.80000305176</ele>
        <time>2015-12-28T12:20:54.000Z</time>
      </trkpt>
      <trkpt lat="48.6789" lon="2.01795">
        <ele>173.80000305176</ele>
        <time>2015-12-28T12:21:00.000Z</time>
      </trkpt>
      <trkpt lat="48.6789" lon="2.01793">
        <ele>173.80000305176</ele>
        <time>2015-12-28T12:21:01.000Z</time>
      </trkpt>
      <trkpt lat="48.67891" lon="2.01786">
        <ele>174</ele>
        <time>2015-12-28T12:21:04.000Z</time>
      </trkpt>
      <trkpt lat="48.67892" lon="2.01768">
        <ele>174.19999694824</ele>
        <time>2015-12-28T12:21:12.000Z</time>
      </trkpt>
      <trkpt lat="48.67893" lon="2.01763">
        <ele>174.39999389648</ele>
        <time>2015-12-28T12:21:16.000Z</time>
      </trkpt>
      <trkpt lat="48.67893" lon="2.01757">
        <ele>174.60000610352</ele>
        <time>2015-12-28T12:21:19.000Z</time>
      </trkpt>
      <trkpt lat="48.67892" lon="2.0175">
        <ele>174.60000610352</ele>
        <time>2015-12-28T12:21:22.000Z</time>
      </trkpt>
      <trkpt lat="48.67892" lon="2.01745">
        <ele>174.80000305176</ele>
        <time>2015-12-28T12:21:24.000Z</time>
      </trkpt>
      <trkpt lat="48.67891" lon="2.01739">
        <ele>174.80000305176</ele>
        <time>2015-12-28T12:21:27.000Z</time>
      </trkpt>
      <trkpt lat="48.6789" lon="2.01729">
        <ele>175</ele>
        <time>2015-12-28T12:21:31.000Z</time>
      </trkpt>
      <trkpt lat="48.67889" lon="2.01724">
        <ele>175</ele>
        <time>2015-12-28T12:21:33.000Z</time>
      </trkpt>
      <trkpt lat="48.67887" lon="2.01711">
        <ele>175</ele>
        <time>2015-12-28T12:21:39.000Z</time>
      </trkpt>
      <trkpt lat="48.67886" lon="2.01698">
        <ele>175</ele>
        <time>2015-12-28T12:21:45.000Z</time>
      </trkpt>
      <trkpt lat="48.67883" lon="2.01686">
        <ele>175.19999694824</ele>
        <time>2015-12-28T12:21:51.000Z</time>
      </trkpt>
      <trkpt lat="48.67883" lon="2.01684">
        <ele>175.19999694824</ele>
        <time>2015-12-28T12:21:52.000Z</time>
      </trkpt>
      <trkpt lat="48.67881" lon="2.01673">
        <ele>175.19999694824</ele>
        <time>2015-12-28T12:21:57.000Z</time>
      </trkpt>
      <trkpt lat="48.6788" lon="2.01658">
        <ele>175.39999389648</ele>
        <time>2015-12-28T12:22:04.000Z</time>
      </trkpt>
      <trkpt lat="48.67879" lon="2.01645">
        <ele>175.19999694824</ele>
        <time>2015-12-28T12:22:10.000Z</time>
      </trkpt>
      <trkpt lat="48.67878" lon="2.01641">
        <ele>175.19999694824</ele>
        <time>2015-12-28T12:22:12.000Z</time>
      </trkpt>
      <trkpt lat="48.67877" lon="2.01633">
        <ele>175.19999694824</ele>
        <time>2015-12-28T12:22:15.000Z</time>
      </trkpt>
      <trkpt lat="48.67877" lon="2.01631">
        <ele>175.19999694824</ele>
        <time>2015-12-28T12:22:16.000Z</time>
      </trkpt>
      <trkpt lat="48.67876" lon="2.01617">
        <ele>175</ele>
        <time>2015-12-28T12:22:22.000Z</time>
      </trkpt>
      <trkpt lat="48.67874" lon="2.01601">
        <ele>175</ele>
        <time>2015-12-28T12:22:29.000Z</time>
      </trkpt>
      <trkpt lat="48.67872" lon="2.01585">
        <ele>174.60000610352</ele>
        <time>2015-12-28T12:22:36.000Z</time>
      </trkpt>
      <trkpt lat="48.6787" lon="2.01574">
        <ele>174.39999389648</ele>
        <time>2015-12-28T12:22:41.000Z</time>
      </trkpt>
      <trkpt lat="48.67869" lon="2.01563">
        <ele>174</ele>
        <time>2015-12-28T12:22:46.000Z</time>
      </trkpt>
      <trkpt lat="48.67869" lon="2.01561">
        <ele>174</ele>
        <time>2015-12-28T12:22:47.000Z</time>
      </trkpt>
      <trkpt lat="48.67868" lon="2.01555">
        <ele>173.80000305176</ele>
        <time>2015-12-28T12:22:50.000Z</time>
      </trkpt>
      <trkpt lat="48.67867" lon="2.01548">
        <ele>173.60000610352</ele>
        <time>2015-12-28T12:22:53.000Z</time>
      </trkpt>
      <trkpt lat="48.67865" lon="2.01536">
        <ele>173.39999389648</ele>
        <time>2015-12-28T12:22:58.000Z</time>
      </trkpt>
      <trkpt lat="48.67864" lon="2.01522">
        <ele>173</ele>
        <time>2015-12-28T12:23:04.000Z</time>
      </trkpt>
      <trkpt lat="48.67863" lon="2.015">
        <ele>172.39999389648</ele>
        <time>2015-12-28T12:23:13.000Z</time>
      </trkpt>
      <trkpt lat="48.67864" lon="2.01493">
        <ele>172.19999694824</ele>
        <time>2015-12-28T12:23:16.000Z</time>
      </trkpt>
      <trkpt lat="48.67864" lon="2.01488">
        <ele>172.19999694824</ele>
        <time>2015-12-28T12:23:18.000Z</time>
      </trkpt>
      <trkpt lat="48.67864" lon="2.01469">
        <ele>172.19999694824</ele>
        <time>2015-12-28T12:23:26.000Z</time>
      </trkpt>
      <trkpt lat="48.67864" lon="2.01451">
        <ele>172.19999694824</ele>
        <time>2015-12-28T12:23:33.000Z</time>
      </trkpt>
      <trkpt lat="48.67864" lon="2.01444">
        <ele>172.19999694824</ele>
        <time>2015-12-28T12:23:36.000Z</time>
      </trkpt>
      <trkpt lat="48.67864" lon="2.01438">
        <ele>172.19999694824</ele>
        <time>2015-12-28T12:23:38.000Z</time>
      </trkpt>
      <trkpt lat="48.67863" lon="2.01424">
        <ele>172.19999694824</ele>
        <time>2015-12-28T12:23:44.000Z</time>
      </trkpt>
      <trkpt lat="48.67864" lon="2.0142">
        <ele>172.19999694824</ele>
        <time>2015-12-28T12:23:46.000Z</time>
      </trkpt>
      <trkpt lat="48.67865" lon="2.01413">
        <ele>172</ele>
        <time>2015-12-28T12:23:49.000Z</time>
      </trkpt>
      <trkpt lat="48.67866" lon="2.01406">
        <ele>171.80000305176</ele>
        <time>2015-12-28T12:23:55.000Z</time>
      </trkpt>
      <trkpt lat="48.67867" lon="2.01402">
        <ele>172.19999694824</ele>
        <time>2015-12-28T12:23:59.000Z</time>
      </trkpt>
      <trkpt lat="48.67867" lon="2.01398">
        <ele>172.39999389648</ele>
        <time>2015-12-28T12:24:01.000Z</time>
      </trkpt>
      <trkpt lat="48.67867" lon="2.01391">
        <ele>173</ele>
        <time>2015-12-28T12:24:05.000Z</time>
      </trkpt>
      <trkpt lat="48.67868" lon="2.0138">
        <ele>173.80000305176</ele>
        <time>2015-12-28T12:24:10.000Z</time>
      </trkpt>
      <trkpt lat="48.67869" lon="2.01375">
        <ele>174</ele>
        <time>2015-12-28T12:24:12.000Z</time>
      </trkpt>
      <trkpt lat="48.67869" lon="2.01374">
        <ele>174</ele>
        <time>2015-12-28T12:24:14.000Z</time>
      </trkpt>
      <trkpt lat="48.67953" lon="2.01285">
        <ele>163</ele>
        <time>2015-12-28T12:38:39.000Z</time>
      </trkpt>
      <trkpt lat="48.67955" lon="2.01284">
        <ele>162.80000305176</ele>
        <time>2015-12-28T12:38:40.000Z</time>
      </trkpt>
      <trkpt lat="48.67964" lon="2.01276">
        <ele>161.60000610352</ele>
        <time>2015-12-28T12:38:48.000Z</time>
      </trkpt>
      <trkpt lat="48.67964" lon="2.01275">
        <ele>161.60000610352</ele>
        <time>2015-12-28T12:38:49.000Z</time>
      </trkpt>
      <trkpt lat="48.67967" lon="2.01269">
        <ele>161.19999694824</ele>
        <time>2015-12-28T12:38:54.000Z</time>
      </trkpt>
      <trkpt lat="48.67972" lon="2.01259">
        <ele>160.80000305176</ele>
        <time>2015-12-28T12:38:58.000Z</time>
      </trkpt>
      <trkpt lat="48.67974" lon="2.01256">
        <ele>160.80000305176</ele>
        <time>2015-12-28T12:39:02.000Z</time>
      </trkpt>
      <trkpt lat="48.67974" lon="2.01255">
        <ele>160.80000305176</ele>
        <time>2015-12-28T12:39:03.000Z</time>
      </trkpt>
      <trkpt lat="48.67976" lon="2.01251">
        <ele>160.60000610352</ele>
        <time>2015-12-28T12:39:07.000Z</time>
      </trkpt>
      <trkpt lat="48.67978" lon="2.01247">
        <ele>160.60000610352</ele>
        <time>2015-12-28T12:39:11.000Z</time>
      </trkpt>
      <trkpt lat="48.67977" lon="2.01245">
        <ele>160.60000610352</ele>
        <time>2015-12-28T12:39:12.000Z</time>
      </trkpt>
      <trkpt lat="48.67976" lon="2.01239">
        <ele>160.39999389648</ele>
        <time>2015-12-28T12:39:15.000Z</time>
      </trkpt>
      <trkpt lat="48.67976" lon="2.0123">
        <ele>160</ele>
        <time>2015-12-28T12:39:21.000Z</time>
      </trkpt>
      <trkpt lat="48.67976" lon="2.01223">
        <ele>159.60000610352</ele>
        <time>2015-12-28T12:39:26.000Z</time>
      </trkpt>
      <trkpt lat="48.67976" lon="2.01221">
        <ele>159.60000610352</ele>
        <time>2015-12-28T12:39:28.000Z</time>
      </trkpt>
      <trkpt lat="48.67978" lon="2.01174">
        <ele>159.39999389648</ele>
        <time>2015-12-28T12:39:56.000Z</time>
      </trkpt>
      <trkpt lat="48.67978" lon="2.01172">
        <ele>159.60000610352</ele>
        <time>2015-12-28T12:39:57.000Z</time>
      </trkpt>
      <trkpt lat="48.67979" lon="2.01167">
        <ele>159.80000305176</ele>
        <time>2015-12-28T12:40:00.000Z</time>
      </trkpt>
      <trkpt lat="48.67978" lon="2.01163">
        <ele>159.80000305176</ele>
        <time>2015-12-28T12:40:02.000Z</time>
      </trkpt>
      <trkpt lat="48.67979" lon="2.0116">
        <ele>160</ele>
        <time>2015-12-28T12:40:05.000Z</time>
      </trkpt>
      <trkpt lat="48.67979" lon="2.01151">
        <ele>160.39999389648</ele>
        <time>2015-12-28T12:40:11.000Z</time>
      </trkpt>
      <trkpt lat="48.67979" lon="2.0115">
        <ele>160.39999389648</ele>
        <time>2015-12-28T12:40:12.000Z</time>
      </trkpt>
      <trkpt lat="48.67978" lon="2.01138">
        <ele>161</ele>
        <time>2015-12-28T12:40:20.000Z</time>
      </trkpt>
      <trkpt lat="48.67978" lon="2.01131">
        <ele>161.39999389648</ele>
        <time>2015-12-28T12:40:25.000Z</time>
      </trkpt>
      <trkpt lat="48.67978" lon="2.01128">
        <ele>161.39999389648</ele>
        <time>2015-12-28T12:40:27.000Z</time>
      </trkpt>
      <trkpt lat="48.67979" lon="2.01122">
        <ele>161.80000305176</ele>
        <time>2015-12-28T12:40:30.000Z</time>
      </trkpt>
      <trkpt lat="48.67979" lon="2.0112">
        <ele>161.80000305176</ele>
        <time>2015-12-28T12:40:32.000Z</time>
      </trkpt>
      <trkpt lat="48.67978" lon="2.01118">
        <ele>162</ele>
        <time>2015-12-28T12:40:34.000Z</time>
      </trkpt>
      <trkpt lat="48.67978" lon="2.01117">
        <ele>162</ele>
        <time>2015-12-28T12:40:35.000Z</time>
      </trkpt>
      <trkpt lat="48.67978" lon="2.01113">
        <ele>162</ele>
        <time>2015-12-28T12:40:39.000Z</time>
      </trkpt>
      <trkpt lat="48.67977" lon="2.01113">
        <ele>162</ele>
        <time>2015-12-28T12:40:40.000Z</time>
      </trkpt>
      <trkpt lat="48.67977" lon="2.01113">
        <ele>162.19999694824</ele>
        <time>2015-12-28T12:40:41.000Z</time>
      </trkpt>
      <trkpt lat="48.67981" lon="2.0108">
        <ele>162.80000305176</ele>
        <time>2015-12-28T12:41:12.000Z</time>
      </trkpt>
      <trkpt lat="48.67981" lon="2.01074">
        <ele>163.19999694824</ele>
        <time>2015-12-28T12:41:15.000Z</time>
      </trkpt>
      <trkpt lat="48.67981" lon="2.0106">
        <ele>164.19999694824</ele>
        <time>2015-12-28T12:41:22.000Z</time>
      </trkpt>
      <trkpt lat="48.67981" lon="2.0106">
        <ele>164.19999694824</ele>
        <time>2015-12-28T12:41:23.000Z</time>
      </trkpt>
      <trkpt lat="48.6798" lon="2.01058">
        <ele>164.39999389648</ele>
        <time>2015-12-28T12:41:24.000Z</time>
      </trkpt>
      <trkpt lat="48.67981" lon="2.01056">
        <ele>164.60000610352</ele>
        <time>2015-12-28T12:41:26.000Z</time>
      </trkpt>
      <trkpt lat="48.6798" lon="2.01048">
        <ele>165.19999694824</ele>
        <time>2015-12-28T12:41:30.000Z</time>
      </trkpt>
      <trkpt lat="48.6798" lon="2.01044">
        <ele>165.60000610352</ele>
        <time>2015-12-28T12:41:32.000Z</time>
      </trkpt>
      <trkpt lat="48.6798" lon="2.01043">
        <ele>165.80000305176</ele>
        <time>2015-12-28T12:41:33.000Z</time>
      </trkpt>
      <trkpt lat="48.67981" lon="2.01041">
        <ele>165.80000305176</ele>
        <time>2015-12-28T12:41:36.000Z</time>
      </trkpt>
      <trkpt lat="48.67986" lon="2.00994">
        <ele>168.80000305176</ele>
        <time>2015-12-28T12:43:02.000Z</time>
      </trkpt>
      <trkpt lat="48.67986" lon="2.00994">
        <ele>168.60000610352</ele>
        <time>2015-12-28T12:43:03.000Z</time>
      </trkpt>
      <trkpt lat="48.68027" lon="2.0087">
        <ele>168.60000610352</ele>
        <time>2015-12-28T12:45:45.000Z</time>
      </trkpt>
      <trkpt lat="48.68028" lon="2.0087">
        <ele>168.60000610352</ele>
        <time>2015-12-28T12:45:46.000Z</time>
      </trkpt>
      <trkpt lat="48.68029" lon="2.0087">
        <ele>168.60000610352</ele>
        <time>2015-12-28T12:45:48.000Z</time>
      </trkpt>
      <trkpt lat="48.6803" lon="2.00851">
        <ele>168.80000305176</ele>
        <time>2015-12-28T12:48:14.000Z</time>
      </trkpt>
      <trkpt lat="48.68028" lon="2.00849">
        <ele>168.60000610352</ele>
        <time>2015-12-28T12:48:16.000Z</time>
      </trkpt>
      <trkpt lat="48.68025" lon="2.00847">
        <ele>168.39999389648</ele>
        <time>2015-12-28T12:48:18.000Z</time>
      </trkpt>
      <trkpt lat="48.68021" lon="2.00843">
        <ele>168</ele>
        <time>2015-12-28T12:48:22.000Z</time>
      </trkpt>
      <trkpt lat="48.68011" lon="2.00834">
        <ele>168</ele>
        <time>2015-12-28T12:48:30.000Z</time>
      </trkpt>
      <trkpt lat="48.68008" lon="2.0083">
        <ele>168</ele>
        <time>2015-12-28T12:48:35.000Z</time>
      </trkpt>
      <trkpt lat="48.68008" lon="2.0083">
        <ele>168</ele>
        <time>2015-12-28T12:48:36.000Z</time>
      </trkpt>
      <trkpt lat="48.6799" lon="2.0081">
        <ele>168.60000610352</ele>
        <time>2015-12-28T12:49:00.000Z</time>
      </trkpt>
      <trkpt lat="48.67987" lon="2.00807">
        <ele>168.60000610352</ele>
        <time>2015-12-28T12:49:03.000Z</time>
      </trkpt>
      <trkpt lat="48.67985" lon="2.00805">
        <ele>168.80000305176</ele>
        <time>2015-12-28T12:49:05.000Z</time>
      </trkpt>
      <trkpt lat="48.67983" lon="2.008">
        <ele>169</ele>
        <time>2015-12-28T12:49:08.000Z</time>
      </trkpt>
      <trkpt lat="48.67983" lon="2.00799">
        <ele>169</ele>
        <time>2015-12-28T12:49:10.000Z</time>
      </trkpt>
      <trkpt lat="48.67963" lon="2.00773">
        <ele>169.80000305176</ele>
        <time>2015-12-28T12:49:39.000Z</time>
      </trkpt>
      <trkpt lat="48.67962" lon="2.00771">
        <ele>170</ele>
        <time>2015-12-28T12:49:40.000Z</time>
      </trkpt>
      <trkpt lat="48.67956" lon="2.00765">
        <ele>170.19999694824</ele>
        <time>2015-12-28T12:49:46.000Z</time>
      </trkpt>
      <trkpt lat="48.67954" lon="2.00761">
        <ele>170.39999389648</ele>
        <time>2015-12-28T12:49:49.000Z</time>
      </trkpt>
      <trkpt lat="48.67952" lon="2.00758">
        <ele>170.39999389648</ele>
        <time>2015-12-28T12:49:51.000Z</time>
      </trkpt>
      <trkpt lat="48.67946" lon="2.00751">
        <ele>170.60000610352</ele>
        <time>2015-12-28T12:49:57.000Z</time>
      </trkpt>
      <trkpt lat="48.67945" lon="2.0075">
        <ele>170.60000610352</ele>
        <time>2015-12-28T12:49:58.000Z</time>
      </trkpt>
      <trkpt lat="48.67939" lon="2.00745">
        <ele>170.80000305176</ele>
        <time>2015-12-28T12:50:03.000Z</time>
      </trkpt>
      <trkpt lat="48.67938" lon="2.00743">
        <ele>171</ele>
        <time>2015-12-28T12:50:04.000Z</time>
      </trkpt>
      <trkpt lat="48.67933" lon="2.00736">
        <ele>171</ele>
        <time>2015-12-28T12:50:10.000Z</time>
      </trkpt>
      <trkpt lat="48.67932" lon="2.00735">
        <ele>171</ele>
        <time>2015-12-28T12:50:11.000Z</time>
      </trkpt>
      <trkpt lat="48.67928" lon="2.0073">
        <ele>171</ele>
        <time>2015-12-28T12:50:15.000Z</time>
      </trkpt>
      <trkpt lat="48.67925" lon="2.00727">
        <ele>171</ele>
        <time>2015-12-28T12:50:17.000Z</time>
      </trkpt>
      <trkpt lat="48.67923" lon="2.00724">
        <ele>171</ele>
        <time>2015-12-28T12:50:19.000Z</time>
      </trkpt>
      <trkpt lat="48.67914" lon="2.00712">
        <ele>171</ele>
        <time>2015-12-28T12:50:28.000Z</time>
      </trkpt>
      <trkpt lat="48.67908" lon="2.00704">
        <ele>171</ele>
        <time>2015-12-28T12:50:34.000Z</time>
      </trkpt>
      <trkpt lat="48.67902" lon="2.00697">
        <ele>171</ele>
        <time>2015-12-28T12:50:39.000Z</time>
      </trkpt>
      <trkpt lat="48.67901" lon="2.00696">
        <ele>171</ele>
        <time>2015-12-28T12:50:40.000Z</time>
      </trkpt>
      <trkpt lat="48.67895" lon="2.00688">
        <ele>171</ele>
        <time>2015-12-28T12:50:46.000Z</time>
      </trkpt>
      <trkpt lat="48.67883" lon="2.00675">
        <ele>171</ele>
        <time>2015-12-28T12:50:57.000Z</time>
      </trkpt>
      <trkpt lat="48.6788" lon="2.00671">
        <ele>171</ele>
        <time>2015-12-28T12:51:01.000Z</time>
      </trkpt>
      <trkpt lat="48.67881" lon="2.00671">
        <ele>171</ele>
        <time>2015-12-28T12:51:02.000Z</time>
      </trkpt>
      <trkpt lat="48.67867" lon="2.00656">
        <ele>171</ele>
        <time>2015-12-28T12:51:24.000Z</time>
      </trkpt>
      <trkpt lat="48.67866" lon="2.00655">
        <ele>171</ele>
        <time>2015-12-28T12:51:25.000Z</time>
      </trkpt>
      <trkpt lat="48.6786" lon="2.00648">
        <ele>171.19999694824</ele>
        <time>2015-12-28T12:51:30.000Z</time>
      </trkpt>
      <trkpt lat="48.67853" lon="2.00639">
        <ele>171.19999694824</ele>
        <time>2015-12-28T12:51:37.000Z</time>
      </trkpt>
      <trkpt lat="48.67851" lon="2.00637">
        <ele>171.19999694824</ele>
        <time>2015-12-28T12:51:39.000Z</time>
      </trkpt>
      <trkpt lat="48.67847" lon="2.0063">
        <ele>171.39999389648</ele>
        <time>2015-12-28T12:51:43.000Z</time>
      </trkpt>
      <trkpt lat="48.67843" lon="2.00625">
        <ele>171.60000610352</ele>
        <time>2015-12-28T12:51:48.000Z</time>
      </trkpt>
      <trkpt lat="48.67836" lon="2.00617">
        <ele>171.80000305176</ele>
        <time>2015-12-28T12:51:55.000Z</time>
      </trkpt>
      <trkpt lat="48.67835" lon="2.00616">
        <ele>171.80000305176</ele>
        <time>2015-12-28T12:51:56.000Z</time>
      </trkpt>
      <trkpt lat="48.67828" lon="2.00607">
        <ele>172</ele>
        <time>2015-12-28T12:52:03.000Z</time>
      </trkpt>
      <trkpt lat="48.67822" lon="2.00602">
        <ele>172</ele>
        <time>2015-12-28T12:52:09.000Z</time>
      </trkpt>
      <trkpt lat="48.67817" lon="2.00595">
        <ele>172.19999694824</ele>
        <time>2015-12-28T12:52:15.000Z</time>
      </trkpt>
      <trkpt lat="48.67816" lon="2.00594">
        <ele>172.19999694824</ele>
        <time>2015-12-28T12:52:16.000Z</time>
      </trkpt>
      <trkpt lat="48.6781" lon="2.0059">
        <ele>172.39999389648</ele>
        <time>2015-12-28T12:52:21.000Z</time>
      </trkpt>
      <trkpt lat="48.67807" lon="2.00582">
        <ele>172.39999389648</ele>
        <time>2015-12-28T12:52:27.000Z</time>
      </trkpt>
      <trkpt lat="48.67809" lon="2.00581">
        <ele>172.39999389648</ele>
        <time>2015-12-28T12:52:30.000Z</time>
      </trkpt>
      <trkpt lat="48.67809" lon="2.00581">
        <ele>172.39999389648</ele>
        <time>2015-12-28T12:52:31.000Z</time>
      </trkpt>
      <trkpt lat="48.67809" lon="2.00581">
        <ele>172.39999389648</ele>
        <time>2015-12-28T12:52:32.000Z</time>
      </trkpt>
      <trkpt lat="48.67806" lon="2.00574">
        <ele>172.60000610352</ele>
        <time>2015-12-28T12:52:54.000Z</time>
      </trkpt>
      <trkpt lat="48.67804" lon="2.00575">
        <ele>172.60000610352</ele>
        <time>2015-12-28T12:52:56.000Z</time>
      </trkpt>
      <trkpt lat="48.67799" lon="2.00574">
        <ele>172.60000610352</ele>
        <time>2015-12-28T12:53:01.000Z</time>
      </trkpt>
      <trkpt lat="48.67794" lon="2.0057">
        <ele>172.80000305176</ele>
        <time>2015-12-28T12:53:07.000Z</time>
      </trkpt>
      <trkpt lat="48.67788" lon="2.00567">
        <ele>172.80000305176</ele>
        <time>2015-12-28T12:53:12.000Z</time>
      </trkpt>
      <trkpt lat="48.67782" lon="2.00563">
        <ele>173</ele>
        <time>2015-12-28T12:53:18.000Z</time>
      </trkpt>
      <trkpt lat="48.67782" lon="2.00562">
        <ele>173</ele>
        <time>2015-12-28T12:53:19.000Z</time>
      </trkpt>
      <trkpt lat="48.67747" lon="2.00538">
        <ele>173.39999389648</ele>
        <time>2015-12-28T12:54:24.000Z</time>
      </trkpt>
      <trkpt lat="48.67744" lon="2.00536">
        <ele>173.39999389648</ele>
        <time>2015-12-28T12:54:27.000Z</time>
      </trkpt>
      <trkpt lat="48.67744" lon="2.00535">
        <ele>173.39999389648</ele>
        <time>2015-12-28T12:54:28.000Z</time>
      </trkpt>
      <trkpt lat="48.67739" lon="2.00532">
        <ele>173.60000610352</ele>
        <time>2015-12-28T12:54:33.000Z</time>
      </trkpt>
      <trkpt lat="48.67736" lon="2.00529">
        <ele>173.60000610352</ele>
        <time>2015-12-28T12:54:37.000Z</time>
      </trkpt>
      <trkpt lat="48.67736" lon="2.00529">
        <ele>173.60000610352</ele>
        <time>2015-12-28T12:54:38.000Z</time>
      </trkpt>
      <trkpt lat="48.67682" lon="2.00498">
        <ele>173.60000610352</ele>
        <time>2015-12-28T12:55:49.000Z</time>
      </trkpt>
      <trkpt lat="48.67679" lon="2.00496">
        <ele>173.60000610352</ele>
        <time>2015-12-28T12:55:52.000Z</time>
      </trkpt>
      <trkpt lat="48.6767" lon="2.00491">
        <ele>173.39999389648</ele>
        <time>2015-12-28T12:55:59.000Z</time>
      </trkpt>
      <trkpt lat="48.67666" lon="2.00487">
        <ele>173.39999389648</ele>
        <time>2015-12-28T12:56:03.000Z</time>
      </trkpt>
      <trkpt lat="48.67665" lon="2.00486">
        <ele>173.39999389648</ele>
        <time>2015-12-28T12:56:04.000Z</time>
      </trkpt>
      <trkpt lat="48.67662" lon="2.00485">
        <ele>173.19999694824</ele>
        <time>2015-12-28T12:56:07.000Z</time>
      </trkpt>
      <trkpt lat="48.6766" lon="2.00484">
        <ele>173.19999694824</ele>
        <time>2015-12-28T12:56:09.000Z</time>
      </trkpt>
      <trkpt lat="48.67655" lon="2.00479">
        <ele>173</ele>
        <time>2015-12-28T12:56:14.000Z</time>
      </trkpt>
      <trkpt lat="48.67651" lon="2.00473">
        <ele>173</ele>
        <time>2015-12-28T12:56:19.000Z</time>
      </trkpt>
      <trkpt lat="48.6765" lon="2.00472">
        <ele>173</ele>
        <time>2015-12-28T12:56:21.000Z</time>
      </trkpt>
      <trkpt lat="48.6765" lon="2.00472">
        <ele>173</ele>
        <time>2015-12-28T12:56:22.000Z</time>
      </trkpt>
      <trkpt lat="48.6759" lon="2.00403">
        <ele>171.80000305176</ele>
        <time>2015-12-28T12:58:07.000Z</time>
      </trkpt>
      <trkpt lat="48.6759" lon="2.00402">
        <ele>171.80000305176</ele>
        <time>2015-12-28T12:58:08.000Z</time>
      </trkpt>
      <trkpt lat="48.67582" lon="2.00393">
        <ele>171.60000610352</ele>
        <time>2015-12-28T12:58:16.000Z</time>
      </trkpt>
      <trkpt lat="48.67575" lon="2.00385">
        <ele>171.60000610352</ele>
        <time>2015-12-28T12:58:23.000Z</time>
      </trkpt>
      <trkpt lat="48.67571" lon="2.00382">
        <ele>171.60000610352</ele>
        <time>2015-12-28T12:58:29.000Z</time>
      </trkpt>
      <trkpt lat="48.67399" lon="2.00266">
        <ele>174</ele>
        <time>2015-12-28T13:03:22.000Z</time>
      </trkpt>
      <trkpt lat="48.67393" lon="2.00262">
        <ele>174</ele>
        <time>2015-12-28T13:03:28.000Z</time>
      </trkpt>
      <trkpt lat="48.6739" lon="2.00259">
        <ele>174</ele>
        <time>2015-12-28T13:03:31.000Z</time>
      </trkpt>
      <trkpt lat="48.67387" lon="2.00256">
        <ele>174.19999694824</ele>
        <time>2015-12-28T13:03:34.000Z</time>
      </trkpt>
      <trkpt lat="48.67383" lon="2.00253">
        <ele>174.19999694824</ele>
        <time>2015-12-28T13:03:39.000Z</time>
      </trkpt>
      <trkpt lat="48.67381" lon="2.00253">
        <ele>174.19999694824</ele>
        <time>2015-12-28T13:03:41.000Z</time>
      </trkpt>
      <trkpt lat="48.67377" lon="2.00249">
        <ele>174.39999389648</ele>
        <time>2015-12-28T13:03:47.000Z</time>
      </trkpt>
      <trkpt lat="48.67377" lon="2.00249">
        <ele>174.39999389648</ele>
        <time>2015-12-28T13:03:48.000Z</time>
      </trkpt>
      <trkpt lat="48.67361" lon="2.00238">
        <ele>174.60000610352</ele>
        <time>2015-12-28T13:04:08.000Z</time>
      </trkpt>
      <trkpt lat="48.67357" lon="2.00235">
        <ele>174.60000610352</ele>
        <time>2015-12-28T13:04:12.000Z</time>
      </trkpt>
      <trkpt lat="48.67349" lon="2.00232">
        <ele>174.80000305176</ele>
        <time>2015-12-28T13:04:19.000Z</time>
      </trkpt>
      <trkpt lat="48.67341" lon="2.00232">
        <ele>174.80000305176</ele>
        <time>2015-12-28T13:04:26.000Z</time>
      </trkpt>
      <trkpt lat="48.67337" lon="2.00232">
        <ele>174.80000305176</ele>
        <time>2015-12-28T13:04:32.000Z</time>
      </trkpt>
      <trkpt lat="48.67266" lon="2.00234">
        <ele>174.80000305176</ele>
        <time>2015-12-28T13:05:58.000Z</time>
      </trkpt>
      <trkpt lat="48.67253" lon="2.00234">
        <ele>174.80000305176</ele>
        <time>2015-12-28T13:06:09.000Z</time>
      </trkpt>
      <trkpt lat="48.67247" lon="2.00234">
        <ele>174.60000610352</ele>
        <time>2015-12-28T13:06:15.000Z</time>
      </trkpt>
      <trkpt lat="48.67247" lon="2.00234">
        <ele>174.60000610352</ele>
        <time>2015-12-28T13:06:16.000Z</time>
      </trkpt>
      <trkpt lat="48.67157" lon="2.00238">
        <ele>174</ele>
        <time>2015-12-28T13:08:44.000Z</time>
      </trkpt>
      <trkpt lat="48.67154" lon="2.00237">
        <ele>174</ele>
        <time>2015-12-28T13:08:47.000Z</time>
      </trkpt>
      <trkpt lat="48.67154" lon="2.00237">
        <ele>174</ele>
        <time>2015-12-28T13:08:49.000Z</time>
      </trkpt>
      <trkpt lat="48.67073" lon="2.00218">
        <ele>174.60000610352</ele>
        <time>2015-12-28T13:11:34.000Z</time>
      </trkpt>
      <trkpt lat="48.67072" lon="2.00218">
        <ele>174.60000610352</ele>
        <time>2015-12-28T13:11:35.000Z</time>
      </trkpt>
      <trkpt lat="48.6707" lon="2.00217">
        <ele>174.60000610352</ele>
        <time>2015-12-28T13:11:37.000Z</time>
      </trkpt>
      <trkpt lat="48.67066" lon="2.00218">
        <ele>174.80000305176</ele>
        <time>2015-12-28T13:11:40.000Z</time>
      </trkpt>
      <trkpt lat="48.67066" lon="2.00217">
        <ele>174.80000305176</ele>
        <time>2015-12-28T13:11:41.000Z</time>
      </trkpt>
      <trkpt lat="48.67061" lon="2.00216">
        <ele>174.80000305176</ele>
        <time>2015-12-28T13:11:45.000Z</time>
      </trkpt>
      <trkpt lat="48.6706" lon="2.00216">
        <ele>174.80000305176</ele>
        <time>2015-12-28T13:11:47.000Z</time>
      </trkpt>
      <trkpt lat="48.67057" lon="2.00215">
        <ele>174.80000305176</ele>
        <time>2015-12-28T13:11:50.000Z</time>
      </trkpt>
      <trkpt lat="48.67052" lon="2.00215">
        <ele>175</ele>
        <time>2015-12-28T13:11:54.000Z</time>
      </trkpt>
      <trkpt lat="48.67049" lon="2.00215">
        <ele>175</ele>
        <time>2015-12-28T13:11:56.000Z</time>
      </trkpt>
      <trkpt lat="48.67047" lon="2.00216">
        <ele>175</ele>
        <time>2015-12-28T13:11:57.000Z</time>
      </trkpt>
      <trkpt lat="48.67044" lon="2.00215">
        <ele>175</ele>
        <time>2015-12-28T13:11:59.000Z</time>
      </trkpt>
      <trkpt lat="48.67042" lon="2.00215">
        <ele>175</ele>
        <time>2015-12-28T13:12:01.000Z</time>
      </trkpt>
      <trkpt lat="48.67041" lon="2.00215">
        <ele>175</ele>
        <time>2015-12-28T13:12:03.000Z</time>
      </trkpt>
      <trkpt lat="48.67037" lon="2.00214">
        <ele>175.19999694824</ele>
        <time>2015-12-28T13:12:06.000Z</time>
      </trkpt>
      <trkpt lat="48.67036" lon="2.00213">
        <ele>175.19999694824</ele>
        <time>2015-12-28T13:12:07.000Z</time>
      </trkpt>
      <trkpt lat="48.6703" lon="2.00215">
        <ele>175.19999694824</ele>
        <time>2015-12-28T13:12:12.000Z</time>
      </trkpt>
      <trkpt lat="48.67029" lon="2.00214">
        <ele>175.19999694824</ele>
        <time>2015-12-28T13:12:14.000Z</time>
      </trkpt>
      <trkpt lat="48.67029" lon="2.00213">
        <ele>175.19999694824</ele>
        <time>2015-12-28T13:12:15.000Z</time>
      </trkpt>
      <trkpt lat="48.67029" lon="2.00214">
        <ele>175.19999694824</ele>
        <time>2015-12-28T13:12:16.000Z</time>
      </trkpt>
      <trkpt lat="48.66959" lon="2.00188">
        <ele>175.60000610352</ele>
        <time>2015-12-28T13:13:24.000Z</time>
      </trkpt>
      <trkpt lat="48.66959" lon="2.00186">
        <ele>175.60000610352</ele>
        <time>2015-12-28T13:13:26.000Z</time>
      </trkpt>
      <trkpt lat="48.66958" lon="2.00186">
        <ele>175.60000610352</ele>
        <time>2015-12-28T13:13:27.000Z</time>
      </trkpt>
      <trkpt lat="48.66957" lon="2.00186">
        <ele>175.60000610352</ele>
        <time>2015-12-28T13:13:30.000Z</time>
      </trkpt>
      <trkpt lat="48.66905" lon="2.00156">
        <ele>176</ele>
        <time>2015-12-28T13:14:30.000Z</time>
      </trkpt>
      <trkpt lat="48.66896" lon="2.00152">
        <ele>176</ele>
        <time>2015-12-28T13:14:37.000Z</time>
      </trkpt>
      <trkpt lat="48.66894" lon="2.00149">
        <ele>176</ele>
        <time>2015-12-28T13:14:39.000Z</time>
      </trkpt>
      <trkpt lat="48.66893" lon="2.00147">
        <ele>176</ele>
        <time>2015-12-28T13:14:42.000Z</time>
      </trkpt>
      <trkpt lat="48.66887" lon="2.00143">
        <ele>176</ele>
        <time>2015-12-28T13:14:48.000Z</time>
      </trkpt>
      <trkpt lat="48.66886" lon="2.00142">
        <ele>176</ele>
        <time>2015-12-28T13:14:49.000Z</time>
      </trkpt>
      <trkpt lat="48.66882" lon="2.00139">
        <ele>176</ele>
        <time>2015-12-28T13:14:53.000Z</time>
      </trkpt>
      <trkpt lat="48.6688" lon="2.00138">
        <ele>176</ele>
        <time>2015-12-28T13:14:55.000Z</time>
      </trkpt>
      <trkpt lat="48.6687" lon="2.00134">
        <ele>176</ele>
        <time>2015-12-28T13:15:04.000Z</time>
      </trkpt>
      <trkpt lat="48.66868" lon="2.00133">
        <ele>176</ele>
        <time>2015-12-28T13:15:06.000Z</time>
      </trkpt>
      <trkpt lat="48.66864" lon="2.00131">
        <ele>176</ele>
        <time>2015-12-28T13:15:09.000Z</time>
      </trkpt>
      <trkpt lat="48.66861" lon="2.0013">
        <ele>176</ele>
        <time>2015-12-28T13:15:12.000Z</time>
      </trkpt>
      <trkpt lat="48.66856" lon="2.00127">
        <ele>176</ele>
        <time>2015-12-28T13:15:16.000Z</time>
      </trkpt>
      <trkpt lat="48.6685" lon="2.00122">
        <ele>176</ele>
        <time>2015-12-28T13:15:22.000Z</time>
      </trkpt>
      <trkpt lat="48.66845" lon="2.0012">
        <ele>175.80000305176</ele>
        <time>2015-12-28T13:15:28.000Z</time>
      </trkpt>
      <trkpt lat="48.66845" lon="2.0012">
        <ele>175.80000305176</ele>
        <time>2015-12-28T13:15:29.000Z</time>
      </trkpt>
      <trkpt lat="48.6683" lon="2.00113">
        <ele>175.39999389648</ele>
        <time>2015-12-28T13:15:42.000Z</time>
      </trkpt>
      <trkpt lat="48.66828" lon="2.00113">
        <ele>175.39999389648</ele>
        <time>2015-12-28T13:15:45.000Z</time>
      </trkpt>
      <trkpt lat="48.66828" lon="2.00113">
        <ele>175.39999389648</ele>
        <time>2015-12-28T13:15:46.000Z</time>
      </trkpt>
      <trkpt lat="48.66763" lon="2.00084">
        <ele>174.19999694824</ele>
        <time>2015-12-28T13:19:33.000Z</time>
      </trkpt>
      <trkpt lat="48.6676" lon="2.00084">
        <ele>174.19999694824</ele>
        <time>2015-12-28T13:19:36.000Z</time>
      </trkpt>
      <trkpt lat="48.66756" lon="2.00081">
        <ele>174</ele>
        <time>2015-12-28T13:19:39.000Z</time>
      </trkpt>
      <trkpt lat="48.66753" lon="2.0008">
        <ele>174</ele>
        <time>2015-12-28T13:19:41.000Z</time>
      </trkpt>
      <trkpt lat="48.66748" lon="2.00078">
        <ele>174</ele>
        <time>2015-12-28T13:19:46.000Z</time>
      </trkpt>
      <trkpt lat="48.6674" lon="2.00074">
        <ele>174</ele>
        <time>2015-12-28T13:19:52.000Z</time>
      </trkpt>
      <trkpt lat="48.66738" lon="2.00072">
        <ele>174</ele>
        <time>2015-12-28T13:19:54.000Z</time>
      </trkpt>
      <trkpt lat="48.6673" lon="2.00068">
        <ele>174</ele>
        <time>2015-12-28T13:20:00.000Z</time>
      </trkpt>
      <trkpt lat="48.66719" lon="2.00061">
        <ele>173.80000305176</ele>
        <time>2015-12-28T13:20:09.000Z</time>
      </trkpt>
      <trkpt lat="48.66707" lon="2.00055">
        <ele>173.80000305176</ele>
        <time>2015-12-28T13:20:19.000Z</time>
      </trkpt>
      <trkpt lat="48.66696" lon="2.00049">
        <ele>173.60000610352</ele>
        <time>2015-12-28T13:20:28.000Z</time>
      </trkpt>
      <trkpt lat="48.66688" lon="2.00044">
        <ele>173.60000610352</ele>
        <time>2015-12-28T13:20:36.000Z</time>
      </trkpt>
      <trkpt lat="48.66687" lon="2.00044">
        <ele>173.60000610352</ele>
        <time>2015-12-28T13:20:38.000Z</time>
      </trkpt>
      <trkpt lat="48.66685" lon="2.00044">
        <ele>173.60000610352</ele>
        <time>2015-12-28T13:20:39.000Z</time>
      </trkpt>
      <trkpt lat="48.66682" lon="2.00041">
        <ele>173.60000610352</ele>
        <time>2015-12-28T13:20:42.000Z</time>
      </trkpt>
      <trkpt lat="48.66678" lon="2.0004">
        <ele>173.39999389648</ele>
        <time>2015-12-28T13:20:45.000Z</time>
      </trkpt>
      <trkpt lat="48.66665" lon="2.00033">
        <ele>173.19999694824</ele>
        <time>2015-12-28T13:20:56.000Z</time>
      </trkpt>
      <trkpt lat="48.66651" lon="2.00026">
        <ele>173</ele>
        <time>2015-12-28T13:21:07.000Z</time>
      </trkpt>
      <trkpt lat="48.66637" lon="2.00019">
        <ele>172.80000305176</ele>
        <time>2015-12-28T13:21:18.000Z</time>
      </trkpt>
      <trkpt lat="48.66624" lon="2.00013">
        <ele>172.60000610352</ele>
        <time>2015-12-28T13:21:28.000Z</time>
      </trkpt>
      <trkpt lat="48.66614" lon="2.00007">
        <ele>172.19999694824</ele>
        <time>2015-12-28T13:21:37.000Z</time>
      </trkpt>
      <trkpt lat="48.66605" lon="2.00003">
        <ele>172</ele>
        <time>2015-12-28T13:21:44.000Z</time>
      </trkpt>
      <trkpt lat="48.66598" lon="1.99998">
        <ele>172</ele>
        <time>2015-12-28T13:21:51.000Z</time>
      </trkpt>
      <trkpt lat="48.66595" lon="1.99995">
        <ele>172</ele>
        <time>2015-12-28T13:21:54.000Z</time>
      </trkpt>
      <trkpt lat="48.66592" lon="1.99992">
        <ele>171.80000305176</ele>
        <time>2015-12-28T13:21:58.000Z</time>
      </trkpt>
      <trkpt lat="48.66591" lon="1.99991">
        <ele>171.80000305176</ele>
        <time>2015-12-28T13:22:01.000Z</time>
      </trkpt>
      <trkpt lat="48.66583" lon="1.99986">
        <ele>171.80000305176</ele>
        <time>2015-12-28T13:22:10.000Z</time>
      </trkpt>
      <trkpt lat="48.66582" lon="1.99985">
        <ele>171.80000305176</ele>
        <time>2015-12-28T13:22:11.000Z</time>
      </trkpt>
      <trkpt lat="48.66572" lon="1.99981">
        <ele>171.60000610352</ele>
        <time>2015-12-28T13:22:19.000Z</time>
      </trkpt>
      <trkpt lat="48.66561" lon="1.99976">
        <ele>171.60000610352</ele>
        <time>2015-12-28T13:22:27.000Z</time>
      </trkpt>
      <trkpt lat="48.66552" lon="1.99972">
        <ele>171.39999389648</ele>
        <time>2015-12-28T13:22:34.000Z</time>
      </trkpt>
      <trkpt lat="48.66542" lon="1.99966">
        <ele>171.19999694824</ele>
        <time>2015-12-28T13:22:42.000Z</time>
      </trkpt>
      <trkpt lat="48.6653" lon="1.99961">
        <ele>171.19999694824</ele>
        <time>2015-12-28T13:22:51.000Z</time>
      </trkpt>
      <trkpt lat="48.66526" lon="1.9996">
        <ele>171</ele>
        <time>2015-12-28T13:22:55.000Z</time>
      </trkpt>
      <trkpt lat="48.66518" lon="1.99955">
        <ele>171</ele>
        <time>2015-12-28T13:23:01.000Z</time>
      </trkpt>
      <trkpt lat="48.66506" lon="1.9995">
        <ele>171</ele>
        <time>2015-12-28T13:23:10.000Z</time>
      </trkpt>
      <trkpt lat="48.66492" lon="1.99943">
        <ele>171</ele>
        <time>2015-12-28T13:23:21.000Z</time>
      </trkpt>
      <trkpt lat="48.66481" lon="1.99937">
        <ele>171</ele>
        <time>2015-12-28T13:23:30.000Z</time>
      </trkpt>
      <trkpt lat="48.66467" lon="1.99929">
        <ele>171</ele>
        <time>2015-12-28T13:23:41.000Z</time>
      </trkpt>
      <trkpt lat="48.66456" lon="1.99924">
        <ele>171</ele>
        <time>2015-12-28T13:23:49.000Z</time>
      </trkpt>
      <trkpt lat="48.6644" lon="1.99917">
        <ele>171</ele>
        <time>2015-12-28T13:24:02.000Z</time>
      </trkpt>
      <trkpt lat="48.66426" lon="1.99909">
        <ele>171</ele>
        <time>2015-12-28T13:24:13.000Z</time>
      </trkpt>
      <trkpt lat="48.66421" lon="1.99908">
        <ele>171</ele>
        <time>2015-12-28T13:24:17.000Z</time>
      </trkpt>
      <trkpt lat="48.66418" lon="1.99906">
        <ele>171</ele>
        <time>2015-12-28T13:24:19.000Z</time>
      </trkpt>
      <trkpt lat="48.66411" lon="1.99903">
        <ele>171</ele>
        <time>2015-12-28T13:24:24.000Z</time>
      </trkpt>
      <trkpt lat="48.6641" lon="1.99902">
        <ele>171</ele>
        <time>2015-12-28T13:24:25.000Z</time>
      </trkpt>
      <trkpt lat="48.6639" lon="1.9989">
        <ele>171</ele>
        <time>2015-12-28T13:24:41.000Z</time>
      </trkpt>
      <trkpt lat="48.66374" lon="1.9988">
        <ele>171</ele>
        <time>2015-12-28T13:24:54.000Z</time>
      </trkpt>
      <trkpt lat="48.66364" lon="1.99874">
        <ele>171</ele>
        <time>2015-12-28T13:25:02.000Z</time>
      </trkpt>
      <trkpt lat="48.66353" lon="1.99869">
        <ele>171</ele>
        <time>2015-12-28T13:25:10.000Z</time>
      </trkpt>
      <trkpt lat="48.66342" lon="1.99865">
        <ele>171.39999389648</ele>
        <time>2015-12-28T13:25:18.000Z</time>
      </trkpt>
      <trkpt lat="48.66335" lon="1.9986">
        <ele>171.60000610352</ele>
        <time>2015-12-28T13:25:24.000Z</time>
      </trkpt>
      <trkpt lat="48.66329" lon="1.99855">
        <ele>171.80000305176</ele>
        <time>2015-12-28T13:25:29.000Z</time>
      </trkpt>
      <trkpt lat="48.66326" lon="1.99854">
        <ele>172</ele>
        <time>2015-12-28T13:25:31.000Z</time>
      </trkpt>
      <trkpt lat="48.66315" lon="1.99845">
        <ele>172.39999389648</ele>
        <time>2015-12-28T13:25:41.000Z</time>
      </trkpt>
      <trkpt lat="48.66301" lon="1.99836">
        <ele>172.80000305176</ele>
        <time>2015-12-28T13:25:53.000Z</time>
      </trkpt>
      <trkpt lat="48.66294" lon="1.99832">
        <ele>173.19999694824</ele>
        <time>2015-12-28T13:26:00.000Z</time>
      </trkpt>
      <trkpt lat="48.66294" lon="1.99831">
        <ele>173.19999694824</ele>
        <time>2015-12-28T13:26:01.000Z</time>
      </trkpt>
      <trkpt lat="48.6629" lon="1.99828">
        <ele>173.19999694824</ele>
        <time>2015-12-28T13:26:04.000Z</time>
      </trkpt>
      <trkpt lat="48.6629" lon="1.99827">
        <ele>173.19999694824</ele>
        <time>2015-12-28T13:26:05.000Z</time>
      </trkpt>
      <trkpt lat="48.66284" lon="1.99826">
        <ele>173.39999389648</ele>
        <time>2015-12-28T13:26:11.000Z</time>
      </trkpt>
      <trkpt lat="48.66281" lon="1.99825">
        <ele>173.60000610352</ele>
        <time>2015-12-28T13:26:14.000Z</time>
      </trkpt>
      <trkpt lat="48.66274" lon="1.99821">
        <ele>173.80000305176</ele>
        <time>2015-12-28T13:26:20.000Z</time>
      </trkpt>
      <trkpt lat="48.66272" lon="1.9982">
        <ele>173.80000305176</ele>
        <time>2015-12-28T13:26:22.000Z</time>
      </trkpt>
      <trkpt lat="48.66268" lon="1.99818">
        <ele>173.80000305176</ele>
        <time>2015-12-28T13:26:25.000Z</time>
      </trkpt>
      <trkpt lat="48.66266" lon="1.99817">
        <ele>173.80000305176</ele>
        <time>2015-12-28T13:26:27.000Z</time>
      </trkpt>
      <trkpt lat="48.66261" lon="1.99816">
        <ele>173.80000305176</ele>
        <time>2015-12-28T13:26:30.000Z</time>
      </trkpt>
      <trkpt lat="48.6626" lon="1.99815">
        <ele>173.80000305176</ele>
        <time>2015-12-28T13:26:31.000Z</time>
      </trkpt>
      <trkpt lat="48.66257" lon="1.99813">
        <ele>173.80000305176</ele>
        <time>2015-12-28T13:26:34.000Z</time>
      </trkpt>
      <trkpt lat="48.66257" lon="1.99812">
        <ele>173.80000305176</ele>
        <time>2015-12-28T13:26:36.000Z</time>
      </trkpt>
      <trkpt lat="48.66243" lon="1.998">
        <ele>173.80000305176</ele>
        <time>2015-12-28T13:26:53.000Z</time>
      </trkpt>
      <trkpt lat="48.66237" lon="1.99797">
        <ele>173.60000610352</ele>
        <time>2015-12-28T13:26:58.000Z</time>
      </trkpt>
      <trkpt lat="48.66226" lon="1.9979">
        <ele>173.60000610352</ele>
        <time>2015-12-28T13:27:07.000Z</time>
      </trkpt>
      <trkpt lat="48.66214" lon="1.99782">
        <ele>173.39999389648</ele>
        <time>2015-12-28T13:27:17.000Z</time>
      </trkpt>
      <trkpt lat="48.66204" lon="1.99773">
        <ele>173.39999389648</ele>
        <time>2015-12-28T13:27:27.000Z</time>
      </trkpt>
      <trkpt lat="48.66198" lon="1.99769">
        <ele>173.39999389648</ele>
        <time>2015-12-28T13:27:32.000Z</time>
      </trkpt>
      <trkpt lat="48.6619" lon="1.99764">
        <ele>173.19999694824</ele>
        <time>2015-12-28T13:27:39.000Z</time>
      </trkpt>
      <trkpt lat="48.66181" lon="1.9976">
        <ele>173.19999694824</ele>
        <time>2015-12-28T13:27:46.000Z</time>
      </trkpt>
      <trkpt lat="48.66172" lon="1.99752">
        <ele>173.19999694824</ele>
        <time>2015-12-28T13:27:54.000Z</time>
      </trkpt>
      <trkpt lat="48.66161" lon="1.99746">
        <ele>173.39999389648</ele>
        <time>2015-12-28T13:28:03.000Z</time>
      </trkpt>
      <trkpt lat="48.66152" lon="1.99739">
        <ele>173.39999389648</ele>
        <time>2015-12-28T13:28:11.000Z</time>
      </trkpt>
      <trkpt lat="48.66149" lon="1.99738">
        <ele>173.39999389648</ele>
        <time>2015-12-28T13:28:14.000Z</time>
      </trkpt>
      <trkpt lat="48.66144" lon="1.99735">
        <ele>173.39999389648</ele>
        <time>2015-12-28T13:28:17.000Z</time>
      </trkpt>
      <trkpt lat="48.66142" lon="1.99732">
        <ele>173.60000610352</ele>
        <time>2015-12-28T13:28:20.000Z</time>
      </trkpt>
      <trkpt lat="48.66142" lon="1.99732">
        <ele>173.60000610352</ele>
        <time>2015-12-28T13:28:21.000Z</time>
      </trkpt>
      <trkpt lat="48.66126" lon="1.99724">
        <ele>173.80000305176</ele>
        <time>2015-12-28T13:28:35.000Z</time>
      </trkpt>
      <trkpt lat="48.66118" lon="1.99718">
        <ele>173.80000305176</ele>
        <time>2015-12-28T13:28:43.000Z</time>
      </trkpt>
      <trkpt lat="48.66117" lon="1.99718">
        <ele>173.80000305176</ele>
        <time>2015-12-28T13:28:46.000Z</time>
      </trkpt>
      <trkpt lat="48.66112" lon="1.99716">
        <ele>173.80000305176</ele>
        <time>2015-12-28T13:28:49.000Z</time>
      </trkpt>
      <trkpt lat="48.66111" lon="1.99715">
        <ele>173.80000305176</ele>
        <time>2015-12-28T13:28:50.000Z</time>
      </trkpt>
      <trkpt lat="48.66107" lon="1.99713">
        <ele>174</ele>
        <time>2015-12-28T13:28:54.000Z</time>
      </trkpt>
      <trkpt lat="48.66105" lon="1.99712">
        <ele>174</ele>
        <time>2015-12-28T13:28:56.000Z</time>
      </trkpt>
      <trkpt lat="48.66093" lon="1.99703">
        <ele>174</ele>
        <time>2015-12-28T13:29:06.000Z</time>
      </trkpt>
      <trkpt lat="48.66079" lon="1.99692">
        <ele>174</ele>
        <time>2015-12-28T13:29:18.000Z</time>
      </trkpt>
      <trkpt lat="48.6607" lon="1.99685">
        <ele>174</ele>
        <time>2015-12-28T13:29:26.000Z</time>
      </trkpt>
      <trkpt lat="48.66057" lon="1.99673">
        <ele>174</ele>
        <time>2015-12-28T13:29:38.000Z</time>
      </trkpt>
      <trkpt lat="48.66043" lon="1.9966">
        <ele>174</ele>
        <time>2015-12-28T13:29:50.000Z</time>
      </trkpt>
      <trkpt lat="48.66034" lon="1.99652">
        <ele>174</ele>
        <time>2015-12-28T13:29:58.000Z</time>
      </trkpt>
      <trkpt lat="48.6602" lon="1.99637">
        <ele>174</ele>
        <time>2015-12-28T13:30:11.000Z</time>
      </trkpt>
      <trkpt lat="48.66008" lon="1.99623">
        <ele>174</ele>
        <time>2015-12-28T13:30:23.000Z</time>
      </trkpt>
      <trkpt lat="48.65997" lon="1.99609">
        <ele>174</ele>
        <time>2015-12-28T13:30:34.000Z</time>
      </trkpt>
      <trkpt lat="48.6599" lon="1.99602">
        <ele>174</ele>
        <time>2015-12-28T13:30:40.000Z</time>
      </trkpt>
      <trkpt lat="48.65989" lon="1.99601">
        <ele>174</ele>
        <time>2015-12-28T13:30:41.000Z</time>
      </trkpt>
      <trkpt lat="48.65986" lon="1.99597">
        <ele>174</ele>
        <time>2015-12-28T13:30:44.000Z</time>
      </trkpt>
      <trkpt lat="48.65979" lon="1.99588">
        <ele>174</ele>
        <time>2015-12-28T13:30:51.000Z</time>
      </trkpt>
      <trkpt lat="48.65968" lon="1.99574">
        <ele>174</ele>
        <time>2015-12-28T13:31:02.000Z</time>
      </trkpt>
      <trkpt lat="48.65956" lon="1.99557">
        <ele>174.19999694824</ele>
        <time>2015-12-28T13:31:14.000Z</time>
      </trkpt>
      <trkpt lat="48.65946" lon="1.99542">
        <ele>174.39999389648</ele>
        <time>2015-12-28T13:31:25.000Z</time>
      </trkpt>
      <trkpt lat="48.65935" lon="1.99528">
        <ele>174.60000610352</ele>
        <time>2015-12-28T13:31:36.000Z</time>
      </trkpt>
      <trkpt lat="48.65934" lon="1.99526">
        <ele>174.60000610352</ele>
        <time>2015-12-28T13:31:38.000Z</time>
      </trkpt>
      <trkpt lat="48.6593" lon="1.9952">
        <ele>174.80000305176</ele>
        <time>2015-12-28T13:31:42.000Z</time>
      </trkpt>
      <trkpt lat="48.65926" lon="1.99514">
        <ele>174.80000305176</ele>
        <time>2015-12-28T13:31:48.000Z</time>
      </trkpt>
      <trkpt lat="48.65926" lon="1.99514">
        <ele>174.80000305176</ele>
        <time>2015-12-28T13:31:50.000Z</time>
      </trkpt>
      <trkpt lat="48.65916" lon="1.99498">
        <ele>175.19999694824</ele>
        <time>2015-12-28T13:32:02.000Z</time>
      </trkpt>
      <trkpt lat="48.65912" lon="1.99493">
        <ele>175.19999694824</ele>
        <time>2015-12-28T13:32:06.000Z</time>
      </trkpt>
      <trkpt lat="48.65907" lon="1.99486">
        <ele>175.19999694824</ele>
        <time>2015-12-28T13:32:12.000Z</time>
      </trkpt>
      <trkpt lat="48.659" lon="1.99476">
        <ele>175.19999694824</ele>
        <time>2015-12-28T13:32:19.000Z</time>
      </trkpt>
      <trkpt lat="48.65893" lon="1.99467">
        <ele>175.19999694824</ele>
        <time>2015-12-28T13:32:26.000Z</time>
      </trkpt>
      <trkpt lat="48.65892" lon="1.99467">
        <ele>175.19999694824</ele>
        <time>2015-12-28T13:32:28.000Z</time>
      </trkpt>
      <trkpt lat="48.65888" lon="1.99461">
        <ele>175.19999694824</ele>
        <time>2015-12-28T13:32:32.000Z</time>
      </trkpt>
      <trkpt lat="48.65887" lon="1.9946">
        <ele>175.19999694824</ele>
        <time>2015-12-28T13:32:33.000Z</time>
      </trkpt>
      <trkpt lat="48.65884" lon="1.99458">
        <ele>175.19999694824</ele>
        <time>2015-12-28T13:32:38.000Z</time>
      </trkpt>
      <trkpt lat="48.65876" lon="1.99435">
        <ele>175</ele>
        <time>2015-12-28T13:34:49.000Z</time>
      </trkpt>
      <trkpt lat="48.65873" lon="1.9943">
        <ele>175</ele>
        <time>2015-12-28T13:34:52.000Z</time>
      </trkpt>
      <trkpt lat="48.65871" lon="1.99427">
        <ele>175</ele>
        <time>2015-12-28T13:34:54.000Z</time>
      </trkpt>
      <trkpt lat="48.65868" lon="1.99423">
        <ele>175</ele>
        <time>2015-12-28T13:34:56.000Z</time>
      </trkpt>
      <trkpt lat="48.65862" lon="1.99414">
        <ele>175</ele>
        <time>2015-12-28T13:35:01.000Z</time>
      </trkpt>
      <trkpt lat="48.65855" lon="1.99404">
        <ele>175</ele>
        <time>2015-12-28T13:35:07.000Z</time>
      </trkpt>
      <trkpt lat="48.65847" lon="1.99391">
        <ele>175</ele>
        <time>2015-12-28T13:35:14.000Z</time>
      </trkpt>
      <trkpt lat="48.65837" lon="1.99377">
        <ele>174.80000305176</ele>
        <time>2015-12-28T13:35:22.000Z</time>
      </trkpt>
      <trkpt lat="48.65834" lon="1.99371">
        <ele>174.80000305176</ele>
        <time>2015-12-28T13:35:25.000Z</time>
      </trkpt>
      <trkpt lat="48.6583" lon="1.99366">
        <ele>174.80000305176</ele>
        <time>2015-12-28T13:35:28.000Z</time>
      </trkpt>
      <trkpt lat="48.65819" lon="1.99348">
        <ele>174.60000610352</ele>
        <time>2015-12-28T13:35:38.000Z</time>
      </trkpt>
      <trkpt lat="48.65812" lon="1.99337">
        <ele>174.60000610352</ele>
        <time>2015-12-28T13:35:44.000Z</time>
      </trkpt>
      <trkpt lat="48.65809" lon="1.99331">
        <ele>174.39999389648</ele>
        <time>2015-12-28T13:35:47.000Z</time>
      </trkpt>
      <trkpt lat="48.65806" lon="1.99327">
        <ele>174.39999389648</ele>
        <time>2015-12-28T13:35:49.000Z</time>
      </trkpt>
      <trkpt lat="48.65796" lon="1.99308">
        <ele>174.60000610352</ele>
        <time>2015-12-28T13:35:59.000Z</time>
      </trkpt>
      <trkpt lat="48.6579" lon="1.99295">
        <ele>174.60000610352</ele>
        <time>2015-12-28T13:36:05.000Z</time>
      </trkpt>
      <trkpt lat="48.65783" lon="1.99282">
        <ele>174.60000610352</ele>
        <time>2015-12-28T13:36:12.000Z</time>
      </trkpt>
      <trkpt lat="48.65772" lon="1.99255">
        <ele>174.80000305176</ele>
        <time>2015-12-28T13:36:25.000Z</time>
      </trkpt>
      <trkpt lat="48.65766" lon="1.99238">
        <ele>175</ele>
        <time>2015-12-28T13:36:33.000Z</time>
      </trkpt>
      <trkpt lat="48.65761" lon="1.99221">
        <ele>175</ele>
        <time>2015-12-28T13:36:41.000Z</time>
      </trkpt>
      <trkpt lat="48.65756" lon="1.99198">
        <ele>175</ele>
        <time>2015-12-28T13:36:51.000Z</time>
      </trkpt>
      <trkpt lat="48.65752" lon="1.99182">
        <ele>175</ele>
        <time>2015-12-28T13:36:58.000Z</time>
      </trkpt>
      <trkpt lat="48.65749" lon="1.99165">
        <ele>175</ele>
        <time>2015-12-28T13:37:06.000Z</time>
      </trkpt>
      <trkpt lat="48.65746" lon="1.99147">
        <ele>175.19999694824</ele>
        <time>2015-12-28T13:37:14.000Z</time>
      </trkpt>
      <trkpt lat="48.65743" lon="1.99125">
        <ele>175.39999389648</ele>
        <time>2015-12-28T13:37:24.000Z</time>
      </trkpt>
      <trkpt lat="48.6574" lon="1.9911">
        <ele>175.39999389648</ele>
        <time>2015-12-28T13:37:31.000Z</time>
      </trkpt>
      <trkpt lat="48.65737" lon="1.9909">
        <ele>175.39999389648</ele>
        <time>2015-12-28T13:37:40.000Z</time>
      </trkpt>
      <trkpt lat="48.65733" lon="1.9906">
        <ele>175.39999389648</ele>
        <time>2015-12-28T13:37:53.000Z</time>
      </trkpt>
      <trkpt lat="48.65729" lon="1.99041">
        <ele>175.39999389648</ele>
        <time>2015-12-28T13:38:01.000Z</time>
      </trkpt>
      <trkpt lat="48.65725" lon="1.99019">
        <ele>175.39999389648</ele>
        <time>2015-12-28T13:38:11.000Z</time>
      </trkpt>
      <trkpt lat="48.65722" lon="1.99">
        <ele>175.19999694824</ele>
        <time>2015-12-28T13:38:21.000Z</time>
      </trkpt>
      <trkpt lat="48.6572" lon="1.98991">
        <ele>175.19999694824</ele>
        <time>2015-12-28T13:38:25.000Z</time>
      </trkpt>
      <trkpt lat="48.65719" lon="1.98985">
        <ele>175.19999694824</ele>
        <time>2015-12-28T13:38:28.000Z</time>
      </trkpt>
      <trkpt lat="48.65716" lon="1.98969">
        <ele>175</ele>
        <time>2015-12-28T13:38:35.000Z</time>
      </trkpt>
      <trkpt lat="48.65714" lon="1.98953">
        <ele>174.80000305176</ele>
        <time>2015-12-28T13:38:42.000Z</time>
      </trkpt>
      <trkpt lat="48.65711" lon="1.98938">
        <ele>174.80000305176</ele>
        <time>2015-12-28T13:38:49.000Z</time>
      </trkpt>
      <trkpt lat="48.65706" lon="1.98915">
        <ele>175</ele>
        <time>2015-12-28T13:38:59.000Z</time>
      </trkpt>
      <trkpt lat="48.65701" lon="1.98898">
        <ele>175</ele>
        <time>2015-12-28T13:39:07.000Z</time>
      </trkpt>
      <trkpt lat="48.65694" lon="1.98871">
        <ele>175</ele>
        <time>2015-12-28T13:39:19.000Z</time>
      </trkpt>
      <trkpt lat="48.65691" lon="1.98861">
        <ele>175</ele>
        <time>2015-12-28T13:39:24.000Z</time>
      </trkpt>
      <trkpt lat="48.65684" lon="1.9884">
        <ele>175</ele>
        <time>2015-12-28T13:39:34.000Z</time>
      </trkpt>
      <trkpt lat="48.65679" lon="1.98825">
        <ele>175</ele>
        <time>2015-12-28T13:39:41.000Z</time>
      </trkpt>
      <trkpt lat="48.65674" lon="1.98812">
        <ele>174.80000305176</ele>
        <time>2015-12-28T13:39:47.000Z</time>
      </trkpt>
      <trkpt lat="48.65672" lon="1.988">
        <ele>174.39999389648</ele>
        <time>2015-12-28T13:39:53.000Z</time>
      </trkpt>
      <trkpt lat="48.65671" lon="1.98797">
        <ele>174.39999389648</ele>
        <time>2015-12-28T13:39:55.000Z</time>
      </trkpt>
      <trkpt lat="48.65669" lon="1.98789">
        <ele>174.19999694824</ele>
        <time>2015-12-28T13:39:59.000Z</time>
      </trkpt>
      <trkpt lat="48.65667" lon="1.98786">
        <ele>174</ele>
        <time>2015-12-28T13:40:01.000Z</time>
      </trkpt>
      <trkpt lat="48.65667" lon="1.98785">
        <ele>174</ele>
        <time>2015-12-28T13:40:02.000Z</time>
      </trkpt>
      <trkpt lat="48.65665" lon="1.98783">
        <ele>174</ele>
        <time>2015-12-28T13:40:04.000Z</time>
      </trkpt>
      <trkpt lat="48.65662" lon="1.98775">
        <ele>173.80000305176</ele>
        <time>2015-12-28T13:40:09.000Z</time>
      </trkpt>
      <trkpt lat="48.65662" lon="1.98774">
        <ele>173.80000305176</ele>
        <time>2015-12-28T13:40:10.000Z</time>
      </trkpt>
      <trkpt lat="48.65654" lon="1.98766">
        <ele>173.60000610352</ele>
        <time>2015-12-28T13:40:17.000Z</time>
      </trkpt>
      <trkpt lat="48.6565" lon="1.98758">
        <ele>173.39999389648</ele>
        <time>2015-12-28T13:40:21.000Z</time>
      </trkpt>
      <trkpt lat="48.65647" lon="1.98752">
        <ele>173.19999694824</ele>
        <time>2015-12-28T13:40:24.000Z</time>
      </trkpt>
      <trkpt lat="48.65639" lon="1.98737">
        <ele>173</ele>
        <time>2015-12-28T13:40:32.000Z</time>
      </trkpt>
      <trkpt lat="48.65634" lon="1.98727">
        <ele>173</ele>
        <time>2015-12-28T13:40:38.000Z</time>
      </trkpt>
      <trkpt lat="48.6563" lon="1.9872">
        <ele>173</ele>
        <time>2015-12-28T13:40:42.000Z</time>
      </trkpt>
      <trkpt lat="48.65628" lon="1.98715">
        <ele>173</ele>
        <time>2015-12-28T13:40:44.000Z</time>
      </trkpt>
      <trkpt lat="48.65621" lon="1.98704">
        <ele>173</ele>
        <time>2015-12-28T13:40:51.000Z</time>
      </trkpt>
      <trkpt lat="48.65612" lon="1.98686">
        <ele>173</ele>
        <time>2015-12-28T13:41:02.000Z</time>
      </trkpt>
      <trkpt lat="48.65606" lon="1.98676">
        <ele>173</ele>
        <time>2015-12-28T13:41:08.000Z</time>
      </trkpt>
      <trkpt lat="48.65605" lon="1.98675">
        <ele>173</ele>
        <time>2015-12-28T13:41:09.000Z</time>
      </trkpt>
      <trkpt lat="48.65599" lon="1.98666">
        <ele>173</ele>
        <time>2015-12-28T13:41:13.000Z</time>
      </trkpt>
      <trkpt lat="48.65591" lon="1.98652">
        <ele>173</ele>
        <time>2015-12-28T13:41:20.000Z</time>
      </trkpt>
      <trkpt lat="48.65582" lon="1.98636">
        <ele>173</ele>
        <time>2015-12-28T13:41:29.000Z</time>
      </trkpt>
      <trkpt lat="48.65576" lon="1.98626">
        <ele>173</ele>
        <time>2015-12-28T13:41:35.000Z</time>
      </trkpt>
      <trkpt lat="48.65571" lon="1.98615">
        <ele>173</ele>
        <time>2015-12-28T13:41:43.000Z</time>
      </trkpt>
      <trkpt lat="48.65565" lon="1.98603">
        <ele>173</ele>
        <time>2015-12-28T13:41:50.000Z</time>
      </trkpt>
      <trkpt lat="48.6556" lon="1.98594">
        <ele>173</ele>
        <time>2015-12-28T13:41:55.000Z</time>
      </trkpt>
      <trkpt lat="48.65559" lon="1.98591">
        <ele>173</ele>
        <time>2015-12-28T13:41:57.000Z</time>
      </trkpt>
      <trkpt lat="48.65556" lon="1.98586">
        <ele>173</ele>
        <time>2015-12-28T13:42:00.000Z</time>
      </trkpt>
      <trkpt lat="48.65554" lon="1.98582">
        <ele>173</ele>
        <time>2015-12-28T13:42:02.000Z</time>
      </trkpt>
      <trkpt lat="48.65544" lon="1.98566">
        <ele>173</ele>
        <time>2015-12-28T13:42:11.000Z</time>
      </trkpt>
      <trkpt lat="48.65536" lon="1.98553">
        <ele>173</ele>
        <time>2015-12-28T13:42:18.000Z</time>
      </trkpt>
      <trkpt lat="48.65529" lon="1.98541">
        <ele>173</ele>
        <time>2015-12-28T13:42:25.000Z</time>
      </trkpt>
      <trkpt lat="48.65518" lon="1.98523">
        <ele>173</ele>
        <time>2015-12-28T13:42:36.000Z</time>
      </trkpt>
      <trkpt lat="48.65506" lon="1.98504">
        <ele>173</ele>
        <time>2015-12-28T13:42:48.000Z</time>
      </trkpt>
      <trkpt lat="48.65498" lon="1.98492">
        <ele>173</ele>
        <time>2015-12-28T13:42:56.000Z</time>
      </trkpt>
      <trkpt lat="48.65493" lon="1.98482">
        <ele>173</ele>
        <time>2015-12-28T13:43:02.000Z</time>
      </trkpt>
      <trkpt lat="48.65481" lon="1.98462">
        <ele>173</ele>
        <time>2015-12-28T13:43:14.000Z</time>
      </trkpt>
      <trkpt lat="48.65469" lon="1.98442">
        <ele>173</ele>
        <time>2015-12-28T13:43:27.000Z</time>
      </trkpt>
      <trkpt lat="48.65459" lon="1.98426">
        <ele>173</ele>
        <time>2015-12-28T13:43:36.000Z</time>
      </trkpt>
      <trkpt lat="48.65455" lon="1.98413">
        <ele>173</ele>
        <time>2015-12-28T13:43:43.000Z</time>
      </trkpt>
      <trkpt lat="48.65449" lon="1.98404">
        <ele>173</ele>
        <time>2015-12-28T13:43:49.000Z</time>
      </trkpt>
      <trkpt lat="48.65439" lon="1.98385">
        <ele>173</ele>
        <time>2015-12-28T13:43:59.000Z</time>
      </trkpt>
      <trkpt lat="48.65428" lon="1.98362">
        <ele>173</ele>
        <time>2015-12-28T13:44:11.000Z</time>
      </trkpt>
      <trkpt lat="48.65418" lon="1.9834">
        <ele>173</ele>
        <time>2015-12-28T13:44:22.000Z</time>
      </trkpt>
      <trkpt lat="48.65405" lon="1.98315">
        <ele>173</ele>
        <time>2015-12-28T13:44:35.000Z</time>
      </trkpt>
      <trkpt lat="48.65392" lon="1.9829">
        <ele>173</ele>
        <time>2015-12-28T13:44:48.000Z</time>
      </trkpt>
      <trkpt lat="48.6538" lon="1.98269">
        <ele>173</ele>
        <time>2015-12-28T13:45:00.000Z</time>
      </trkpt>
      <trkpt lat="48.65369" lon="1.98254">
        <ele>173</ele>
        <time>2015-12-28T13:45:10.000Z</time>
      </trkpt>
      <trkpt lat="48.65363" lon="1.98244">
        <ele>173</ele>
        <time>2015-12-28T13:45:17.000Z</time>
      </trkpt>
      <trkpt lat="48.65362" lon="1.98243">
        <ele>173</ele>
        <time>2015-12-28T13:45:18.000Z</time>
      </trkpt>
      <trkpt lat="48.65357" lon="1.98235">
        <ele>173.19999694824</ele>
        <time>2015-12-28T13:45:23.000Z</time>
      </trkpt>
      <trkpt lat="48.65348" lon="1.98226">
        <ele>173.19999694824</ele>
        <time>2015-12-28T13:45:31.000Z</time>
      </trkpt>
      <trkpt lat="48.65338" lon="1.9822">
        <ele>173</ele>
        <time>2015-12-28T13:45:38.000Z</time>
      </trkpt>
      <trkpt lat="48.65327" lon="1.98212">
        <ele>173</ele>
        <time>2015-12-28T13:45:44.000Z</time>
      </trkpt>
      <trkpt lat="48.65308" lon="1.98196">
        <ele>173</ele>
        <time>2015-12-28T13:45:56.000Z</time>
      </trkpt>
      <trkpt lat="48.6529" lon="1.98181">
        <ele>173</ele>
        <time>2015-12-28T13:46:09.000Z</time>
      </trkpt>
      <trkpt lat="48.65275" lon="1.98168">
        <ele>173</ele>
        <time>2015-12-28T13:46:20.000Z</time>
      </trkpt>
      <trkpt lat="48.65258" lon="1.98153">
        <ele>173</ele>
        <time>2015-12-28T13:46:33.000Z</time>
      </trkpt>
      <trkpt lat="48.65246" lon="1.98144">
        <ele>173</ele>
        <time>2015-12-28T13:46:42.000Z</time>
      </trkpt>
      <trkpt lat="48.65233" lon="1.98134">
        <ele>173</ele>
        <time>2015-12-28T13:46:52.000Z</time>
      </trkpt>
      <trkpt lat="48.65214" lon="1.9812">
        <ele>173</ele>
        <time>2015-12-28T13:47:06.000Z</time>
      </trkpt>
      <trkpt lat="48.65201" lon="1.98111">
        <ele>173</ele>
        <time>2015-12-28T13:47:15.000Z</time>
      </trkpt>
      <trkpt lat="48.65187" lon="1.98105">
        <ele>173</ele>
        <time>2015-12-28T13:47:25.000Z</time>
      </trkpt>
      <trkpt lat="48.65179" lon="1.98099">
        <ele>173</ele>
        <time>2015-12-28T13:47:30.000Z</time>
      </trkpt>
      <trkpt lat="48.65167" lon="1.98088">
        <ele>173</ele>
        <time>2015-12-28T13:47:39.000Z</time>
      </trkpt>
      <trkpt lat="48.65146" lon="1.98071">
        <ele>173</ele>
        <time>2015-12-28T13:47:53.000Z</time>
      </trkpt>
      <trkpt lat="48.6513" lon="1.98056">
        <ele>172.80000305176</ele>
        <time>2015-12-28T13:48:05.000Z</time>
      </trkpt>
      <trkpt lat="48.65118" lon="1.98046">
        <ele>172.60000610352</ele>
        <time>2015-12-28T13:48:15.000Z</time>
      </trkpt>
      <trkpt lat="48.65112" lon="1.98043">
        <ele>172.60000610352</ele>
        <time>2015-12-28T13:48:19.000Z</time>
      </trkpt>
      <trkpt lat="48.6511" lon="1.9804">
        <ele>172.60000610352</ele>
        <time>2015-12-28T13:48:21.000Z</time>
      </trkpt>
      <trkpt lat="48.65093" lon="1.98027">
        <ele>172.19999694824</ele>
        <time>2015-12-28T13:48:33.000Z</time>
      </trkpt>
      <trkpt lat="48.65074" lon="1.98013">
        <ele>171.60000610352</ele>
        <time>2015-12-28T13:48:47.000Z</time>
      </trkpt>
      <trkpt lat="48.65062" lon="1.98003">
        <ele>171.19999694824</ele>
        <time>2015-12-28T13:48:56.000Z</time>
      </trkpt>
      <trkpt lat="48.65051" lon="1.97995">
        <ele>170.80000305176</ele>
        <time>2015-12-28T13:49:04.000Z</time>
      </trkpt>
      <trkpt lat="48.65033" lon="1.97981">
        <ele>170.39999389648</ele>
        <time>2015-12-28T13:49:17.000Z</time>
      </trkpt>
      <trkpt lat="48.65011" lon="1.97963">
        <ele>170.19999694824</ele>
        <time>2015-12-28T13:49:33.000Z</time>
      </trkpt>
      <trkpt lat="48.64991" lon="1.97946">
        <ele>170.19999694824</ele>
        <time>2015-12-28T13:49:47.000Z</time>
      </trkpt>
      <trkpt lat="48.6497" lon="1.97926">
        <ele>170.19999694824</ele>
        <time>2015-12-28T13:50:02.000Z</time>
      </trkpt>
      <trkpt lat="48.64961" lon="1.97914">
        <ele>170.19999694824</ele>
        <time>2015-12-28T13:50:10.000Z</time>
      </trkpt>
      <trkpt lat="48.64955" lon="1.97903">
        <ele>170.19999694824</ele>
        <time>2015-12-28T13:50:16.000Z</time>
      </trkpt>
      <trkpt lat="48.64955" lon="1.97899">
        <ele>170.39999389648</ele>
        <time>2015-12-28T13:50:18.000Z</time>
      </trkpt>
      <trkpt lat="48.64957" lon="1.97894">
        <ele>170.39999389648</ele>
        <time>2015-12-28T13:50:21.000Z</time>
      </trkpt>
      <trkpt lat="48.64957" lon="1.97894">
        <ele>170.39999389648</ele>
        <time>2015-12-28T13:50:23.000Z</time>
      </trkpt>
      <trkpt lat="48.64951" lon="1.97894">
        <ele>170.39999389648</ele>
        <time>2015-12-28T13:54:35.000Z</time>
      </trkpt>
      <trkpt lat="48.6495" lon="1.97893">
        <ele>170.39999389648</ele>
        <time>2015-12-28T13:54:36.000Z</time>
      </trkpt>
      <trkpt lat="48.64943" lon="1.97883">
        <ele>170.39999389648</ele>
        <time>2015-12-28T13:54:42.000Z</time>
      </trkpt>
      <trkpt lat="48.64933" lon="1.9787">
        <ele>170.39999389648</ele>
        <time>2015-12-28T13:54:50.000Z</time>
      </trkpt>
      <trkpt lat="48.64923" lon="1.97861">
        <ele>170</ele>
        <time>2015-12-28T13:54:58.000Z</time>
      </trkpt>
      <trkpt lat="48.64918" lon="1.97852">
        <ele>170</ele>
        <time>2015-12-28T13:55:03.000Z</time>
      </trkpt>
      <trkpt lat="48.64916" lon="1.97848">
        <ele>170</ele>
        <time>2015-12-28T13:55:05.000Z</time>
      </trkpt>
      <trkpt lat="48.64909" lon="1.97837">
        <ele>169.80000305176</ele>
        <time>2015-12-28T13:55:11.000Z</time>
      </trkpt>
      <trkpt lat="48.64901" lon="1.97823">
        <ele>169.80000305176</ele>
        <time>2015-12-28T13:55:19.000Z</time>
      </trkpt>
      <trkpt lat="48.6489" lon="1.97808">
        <ele>169.39999389648</ele>
        <time>2015-12-28T13:55:28.000Z</time>
      </trkpt>
      <trkpt lat="48.64881" lon="1.97796">
        <ele>169</ele>
        <time>2015-12-28T13:55:35.000Z</time>
      </trkpt>
      <trkpt lat="48.64871" lon="1.97781">
        <ele>168.60000610352</ele>
        <time>2015-12-28T13:55:43.000Z</time>
      </trkpt>
      <trkpt lat="48.64861" lon="1.97768">
        <ele>168.39999389648</ele>
        <time>2015-12-28T13:55:51.000Z</time>
      </trkpt>
      <trkpt lat="48.64847" lon="1.97752">
        <ele>167.80000305176</ele>
        <time>2015-12-28T13:56:02.000Z</time>
      </trkpt>
      <trkpt lat="48.64838" lon="1.97737">
        <ele>167.80000305176</ele>
        <time>2015-12-28T13:56:10.000Z</time>
      </trkpt>
      <trkpt lat="48.64829" lon="1.97724">
        <ele>167.80000305176</ele>
        <time>2015-12-28T13:56:18.000Z</time>
      </trkpt>
      <trkpt lat="48.64821" lon="1.97712">
        <ele>168</ele>
        <time>2015-12-28T13:56:25.000Z</time>
      </trkpt>
      <trkpt lat="48.64814" lon="1.97703">
        <ele>168</ele>
        <time>2015-12-28T13:56:31.000Z</time>
      </trkpt>
      <trkpt lat="48.648" lon="1.97683">
        <ele>168</ele>
        <time>2015-12-28T13:56:43.000Z</time>
      </trkpt>
      <trkpt lat="48.64792" lon="1.97669">
        <ele>168.19999694824</ele>
        <time>2015-12-28T13:56:51.000Z</time>
      </trkpt>
      <trkpt lat="48.64784" lon="1.97656">
        <ele>168.19999694824</ele>
        <time>2015-12-28T13:56:59.000Z</time>
      </trkpt>
      <trkpt lat="48.64779" lon="1.97643">
        <ele>168.39999389648</ele>
        <time>2015-12-28T13:57:05.000Z</time>
      </trkpt>
      <trkpt lat="48.64777" lon="1.97639">
        <ele>168.60000610352</ele>
        <time>2015-12-28T13:57:07.000Z</time>
      </trkpt>
      <trkpt lat="48.64772" lon="1.97629">
        <ele>168.80000305176</ele>
        <time>2015-12-28T13:57:12.000Z</time>
      </trkpt>
      <trkpt lat="48.64766" lon="1.97616">
        <ele>168.80000305176</ele>
        <time>2015-12-28T13:57:19.000Z</time>
      </trkpt>
      <trkpt lat="48.64762" lon="1.97606">
        <ele>168.80000305176</ele>
        <time>2015-12-28T13:57:24.000Z</time>
      </trkpt>
      <trkpt lat="48.64761" lon="1.97604">
        <ele>168.80000305176</ele>
        <time>2015-12-28T13:57:25.000Z</time>
      </trkpt>
      <trkpt lat="48.64749" lon="1.97576">
        <ele>169</ele>
        <time>2015-12-28T13:57:39.000Z</time>
      </trkpt>
      <trkpt lat="48.64738" lon="1.9755">
        <ele>169.19999694824</ele>
        <time>2015-12-28T13:57:52.000Z</time>
      </trkpt>
      <trkpt lat="48.64729" lon="1.97527">
        <ele>169</ele>
        <time>2015-12-28T13:58:03.000Z</time>
      </trkpt>
      <trkpt lat="48.64719" lon="1.97503">
        <ele>168.80000305176</ele>
        <time>2015-12-28T13:58:15.000Z</time>
      </trkpt>
      <trkpt lat="48.6471" lon="1.97483">
        <ele>168.60000610352</ele>
        <time>2015-12-28T13:58:25.000Z</time>
      </trkpt>
      <trkpt lat="48.647" lon="1.97462">
        <ele>168.39999389648</ele>
        <time>2015-12-28T13:58:36.000Z</time>
      </trkpt>
      <trkpt lat="48.64689" lon="1.97433">
        <ele>168</ele>
        <time>2015-12-28T13:58:50.000Z</time>
      </trkpt>
      <trkpt lat="48.64683" lon="1.9742">
        <ele>167.80000305176</ele>
        <time>2015-12-28T13:58:57.000Z</time>
      </trkpt>
      <trkpt lat="48.64676" lon="1.97412">
        <ele>167.60000610352</ele>
        <time>2015-12-28T13:59:03.000Z</time>
      </trkpt>
      <trkpt lat="48.64671" lon="1.97403">
        <ele>167.60000610352</ele>
        <time>2015-12-28T13:59:08.000Z</time>
      </trkpt>
      <trkpt lat="48.64669" lon="1.974">
        <ele>167.39999389648</ele>
        <time>2015-12-28T13:59:10.000Z</time>
      </trkpt>
      <trkpt lat="48.64668" lon="1.974">
        <ele>167.39999389648</ele>
        <time>2015-12-28T13:59:11.000Z</time>
      </trkpt>
      <trkpt lat="48.64662" lon="1.97396">
        <ele>167.19999694824</ele>
        <time>2015-12-28T13:59:15.000Z</time>
      </trkpt>
      <trkpt lat="48.64653" lon="1.97388">
        <ele>167</ele>
        <time>2015-12-28T13:59:22.000Z</time>
      </trkpt>
      <trkpt lat="48.64643" lon="1.97381">
        <ele>166.80000305176</ele>
        <time>2015-12-28T13:59:29.000Z</time>
      </trkpt>
      <trkpt lat="48.64629" lon="1.97371">
        <ele>166.39999389648</ele>
        <time>2015-12-28T13:59:38.000Z</time>
      </trkpt>
      <trkpt lat="48.64617" lon="1.97365">
        <ele>166</ele>
        <time>2015-12-28T13:59:46.000Z</time>
      </trkpt>
      <trkpt lat="48.64601" lon="1.9736">
        <ele>165.60000610352</ele>
        <time>2015-12-28T13:59:56.000Z</time>
      </trkpt>
      <trkpt lat="48.6459" lon="1.9736">
        <ele>165.19999694824</ele>
        <time>2015-12-28T14:00:03.000Z</time>
      </trkpt>
      <trkpt lat="48.64577" lon="1.97358">
        <ele>164.60000610352</ele>
        <time>2015-12-28T14:00:11.000Z</time>
      </trkpt>
      <trkpt lat="48.64562" lon="1.97355">
        <ele>164.19999694824</ele>
        <time>2015-12-28T14:00:20.000Z</time>
      </trkpt>
      <trkpt lat="48.64555" lon="1.97352">
        <ele>164</ele>
        <time>2015-12-28T14:00:25.000Z</time>
      </trkpt>
      <trkpt lat="48.64541" lon="1.97342">
        <ele>163.60000610352</ele>
        <time>2015-12-28T14:00:34.000Z</time>
      </trkpt>
      <trkpt lat="48.64535" lon="1.97335">
        <ele>163.39999389648</ele>
        <time>2015-12-28T14:00:40.000Z</time>
      </trkpt>
      <trkpt lat="48.64535" lon="1.97335">
        <ele>163.39999389648</ele>
        <time>2015-12-28T14:00:41.000Z</time>
      </trkpt>
      <trkpt lat="48.64522" lon="1.97322">
        <ele>163.19999694824</ele>
        <time>2015-12-28T14:01:12.000Z</time>
      </trkpt>
      <trkpt lat="48.64518" lon="1.9732">
        <ele>163.19999694824</ele>
        <time>2015-12-28T14:01:14.000Z</time>
      </trkpt>
      <trkpt lat="48.64502" lon="1.97311">
        <ele>164</ele>
        <time>2015-12-28T14:01:20.000Z</time>
      </trkpt>
      <trkpt lat="48.64476" lon="1.973">
        <ele>165.19999694824</ele>
        <time>2015-12-28T14:01:28.000Z</time>
      </trkpt>
      <trkpt lat="48.64435" lon="1.97284">
        <ele>167</ele>
        <time>2015-12-28T14:01:38.000Z</time>
      </trkpt>
      <trkpt lat="48.64392" lon="1.97264">
        <ele>168.60000610352</ele>
        <time>2015-12-28T14:01:49.000Z</time>
      </trkpt>
      <trkpt lat="48.64384" lon="1.9726">
        <ele>168.80000305176</ele>
        <time>2015-12-28T14:01:51.000Z</time>
      </trkpt>
      <trkpt lat="48.64346" lon="1.97242">
        <ele>170</ele>
        <time>2015-12-28T14:02:01.000Z</time>
      </trkpt>
      <trkpt lat="48.64315" lon="1.97227">
        <ele>170.39999389648</ele>
        <time>2015-12-28T14:02:09.000Z</time>
      </trkpt>
      <trkpt lat="48.64281" lon="1.9721">
        <ele>170.80000305176</ele>
        <time>2015-12-28T14:02:18.000Z</time>
      </trkpt>
      <trkpt lat="48.64242" lon="1.97188">
        <ele>170.60000610352</ele>
        <time>2015-12-28T14:02:28.000Z</time>
      </trkpt>
      <trkpt lat="48.64207" lon="1.97167">
        <ele>170.19999694824</ele>
        <time>2015-12-28T14:02:37.000Z</time>
      </trkpt>
      <trkpt lat="48.64175" lon="1.97152">
        <ele>170</ele>
        <time>2015-12-28T14:02:45.000Z</time>
      </trkpt>
      <trkpt lat="48.64145" lon="1.9714">
        <ele>170</ele>
        <time>2015-12-28T14:02:53.000Z</time>
      </trkpt>
      <trkpt lat="48.64114" lon="1.9713">
        <ele>170</ele>
        <time>2015-12-28T14:03:01.000Z</time>
      </trkpt>
      <trkpt lat="48.64091" lon="1.9712">
        <ele>170</ele>
        <time>2015-12-28T14:03:08.000Z</time>
      </trkpt>
      <trkpt lat="48.64079" lon="1.97116">
        <ele>170</ele>
        <time>2015-12-28T14:03:14.000Z</time>
      </trkpt>
      <trkpt lat="48.64068" lon="1.97112">
        <ele>170</ele>
        <time>2015-12-28T14:03:22.000Z</time>
      </trkpt>
      <trkpt lat="48.64053" lon="1.97106">
        <ele>170</ele>
        <time>2015-12-28T14:03:31.000Z</time>
      </trkpt>
      <trkpt lat="48.64045" lon="1.97106">
        <ele>169.80000305176</ele>
        <time>2015-12-28T14:03:37.000Z</time>
      </trkpt>
      <trkpt lat="48.64043" lon="1.97108">
        <ele>169.80000305176</ele>
        <time>2015-12-28T14:03:39.000Z</time>
      </trkpt>
      <trkpt lat="48.64038" lon="1.97111">
        <ele>169.60000610352</ele>
        <time>2015-12-28T14:03:42.000Z</time>
      </trkpt>
      <trkpt lat="48.64026" lon="1.97117">
        <ele>169.19999694824</ele>
        <time>2015-12-28T14:03:50.000Z</time>
      </trkpt>
      <trkpt lat="48.64016" lon="1.9712">
        <ele>168.80000305176</ele>
        <time>2015-12-28T14:03:56.000Z</time>
      </trkpt>
      <trkpt lat="48.64007" lon="1.97122">
        <ele>168.60000610352</ele>
        <time>2015-12-28T14:04:02.000Z</time>
      </trkpt>
      <trkpt lat="48.63997" lon="1.97125">
        <ele>168.19999694824</ele>
        <time>2015-12-28T14:04:08.000Z</time>
      </trkpt>
      <trkpt lat="48.63989" lon="1.97125">
        <ele>168</ele>
        <time>2015-12-28T14:04:13.000Z</time>
      </trkpt>
      <trkpt lat="48.63986" lon="1.97126">
        <ele>168</ele>
        <time>2015-12-28T14:04:15.000Z</time>
      </trkpt>
      <trkpt lat="48.63977" lon="1.97127">
        <ele>167.80000305176</ele>
        <time>2015-12-28T14:04:21.000Z</time>
      </trkpt>
      <trkpt lat="48.63966" lon="1.97129">
        <ele>167.39999389648</ele>
        <time>2015-12-28T14:04:28.000Z</time>
      </trkpt>
      <trkpt lat="48.63952" lon="1.97131">
        <ele>167</ele>
        <time>2015-12-28T14:04:37.000Z</time>
      </trkpt>
      <trkpt lat="48.6394" lon="1.97134">
        <ele>166.60000610352</ele>
        <time>2015-12-28T14:04:46.000Z</time>
      </trkpt>
      <trkpt lat="48.6394" lon="1.97135">
        <ele>166.60000610352</ele>
        <time>2015-12-28T14:04:47.000Z</time>
      </trkpt>
      <trkpt lat="48.63939" lon="1.97136">
        <ele>166.60000610352</ele>
        <time>2015-12-28T14:04:50.000Z</time>
      </trkpt>
      <trkpt lat="48.63933" lon="1.97136">
        <ele>166.60000610352</ele>
        <time>2015-12-28T14:04:57.000Z</time>
      </trkpt>
      <trkpt lat="48.63932" lon="1.97137">
        <ele>166.60000610352</ele>
        <time>2015-12-28T14:04:58.000Z</time>
      </trkpt>
      <trkpt lat="48.63918" lon="1.97138">
        <ele>166.39999389648</ele>
        <time>2015-12-28T14:05:07.000Z</time>
      </trkpt>
      <trkpt lat="48.63907" lon="1.9714">
        <ele>166.19999694824</ele>
        <time>2015-12-28T14:05:14.000Z</time>
      </trkpt>
      <trkpt lat="48.63895" lon="1.97141">
        <ele>165.80000305176</ele>
        <time>2015-12-28T14:05:22.000Z</time>
      </trkpt>
      <trkpt lat="48.63883" lon="1.97146">
        <ele>165.39999389648</ele>
        <time>2015-12-28T14:05:29.000Z</time>
      </trkpt>
      <trkpt lat="48.63874" lon="1.97151">
        <ele>164.80000305176</ele>
        <time>2015-12-28T14:05:35.000Z</time>
      </trkpt>
      <trkpt lat="48.6386" lon="1.97162">
        <ele>164</ele>
        <time>2015-12-28T14:05:45.000Z</time>
      </trkpt>
      <trkpt lat="48.6385" lon="1.97172">
        <ele>163.39999389648</ele>
        <time>2015-12-28T14:05:53.000Z</time>
      </trkpt>
      <trkpt lat="48.63839" lon="1.97182">
        <ele>163.19999694824</ele>
        <time>2015-12-28T14:06:01.000Z</time>
      </trkpt>
      <trkpt lat="48.6383" lon="1.97193">
        <ele>162.80000305176</ele>
        <time>2015-12-28T14:06:08.000Z</time>
      </trkpt>
      <trkpt lat="48.63821" lon="1.97201">
        <ele>162.60000610352</ele>
        <time>2015-12-28T14:06:15.000Z</time>
      </trkpt>
      <trkpt lat="48.63819" lon="1.97204">
        <ele>162.60000610352</ele>
        <time>2015-12-28T14:06:17.000Z</time>
      </trkpt>
      <trkpt lat="48.63808" lon="1.97214">
        <ele>162.19999694824</ele>
        <time>2015-12-28T14:06:25.000Z</time>
      </trkpt>
      <trkpt lat="48.63796" lon="1.97225">
        <ele>161.60000610352</ele>
        <time>2015-12-28T14:06:35.000Z</time>
      </trkpt>
      <trkpt lat="48.63793" lon="1.97226">
        <ele>161.60000610352</ele>
        <time>2015-12-28T14:06:38.000Z</time>
      </trkpt>
      <trkpt lat="48.63793" lon="1.97227">
        <ele>161.60000610352</ele>
        <time>2015-12-28T14:06:40.000Z</time>
      </trkpt>
      <trkpt lat="48.63791" lon="1.97204">
        <ele>163</ele>
        <time>2015-12-28T14:07:24.000Z</time>
      </trkpt>
      <trkpt lat="48.63793" lon="1.97187">
        <ele>164</ele>
        <time>2015-12-28T14:07:32.000Z</time>
      </trkpt>
      <trkpt lat="48.63796" lon="1.97169">
        <ele>164.80000305176</ele>
        <time>2015-12-28T14:07:40.000Z</time>
      </trkpt>
      <trkpt lat="48.63797" lon="1.97146">
        <ele>165.60000610352</ele>
        <time>2015-12-28T14:07:50.000Z</time>
      </trkpt>
      <trkpt lat="48.63799" lon="1.97126">
        <ele>166</ele>
        <time>2015-12-28T14:07:59.000Z</time>
      </trkpt>
      <trkpt lat="48.63801" lon="1.97108">
        <ele>166.39999389648</ele>
        <time>2015-12-28T14:08:07.000Z</time>
      </trkpt>
      <trkpt lat="48.63803" lon="1.97088">
        <ele>167.39999389648</ele>
        <time>2015-12-28T14:08:16.000Z</time>
      </trkpt>
      <trkpt lat="48.63805" lon="1.9707">
        <ele>168</ele>
        <time>2015-12-28T14:08:24.000Z</time>
      </trkpt>
      <trkpt lat="48.63809" lon="1.97054">
        <ele>168.60000610352</ele>
        <time>2015-12-28T14:08:32.000Z</time>
      </trkpt>
      <trkpt lat="48.6381" lon="1.97046">
        <ele>168.60000610352</ele>
        <time>2015-12-28T14:08:36.000Z</time>
      </trkpt>
      <trkpt lat="48.63812" lon="1.97042">
        <ele>168.80000305176</ele>
        <time>2015-12-28T14:08:38.000Z</time>
      </trkpt>
      <trkpt lat="48.63816" lon="1.97031">
        <ele>169</ele>
        <time>2015-12-28T14:08:44.000Z</time>
      </trkpt>
      <trkpt lat="48.63818" lon="1.97023">
        <ele>169.19999694824</ele>
        <time>2015-12-28T14:08:48.000Z</time>
      </trkpt>
      <trkpt lat="48.6382" lon="1.97019">
        <ele>169.39999389648</ele>
        <time>2015-12-28T14:08:50.000Z</time>
      </trkpt>
      <trkpt lat="48.63821" lon="1.97017">
        <ele>169.39999389648</ele>
        <time>2015-12-28T14:08:52.000Z</time>
      </trkpt>
      <trkpt lat="48.63824" lon="1.97012">
        <ele>169.60000610352</ele>
        <time>2015-12-28T14:08:56.000Z</time>
      </trkpt>
      <trkpt lat="48.63826" lon="1.97009">
        <ele>169.60000610352</ele>
        <time>2015-12-28T14:08:58.000Z</time>
      </trkpt>
      <trkpt lat="48.63828" lon="1.97004">
        <ele>169.60000610352</ele>
        <time>2015-12-28T14:09:03.000Z</time>
      </trkpt>
      <trkpt lat="48.63833" lon="1.96995">
        <ele>170</ele>
        <time>2015-12-28T14:09:10.000Z</time>
      </trkpt>
      <trkpt lat="48.63839" lon="1.96986">
        <ele>170</ele>
        <time>2015-12-28T14:09:16.000Z</time>
      </trkpt>
      <trkpt lat="48.63848" lon="1.96977">
        <ele>170</ele>
        <time>2015-12-28T14:09:23.000Z</time>
      </trkpt>
      <trkpt lat="48.63856" lon="1.96971">
        <ele>170</ele>
        <time>2015-12-28T14:09:29.000Z</time>
      </trkpt>
      <trkpt lat="48.63867" lon="1.96963">
        <ele>170.19999694824</ele>
        <time>2015-12-28T14:09:37.000Z</time>
      </trkpt>
      <trkpt lat="48.63876" lon="1.96957">
        <ele>170.19999694824</ele>
        <time>2015-12-28T14:09:44.000Z</time>
      </trkpt>
      <trkpt lat="48.63887" lon="1.9695">
        <ele>170.39999389648</ele>
        <time>2015-12-28T14:09:52.000Z</time>
      </trkpt>
      <trkpt lat="48.63896" lon="1.96944">
        <ele>170.60000610352</ele>
        <time>2015-12-28T14:09:59.000Z</time>
      </trkpt>
      <trkpt lat="48.63911" lon="1.96934">
        <ele>171</ele>
        <time>2015-12-28T14:10:09.000Z</time>
      </trkpt>
      <trkpt lat="48.63923" lon="1.96926">
        <ele>171.39999389648</ele>
        <time>2015-12-28T14:10:18.000Z</time>
      </trkpt>
      <trkpt lat="48.6393" lon="1.9692">
        <ele>171.80000305176</ele>
        <time>2015-12-28T14:10:24.000Z</time>
      </trkpt>
      <trkpt lat="48.63941" lon="1.96916">
        <ele>172</ele>
        <time>2015-12-28T14:10:31.000Z</time>
      </trkpt>
      <trkpt lat="48.63949" lon="1.96913">
        <ele>171.80000305176</ele>
        <time>2015-12-28T14:10:37.000Z</time>
      </trkpt>
      <trkpt lat="48.63961" lon="1.96906">
        <ele>171.60000610352</ele>
        <time>2015-12-28T14:10:45.000Z</time>
      </trkpt>
      <trkpt lat="48.63973" lon="1.96898">
        <ele>171.39999389648</ele>
        <time>2015-12-28T14:10:54.000Z</time>
      </trkpt>
      <trkpt lat="48.6399" lon="1.96887">
        <ele>171</ele>
        <time>2015-12-28T14:11:06.000Z</time>
      </trkpt>
      <trkpt lat="48.64" lon="1.96881">
        <ele>171</ele>
        <time>2015-12-28T14:11:13.000Z</time>
      </trkpt>
      <trkpt lat="48.64015" lon="1.96876">
        <ele>170.60000610352</ele>
        <time>2015-12-28T14:11:23.000Z</time>
      </trkpt>
      <trkpt lat="48.64029" lon="1.96873">
        <ele>170.80000305176</ele>
        <time>2015-12-28T14:11:32.000Z</time>
      </trkpt>
      <trkpt lat="48.64041" lon="1.9687">
        <ele>170.80000305176</ele>
        <time>2015-12-28T14:11:40.000Z</time>
      </trkpt>
      <trkpt lat="48.64043" lon="1.9687">
        <ele>170.80000305176</ele>
        <time>2015-12-28T14:11:41.000Z</time>
      </trkpt>
      <trkpt lat="48.64048" lon="1.96872">
        <ele>171</ele>
        <time>2015-12-28T14:11:44.000Z</time>
      </trkpt>
      <trkpt lat="48.64051" lon="1.96871">
        <ele>171</ele>
        <time>2015-12-28T14:11:46.000Z</time>
      </trkpt>
      <trkpt lat="48.6406" lon="1.9687">
        <ele>171</ele>
        <time>2015-12-28T14:11:53.000Z</time>
      </trkpt>
      <trkpt lat="48.64073" lon="1.96867">
        <ele>171.19999694824</ele>
        <time>2015-12-28T14:12:01.000Z</time>
      </trkpt>
      <trkpt lat="48.64084" lon="1.96867">
        <ele>171.60000610352</ele>
        <time>2015-12-28T14:12:08.000Z</time>
      </trkpt>
      <trkpt lat="48.64103" lon="1.96866">
        <ele>172</ele>
        <time>2015-12-28T14:12:20.000Z</time>
      </trkpt>
      <trkpt lat="48.64114" lon="1.96866">
        <ele>172</ele>
        <time>2015-12-28T14:12:28.000Z</time>
      </trkpt>
      <trkpt lat="48.64129" lon="1.9686">
        <ele>172</ele>
        <time>2015-12-28T14:12:37.000Z</time>
      </trkpt>
      <trkpt lat="48.64139" lon="1.96849">
        <ele>172.19999694824</ele>
        <time>2015-12-28T14:12:45.000Z</time>
      </trkpt>
      <trkpt lat="48.64151" lon="1.96828">
        <ele>173</ele>
        <time>2015-12-28T14:12:57.000Z</time>
      </trkpt>
      <trkpt lat="48.6416" lon="1.96813">
        <ele>173.39999389648</ele>
        <time>2015-12-28T14:13:07.000Z</time>
      </trkpt>
      <trkpt lat="48.64163" lon="1.96807">
        <ele>173.39999389648</ele>
        <time>2015-12-28T14:13:12.000Z</time>
      </trkpt>
      <trkpt lat="48.64167" lon="1.96801">
        <ele>173.60000610352</ele>
        <time>2015-12-28T14:13:22.000Z</time>
      </trkpt>
      <trkpt lat="48.64177" lon="1.96786">
        <ele>173.80000305176</ele>
        <time>2015-12-28T14:13:32.000Z</time>
      </trkpt>
      <trkpt lat="48.64185" lon="1.96775">
        <ele>174</ele>
        <time>2015-12-28T14:13:39.000Z</time>
      </trkpt>
      <trkpt lat="48.64194" lon="1.9676">
        <ele>174</ele>
        <time>2015-12-28T14:13:48.000Z</time>
      </trkpt>
      <trkpt lat="48.64202" lon="1.96744">
        <ele>174</ele>
        <time>2015-12-28T14:13:56.000Z</time>
      </trkpt>
      <trkpt lat="48.6421" lon="1.96728">
        <ele>174.39999389648</ele>
        <time>2015-12-28T14:14:05.000Z</time>
      </trkpt>
      <trkpt lat="48.64212" lon="1.96724">
        <ele>174.39999389648</ele>
        <time>2015-12-28T14:14:10.000Z</time>
      </trkpt>
      <trkpt lat="48.64193" lon="1.96725">
        <ele>174.39999389648</ele>
        <time>2015-12-28T14:14:27.000Z</time>
      </trkpt>
      <trkpt lat="48.64182" lon="1.96728">
        <ele>174.19999694824</ele>
        <time>2015-12-28T14:14:36.000Z</time>
      </trkpt>
      <trkpt lat="48.6418" lon="1.96729">
        <ele>174.19999694824</ele>
        <time>2015-12-28T14:14:40.000Z</time>
      </trkpt>
      <trkpt lat="48.64189" lon="1.96727">
        <ele>174.39999389648</ele>
        <time>2015-12-28T14:14:48.000Z</time>
      </trkpt>
      <trkpt lat="48.642" lon="1.96724">
        <ele>174.39999389648</ele>
        <time>2015-12-28T14:14:55.000Z</time>
      </trkpt>
      <trkpt lat="48.64204" lon="1.96723">
        <ele>174.39999389648</ele>
        <time>2015-12-28T14:14:58.000Z</time>
      </trkpt>
      <trkpt lat="48.64207" lon="1.96724">
        <ele>174.39999389648</ele>
        <time>2015-12-28T14:15:00.000Z</time>
      </trkpt>
      <trkpt lat="48.64212" lon="1.96723">
        <ele>174.39999389648</ele>
        <time>2015-12-28T14:15:04.000Z</time>
      </trkpt>
      <trkpt lat="48.64215" lon="1.96718">
        <ele>174.60000610352</ele>
        <time>2015-12-28T14:15:07.000Z</time>
      </trkpt>
      <trkpt lat="48.64226" lon="1.96693">
        <ele>175</ele>
        <time>2015-12-28T14:15:20.000Z</time>
      </trkpt>
      <trkpt lat="48.64234" lon="1.96673">
        <ele>175.19999694824</ele>
        <time>2015-12-28T14:15:30.000Z</time>
      </trkpt>
      <trkpt lat="48.64244" lon="1.96651">
        <ele>175.19999694824</ele>
        <time>2015-12-28T14:15:42.000Z</time>
      </trkpt>
      <trkpt lat="48.6425" lon="1.96635">
        <ele>174.80000305176</ele>
        <time>2015-12-28T14:15:51.000Z</time>
      </trkpt>
      <trkpt lat="48.64253" lon="1.96623">
        <ele>174.80000305176</ele>
        <time>2015-12-28T14:15:57.000Z</time>
      </trkpt>
      <trkpt lat="48.64253" lon="1.96618">
        <ele>174.80000305176</ele>
        <time>2015-12-28T14:15:59.000Z</time>
      </trkpt>
      <trkpt lat="48.6425" lon="1.96597">
        <ele>174.80000305176</ele>
        <time>2015-12-28T14:16:09.000Z</time>
      </trkpt>
      <trkpt lat="48.64248" lon="1.96592">
        <ele>174.80000305176</ele>
        <time>2015-12-28T14:16:12.000Z</time>
      </trkpt>
      <trkpt lat="48.64245" lon="1.96588">
        <ele>174.80000305176</ele>
        <time>2015-12-28T14:16:16.000Z</time>
      </trkpt>
      <trkpt lat="48.64244" lon="1.96589">
        <ele>174.60000610352</ele>
        <time>2015-12-28T14:16:17.000Z</time>
      </trkpt>
      <trkpt lat="48.64237" lon="1.9659">
        <ele>174.60000610352</ele>
        <time>2015-12-28T14:16:22.000Z</time>
      </trkpt>
      <trkpt lat="48.64235" lon="1.9659">
        <ele>174.60000610352</ele>
        <time>2015-12-28T14:16:25.000Z</time>
      </trkpt>
      <trkpt lat="48.64255" lon="1.9661">
        <ele>174.80000305176</ele>
        <time>2015-12-28T14:17:52.000Z</time>
      </trkpt>
      <trkpt lat="48.64255" lon="1.96612">
        <ele>174.80000305176</ele>
        <time>2015-12-28T14:17:53.000Z</time>
      </trkpt>
      <trkpt lat="48.64255" lon="1.96628">
        <ele>174.80000305176</ele>
        <time>2015-12-28T14:18:01.000Z</time>
      </trkpt>
      <trkpt lat="48.64249" lon="1.96646">
        <ele>175</ele>
        <time>2015-12-28T14:18:10.000Z</time>
      </trkpt>
      <trkpt lat="48.64248" lon="1.96649">
        <ele>175</ele>
        <time>2015-12-28T14:18:12.000Z</time>
      </trkpt>
      <trkpt lat="48.64246" lon="1.9665">
        <ele>175</ele>
        <time>2015-12-28T14:18:16.000Z</time>
      </trkpt>
      <trkpt lat="48.64246" lon="1.9665">
        <ele>175</ele>
        <time>2015-12-28T14:18:17.000Z</time>
      </trkpt>
      <trkpt lat="48.64256" lon="1.96636">
        <ele>174.80000305176</ele>
        <time>2015-12-28T14:19:02.000Z</time>
      </trkpt>
      <trkpt lat="48.64257" lon="1.9663">
        <ele>174.80000305176</ele>
        <time>2015-12-28T14:19:05.000Z</time>
      </trkpt>
      <trkpt lat="48.64254" lon="1.96609">
        <ele>174.80000305176</ele>
        <time>2015-12-28T14:19:14.000Z</time>
      </trkpt>
      <trkpt lat="48.64251" lon="1.96592">
        <ele>174.80000305176</ele>
        <time>2015-12-28T14:19:22.000Z</time>
      </trkpt>
      <trkpt lat="48.64246" lon="1.96563">
        <ele>174.39999389648</ele>
        <time>2015-12-28T14:19:35.000Z</time>
      </trkpt>
      <trkpt lat="48.64241" lon="1.96537">
        <ele>173.80000305176</ele>
        <time>2015-12-28T14:19:46.000Z</time>
      </trkpt>
      <trkpt lat="48.6424" lon="1.96516">
        <ele>173.60000610352</ele>
        <time>2015-12-28T14:19:56.000Z</time>
      </trkpt>
      <trkpt lat="48.64238" lon="1.96495">
        <ele>173.19999694824</ele>
        <time>2015-12-28T14:20:05.000Z</time>
      </trkpt>
      <trkpt lat="48.64238" lon="1.9647">
        <ele>173.60000610352</ele>
        <time>2015-12-28T14:20:16.000Z</time>
      </trkpt>
      <trkpt lat="48.64239" lon="1.96457">
        <ele>173.60000610352</ele>
        <time>2015-12-28T14:20:23.000Z</time>
      </trkpt>
      <trkpt lat="48.64241" lon="1.96429">
        <ele>173.60000610352</ele>
        <time>2015-12-28T14:20:35.000Z</time>
      </trkpt>
      <trkpt lat="48.64241" lon="1.96411">
        <ele>173.60000610352</ele>
        <time>2015-12-28T14:20:43.000Z</time>
      </trkpt>
      <trkpt lat="48.6424" lon="1.96384">
        <ele>174.19999694824</ele>
        <time>2015-12-28T14:20:54.000Z</time>
      </trkpt>
      <trkpt lat="48.64238" lon="1.96361">
        <ele>174.39999389648</ele>
        <time>2015-12-28T14:21:04.000Z</time>
      </trkpt>
      <trkpt lat="48.64236" lon="1.96345">
        <ele>174.39999389648</ele>
        <time>2015-12-28T14:21:12.000Z</time>
      </trkpt>
      <trkpt lat="48.64233" lon="1.96322">
        <ele>174.39999389648</ele>
        <time>2015-12-28T14:21:22.000Z</time>
      </trkpt>
      <trkpt lat="48.64229" lon="1.96304">
        <ele>174.19999694824</ele>
        <time>2015-12-28T14:21:30.000Z</time>
      </trkpt>
      <trkpt lat="48.64226" lon="1.96284">
        <ele>174</ele>
        <time>2015-12-28T14:21:39.000Z</time>
      </trkpt>
      <trkpt lat="48.64223" lon="1.96272">
        <ele>174</ele>
        <time>2015-12-28T14:21:44.000Z</time>
      </trkpt>
      <trkpt lat="48.64219" lon="1.96252">
        <ele>173.80000305176</ele>
        <time>2015-12-28T14:21:53.000Z</time>
      </trkpt>
      <trkpt lat="48.64213" lon="1.96222">
        <ele>173</ele>
        <time>2015-12-28T14:22:06.000Z</time>
      </trkpt>
      <trkpt lat="48.6421" lon="1.96198">
        <ele>172.19999694824</ele>
        <time>2015-12-28T14:22:16.000Z</time>
      </trkpt>
      <trkpt lat="48.64207" lon="1.96175">
        <ele>171.60000610352</ele>
        <time>2015-12-28T14:22:26.000Z</time>
      </trkpt>
      <trkpt lat="48.64205" lon="1.96156">
        <ele>171.39999389648</ele>
        <time>2015-12-28T14:22:34.000Z</time>
      </trkpt>
      <trkpt lat="48.64203" lon="1.96137">
        <ele>171.39999389648</ele>
        <time>2015-12-28T14:22:42.000Z</time>
      </trkpt>
      <trkpt lat="48.64201" lon="1.96121">
        <ele>171.39999389648</ele>
        <time>2015-12-28T14:22:49.000Z</time>
      </trkpt>
      <trkpt lat="48.64198" lon="1.96103">
        <ele>171.39999389648</ele>
        <time>2015-12-28T14:22:57.000Z</time>
      </trkpt>
      <trkpt lat="48.64194" lon="1.96081">
        <ele>171.19999694824</ele>
        <time>2015-12-28T14:23:07.000Z</time>
      </trkpt>
      <trkpt lat="48.64189" lon="1.96064">
        <ele>171</ele>
        <time>2015-12-28T14:23:16.000Z</time>
      </trkpt>
      <trkpt lat="48.64188" lon="1.96063">
        <ele>170.80000305176</ele>
        <time>2015-12-28T14:23:17.000Z</time>
      </trkpt>
      <trkpt lat="48.64183" lon="1.96057">
        <ele>170.80000305176</ele>
        <time>2015-12-28T14:23:21.000Z</time>
      </trkpt>
      <trkpt lat="48.64172" lon="1.96039">
        <ele>170.39999389648</ele>
        <time>2015-12-28T14:23:31.000Z</time>
      </trkpt>
      <trkpt lat="48.64162" lon="1.96019">
        <ele>170</ele>
        <time>2015-12-28T14:23:41.000Z</time>
      </trkpt>
      <trkpt lat="48.6416" lon="1.96014">
        <ele>170</ele>
        <time>2015-12-28T14:23:44.000Z</time>
      </trkpt>
      <trkpt lat="48.64157" lon="1.96008">
        <ele>169.80000305176</ele>
        <time>2015-12-28T14:23:47.000Z</time>
      </trkpt>
      <trkpt lat="48.64149" lon="1.95987">
        <ele>169.60000610352</ele>
        <time>2015-12-28T14:23:57.000Z</time>
      </trkpt>
      <trkpt lat="48.64142" lon="1.9597">
        <ele>169.39999389648</ele>
        <time>2015-12-28T14:24:05.000Z</time>
      </trkpt>
      <trkpt lat="48.64134" lon="1.95952">
        <ele>169.39999389648</ele>
        <time>2015-12-28T14:24:14.000Z</time>
      </trkpt>
      <trkpt lat="48.64128" lon="1.95937">
        <ele>169.39999389648</ele>
        <time>2015-12-28T14:24:21.000Z</time>
      </trkpt>
      <trkpt lat="48.64122" lon="1.95923">
        <ele>169.19999694824</ele>
        <time>2015-12-28T14:24:28.000Z</time>
      </trkpt>
      <trkpt lat="48.64111" lon="1.95896">
        <ele>169.19999694824</ele>
        <time>2015-12-28T14:24:41.000Z</time>
      </trkpt>
      <trkpt lat="48.641" lon="1.95869">
        <ele>169.60000610352</ele>
        <time>2015-12-28T14:24:54.000Z</time>
      </trkpt>
      <trkpt lat="48.64091" lon="1.95848">
        <ele>170</ele>
        <time>2015-12-28T14:25:04.000Z</time>
      </trkpt>
      <trkpt lat="48.64081" lon="1.95824">
        <ele>170.60000610352</ele>
        <time>2015-12-28T14:25:15.000Z</time>
      </trkpt>
      <trkpt lat="48.64075" lon="1.95811">
        <ele>170.39999389648</ele>
        <time>2015-12-28T14:25:21.000Z</time>
      </trkpt>
      <trkpt lat="48.64068" lon="1.95794">
        <ele>170.39999389648</ele>
        <time>2015-12-28T14:25:29.000Z</time>
      </trkpt>
      <trkpt lat="48.6406" lon="1.95783">
        <ele>170.60000610352</ele>
        <time>2015-12-28T14:25:36.000Z</time>
      </trkpt>
      <trkpt lat="48.64053" lon="1.95764">
        <ele>170.39999389648</ele>
        <time>2015-12-28T14:25:45.000Z</time>
      </trkpt>
      <trkpt lat="48.64046" lon="1.95751">
        <ele>170.39999389648</ele>
        <time>2015-12-28T14:25:52.000Z</time>
      </trkpt>
      <trkpt lat="48.64044" lon="1.9574">
        <ele>170.39999389648</ele>
        <time>2015-12-28T14:25:57.000Z</time>
      </trkpt>
      <trkpt lat="48.64043" lon="1.95737">
        <ele>170.39999389648</ele>
        <time>2015-12-28T14:25:58.000Z</time>
      </trkpt>
      <trkpt lat="48.64035" lon="1.95717">
        <ele>170.39999389648</ele>
        <time>2015-12-28T14:26:08.000Z</time>
      </trkpt>
      <trkpt lat="48.64024" lon="1.95694">
        <ele>170.39999389648</ele>
        <time>2015-12-28T14:26:20.000Z</time>
      </trkpt>
      <trkpt lat="48.64018" lon="1.95677">
        <ele>170.19999694824</ele>
        <time>2015-12-28T14:26:28.000Z</time>
      </trkpt>
      <trkpt lat="48.64011" lon="1.95663">
        <ele>170</ele>
        <time>2015-12-28T14:26:35.000Z</time>
      </trkpt>
      <trkpt lat="48.64" lon="1.95637">
        <ele>169.60000610352</ele>
        <time>2015-12-28T14:26:48.000Z</time>
      </trkpt>
      <trkpt lat="48.63991" lon="1.95615">
        <ele>169</ele>
        <time>2015-12-28T14:26:59.000Z</time>
      </trkpt>
      <trkpt lat="48.63988" lon="1.95605">
        <ele>168.80000305176</ele>
        <time>2015-12-28T14:27:04.000Z</time>
      </trkpt>
      <trkpt lat="48.63987" lon="1.95602">
        <ele>168.60000610352</ele>
        <time>2015-12-28T14:27:06.000Z</time>
      </trkpt>
      <trkpt lat="48.63981" lon="1.95588">
        <ele>168.39999389648</ele>
        <time>2015-12-28T14:27:14.000Z</time>
      </trkpt>
      <trkpt lat="48.63976" lon="1.95574">
        <ele>168</ele>
        <time>2015-12-28T14:27:22.000Z</time>
      </trkpt>
      <trkpt lat="48.63969" lon="1.95559">
        <ele>168</ele>
        <time>2015-12-28T14:27:30.000Z</time>
      </trkpt>
      <trkpt lat="48.63963" lon="1.95544">
        <ele>168</ele>
        <time>2015-12-28T14:27:38.000Z</time>
      </trkpt>
      <trkpt lat="48.63956" lon="1.95529">
        <ele>168</ele>
        <time>2015-12-28T14:27:46.000Z</time>
      </trkpt>
      <trkpt lat="48.63955" lon="1.95528">
        <ele>168</ele>
        <time>2015-12-28T14:27:47.000Z</time>
      </trkpt>
      <trkpt lat="48.63952" lon="1.95519">
        <ele>168</ele>
        <time>2015-12-28T14:27:52.000Z</time>
      </trkpt>
      <trkpt lat="48.63944" lon="1.95503">
        <ele>168</ele>
        <time>2015-12-28T14:28:00.000Z</time>
      </trkpt>
      <trkpt lat="48.63934" lon="1.95483">
        <ele>167.19999694824</ele>
        <time>2015-12-28T14:28:10.000Z</time>
      </trkpt>
      <trkpt lat="48.63926" lon="1.95464">
        <ele>164.39999389648</ele>
        <time>2015-12-28T14:28:19.000Z</time>
      </trkpt>
      <trkpt lat="48.63924" lon="1.95462">
        <ele>163.80000305176</ele>
        <time>2015-12-28T14:28:22.000Z</time>
      </trkpt>
      <trkpt lat="48.63919" lon="1.95452">
        <ele>162.19999694824</ele>
        <time>2015-12-28T14:28:34.000Z</time>
      </trkpt>
      <trkpt lat="48.63918" lon="1.9545">
        <ele>161.80000305176</ele>
        <time>2015-12-28T14:28:35.000Z</time>
      </trkpt>
      <trkpt lat="48.63913" lon="1.95439">
        <ele>160.19999694824</ele>
        <time>2015-12-28T14:28:41.000Z</time>
      </trkpt>
      <trkpt lat="48.63907" lon="1.95423">
        <ele>157.80000305176</ele>
        <time>2015-12-28T14:28:49.000Z</time>
      </trkpt>
      <trkpt lat="48.63902" lon="1.95407">
        <ele>156</ele>
        <time>2015-12-28T14:28:56.000Z</time>
      </trkpt>
      <trkpt lat="48.63899" lon="1.95393">
        <ele>154.60000610352</ele>
        <time>2015-12-28T14:29:02.000Z</time>
      </trkpt>
      <trkpt lat="48.63897" lon="1.95379">
        <ele>153.39999389648</ele>
        <time>2015-12-28T14:29:09.000Z</time>
      </trkpt>
      <trkpt lat="48.63896" lon="1.95365">
        <ele>152.19999694824</ele>
        <time>2015-12-28T14:29:15.000Z</time>
      </trkpt>
      <trkpt lat="48.63899" lon="1.95346">
        <ele>150.80000305176</ele>
        <time>2015-12-28T14:29:22.000Z</time>
      </trkpt>
      <trkpt lat="48.63906" lon="1.95333">
        <ele>150.60000610352</ele>
        <time>2015-12-28T14:29:28.000Z</time>
      </trkpt>
      <trkpt lat="48.63913" lon="1.95322">
        <ele>150.80000305176</ele>
        <time>2015-12-28T14:29:34.000Z</time>
      </trkpt>
      <trkpt lat="48.63923" lon="1.95311">
        <ele>151.80000305176</ele>
        <time>2015-12-28T14:29:41.000Z</time>
      </trkpt>
      <trkpt lat="48.63933" lon="1.953">
        <ele>151.19999694824</ele>
        <time>2015-12-28T14:29:49.000Z</time>
      </trkpt>
      <trkpt lat="48.63934" lon="1.95298">
        <ele>151</ele>
        <time>2015-12-28T14:29:52.000Z</time>
      </trkpt>
      <trkpt lat="48.6395" lon="1.95261">
        <ele>148.39999389648</ele>
        <time>2015-12-28T14:30:32.000Z</time>
      </trkpt>
      <trkpt lat="48.6395" lon="1.9526">
        <ele>148.19999694824</ele>
        <time>2015-12-28T14:30:33.000Z</time>
      </trkpt>
      <trkpt lat="48.63954" lon="1.95244">
        <ele>145.80000305176</ele>
        <time>2015-12-28T14:30:40.000Z</time>
      </trkpt>
      <trkpt lat="48.63958" lon="1.95228">
        <ele>144.39999389648</ele>
        <time>2015-12-28T14:30:47.000Z</time>
      </trkpt>
      <trkpt lat="48.63961" lon="1.95215">
        <ele>143.60000610352</ele>
        <time>2015-12-28T14:30:52.000Z</time>
      </trkpt>
      <trkpt lat="48.63964" lon="1.952">
        <ele>142.39999389648</ele>
        <time>2015-12-28T14:30:58.000Z</time>
      </trkpt>
      <trkpt lat="48.6397" lon="1.95183">
        <ele>140.60000610352</ele>
        <time>2015-12-28T14:31:05.000Z</time>
      </trkpt>
      <trkpt lat="48.63974" lon="1.95168">
        <ele>137.60000610352</ele>
        <time>2015-12-28T14:31:12.000Z</time>
      </trkpt>
      <trkpt lat="48.63975" lon="1.95158">
        <ele>135.60000610352</ele>
        <time>2015-12-28T14:31:16.000Z</time>
      </trkpt>
      <trkpt lat="48.63979" lon="1.95146">
        <ele>134.60000610352</ele>
        <time>2015-12-28T14:31:21.000Z</time>
      </trkpt>
      <trkpt lat="48.63981" lon="1.95132">
        <ele>133.39999389648</ele>
        <time>2015-12-28T14:31:28.000Z</time>
      </trkpt>
      <trkpt lat="48.6398" lon="1.95127">
        <ele>133</ele>
        <time>2015-12-28T14:31:32.000Z</time>
      </trkpt>
      <trkpt lat="48.63981" lon="1.95122">
        <ele>132.60000610352</ele>
        <time>2015-12-28T14:31:34.000Z</time>
      </trkpt>
      <trkpt lat="48.63983" lon="1.95109">
        <ele>131.39999389648</ele>
        <time>2015-12-28T14:31:39.000Z</time>
      </trkpt>
      <trkpt lat="48.63984" lon="1.95106">
        <ele>131</ele>
        <time>2015-12-28T14:31:40.000Z</time>
      </trkpt>
      <trkpt lat="48.63988" lon="1.95092">
        <ele>129.60000610352</ele>
        <time>2015-12-28T14:31:46.000Z</time>
      </trkpt>
      <trkpt lat="48.63986" lon="1.95079">
        <ele>128.39999389648</ele>
        <time>2015-12-28T14:31:52.000Z</time>
      </trkpt>
      <trkpt lat="48.63978" lon="1.95063">
        <ele>127.80000305176</ele>
        <time>2015-12-28T14:32:00.000Z</time>
      </trkpt>
      <trkpt lat="48.6397" lon="1.9505">
        <ele>127.40000152588</ele>
        <time>2015-12-28T14:32:07.000Z</time>
      </trkpt>
      <trkpt lat="48.63964" lon="1.95037">
        <ele>127.19999694824</ele>
        <time>2015-12-28T14:32:14.000Z</time>
      </trkpt>
      <trkpt lat="48.63966" lon="1.95027">
        <ele>126.80000305176</ele>
        <time>2015-12-28T14:32:19.000Z</time>
      </trkpt>
      <trkpt lat="48.63968" lon="1.95024">
        <ele>126.80000305176</ele>
        <time>2015-12-28T14:32:21.000Z</time>
      </trkpt>
      <trkpt lat="48.63976" lon="1.95019">
        <ele>126.59999847412</ele>
        <time>2015-12-28T14:32:26.000Z</time>
      </trkpt>
      <trkpt lat="48.63979" lon="1.95014">
        <ele>126.59999847412</ele>
        <time>2015-12-28T14:32:29.000Z</time>
      </trkpt>
      <trkpt lat="48.63982" lon="1.95009">
        <ele>126.40000152588</ele>
        <time>2015-12-28T14:32:32.000Z</time>
      </trkpt>
      <trkpt lat="48.63984" lon="1.94999">
        <ele>126.19999694824</ele>
        <time>2015-12-28T14:32:37.000Z</time>
      </trkpt>
      <trkpt lat="48.63985" lon="1.94994">
        <ele>126</ele>
        <time>2015-12-28T14:32:39.000Z</time>
      </trkpt>
      <trkpt lat="48.63986" lon="1.94982">
        <ele>125.80000305176</ele>
        <time>2015-12-28T14:32:44.000Z</time>
      </trkpt>
      <trkpt lat="48.63987" lon="1.94968">
        <ele>125.80000305176</ele>
        <time>2015-12-28T14:32:50.000Z</time>
      </trkpt>
      <trkpt lat="48.63989" lon="1.94955">
        <ele>125.59999847412</ele>
        <time>2015-12-28T14:32:56.000Z</time>
      </trkpt>
      <trkpt lat="48.63991" lon="1.94942">
        <ele>125.59999847412</ele>
        <time>2015-12-28T14:33:02.000Z</time>
      </trkpt>
      <trkpt lat="48.63993" lon="1.94923">
        <ele>125.59999847412</ele>
        <time>2015-12-28T14:33:10.000Z</time>
      </trkpt>
      <trkpt lat="48.63993" lon="1.94904">
        <ele>125.59999847412</ele>
        <time>2015-12-28T14:33:17.000Z</time>
      </trkpt>
      <trkpt lat="48.63996" lon="1.94882">
        <ele>125.80000305176</ele>
        <time>2015-12-28T14:33:26.000Z</time>
      </trkpt>
      <trkpt lat="48.63999" lon="1.94859">
        <ele>126.19999694824</ele>
        <time>2015-12-28T14:33:36.000Z</time>
      </trkpt>
      <trkpt lat="48.64002" lon="1.94841">
        <ele>126.40000152588</ele>
        <time>2015-12-28T14:33:45.000Z</time>
      </trkpt>
      <trkpt lat="48.64005" lon="1.94828">
        <ele>126.59999847412</ele>
        <time>2015-12-28T14:33:52.000Z</time>
      </trkpt>
      <trkpt lat="48.64008" lon="1.94812">
        <ele>126.80000305176</ele>
        <time>2015-12-28T14:33:59.000Z</time>
      </trkpt>
      <trkpt lat="48.64007" lon="1.94809">
        <ele>127</ele>
        <time>2015-12-28T14:34:00.000Z</time>
      </trkpt>
      <trkpt lat="48.64009" lon="1.94799">
        <ele>127</ele>
        <time>2015-12-28T14:34:04.000Z</time>
      </trkpt>
      <trkpt lat="48.64012" lon="1.9478">
        <ele>127.40000152588</ele>
        <time>2015-12-28T14:34:12.000Z</time>
      </trkpt>
      <trkpt lat="48.64015" lon="1.94764">
        <ele>127.59999847412</ele>
        <time>2015-12-28T14:34:19.000Z</time>
      </trkpt>
      <trkpt lat="48.64019" lon="1.94749">
        <ele>127.80000305176</ele>
        <time>2015-12-28T14:34:26.000Z</time>
      </trkpt>
      <trkpt lat="48.64019" lon="1.9474">
        <ele>128</ele>
        <time>2015-12-28T14:34:30.000Z</time>
      </trkpt>
      <trkpt lat="48.64018" lon="1.94735">
        <ele>128</ele>
        <time>2015-12-28T14:34:32.000Z</time>
      </trkpt>
      <trkpt lat="48.64021" lon="1.94722">
        <ele>127.80000305176</ele>
        <time>2015-12-28T14:34:38.000Z</time>
      </trkpt>
      <trkpt lat="48.64023" lon="1.94712">
        <ele>127.80000305176</ele>
        <time>2015-12-28T14:34:42.000Z</time>
      </trkpt>
      <trkpt lat="48.64025" lon="1.94702">
        <ele>127.59999847412</ele>
        <time>2015-12-28T14:34:46.000Z</time>
      </trkpt>
      <trkpt lat="48.64028" lon="1.94676">
        <ele>127.40000152588</ele>
        <time>2015-12-28T14:34:53.000Z</time>
      </trkpt>
      <trkpt lat="48.64031" lon="1.94647">
        <ele>127.19999694824</ele>
        <time>2015-12-28T14:34:59.000Z</time>
      </trkpt>
      <trkpt lat="48.64037" lon="1.94604">
        <ele>128.19999694824</ele>
        <time>2015-12-28T14:35:07.000Z</time>
      </trkpt>
      <trkpt lat="48.64044" lon="1.94551">
        <ele>129.39999389648</ele>
        <time>2015-12-28T14:35:16.000Z</time>
      </trkpt>
      <trkpt lat="48.6405" lon="1.94506">
        <ele>131.60000610352</ele>
        <time>2015-12-28T14:35:23.000Z</time>
      </trkpt>
      <trkpt lat="48.64056" lon="1.94466">
        <ele>133</ele>
        <time>2015-12-28T14:35:29.000Z</time>
      </trkpt>
      <trkpt lat="48.64057" lon="1.94459">
        <ele>133.19999694824</ele>
        <time>2015-12-28T14:35:30.000Z</time>
      </trkpt>
      <trkpt lat="48.64064" lon="1.94403">
        <ele>135.60000610352</ele>
        <time>2015-12-28T14:35:38.000Z</time>
      </trkpt>
      <trkpt lat="48.64072" lon="1.94347">
        <ele>137.60000610352</ele>
        <time>2015-12-28T14:35:45.000Z</time>
      </trkpt>
      <trkpt lat="48.64079" lon="1.94295">
        <ele>139.80000305176</ele>
        <time>2015-12-28T14:35:52.000Z</time>
      </trkpt>
      <trkpt lat="48.64085" lon="1.94245">
        <ele>141.39999389648</ele>
        <time>2015-12-28T14:36:00.000Z</time>
      </trkpt>
      <trkpt lat="48.64086" lon="1.94228">
        <ele>142.39999389648</ele>
        <time>2015-12-28T14:36:03.000Z</time>
      </trkpt>
      <trkpt lat="48.64087" lon="1.94207">
        <ele>143.80000305176</ele>
        <time>2015-12-28T14:36:07.000Z</time>
      </trkpt>
      <trkpt lat="48.6409" lon="1.94185">
        <ele>145</ele>
        <time>2015-12-28T14:36:13.000Z</time>
      </trkpt>
      <trkpt lat="48.6409" lon="1.94175">
        <ele>145.60000610352</ele>
        <time>2015-12-28T14:36:18.000Z</time>
      </trkpt>
      <trkpt lat="48.64091" lon="1.94173">
        <ele>145.60000610352</ele>
        <time>2015-12-28T14:36:19.000Z</time>
      </trkpt>
      <trkpt lat="48.64092" lon="1.94165">
        <ele>146</ele>
        <time>2015-12-28T14:36:22.000Z</time>
      </trkpt>
      <trkpt lat="48.64093" lon="1.94156">
        <ele>146.39999389648</ele>
        <time>2015-12-28T14:36:26.000Z</time>
      </trkpt>
      <trkpt lat="48.64095" lon="1.9415">
        <ele>146.39999389648</ele>
        <time>2015-12-28T14:36:30.000Z</time>
      </trkpt>
      <trkpt lat="48.64095" lon="1.9415">
        <ele>146.39999389648</ele>
        <time>2015-12-28T14:36:31.000Z</time>
      </trkpt>
      <trkpt lat="48.64096" lon="1.94153">
        <ele>146.39999389648</ele>
        <time>2015-12-28T14:36:34.000Z</time>
      </trkpt>
      <trkpt lat="48.64095" lon="1.94157">
        <ele>146.39999389648</ele>
        <time>2015-12-28T14:36:36.000Z</time>
      </trkpt>
      <trkpt lat="48.64093" lon="1.94164">
        <ele>146</ele>
        <time>2015-12-28T14:36:40.000Z</time>
      </trkpt>
      <trkpt lat="48.64092" lon="1.94169">
        <ele>145.80000305176</ele>
        <time>2015-12-28T14:36:42.000Z</time>
      </trkpt>
      <trkpt lat="48.64092" lon="1.94182">
        <ele>145</ele>
        <time>2015-12-28T14:36:50.000Z</time>
      </trkpt>
      <trkpt lat="48.64091" lon="1.94188">
        <ele>144.60000610352</ele>
        <time>2015-12-28T14:36:53.000Z</time>
      </trkpt>
      <trkpt lat="48.64091" lon="1.9419">
        <ele>144.60000610352</ele>
        <time>2015-12-28T14:36:56.000Z</time>
      </trkpt>
      <trkpt lat="48.64089" lon="1.94212">
        <ele>143.39999389648</ele>
        <time>2015-12-28T14:38:50.000Z</time>
      </trkpt>
      <trkpt lat="48.64089" lon="1.9421">
        <ele>143.60000610352</ele>
        <time>2015-12-28T14:38:51.000Z</time>
      </trkpt>
      <trkpt lat="48.64091" lon="1.94194">
        <ele>144.39999389648</ele>
        <time>2015-12-28T14:38:57.000Z</time>
      </trkpt>
      <trkpt lat="48.64093" lon="1.94177">
        <ele>145.19999694824</ele>
        <time>2015-12-28T14:39:04.000Z</time>
      </trkpt>
      <trkpt lat="48.64094" lon="1.94163">
        <ele>146</ele>
        <time>2015-12-28T14:39:10.000Z</time>
      </trkpt>
      <trkpt lat="48.64095" lon="1.94147">
        <ele>146.39999389648</ele>
        <time>2015-12-28T14:39:17.000Z</time>
      </trkpt>
      <trkpt lat="48.64097" lon="1.94133">
        <ele>146.80000305176</ele>
        <time>2015-12-28T14:39:23.000Z</time>
      </trkpt>
      <trkpt lat="48.64099" lon="1.94114">
        <ele>147.19999694824</ele>
        <time>2015-12-28T14:39:30.000Z</time>
      </trkpt>
      <trkpt lat="48.64102" lon="1.94104">
        <ele>147.19999694824</ele>
        <time>2015-12-28T14:39:35.000Z</time>
      </trkpt>
      <trkpt lat="48.64104" lon="1.94094">
        <ele>147.39999389648</ele>
        <time>2015-12-28T14:39:40.000Z</time>
      </trkpt>
      <trkpt lat="48.64106" lon="1.94081">
        <ele>147.80000305176</ele>
        <time>2015-12-28T14:39:46.000Z</time>
      </trkpt>
      <trkpt lat="48.64106" lon="1.94067">
        <ele>148</ele>
        <time>2015-12-28T14:39:53.000Z</time>
      </trkpt>
      <trkpt lat="48.64108" lon="1.94054">
        <ele>148.19999694824</ele>
        <time>2015-12-28T14:39:59.000Z</time>
      </trkpt>
      <trkpt lat="48.6411" lon="1.94039">
        <ele>148.60000610352</ele>
        <time>2015-12-28T14:40:06.000Z</time>
      </trkpt>
      <trkpt lat="48.64113" lon="1.94025">
        <ele>148.80000305176</ele>
        <time>2015-12-28T14:40:13.000Z</time>
      </trkpt>
      <trkpt lat="48.64116" lon="1.94008">
        <ele>149.19999694824</ele>
        <time>2015-12-28T14:40:21.000Z</time>
      </trkpt>
      <trkpt lat="48.64118" lon="1.93994">
        <ele>149.19999694824</ele>
        <time>2015-12-28T14:40:27.000Z</time>
      </trkpt>
      <trkpt lat="48.64119" lon="1.93979">
        <ele>149</ele>
        <time>2015-12-28T14:40:34.000Z</time>
      </trkpt>
      <trkpt lat="48.64121" lon="1.93961">
        <ele>148.80000305176</ele>
        <time>2015-12-28T14:40:42.000Z</time>
      </trkpt>
      <trkpt lat="48.64124" lon="1.93948">
        <ele>148.39999389648</ele>
        <time>2015-12-28T14:40:48.000Z</time>
      </trkpt>
      <trkpt lat="48.64125" lon="1.93934">
        <ele>148.19999694824</ele>
        <time>2015-12-28T14:40:54.000Z</time>
      </trkpt>
      <trkpt lat="48.64126" lon="1.9392">
        <ele>148.19999694824</ele>
        <time>2015-12-28T14:41:00.000Z</time>
      </trkpt>
      <trkpt lat="48.64127" lon="1.93911">
        <ele>148.39999389648</ele>
        <time>2015-12-28T14:41:05.000Z</time>
      </trkpt>
      <trkpt lat="48.64126" lon="1.93909">
        <ele>148.39999389648</ele>
        <time>2015-12-28T14:41:06.000Z</time>
      </trkpt>
      <trkpt lat="48.64127" lon="1.93896">
        <ele>148.60000610352</ele>
        <time>2015-12-28T14:41:12.000Z</time>
      </trkpt>
      <trkpt lat="48.64128" lon="1.93885">
        <ele>148.60000610352</ele>
        <time>2015-12-28T14:41:17.000Z</time>
      </trkpt>
      <trkpt lat="48.64129" lon="1.93881">
        <ele>148.60000610352</ele>
        <time>2015-12-28T14:41:19.000Z</time>
      </trkpt>
      <trkpt lat="48.64131" lon="1.93868">
        <ele>148.80000305176</ele>
        <time>2015-12-28T14:41:25.000Z</time>
      </trkpt>
      <trkpt lat="48.64133" lon="1.93853">
        <ele>148.80000305176</ele>
        <time>2015-12-28T14:41:31.000Z</time>
      </trkpt>
      <trkpt lat="48.64136" lon="1.93829">
        <ele>148.80000305176</ele>
        <time>2015-12-28T14:41:41.000Z</time>
      </trkpt>
      <trkpt lat="48.64138" lon="1.93807">
        <ele>147.80000305176</ele>
        <time>2015-12-28T14:41:50.000Z</time>
      </trkpt>
      <trkpt lat="48.6414" lon="1.93789">
        <ele>147</ele>
        <time>2015-12-28T14:41:57.000Z</time>
      </trkpt>
      <trkpt lat="48.64143" lon="1.93776">
        <ele>146.39999389648</ele>
        <time>2015-12-28T14:42:03.000Z</time>
      </trkpt>
      <trkpt lat="48.64143" lon="1.93773">
        <ele>146.39999389648</ele>
        <time>2015-12-28T14:42:04.000Z</time>
      </trkpt>
      <trkpt lat="48.64145" lon="1.93766">
        <ele>146.39999389648</ele>
        <time>2015-12-28T14:42:07.000Z</time>
      </trkpt>
      <trkpt lat="48.64146" lon="1.93759">
        <ele>146.19999694824</ele>
        <time>2015-12-28T14:42:10.000Z</time>
      </trkpt>
      <trkpt lat="48.64146" lon="1.93753">
        <ele>146.19999694824</ele>
        <time>2015-12-28T14:42:13.000Z</time>
      </trkpt>
      <trkpt lat="48.64147" lon="1.93745">
        <ele>146</ele>
        <time>2015-12-28T14:42:16.000Z</time>
      </trkpt>
      <trkpt lat="48.64147" lon="1.93741">
        <ele>146</ele>
        <time>2015-12-28T14:42:18.000Z</time>
      </trkpt>
      <trkpt lat="48.64148" lon="1.93737">
        <ele>146</ele>
        <time>2015-12-28T14:42:20.000Z</time>
      </trkpt>
      <trkpt lat="48.64148" lon="1.93729">
        <ele>146.19999694824</ele>
        <time>2015-12-28T14:42:23.000Z</time>
      </trkpt>
      <trkpt lat="48.64149" lon="1.93717">
        <ele>146.19999694824</ele>
        <time>2015-12-28T14:42:28.000Z</time>
      </trkpt>
      <trkpt lat="48.6415" lon="1.93701">
        <ele>146.60000610352</ele>
        <time>2015-12-28T14:42:35.000Z</time>
      </trkpt>
      <trkpt lat="48.64151" lon="1.93686">
        <ele>147.80000305176</ele>
        <time>2015-12-28T14:42:42.000Z</time>
      </trkpt>
      <trkpt lat="48.64152" lon="1.93678">
        <ele>148.39999389648</ele>
        <time>2015-12-28T14:42:46.000Z</time>
      </trkpt>
      <trkpt lat="48.64152" lon="1.93675">
        <ele>148.60000610352</ele>
        <time>2015-12-28T14:42:48.000Z</time>
      </trkpt>
      <trkpt lat="48.64152" lon="1.93674">
        <ele>148.80000305176</ele>
        <time>2015-12-28T14:42:49.000Z</time>
      </trkpt>
      <trkpt lat="48.64153" lon="1.93668">
        <ele>149.19999694824</ele>
        <time>2015-12-28T14:42:52.000Z</time>
      </trkpt>
      <trkpt lat="48.64153" lon="1.93666">
        <ele>149.39999389648</ele>
        <time>2015-12-28T14:42:53.000Z</time>
      </trkpt>
      <trkpt lat="48.64154" lon="1.93657">
        <ele>150.19999694824</ele>
        <time>2015-12-28T14:42:57.000Z</time>
      </trkpt>
      <trkpt lat="48.64154" lon="1.93653">
        <ele>150.39999389648</ele>
        <time>2015-12-28T14:42:59.000Z</time>
      </trkpt>
      <trkpt lat="48.64155" lon="1.93639">
        <ele>151.39999389648</ele>
        <time>2015-12-28T14:43:06.000Z</time>
      </trkpt>
      <trkpt lat="48.64156" lon="1.9363">
        <ele>152.19999694824</ele>
        <time>2015-12-28T14:43:10.000Z</time>
      </trkpt>
      <trkpt lat="48.64157" lon="1.93626">
        <ele>152.39999389648</ele>
        <time>2015-12-28T14:43:12.000Z</time>
      </trkpt>
      <trkpt lat="48.64159" lon="1.93621">
        <ele>152.60000610352</ele>
        <time>2015-12-28T14:43:14.000Z</time>
      </trkpt>
      <trkpt lat="48.64158" lon="1.93618">
        <ele>152.80000305176</ele>
        <time>2015-12-28T14:43:15.000Z</time>
      </trkpt>
      <trkpt lat="48.6416" lon="1.93611">
        <ele>153</ele>
        <time>2015-12-28T14:43:18.000Z</time>
      </trkpt>
      <trkpt lat="48.64162" lon="1.93599">
        <ele>153.60000610352</ele>
        <time>2015-12-28T14:43:24.000Z</time>
      </trkpt>
      <trkpt lat="48.64162" lon="1.93595">
        <ele>153.60000610352</ele>
        <time>2015-12-28T14:43:26.000Z</time>
      </trkpt>
      <trkpt lat="48.64166" lon="1.93584">
        <ele>154.19999694824</ele>
        <time>2015-12-28T14:43:31.000Z</time>
      </trkpt>
      <trkpt lat="48.64172" lon="1.93569">
        <ele>154.80000305176</ele>
        <time>2015-12-28T14:43:38.000Z</time>
      </trkpt>
      <trkpt lat="48.64177" lon="1.93557">
        <ele>155.60000610352</ele>
        <time>2015-12-28T14:43:45.000Z</time>
      </trkpt>
      <trkpt lat="48.64183" lon="1.9354">
        <ele>156.60000610352</ele>
        <time>2015-12-28T14:43:53.000Z</time>
      </trkpt>
      <trkpt lat="48.64189" lon="1.93526">
        <ele>157.19999694824</ele>
        <time>2015-12-28T14:44:00.000Z</time>
      </trkpt>
      <trkpt lat="48.6419" lon="1.93525">
        <ele>157.19999694824</ele>
        <time>2015-12-28T14:44:01.000Z</time>
      </trkpt>
      <trkpt lat="48.64194" lon="1.93514">
        <ele>157.60000610352</ele>
        <time>2015-12-28T14:44:07.000Z</time>
      </trkpt>
      <trkpt lat="48.64198" lon="1.93508">
        <ele>157.80000305176</ele>
        <time>2015-12-28T14:44:11.000Z</time>
      </trkpt>
      <trkpt lat="48.64201" lon="1.93502">
        <ele>157.80000305176</ele>
        <time>2015-12-28T14:44:14.000Z</time>
      </trkpt>
      <trkpt lat="48.64205" lon="1.93496">
        <ele>157.60000610352</ele>
        <time>2015-12-28T14:44:18.000Z</time>
      </trkpt>
      <trkpt lat="48.64207" lon="1.93489">
        <ele>157.39999389648</ele>
        <time>2015-12-28T14:44:21.000Z</time>
      </trkpt>
      <trkpt lat="48.64208" lon="1.93485">
        <ele>157.39999389648</ele>
        <time>2015-12-28T14:44:23.000Z</time>
      </trkpt>
      <trkpt lat="48.64212" lon="1.93478">
        <ele>157.19999694824</ele>
        <time>2015-12-28T14:44:27.000Z</time>
      </trkpt>
      <trkpt lat="48.64218" lon="1.93463">
        <ele>157</ele>
        <time>2015-12-28T14:44:34.000Z</time>
      </trkpt>
      <trkpt lat="48.64222" lon="1.93454">
        <ele>156.80000305176</ele>
        <time>2015-12-28T14:44:39.000Z</time>
      </trkpt>
      <trkpt lat="48.64229" lon="1.93442">
        <ele>156.80000305176</ele>
        <time>2015-12-28T14:44:46.000Z</time>
      </trkpt>
      <trkpt lat="48.6423" lon="1.9344">
        <ele>156.80000305176</ele>
        <time>2015-12-28T14:44:47.000Z</time>
      </trkpt>
      <trkpt lat="48.64234" lon="1.9344">
        <ele>156.60000610352</ele>
        <time>2015-12-28T14:44:50.000Z</time>
      </trkpt>
      <trkpt lat="48.64235" lon="1.93441">
        <ele>156.60000610352</ele>
        <time>2015-12-28T14:44:51.000Z</time>
      </trkpt>
      <trkpt lat="48.64236" lon="1.93442">
        <ele>156.60000610352</ele>
        <time>2015-12-28T14:44:52.000Z</time>
      </trkpt>
      <trkpt lat="48.64241" lon="1.93443">
        <ele>156.19999694824</ele>
        <time>2015-12-28T14:44:56.000Z</time>
      </trkpt>
      <trkpt lat="48.64245" lon="1.93446">
        <ele>156</ele>
        <time>2015-12-28T14:44:59.000Z</time>
      </trkpt>
      <trkpt lat="48.6425" lon="1.93449">
        <ele>155.80000305176</ele>
        <time>2015-12-28T14:45:03.000Z</time>
      </trkpt>
      <trkpt lat="48.64252" lon="1.93449">
        <ele>155.60000610352</ele>
        <time>2015-12-28T14:45:05.000Z</time>
      </trkpt>
      <trkpt lat="48.64257" lon="1.93454">
        <ele>155.19999694824</ele>
        <time>2015-12-28T14:45:10.000Z</time>
      </trkpt>
      <trkpt lat="48.64267" lon="1.93459">
        <ele>154.60000610352</ele>
        <time>2015-12-28T14:45:17.000Z</time>
      </trkpt>
      <trkpt lat="48.6427" lon="1.9346">
        <ele>154.39999389648</ele>
        <time>2015-12-28T14:45:20.000Z</time>
      </trkpt>
      <trkpt lat="48.64274" lon="1.93463">
        <ele>154</ele>
        <time>2015-12-28T14:45:24.000Z</time>
      </trkpt>
      <trkpt lat="48.64281" lon="1.9347">
        <ele>153.39999389648</ele>
        <time>2015-12-28T14:45:30.000Z</time>
      </trkpt>
      <trkpt lat="48.64283" lon="1.93469">
        <ele>153.39999389648</ele>
        <time>2015-12-28T14:45:31.000Z</time>
      </trkpt>
      <trkpt lat="48.64287" lon="1.93472">
        <ele>153</ele>
        <time>2015-12-28T14:45:34.000Z</time>
      </trkpt>
      <trkpt lat="48.64296" lon="1.93474">
        <ele>152.39999389648</ele>
        <time>2015-12-28T14:45:40.000Z</time>
      </trkpt>
      <trkpt lat="48.64299" lon="1.93477">
        <ele>152.19999694824</ele>
        <time>2015-12-28T14:45:42.000Z</time>
      </trkpt>
      <trkpt lat="48.64303" lon="1.93479">
        <ele>152</ele>
        <time>2015-12-28T14:45:45.000Z</time>
      </trkpt>
      <trkpt lat="48.64307" lon="1.93482">
        <ele>151.60000610352</ele>
        <time>2015-12-28T14:45:48.000Z</time>
      </trkpt>
      <trkpt lat="48.64311" lon="1.93485">
        <ele>151.19999694824</ele>
        <time>2015-12-28T14:45:51.000Z</time>
      </trkpt>
      <trkpt lat="48.64312" lon="1.93488">
        <ele>151</ele>
        <time>2015-12-28T14:45:53.000Z</time>
      </trkpt>
      <trkpt lat="48.64313" lon="1.93488">
        <ele>151</ele>
        <time>2015-12-28T14:45:54.000Z</time>
      </trkpt>
      <trkpt lat="48.64315" lon="1.93487">
        <ele>151</ele>
        <time>2015-12-28T14:45:56.000Z</time>
      </trkpt>
      <trkpt lat="48.6432" lon="1.93481">
        <ele>151</ele>
        <time>2015-12-28T14:46:01.000Z</time>
      </trkpt>
      <trkpt lat="48.64323" lon="1.93478">
        <ele>151</ele>
        <time>2015-12-28T14:46:04.000Z</time>
      </trkpt>
      <trkpt lat="48.64325" lon="1.93478">
        <ele>151</ele>
        <time>2015-12-28T14:46:05.000Z</time>
      </trkpt>
      <trkpt lat="48.64327" lon="1.93476">
        <ele>151</ele>
        <time>2015-12-28T14:46:07.000Z</time>
      </trkpt>
      <trkpt lat="48.64337" lon="1.93467">
        <ele>150.60000610352</ele>
        <time>2015-12-28T14:46:14.000Z</time>
      </trkpt>
      <trkpt lat="48.64348" lon="1.93459">
        <ele>149.80000305176</ele>
        <time>2015-12-28T14:46:22.000Z</time>
      </trkpt>
      <trkpt lat="48.64357" lon="1.93451">
        <ele>149.60000610352</ele>
        <time>2015-12-28T14:46:30.000Z</time>
      </trkpt>
      <trkpt lat="48.64363" lon="1.93443">
        <ele>150</ele>
        <time>2015-12-28T14:46:36.000Z</time>
      </trkpt>
      <trkpt lat="48.64366" lon="1.93432">
        <ele>150.19999694824</ele>
        <time>2015-12-28T14:46:42.000Z</time>
      </trkpt>
      <trkpt lat="48.64367" lon="1.93427">
        <ele>150.19999694824</ele>
        <time>2015-12-28T14:46:45.000Z</time>
      </trkpt>
      <trkpt lat="48.64368" lon="1.93419">
        <ele>150.39999389648</ele>
        <time>2015-12-28T14:46:49.000Z</time>
      </trkpt>
      <trkpt lat="48.64368" lon="1.93418">
        <ele>150.39999389648</ele>
        <time>2015-12-28T14:46:50.000Z</time>
      </trkpt>
      <trkpt lat="48.64368" lon="1.93416">
        <ele>150.39999389648</ele>
        <time>2015-12-28T14:46:51.000Z</time>
      </trkpt>
      <trkpt lat="48.64368" lon="1.93408">
        <ele>150.39999389648</ele>
        <time>2015-12-28T14:46:55.000Z</time>
      </trkpt>
      <trkpt lat="48.64369" lon="1.93394">
        <ele>150.80000305176</ele>
        <time>2015-12-28T14:47:01.000Z</time>
      </trkpt>
      <trkpt lat="48.64371" lon="1.93382">
        <ele>151</ele>
        <time>2015-12-28T14:47:07.000Z</time>
      </trkpt>
      <trkpt lat="48.64372" lon="1.93378">
        <ele>151.19999694824</ele>
        <time>2015-12-28T14:47:09.000Z</time>
      </trkpt>
      <trkpt lat="48.64373" lon="1.93369">
        <ele>151.39999389648</ele>
        <time>2015-12-28T14:47:13.000Z</time>
      </trkpt>
      <trkpt lat="48.64374" lon="1.93368">
        <ele>151.39999389648</ele>
        <time>2015-12-28T14:47:14.000Z</time>
      </trkpt>
      <trkpt lat="48.64374" lon="1.93367">
        <ele>151.39999389648</ele>
        <time>2015-12-28T14:47:15.000Z</time>
      </trkpt>
      <trkpt lat="48.64374" lon="1.93357">
        <ele>151.80000305176</ele>
        <time>2015-12-28T14:47:19.000Z</time>
      </trkpt>
      <trkpt lat="48.64376" lon="1.93345">
        <ele>152</ele>
        <time>2015-12-28T14:47:26.000Z</time>
      </trkpt>
      <trkpt lat="48.64376" lon="1.93332">
        <ele>152</ele>
        <time>2015-12-28T14:47:32.000Z</time>
      </trkpt>
      <trkpt lat="48.64376" lon="1.93323">
        <ele>152</ele>
        <time>2015-12-28T14:47:36.000Z</time>
      </trkpt>
      <trkpt lat="48.64376" lon="1.93319">
        <ele>152</ele>
        <time>2015-12-28T14:47:39.000Z</time>
      </trkpt>
      <trkpt lat="48.64396" lon="1.93271">
        <ele>152.19999694824</ele>
        <time>2015-12-28T14:49:30.000Z</time>
      </trkpt>
      <trkpt lat="48.64395" lon="1.93269">
        <ele>152.19999694824</ele>
        <time>2015-12-28T14:49:31.000Z</time>
      </trkpt>
      <trkpt lat="48.64395" lon="1.93265">
        <ele>152.19999694824</ele>
        <time>2015-12-28T14:49:33.000Z</time>
      </trkpt>
      <trkpt lat="48.64391" lon="1.93252">
        <ele>152.39999389648</ele>
        <time>2015-12-28T14:49:41.000Z</time>
      </trkpt>
      <trkpt lat="48.6439" lon="1.93248">
        <ele>152.39999389648</ele>
        <time>2015-12-28T14:49:44.000Z</time>
      </trkpt>
      <trkpt lat="48.64388" lon="1.93242">
        <ele>152.39999389648</ele>
        <time>2015-12-28T14:49:47.000Z</time>
      </trkpt>
      <trkpt lat="48.64387" lon="1.9324">
        <ele>152.39999389648</ele>
        <time>2015-12-28T14:49:48.000Z</time>
      </trkpt>
      <trkpt lat="48.64387" lon="1.9323">
        <ele>153</ele>
        <time>2015-12-28T14:49:53.000Z</time>
      </trkpt>
      <trkpt lat="48.64387" lon="1.93228">
        <ele>153</ele>
        <time>2015-12-28T14:49:54.000Z</time>
      </trkpt>
      <trkpt lat="48.64388" lon="1.93221">
        <ele>153.39999389648</ele>
        <time>2015-12-28T14:49:58.000Z</time>
      </trkpt>
      <trkpt lat="48.64388" lon="1.93219">
        <ele>153.39999389648</ele>
        <time>2015-12-28T14:49:59.000Z</time>
      </trkpt>
      <trkpt lat="48.6439" lon="1.9321">
        <ele>154</ele>
        <time>2015-12-28T14:50:03.000Z</time>
      </trkpt>
      <trkpt lat="48.64391" lon="1.93208">
        <ele>154</ele>
        <time>2015-12-28T14:50:04.000Z</time>
      </trkpt>
      <trkpt lat="48.64392" lon="1.93201">
        <ele>154.39999389648</ele>
        <time>2015-12-28T14:50:07.000Z</time>
      </trkpt>
      <trkpt lat="48.6439" lon="1.93189">
        <ele>154.80000305176</ele>
        <time>2015-12-28T14:50:13.000Z</time>
      </trkpt>
      <trkpt lat="48.64393" lon="1.93169">
        <ele>154.80000305176</ele>
        <time>2015-12-28T14:50:23.000Z</time>
      </trkpt>
      <trkpt lat="48.64393" lon="1.9315">
        <ele>155.19999694824</ele>
        <time>2015-12-28T14:50:33.000Z</time>
      </trkpt>
      <trkpt lat="48.64395" lon="1.93141">
        <ele>155.39999389648</ele>
        <time>2015-12-28T14:50:37.000Z</time>
      </trkpt>
      <trkpt lat="48.64396" lon="1.93138">
        <ele>155.39999389648</ele>
        <time>2015-12-28T14:50:38.000Z</time>
      </trkpt>
      <trkpt lat="48.64398" lon="1.93131">
        <ele>155.60000610352</ele>
        <time>2015-12-28T14:50:42.000Z</time>
      </trkpt>
      <trkpt lat="48.64399" lon="1.93126">
        <ele>155.60000610352</ele>
        <time>2015-12-28T14:50:44.000Z</time>
      </trkpt>
      <trkpt lat="48.644" lon="1.93123">
        <ele>155.60000610352</ele>
        <time>2015-12-28T14:50:46.000Z</time>
      </trkpt>
      <trkpt lat="48.644" lon="1.93119">
        <ele>155.60000610352</ele>
        <time>2015-12-28T14:50:48.000Z</time>
      </trkpt>
      <trkpt lat="48.644" lon="1.93109">
        <ele>155.60000610352</ele>
        <time>2015-12-28T14:50:52.000Z</time>
      </trkpt>
      <trkpt lat="48.64401" lon="1.931">
        <ele>155.39999389648</ele>
        <time>2015-12-28T14:50:55.000Z</time>
      </trkpt>
      <trkpt lat="48.64401" lon="1.93098">
        <ele>155.39999389648</ele>
        <time>2015-12-28T14:50:56.000Z</time>
      </trkpt>
      <trkpt lat="48.64403" lon="1.93086">
        <ele>155.19999694824</ele>
        <time>2015-12-28T14:51:01.000Z</time>
      </trkpt>
      <trkpt lat="48.64404" lon="1.93086">
        <ele>155</ele>
        <time>2015-12-28T14:51:02.000Z</time>
      </trkpt>
      <trkpt lat="48.64406" lon="1.93077">
        <ele>154.80000305176</ele>
        <time>2015-12-28T14:51:07.000Z</time>
      </trkpt>
      <trkpt lat="48.64406" lon="1.93076">
        <ele>154.80000305176</ele>
        <time>2015-12-28T14:51:08.000Z</time>
      </trkpt>
      <trkpt lat="48.64404" lon="1.93075">
        <ele>155</ele>
        <time>2015-12-28T14:51:13.000Z</time>
      </trkpt>
      <trkpt lat="48.64427" lon="1.92989">
        <ele>153.60000610352</ele>
        <time>2015-12-28T14:56:53.000Z</time>
      </trkpt>
      <trkpt lat="48.64429" lon="1.92985">
        <ele>153.60000610352</ele>
        <time>2015-12-28T14:56:56.000Z</time>
      </trkpt>
      <trkpt lat="48.6443" lon="1.92982">
        <ele>153.60000610352</ele>
        <time>2015-12-28T14:56:58.000Z</time>
      </trkpt>
      <trkpt lat="48.64433" lon="1.92973">
        <ele>153.39999389648</ele>
        <time>2015-12-28T14:57:04.000Z</time>
      </trkpt>
      <trkpt lat="48.64434" lon="1.92972">
        <ele>153.39999389648</ele>
        <time>2015-12-28T14:57:05.000Z</time>
      </trkpt>
      <trkpt lat="48.64434" lon="1.9297">
        <ele>153.39999389648</ele>
        <time>2015-12-28T14:57:06.000Z</time>
      </trkpt>
      <trkpt lat="48.64438" lon="1.92965">
        <ele>153.39999389648</ele>
        <time>2015-12-28T14:57:11.000Z</time>
      </trkpt>
      <trkpt lat="48.64441" lon="1.9296">
        <ele>153.60000610352</ele>
        <time>2015-12-28T14:57:15.000Z</time>
      </trkpt>
      <trkpt lat="48.64443" lon="1.92957">
        <ele>153.80000305176</ele>
        <time>2015-12-28T14:57:17.000Z</time>
      </trkpt>
      <trkpt lat="48.64445" lon="1.92953">
        <ele>154</ele>
        <time>2015-12-28T14:57:21.000Z</time>
      </trkpt>
      <trkpt lat="48.6448" lon="1.92868">
        <ele>155.60000610352</ele>
        <time>2015-12-28T14:59:38.000Z</time>
      </trkpt>
      <trkpt lat="48.64481" lon="1.92866">
        <ele>155.80000305176</ele>
        <time>2015-12-28T14:59:39.000Z</time>
      </trkpt>
      <trkpt lat="48.64484" lon="1.9286">
        <ele>156.39999389648</ele>
        <time>2015-12-28T14:59:42.000Z</time>
      </trkpt>
      <trkpt lat="48.64486" lon="1.92854">
        <ele>157</ele>
        <time>2015-12-28T14:59:45.000Z</time>
      </trkpt>
      <trkpt lat="48.64487" lon="1.92852">
        <ele>157.19999694824</ele>
        <time>2015-12-28T14:59:46.000Z</time>
      </trkpt>
      <trkpt lat="48.64491" lon="1.92842">
        <ele>158.19999694824</ele>
        <time>2015-12-28T14:59:50.000Z</time>
      </trkpt>
      <trkpt lat="48.64492" lon="1.9284">
        <ele>158.19999694824</ele>
        <time>2015-12-28T14:59:51.000Z</time>
      </trkpt>
      <trkpt lat="48.64498" lon="1.92828">
        <ele>159.60000610352</ele>
        <time>2015-12-28T14:59:57.000Z</time>
      </trkpt>
      <trkpt lat="48.64501" lon="1.92825">
        <ele>160</ele>
        <time>2015-12-28T14:59:59.000Z</time>
      </trkpt>
      <trkpt lat="48.64504" lon="1.92817">
        <ele>160.39999389648</ele>
        <time>2015-12-28T15:00:03.000Z</time>
      </trkpt>
      <trkpt lat="48.64508" lon="1.9281">
        <ele>161</ele>
        <time>2015-12-28T15:00:08.000Z</time>
      </trkpt>
      <trkpt lat="48.64509" lon="1.92806">
        <ele>161.39999389648</ele>
        <time>2015-12-28T15:00:10.000Z</time>
      </trkpt>
      <trkpt lat="48.64512" lon="1.92799">
        <ele>162</ele>
        <time>2015-12-28T15:00:13.000Z</time>
      </trkpt>
      <trkpt lat="48.64513" lon="1.92798">
        <ele>162</ele>
        <time>2015-12-28T15:00:14.000Z</time>
      </trkpt>
      <trkpt lat="48.64514" lon="1.92796">
        <ele>162.19999694824</ele>
        <time>2015-12-28T15:00:15.000Z</time>
      </trkpt>
      <trkpt lat="48.64516" lon="1.9279">
        <ele>162.80000305176</ele>
        <time>2015-12-28T15:00:18.000Z</time>
      </trkpt>
      <trkpt lat="48.64516" lon="1.92785">
        <ele>163</ele>
        <time>2015-12-28T15:00:20.000Z</time>
      </trkpt>
      <trkpt lat="48.64518" lon="1.92783">
        <ele>163.19999694824</ele>
        <time>2015-12-28T15:00:21.000Z</time>
      </trkpt>
      <trkpt lat="48.64521" lon="1.92779">
        <ele>163.80000305176</ele>
        <time>2015-12-28T15:00:23.000Z</time>
      </trkpt>
      <trkpt lat="48.64529" lon="1.92763">
        <ele>165.19999694824</ele>
        <time>2015-12-28T15:00:30.000Z</time>
      </trkpt>
      <trkpt lat="48.64534" lon="1.92752">
        <ele>166</ele>
        <time>2015-12-28T15:00:37.000Z</time>
      </trkpt>
      <trkpt lat="48.64537" lon="1.92744">
        <ele>166.39999389648</ele>
        <time>2015-12-28T15:00:42.000Z</time>
      </trkpt>
      <trkpt lat="48.64537" lon="1.92743">
        <ele>166.39999389648</ele>
        <time>2015-12-28T15:00:43.000Z</time>
      </trkpt>
      <trkpt lat="48.6454" lon="1.92739">
        <ele>166.80000305176</ele>
        <time>2015-12-28T15:00:46.000Z</time>
      </trkpt>
      <trkpt lat="48.64544" lon="1.92732">
        <ele>167.60000610352</ele>
        <time>2015-12-28T15:00:50.000Z</time>
      </trkpt>
      <trkpt lat="48.6455" lon="1.92718">
        <ele>169</ele>
        <time>2015-12-28T15:00:56.000Z</time>
      </trkpt>
      <trkpt lat="48.64556" lon="1.92704">
        <ele>170.19999694824</ele>
        <time>2015-12-28T15:01:02.000Z</time>
      </trkpt>
      <trkpt lat="48.64558" lon="1.92698">
        <ele>170.80000305176</ele>
        <time>2015-12-28T15:01:04.000Z</time>
      </trkpt>
      <trkpt lat="48.64561" lon="1.92692">
        <ele>171.19999694824</ele>
        <time>2015-12-28T15:01:07.000Z</time>
      </trkpt>
      <trkpt lat="48.6457" lon="1.92678">
        <ele>172</ele>
        <time>2015-12-28T15:01:14.000Z</time>
      </trkpt>
      <trkpt lat="48.64577" lon="1.92661">
        <ele>172.60000610352</ele>
        <time>2015-12-28T15:01:22.000Z</time>
      </trkpt>
      <trkpt lat="48.64583" lon="1.92647">
        <ele>172.80000305176</ele>
        <time>2015-12-28T15:01:29.000Z</time>
      </trkpt>
      <trkpt lat="48.64584" lon="1.92645">
        <ele>172.80000305176</ele>
        <time>2015-12-28T15:01:30.000Z</time>
      </trkpt>
      <trkpt lat="48.64585" lon="1.92644">
        <ele>172.80000305176</ele>
        <time>2015-12-28T15:01:31.000Z</time>
      </trkpt>
      <trkpt lat="48.64589" lon="1.92634">
        <ele>173</ele>
        <time>2015-12-28T15:01:36.000Z</time>
      </trkpt>
      <trkpt lat="48.64596" lon="1.92621">
        <ele>173.19999694824</ele>
        <time>2015-12-28T15:01:43.000Z</time>
      </trkpt>
      <trkpt lat="48.64603" lon="1.92608">
        <ele>173.39999389648</ele>
        <time>2015-12-28T15:01:50.000Z</time>
      </trkpt>
      <trkpt lat="48.64605" lon="1.92603">
        <ele>173.19999694824</ele>
        <time>2015-12-28T15:01:53.000Z</time>
      </trkpt>
      <trkpt lat="48.64605" lon="1.92597">
        <ele>173.19999694824</ele>
        <time>2015-12-28T15:01:56.000Z</time>
      </trkpt>
      <trkpt lat="48.646" lon="1.92575">
        <ele>172.80000305176</ele>
        <time>2015-12-28T15:02:06.000Z</time>
      </trkpt>
      <trkpt lat="48.6459" lon="1.92564">
        <ele>172.39999389648</ele>
        <time>2015-12-28T15:02:15.000Z</time>
      </trkpt>
      <trkpt lat="48.6458" lon="1.9255">
        <ele>172.19999694824</ele>
        <time>2015-12-28T15:02:24.000Z</time>
      </trkpt>
      <trkpt lat="48.64568" lon="1.92536">
        <ele>171.80000305176</ele>
        <time>2015-12-28T15:02:34.000Z</time>
      </trkpt>
      <trkpt lat="48.64561" lon="1.92528">
        <ele>171.39999389648</ele>
        <time>2015-12-28T15:02:40.000Z</time>
      </trkpt>
      <trkpt lat="48.64551" lon="1.92516">
        <ele>171.19999694824</ele>
        <time>2015-12-28T15:02:48.000Z</time>
      </trkpt>
      <trkpt lat="48.64543" lon="1.92508">
        <ele>170.80000305176</ele>
        <time>2015-12-28T15:02:54.000Z</time>
      </trkpt>
      <trkpt lat="48.64533" lon="1.92497">
        <ele>170.39999389648</ele>
        <time>2015-12-28T15:03:03.000Z</time>
      </trkpt>
      <trkpt lat="48.64523" lon="1.92486">
        <ele>170.19999694824</ele>
        <time>2015-12-28T15:03:11.000Z</time>
      </trkpt>
      <trkpt lat="48.64513" lon="1.92474">
        <ele>169.80000305176</ele>
        <time>2015-12-28T15:03:20.000Z</time>
      </trkpt>
      <trkpt lat="48.64503" lon="1.92464">
        <ele>169.19999694824</ele>
        <time>2015-12-28T15:03:28.000Z</time>
      </trkpt>
      <trkpt lat="48.64492" lon="1.92453">
        <ele>168.60000610352</ele>
        <time>2015-12-28T15:03:37.000Z</time>
      </trkpt>
      <trkpt lat="48.64482" lon="1.92444">
        <ele>168</ele>
        <time>2015-12-28T15:03:45.000Z</time>
      </trkpt>
      <trkpt lat="48.64476" lon="1.92437">
        <ele>167.60000610352</ele>
        <time>2015-12-28T15:03:51.000Z</time>
      </trkpt>
      <trkpt lat="48.64473" lon="1.92434">
        <ele>167.39999389648</ele>
        <time>2015-12-28T15:03:56.000Z</time>
      </trkpt>
      <trkpt lat="48.64473" lon="1.92435">
        <ele>167.39999389648</ele>
        <time>2015-12-28T15:03:57.000Z</time>
      </trkpt>
      <trkpt lat="48.64475" lon="1.92437">
        <ele>167.60000610352</ele>
        <time>2015-12-28T15:04:57.000Z</time>
      </trkpt>
      <trkpt lat="48.64479" lon="1.92441">
        <ele>167.80000305176</ele>
        <time>2015-12-28T15:05:00.000Z</time>
      </trkpt>
      <trkpt lat="48.64479" lon="1.92442">
        <ele>167.80000305176</ele>
        <time>2015-12-28T15:05:01.000Z</time>
      </trkpt>
      <trkpt lat="48.64483" lon="1.92446">
        <ele>168</ele>
        <time>2015-12-28T15:05:04.000Z</time>
      </trkpt>
      <trkpt lat="48.64495" lon="1.92457">
        <ele>168.80000305176</ele>
        <time>2015-12-28T15:05:13.000Z</time>
      </trkpt>
      <trkpt lat="48.64508" lon="1.92468">
        <ele>169.60000610352</ele>
        <time>2015-12-28T15:05:23.000Z</time>
      </trkpt>
      <trkpt lat="48.64517" lon="1.92477">
        <ele>170.19999694824</ele>
        <time>2015-12-28T15:05:30.000Z</time>
      </trkpt>
      <trkpt lat="48.64533" lon="1.92492">
        <ele>170.60000610352</ele>
        <time>2015-12-28T15:05:42.000Z</time>
      </trkpt>
      <trkpt lat="48.64543" lon="1.92501">
        <ele>170.80000305176</ele>
        <time>2015-12-28T15:05:50.000Z</time>
      </trkpt>
      <trkpt lat="48.64553" lon="1.92511">
        <ele>171.19999694824</ele>
        <time>2015-12-28T15:05:58.000Z</time>
      </trkpt>
      <trkpt lat="48.64566" lon="1.92525">
        <ele>171.80000305176</ele>
        <time>2015-12-28T15:06:10.000Z</time>
      </trkpt>
      <trkpt lat="48.64582" lon="1.92541">
        <ele>172.19999694824</ele>
        <time>2015-12-28T15:06:23.000Z</time>
      </trkpt>
      <trkpt lat="48.64599" lon="1.92561">
        <ele>172.80000305176</ele>
        <time>2015-12-28T15:06:38.000Z</time>
      </trkpt>
      <trkpt lat="48.6461" lon="1.92567">
        <ele>173</ele>
        <time>2015-12-28T15:06:46.000Z</time>
      </trkpt>
      <trkpt lat="48.6462" lon="1.92563">
        <ele>173</ele>
        <time>2015-12-28T15:06:53.000Z</time>
      </trkpt>
      <trkpt lat="48.64629" lon="1.92544">
        <ele>173</ele>
        <time>2015-12-28T15:07:02.000Z</time>
      </trkpt>
      <trkpt lat="48.64638" lon="1.92522">
        <ele>173</ele>
        <time>2015-12-28T15:07:12.000Z</time>
      </trkpt>
      <trkpt lat="48.64647" lon="1.92501">
        <ele>173.39999389648</ele>
        <time>2015-12-28T15:07:22.000Z</time>
      </trkpt>
      <trkpt lat="48.64654" lon="1.92484">
        <ele>173.60000610352</ele>
        <time>2015-12-28T15:07:30.000Z</time>
      </trkpt>
      <trkpt lat="48.64665" lon="1.92461">
        <ele>173.80000305176</ele>
        <time>2015-12-28T15:07:42.000Z</time>
      </trkpt>
      <trkpt lat="48.64671" lon="1.92447">
        <ele>174.19999694824</ele>
        <time>2015-12-28T15:07:49.000Z</time>
      </trkpt>
      <trkpt lat="48.6468" lon="1.92426">
        <ele>174.60000610352</ele>
        <time>2015-12-28T15:07:59.000Z</time>
      </trkpt>
      <trkpt lat="48.6469" lon="1.92402">
        <ele>175.19999694824</ele>
        <time>2015-12-28T15:08:10.000Z</time>
      </trkpt>
      <trkpt lat="48.64696" lon="1.92388">
        <ele>175.39999389648</ele>
        <time>2015-12-28T15:08:17.000Z</time>
      </trkpt>
      <trkpt lat="48.647" lon="1.92377">
        <ele>175.60000610352</ele>
        <time>2015-12-28T15:08:23.000Z</time>
      </trkpt>
      <trkpt lat="48.64701" lon="1.92373">
        <ele>175.60000610352</ele>
        <time>2015-12-28T15:08:27.000Z</time>
      </trkpt>
      <trkpt lat="48.64706" lon="1.92364">
        <ele>175.80000305176</ele>
        <time>2015-12-28T15:08:41.000Z</time>
      </trkpt>
      <trkpt lat="48.64713" lon="1.92348">
        <ele>176</ele>
        <time>2015-12-28T15:08:51.000Z</time>
      </trkpt>
      <trkpt lat="48.64714" lon="1.92347">
        <ele>176</ele>
        <time>2015-12-28T15:08:54.000Z</time>
      </trkpt>
      <trkpt lat="48.64732" lon="1.92309">
        <ele>175.39999389648</ele>
        <time>2015-12-28T15:10:11.000Z</time>
      </trkpt>
      <trkpt lat="48.64732" lon="1.92307">
        <ele>175.39999389648</ele>
        <time>2015-12-28T15:10:12.000Z</time>
      </trkpt>
      <trkpt lat="48.64743" lon="1.92285">
        <ele>175.39999389648</ele>
        <time>2015-12-28T15:10:24.000Z</time>
      </trkpt>
      <trkpt lat="48.64744" lon="1.92284">
        <ele>175.39999389648</ele>
        <time>2015-12-28T15:10:25.000Z</time>
      </trkpt>
      <trkpt lat="48.64748" lon="1.92275">
        <ele>175.19999694824</ele>
        <time>2015-12-28T15:10:30.000Z</time>
      </trkpt>
      <trkpt lat="48.64758" lon="1.92254">
        <ele>175.19999694824</ele>
        <time>2015-12-28T15:10:41.000Z</time>
      </trkpt>
      <trkpt lat="48.64767" lon="1.92236">
        <ele>175</ele>
        <time>2015-12-28T15:10:51.000Z</time>
      </trkpt>
      <trkpt lat="48.64776" lon="1.92217">
        <ele>174.80000305176</ele>
        <time>2015-12-28T15:11:01.000Z</time>
      </trkpt>
      <trkpt lat="48.64787" lon="1.92192">
        <ele>174.60000610352</ele>
        <time>2015-12-28T15:11:13.000Z</time>
      </trkpt>
      <trkpt lat="48.64797" lon="1.9217">
        <ele>174.80000305176</ele>
        <time>2015-12-28T15:11:24.000Z</time>
      </trkpt>
      <trkpt lat="48.64806" lon="1.92147">
        <ele>175.39999389648</ele>
        <time>2015-12-28T15:11:35.000Z</time>
      </trkpt>
      <trkpt lat="48.64814" lon="1.92129">
        <ele>176</ele>
        <time>2015-12-28T15:11:44.000Z</time>
      </trkpt>
      <trkpt lat="48.64822" lon="1.92109">
        <ele>176.60000610352</ele>
        <time>2015-12-28T15:11:54.000Z</time>
      </trkpt>
      <trkpt lat="48.64824" lon="1.92094">
        <ele>177.19999694824</ele>
        <time>2015-12-28T15:12:01.000Z</time>
      </trkpt>
      <trkpt lat="48.64821" lon="1.92079">
        <ele>177.39999389648</ele>
        <time>2015-12-28T15:12:09.000Z</time>
      </trkpt>
      <trkpt lat="48.64815" lon="1.92064">
        <ele>177.39999389648</ele>
        <time>2015-12-28T15:12:17.000Z</time>
      </trkpt>
      <trkpt lat="48.64809" lon="1.92045">
        <ele>177.60000610352</ele>
        <time>2015-12-28T15:12:26.000Z</time>
      </trkpt>
      <trkpt lat="48.64802" lon="1.92026">
        <ele>177.80000305176</ele>
        <time>2015-12-28T15:12:35.000Z</time>
      </trkpt>
      <trkpt lat="48.64797" lon="1.92011">
        <ele>177.60000610352</ele>
        <time>2015-12-28T15:12:43.000Z</time>
      </trkpt>
      <trkpt lat="48.64793" lon="1.92">
        <ele>177.60000610352</ele>
        <time>2015-12-28T15:12:48.000Z</time>
      </trkpt>
      <trkpt lat="48.64788" lon="1.91982">
        <ele>177.60000610352</ele>
        <time>2015-12-28T15:12:57.000Z</time>
      </trkpt>
      <trkpt lat="48.64781" lon="1.91963">
        <ele>177.60000610352</ele>
        <time>2015-12-28T15:13:06.000Z</time>
      </trkpt>
      <trkpt lat="48.64774" lon="1.91942">
        <ele>177.60000610352</ele>
        <time>2015-12-28T15:13:16.000Z</time>
      </trkpt>
      <trkpt lat="48.64766" lon="1.9192">
        <ele>177.80000305176</ele>
        <time>2015-12-28T15:13:26.000Z</time>
      </trkpt>
      <trkpt lat="48.64763" lon="1.91911">
        <ele>178</ele>
        <time>2015-12-28T15:13:30.000Z</time>
      </trkpt>
      <trkpt lat="48.64762" lon="1.91907">
        <ele>178</ele>
        <time>2015-12-28T15:13:32.000Z</time>
      </trkpt>
      <trkpt lat="48.6476" lon="1.91903">
        <ele>178.19999694824</ele>
        <time>2015-12-28T15:13:34.000Z</time>
      </trkpt>
      <trkpt lat="48.64754" lon="1.91885">
        <ele>178.19999694824</ele>
        <time>2015-12-28T15:13:42.000Z</time>
      </trkpt>
      <trkpt lat="48.64749" lon="1.91867">
        <ele>178.19999694824</ele>
        <time>2015-12-28T15:13:50.000Z</time>
      </trkpt>
      <trkpt lat="48.64743" lon="1.91851">
        <ele>178.39999389648</ele>
        <time>2015-12-28T15:13:57.000Z</time>
      </trkpt>
      <trkpt lat="48.64737" lon="1.91833">
        <ele>178.39999389648</ele>
        <time>2015-12-28T15:14:05.000Z</time>
      </trkpt>
      <trkpt lat="48.64729" lon="1.91812">
        <ele>178.19999694824</ele>
        <time>2015-12-28T15:14:15.000Z</time>
      </trkpt>
      <trkpt lat="48.64724" lon="1.91798">
        <ele>178</ele>
        <time>2015-12-28T15:14:22.000Z</time>
      </trkpt>
      <trkpt lat="48.64717" lon="1.91778">
        <ele>177.60000610352</ele>
        <time>2015-12-28T15:14:32.000Z</time>
      </trkpt>
      <trkpt lat="48.64713" lon="1.91765">
        <ele>177.39999389648</ele>
        <time>2015-12-28T15:14:38.000Z</time>
      </trkpt>
      <trkpt lat="48.6471" lon="1.91756">
        <ele>177.19999694824</ele>
        <time>2015-12-28T15:14:43.000Z</time>
      </trkpt>
      <trkpt lat="48.64709" lon="1.91752">
        <ele>177.19999694824</ele>
        <time>2015-12-28T15:14:45.000Z</time>
      </trkpt>
      <trkpt lat="48.64705" lon="1.91743">
        <ele>177.19999694824</ele>
        <time>2015-12-28T15:14:49.000Z</time>
      </trkpt>
      <trkpt lat="48.64701" lon="1.91731">
        <ele>177</ele>
        <time>2015-12-28T15:14:55.000Z</time>
      </trkpt>
      <trkpt lat="48.64695" lon="1.91715">
        <ele>176.80000305176</ele>
        <time>2015-12-28T15:15:02.000Z</time>
      </trkpt>
      <trkpt lat="48.6469" lon="1.91699">
        <ele>176.60000610352</ele>
        <time>2015-12-28T15:15:09.000Z</time>
      </trkpt>
      <trkpt lat="48.64682" lon="1.91677">
        <ele>176.39999389648</ele>
        <time>2015-12-28T15:15:19.000Z</time>
      </trkpt>
      <trkpt lat="48.64678" lon="1.91664">
        <ele>176.19999694824</ele>
        <time>2015-12-28T15:15:25.000Z</time>
      </trkpt>
      <trkpt lat="48.64673" lon="1.91649">
        <ele>176</ele>
        <time>2015-12-28T15:15:32.000Z</time>
      </trkpt>
      <trkpt lat="48.64665" lon="1.91627">
        <ele>175.39999389648</ele>
        <time>2015-12-28T15:15:42.000Z</time>
      </trkpt>
      <trkpt lat="48.64658" lon="1.91608">
        <ele>174.80000305176</ele>
        <time>2015-12-28T15:15:51.000Z</time>
      </trkpt>
      <trkpt lat="48.64654" lon="1.91595">
        <ele>174.60000610352</ele>
        <time>2015-12-28T15:15:57.000Z</time>
      </trkpt>
      <trkpt lat="48.64648" lon="1.91576">
        <ele>174</ele>
        <time>2015-12-28T15:16:06.000Z</time>
      </trkpt>
      <trkpt lat="48.64643" lon="1.91563">
        <ele>174</ele>
        <time>2015-12-28T15:16:12.000Z</time>
      </trkpt>
      <trkpt lat="48.64642" lon="1.91561">
        <ele>173.80000305176</ele>
        <time>2015-12-28T15:16:13.000Z</time>
      </trkpt>
      <trkpt lat="48.64634" lon="1.91537">
        <ele>173.80000305176</ele>
        <time>2015-12-28T15:16:24.000Z</time>
      </trkpt>
      <trkpt lat="48.64626" lon="1.91515">
        <ele>173.80000305176</ele>
        <time>2015-12-28T15:16:35.000Z</time>
      </trkpt>
      <trkpt lat="48.64621" lon="1.91502">
        <ele>173.80000305176</ele>
        <time>2015-12-28T15:16:42.000Z</time>
      </trkpt>
      <trkpt lat="48.64615" lon="1.91486">
        <ele>173.80000305176</ele>
        <time>2015-12-28T15:16:49.000Z</time>
      </trkpt>
      <trkpt lat="48.64608" lon="1.91463">
        <ele>173.19999694824</ele>
        <time>2015-12-28T15:16:59.000Z</time>
      </trkpt>
      <trkpt lat="48.64601" lon="1.91445">
        <ele>172.80000305176</ele>
        <time>2015-12-28T15:17:07.000Z</time>
      </trkpt>
      <trkpt lat="48.64595" lon="1.9143">
        <ele>172.19999694824</ele>
        <time>2015-12-28T15:17:14.000Z</time>
      </trkpt>
      <trkpt lat="48.64589" lon="1.91413">
        <ele>171.60000610352</ele>
        <time>2015-12-28T15:17:21.000Z</time>
      </trkpt>
      <trkpt lat="48.64585" lon="1.91398">
        <ele>171.39999389648</ele>
        <time>2015-12-28T15:17:28.000Z</time>
      </trkpt>
      <trkpt lat="48.64578" lon="1.9138">
        <ele>171.39999389648</ele>
        <time>2015-12-28T15:17:36.000Z</time>
      </trkpt>
      <trkpt lat="48.64574" lon="1.91372">
        <ele>171.39999389648</ele>
        <time>2015-12-28T15:17:43.000Z</time>
      </trkpt>
      <trkpt lat="48.64564" lon="1.91388">
        <ele>170.80000305176</ele>
        <time>2015-12-28T15:18:04.000Z</time>
      </trkpt>
      <trkpt lat="48.64562" lon="1.91394">
        <ele>170.80000305176</ele>
        <time>2015-12-28T15:18:07.000Z</time>
      </trkpt>
      <trkpt lat="48.64557" lon="1.91405">
        <ele>170.39999389648</ele>
        <time>2015-12-28T15:18:14.000Z</time>
      </trkpt>
      <trkpt lat="48.64553" lon="1.91414">
        <ele>170.39999389648</ele>
        <time>2015-12-28T15:18:19.000Z</time>
      </trkpt>
      <trkpt lat="48.64549" lon="1.91424">
        <ele>170.39999389648</ele>
        <time>2015-12-28T15:18:25.000Z</time>
      </trkpt>
      <trkpt lat="48.64547" lon="1.91428">
        <ele>170.60000610352</ele>
        <time>2015-12-28T15:18:29.000Z</time>
      </trkpt>
      <trkpt lat="48.64552" lon="1.91416">
        <ele>170.39999389648</ele>
        <time>2015-12-28T15:18:43.000Z</time>
      </trkpt>
      <trkpt lat="48.6456" lon="1.91402">
        <ele>170.60000610352</ele>
        <time>2015-12-28T15:18:51.000Z</time>
      </trkpt>
      <trkpt lat="48.64566" lon="1.9139">
        <ele>171</ele>
        <time>2015-12-28T15:18:58.000Z</time>
      </trkpt>
      <trkpt lat="48.64575" lon="1.91372">
        <ele>171.39999389648</ele>
        <time>2015-12-28T15:19:07.000Z</time>
      </trkpt>
      <trkpt lat="48.64577" lon="1.91362">
        <ele>171.60000610352</ele>
        <time>2015-12-28T15:19:13.000Z</time>
      </trkpt>
      <trkpt lat="48.64577" lon="1.91362">
        <ele>171.60000610352</ele>
        <time>2015-12-28T15:19:14.000Z</time>
      </trkpt>
      <trkpt lat="48.64562" lon="1.91331">
        <ele>171.39999389648</ele>
        <time>2015-12-28T15:21:01.000Z</time>
      </trkpt>
      <trkpt lat="48.6456" lon="1.91325">
        <ele>171.39999389648</ele>
        <time>2015-12-28T15:21:04.000Z</time>
      </trkpt>
      <trkpt lat="48.64554" lon="1.91309">
        <ele>171.80000305176</ele>
        <time>2015-12-28T15:21:12.000Z</time>
      </trkpt>
      <trkpt lat="48.64545" lon="1.91283">
        <ele>172.39999389648</ele>
        <time>2015-12-28T15:21:24.000Z</time>
      </trkpt>
      <trkpt lat="48.64541" lon="1.91271">
        <ele>172.60000610352</ele>
        <time>2015-12-28T15:21:30.000Z</time>
      </trkpt>
      <trkpt lat="48.64535" lon="1.91254">
        <ele>173</ele>
        <time>2015-12-28T15:21:38.000Z</time>
      </trkpt>
      <trkpt lat="48.64529" lon="1.91239">
        <ele>173</ele>
        <time>2015-12-28T15:21:46.000Z</time>
      </trkpt>
      <trkpt lat="48.6453" lon="1.91223">
        <ele>173</ele>
        <time>2015-12-28T15:21:53.000Z</time>
      </trkpt>
      <trkpt lat="48.64532" lon="1.91203">
        <ele>173</ele>
        <time>2015-12-28T15:22:02.000Z</time>
      </trkpt>
      <trkpt lat="48.64533" lon="1.91186">
        <ele>173</ele>
        <time>2015-12-28T15:22:10.000Z</time>
      </trkpt>
      <trkpt lat="48.64534" lon="1.9117">
        <ele>173</ele>
        <time>2015-12-28T15:22:17.000Z</time>
      </trkpt>
      <trkpt lat="48.64535" lon="1.91154">
        <ele>173.19999694824</ele>
        <time>2015-12-28T15:22:24.000Z</time>
      </trkpt>
      <trkpt lat="48.64538" lon="1.91138">
        <ele>173</ele>
        <time>2015-12-28T15:22:31.000Z</time>
      </trkpt>
      <trkpt lat="48.64541" lon="1.91126">
        <ele>173</ele>
        <time>2015-12-28T15:22:37.000Z</time>
      </trkpt>
      <trkpt lat="48.64543" lon="1.91122">
        <ele>172.80000305176</ele>
        <time>2015-12-28T15:22:39.000Z</time>
      </trkpt>
      <trkpt lat="48.64542" lon="1.91116">
        <ele>172.80000305176</ele>
        <time>2015-12-28T15:22:42.000Z</time>
      </trkpt>
      <trkpt lat="48.64542" lon="1.91114">
        <ele>172.80000305176</ele>
        <time>2015-12-28T15:22:43.000Z</time>
      </trkpt>
      <trkpt lat="48.64539" lon="1.91103">
        <ele>172.60000610352</ele>
        <time>2015-12-28T15:22:48.000Z</time>
      </trkpt>
      <trkpt lat="48.64541" lon="1.91087">
        <ele>172.39999389648</ele>
        <time>2015-12-28T15:22:55.000Z</time>
      </trkpt>
      <trkpt lat="48.64542" lon="1.91077">
        <ele>172.39999389648</ele>
        <time>2015-12-28T15:23:01.000Z</time>
      </trkpt>
      <trkpt lat="48.64542" lon="1.91067">
        <ele>172.19999694824</ele>
        <time>2015-12-28T15:23:20.000Z</time>
      </trkpt>
      <trkpt lat="48.64542" lon="1.9106">
        <ele>172.19999694824</ele>
        <time>2015-12-28T15:23:23.000Z</time>
      </trkpt>
      <trkpt lat="48.64545" lon="1.91039">
        <ele>172.39999389648</ele>
        <time>2015-12-28T15:23:32.000Z</time>
      </trkpt>
      <trkpt lat="48.64548" lon="1.91019">
        <ele>172.39999389648</ele>
        <time>2015-12-28T15:23:41.000Z</time>
      </trkpt>
      <trkpt lat="48.64546" lon="1.90998">
        <ele>172</ele>
        <time>2015-12-28T15:23:50.000Z</time>
      </trkpt>
      <trkpt lat="48.64547" lon="1.90977">
        <ele>172.19999694824</ele>
        <time>2015-12-28T15:23:59.000Z</time>
      </trkpt>
      <trkpt lat="48.64549" lon="1.90956">
        <ele>172.39999389648</ele>
        <time>2015-12-28T15:24:08.000Z</time>
      </trkpt>
      <trkpt lat="48.64549" lon="1.90954">
        <ele>172.39999389648</ele>
        <time>2015-12-28T15:24:09.000Z</time>
      </trkpt>
      <trkpt lat="48.6455" lon="1.90945">
        <ele>172.60000610352</ele>
        <time>2015-12-28T15:24:13.000Z</time>
      </trkpt>
      <trkpt lat="48.64553" lon="1.90934">
        <ele>172.60000610352</ele>
        <time>2015-12-28T15:24:19.000Z</time>
      </trkpt>
      <trkpt lat="48.64554" lon="1.90929">
        <ele>172.39999389648</ele>
        <time>2015-12-28T15:24:21.000Z</time>
      </trkpt>
      <trkpt lat="48.64553" lon="1.90916">
        <ele>172.19999694824</ele>
        <time>2015-12-28T15:24:26.000Z</time>
      </trkpt>
      <trkpt lat="48.64553" lon="1.90894">
        <ele>172.19999694824</ele>
        <time>2015-12-28T15:24:35.000Z</time>
      </trkpt>
      <trkpt lat="48.64556" lon="1.90878">
        <ele>172.19999694824</ele>
        <time>2015-12-28T15:24:42.000Z</time>
      </trkpt>
      <trkpt lat="48.64556" lon="1.9087">
        <ele>172.19999694824</ele>
        <time>2015-12-28T15:24:46.000Z</time>
      </trkpt>
      <trkpt lat="48.64556" lon="1.90863">
        <ele>172.19999694824</ele>
        <time>2015-12-28T15:24:49.000Z</time>
      </trkpt>
      <trkpt lat="48.64557" lon="1.90849">
        <ele>172.19999694824</ele>
        <time>2015-12-28T15:24:55.000Z</time>
      </trkpt>
      <trkpt lat="48.64556" lon="1.90847">
        <ele>172.19999694824</ele>
        <time>2015-12-28T15:24:58.000Z</time>
      </trkpt>
      <trkpt lat="48.64547" lon="1.90836">
        <ele>172.60000610352</ele>
        <time>2015-12-28T15:25:10.000Z</time>
      </trkpt>
      <trkpt lat="48.6454" lon="1.90828">
        <ele>172.60000610352</ele>
        <time>2015-12-28T15:25:17.000Z</time>
      </trkpt>
      <trkpt lat="48.64537" lon="1.90825">
        <ele>172.80000305176</ele>
        <time>2015-12-28T15:25:21.000Z</time>
      </trkpt>
      <trkpt lat="48.6453" lon="1.90815">
        <ele>172.80000305176</ele>
        <time>2015-12-28T15:25:29.000Z</time>
      </trkpt>
      <trkpt lat="48.64529" lon="1.90815">
        <ele>172.80000305176</ele>
        <time>2015-12-28T15:25:30.000Z</time>
      </trkpt>
      <trkpt lat="48.64525" lon="1.90812">
        <ele>173</ele>
        <time>2015-12-28T15:25:33.000Z</time>
      </trkpt>
      <trkpt lat="48.64523" lon="1.90811">
        <ele>173</ele>
        <time>2015-12-28T15:25:35.000Z</time>
      </trkpt>
      <trkpt lat="48.64521" lon="1.90811">
        <ele>173</ele>
        <time>2015-12-28T15:25:37.000Z</time>
      </trkpt>
      <trkpt lat="48.6452" lon="1.9081">
        <ele>173</ele>
        <time>2015-12-28T15:25:38.000Z</time>
      </trkpt>
      <trkpt lat="48.64516" lon="1.90803">
        <ele>173</ele>
        <time>2015-12-28T15:25:42.000Z</time>
      </trkpt>
      <trkpt lat="48.64511" lon="1.90797">
        <ele>172.80000305176</ele>
        <time>2015-12-28T15:25:47.000Z</time>
      </trkpt>
      <trkpt lat="48.6451" lon="1.90796">
        <ele>172.80000305176</ele>
        <time>2015-12-28T15:25:48.000Z</time>
      </trkpt>
      <trkpt lat="48.64504" lon="1.90789">
        <ele>172.80000305176</ele>
        <time>2015-12-28T15:25:53.000Z</time>
      </trkpt>
      <trkpt lat="48.64502" lon="1.90788">
        <ele>172.80000305176</ele>
        <time>2015-12-28T15:25:57.000Z</time>
      </trkpt>
      <trkpt lat="48.64498" lon="1.90783">
        <ele>172.80000305176</ele>
        <time>2015-12-28T15:26:02.000Z</time>
      </trkpt>
      <trkpt lat="48.64497" lon="1.90782">
        <ele>172.80000305176</ele>
        <time>2015-12-28T15:26:03.000Z</time>
      </trkpt>
      <trkpt lat="48.64492" lon="1.90777">
        <ele>172.60000610352</ele>
        <time>2015-12-28T15:26:07.000Z</time>
      </trkpt>
      <trkpt lat="48.64489" lon="1.90772">
        <ele>172.60000610352</ele>
        <time>2015-12-28T15:26:10.000Z</time>
      </trkpt>
      <trkpt lat="48.64485" lon="1.90766">
        <ele>172.60000610352</ele>
        <time>2015-12-28T15:26:14.000Z</time>
      </trkpt>
      <trkpt lat="48.64484" lon="1.90764">
        <ele>172.60000610352</ele>
        <time>2015-12-28T15:26:15.000Z</time>
      </trkpt>
      <trkpt lat="48.6448" lon="1.90759">
        <ele>172.60000610352</ele>
        <time>2015-12-28T15:26:19.000Z</time>
      </trkpt>
      <trkpt lat="48.64479" lon="1.90757">
        <ele>172.60000610352</ele>
        <time>2015-12-28T15:26:20.000Z</time>
      </trkpt>
      <trkpt lat="48.64473" lon="1.90751">
        <ele>172.39999389648</ele>
        <time>2015-12-28T15:26:25.000Z</time>
      </trkpt>
      <trkpt lat="48.64469" lon="1.90746">
        <ele>172.39999389648</ele>
        <time>2015-12-28T15:26:29.000Z</time>
      </trkpt>
      <trkpt lat="48.64469" lon="1.90745">
        <ele>172.39999389648</ele>
        <time>2015-12-28T15:26:30.000Z</time>
      </trkpt>
      <trkpt lat="48.64467" lon="1.90742">
        <ele>172.39999389648</ele>
        <time>2015-12-28T15:26:32.000Z</time>
      </trkpt>
      <trkpt lat="48.64465" lon="1.90736">
        <ele>172.39999389648</ele>
        <time>2015-12-28T15:26:36.000Z</time>
      </trkpt>
      <trkpt lat="48.6446" lon="1.90732">
        <ele>172.19999694824</ele>
        <time>2015-12-28T15:26:40.000Z</time>
      </trkpt>
      <trkpt lat="48.64459" lon="1.90732">
        <ele>172.19999694824</ele>
        <time>2015-12-28T15:26:41.000Z</time>
      </trkpt>
      <trkpt lat="48.64457" lon="1.90728">
        <ele>172.19999694824</ele>
        <time>2015-12-28T15:26:43.000Z</time>
      </trkpt>
      <trkpt lat="48.6445" lon="1.90721">
        <ele>172.19999694824</ele>
        <time>2015-12-28T15:26:48.000Z</time>
      </trkpt>
      <trkpt lat="48.64448" lon="1.90718">
        <ele>172.19999694824</ele>
        <time>2015-12-28T15:26:50.000Z</time>
      </trkpt>
      <trkpt lat="48.64445" lon="1.90716">
        <ele>172.19999694824</ele>
        <time>2015-12-28T15:26:52.000Z</time>
      </trkpt>
      <trkpt lat="48.64444" lon="1.90714">
        <ele>172</ele>
        <time>2015-12-28T15:26:53.000Z</time>
      </trkpt>
      <trkpt lat="48.64437" lon="1.90708">
        <ele>172</ele>
        <time>2015-12-28T15:26:57.000Z</time>
      </trkpt>
      <trkpt lat="48.64436" lon="1.90707">
        <ele>172</ele>
        <time>2015-12-28T15:26:58.000Z</time>
      </trkpt>
      <trkpt lat="48.64427" lon="1.90698">
        <ele>172.19999694824</ele>
        <time>2015-12-28T15:27:04.000Z</time>
      </trkpt>
      <trkpt lat="48.64425" lon="1.90696">
        <ele>172.19999694824</ele>
        <time>2015-12-28T15:27:06.000Z</time>
      </trkpt>
      <trkpt lat="48.64419" lon="1.90692">
        <ele>172.39999389648</ele>
        <time>2015-12-28T15:27:09.000Z</time>
      </trkpt>
      <trkpt lat="48.64414" lon="1.90686">
        <ele>172.60000610352</ele>
        <time>2015-12-28T15:27:13.000Z</time>
      </trkpt>
      <trkpt lat="48.64411" lon="1.90682">
        <ele>172.60000610352</ele>
        <time>2015-12-28T15:27:15.000Z</time>
      </trkpt>
      <trkpt lat="48.64399" lon="1.90666">
        <ele>172.80000305176</ele>
        <time>2015-12-28T15:27:24.000Z</time>
      </trkpt>
      <trkpt lat="48.64386" lon="1.9065">
        <ele>173.19999694824</ele>
        <time>2015-12-28T15:27:33.000Z</time>
      </trkpt>
      <trkpt lat="48.64374" lon="1.90634">
        <ele>173.39999389648</ele>
        <time>2015-12-28T15:27:42.000Z</time>
      </trkpt>
      <trkpt lat="48.64365" lon="1.90625">
        <ele>173.80000305176</ele>
        <time>2015-12-28T15:27:49.000Z</time>
      </trkpt>
      <trkpt lat="48.64355" lon="1.90613">
        <ele>174</ele>
        <time>2015-12-28T15:27:57.000Z</time>
      </trkpt>
      <trkpt lat="48.64355" lon="1.9061">
        <ele>174</ele>
        <time>2015-12-28T15:27:58.000Z</time>
      </trkpt>
      <trkpt lat="48.64356" lon="1.90603">
        <ele>174</ele>
        <time>2015-12-28T15:28:01.000Z</time>
      </trkpt>
      <trkpt lat="48.64359" lon="1.90596">
        <ele>173.80000305176</ele>
        <time>2015-12-28T15:28:04.000Z</time>
      </trkpt>
      <trkpt lat="48.64366" lon="1.9058">
        <ele>173.60000610352</ele>
        <time>2015-12-28T15:28:12.000Z</time>
      </trkpt>
      <trkpt lat="48.64363" lon="1.90568">
        <ele>173.60000610352</ele>
        <time>2015-12-28T15:28:18.000Z</time>
      </trkpt>
      <trkpt lat="48.6436" lon="1.90566">
        <ele>173.80000305176</ele>
        <time>2015-12-28T15:28:20.000Z</time>
      </trkpt>
      <trkpt lat="48.64357" lon="1.90563">
        <ele>173.80000305176</ele>
        <time>2015-12-28T15:28:22.000Z</time>
      </trkpt>
      <trkpt lat="48.64351" lon="1.90556">
        <ele>173.80000305176</ele>
        <time>2015-12-28T15:28:28.000Z</time>
      </trkpt>
      <trkpt lat="48.64342" lon="1.90544">
        <ele>173.60000610352</ele>
        <time>2015-12-28T15:28:35.000Z</time>
      </trkpt>
      <trkpt lat="48.64336" lon="1.90534">
        <ele>173.39999389648</ele>
        <time>2015-12-28T15:28:41.000Z</time>
      </trkpt>
      <trkpt lat="48.64329" lon="1.90524">
        <ele>173.19999694824</ele>
        <time>2015-12-28T15:28:47.000Z</time>
      </trkpt>
      <trkpt lat="48.64319" lon="1.90512">
        <ele>172.80000305176</ele>
        <time>2015-12-28T15:28:55.000Z</time>
      </trkpt>
      <trkpt lat="48.64309" lon="1.90502">
        <ele>172.60000610352</ele>
        <time>2015-12-28T15:29:03.000Z</time>
      </trkpt>
      <trkpt lat="48.64302" lon="1.90494">
        <ele>172.39999389648</ele>
        <time>2015-12-28T15:29:08.000Z</time>
      </trkpt>
      <trkpt lat="48.64293" lon="1.90483">
        <ele>172.19999694824</ele>
        <time>2015-12-28T15:29:15.000Z</time>
      </trkpt>
      <trkpt lat="48.64284" lon="1.90472">
        <ele>172.19999694824</ele>
        <time>2015-12-28T15:29:22.000Z</time>
      </trkpt>
      <trkpt lat="48.64277" lon="1.90463">
        <ele>172</ele>
        <time>2015-12-28T15:29:28.000Z</time>
      </trkpt>
      <trkpt lat="48.6427" lon="1.90455">
        <ele>172</ele>
        <time>2015-12-28T15:29:34.000Z</time>
      </trkpt>
      <trkpt lat="48.64259" lon="1.90446">
        <ele>171.80000305176</ele>
        <time>2015-12-28T15:29:41.000Z</time>
      </trkpt>
      <trkpt lat="48.64251" lon="1.90438">
        <ele>171.80000305176</ele>
        <time>2015-12-28T15:29:48.000Z</time>
      </trkpt>
      <trkpt lat="48.6425" lon="1.90437">
        <ele>171.80000305176</ele>
        <time>2015-12-28T15:29:50.000Z</time>
      </trkpt>
      <trkpt lat="48.64248" lon="1.90434">
        <ele>171.80000305176</ele>
        <time>2015-12-28T15:29:53.000Z</time>
      </trkpt>
      <trkpt lat="48.64246" lon="1.90431">
        <ele>171.80000305176</ele>
        <time>2015-12-28T15:29:55.000Z</time>
      </trkpt>
      <trkpt lat="48.64241" lon="1.90427">
        <ele>171.60000610352</ele>
        <time>2015-12-28T15:29:59.000Z</time>
      </trkpt>
      <trkpt lat="48.64241" lon="1.90426">
        <ele>171.60000610352</ele>
        <time>2015-12-28T15:30:00.000Z</time>
      </trkpt>
      <trkpt lat="48.64232" lon="1.90417">
        <ele>171.60000610352</ele>
        <time>2015-12-28T15:30:07.000Z</time>
      </trkpt>
      <trkpt lat="48.64223" lon="1.90408">
        <ele>171.39999389648</ele>
        <time>2015-12-28T15:30:14.000Z</time>
      </trkpt>
      <trkpt lat="48.64217" lon="1.90403">
        <ele>171.39999389648</ele>
        <time>2015-12-28T15:30:19.000Z</time>
      </trkpt>
      <trkpt lat="48.64213" lon="1.904">
        <ele>171.39999389648</ele>
        <time>2015-12-28T15:30:24.000Z</time>
      </trkpt>
      <trkpt lat="48.64209" lon="1.90395">
        <ele>171.39999389648</ele>
        <time>2015-12-28T15:30:28.000Z</time>
      </trkpt>
      <trkpt lat="48.64203" lon="1.90386">
        <ele>171.39999389648</ele>
        <time>2015-12-28T15:30:34.000Z</time>
      </trkpt>
      <trkpt lat="48.64198" lon="1.90381">
        <ele>171.39999389648</ele>
        <time>2015-12-28T15:30:38.000Z</time>
      </trkpt>
      <trkpt lat="48.64196" lon="1.9038">
        <ele>171.39999389648</ele>
        <time>2015-12-28T15:30:40.000Z</time>
      </trkpt>
      <trkpt lat="48.64196" lon="1.9038">
        <ele>171.39999389648</ele>
        <time>2015-12-28T15:30:41.000Z</time>
      </trkpt>
      <trkpt lat="48.64185" lon="1.90367">
        <ele>171.39999389648</ele>
        <time>2015-12-28T15:30:58.000Z</time>
      </trkpt>
      <trkpt lat="48.64183" lon="1.90365">
        <ele>171.60000610352</ele>
        <time>2015-12-28T15:31:00.000Z</time>
      </trkpt>
      <trkpt lat="48.64177" lon="1.90359">
        <ele>171.60000610352</ele>
        <time>2015-12-28T15:31:05.000Z</time>
      </trkpt>
      <trkpt lat="48.6417" lon="1.90352">
        <ele>171.60000610352</ele>
        <time>2015-12-28T15:31:11.000Z</time>
      </trkpt>
      <trkpt lat="48.64165" lon="1.90344">
        <ele>171.80000305176</ele>
        <time>2015-12-28T15:31:16.000Z</time>
      </trkpt>
      <trkpt lat="48.64163" lon="1.90341">
        <ele>171.80000305176</ele>
        <time>2015-12-28T15:31:18.000Z</time>
      </trkpt>
      <trkpt lat="48.64158" lon="1.90335">
        <ele>171.80000305176</ele>
        <time>2015-12-28T15:31:22.000Z</time>
      </trkpt>
      <trkpt lat="48.64147" lon="1.90326">
        <ele>172</ele>
        <time>2015-12-28T15:31:29.000Z</time>
      </trkpt>
      <trkpt lat="48.64137" lon="1.90313">
        <ele>172.19999694824</ele>
        <time>2015-12-28T15:31:37.000Z</time>
      </trkpt>
      <trkpt lat="48.64128" lon="1.90304">
        <ele>172.39999389648</ele>
        <time>2015-12-28T15:31:43.000Z</time>
      </trkpt>
      <trkpt lat="48.64118" lon="1.90291">
        <ele>172.80000305176</ele>
        <time>2015-12-28T15:31:51.000Z</time>
      </trkpt>
      <trkpt lat="48.64109" lon="1.9028">
        <ele>173</ele>
        <time>2015-12-28T15:31:58.000Z</time>
      </trkpt>
      <trkpt lat="48.64103" lon="1.90273">
        <ele>173.19999694824</ele>
        <time>2015-12-28T15:32:04.000Z</time>
      </trkpt>
      <trkpt lat="48.64098" lon="1.90268">
        <ele>173.39999389648</ele>
        <time>2015-12-28T15:32:09.000Z</time>
      </trkpt>
      <trkpt lat="48.64092" lon="1.90258">
        <ele>173.60000610352</ele>
        <time>2015-12-28T15:32:15.000Z</time>
      </trkpt>
      <trkpt lat="48.64087" lon="1.90252">
        <ele>173.80000305176</ele>
        <time>2015-12-28T15:32:20.000Z</time>
      </trkpt>
      <trkpt lat="48.64084" lon="1.90251">
        <ele>173.80000305176</ele>
        <time>2015-12-28T15:32:22.000Z</time>
      </trkpt>
      <trkpt lat="48.64078" lon="1.9025">
        <ele>173.80000305176</ele>
        <time>2015-12-28T15:32:26.000Z</time>
      </trkpt>
      <trkpt lat="48.6407" lon="1.90242">
        <ele>174</ele>
        <time>2015-12-28T15:32:32.000Z</time>
      </trkpt>
      <trkpt lat="48.64067" lon="1.90239">
        <ele>174</ele>
        <time>2015-12-28T15:32:34.000Z</time>
      </trkpt>
      <trkpt lat="48.64063" lon="1.90234">
        <ele>174.19999694824</ele>
        <time>2015-12-28T15:32:37.000Z</time>
      </trkpt>
      <trkpt lat="48.64061" lon="1.9023">
        <ele>174.19999694824</ele>
        <time>2015-12-28T15:32:40.000Z</time>
      </trkpt>
      <trkpt lat="48.6406" lon="1.90228">
        <ele>174.19999694824</ele>
        <time>2015-12-28T15:32:43.000Z</time>
      </trkpt>
      <trkpt lat="48.64059" lon="1.90227">
        <ele>174.39999389648</ele>
        <time>2015-12-28T15:32:44.000Z</time>
      </trkpt>
      <trkpt lat="48.64059" lon="1.90226">
        <ele>174.39999389648</ele>
        <time>2015-12-28T15:32:45.000Z</time>
      </trkpt>
      <trkpt lat="48.64057" lon="1.90221">
        <ele>174.39999389648</ele>
        <time>2015-12-28T15:32:47.000Z</time>
      </trkpt>
      <trkpt lat="48.64051" lon="1.90214">
        <ele>174.60000610352</ele>
        <time>2015-12-28T15:32:52.000Z</time>
      </trkpt>
      <trkpt lat="48.64049" lon="1.90213">
        <ele>174.60000610352</ele>
        <time>2015-12-28T15:32:53.000Z</time>
      </trkpt>
      <trkpt lat="48.64041" lon="1.90204">
        <ele>174.80000305176</ele>
        <time>2015-12-28T15:33:00.000Z</time>
      </trkpt>
      <trkpt lat="48.64032" lon="1.90194">
        <ele>175.19999694824</ele>
        <time>2015-12-28T15:33:07.000Z</time>
      </trkpt>
      <trkpt lat="48.64024" lon="1.90188">
        <ele>175.19999694824</ele>
        <time>2015-12-28T15:33:13.000Z</time>
      </trkpt>
      <trkpt lat="48.64021" lon="1.90184">
        <ele>175.39999389648</ele>
        <time>2015-12-28T15:33:16.000Z</time>
      </trkpt>
      <trkpt lat="48.64018" lon="1.90181">
        <ele>175.39999389648</ele>
        <time>2015-12-28T15:33:18.000Z</time>
      </trkpt>
      <trkpt lat="48.64015" lon="1.90176">
        <ele>175.60000610352</ele>
        <time>2015-12-28T15:33:22.000Z</time>
      </trkpt>
      <trkpt lat="48.64014" lon="1.90174">
        <ele>175.80000305176</ele>
        <time>2015-12-28T15:33:23.000Z</time>
      </trkpt>
      <trkpt lat="48.64013" lon="1.90174">
        <ele>175.80000305176</ele>
        <time>2015-12-28T15:33:24.000Z</time>
      </trkpt>
      <trkpt lat="48.64011" lon="1.90171">
        <ele>175.80000305176</ele>
        <time>2015-12-28T15:33:26.000Z</time>
      </trkpt>
      <trkpt lat="48.64006" lon="1.90163">
        <ele>176.19999694824</ele>
        <time>2015-12-28T15:33:31.000Z</time>
      </trkpt>
      <trkpt lat="48.64004" lon="1.90161">
        <ele>176.19999694824</ele>
        <time>2015-12-28T15:33:32.000Z</time>
      </trkpt>
      <trkpt lat="48.63996" lon="1.90152">
        <ele>176.39999389648</ele>
        <time>2015-12-28T15:33:38.000Z</time>
      </trkpt>
      <trkpt lat="48.63994" lon="1.90151">
        <ele>176.39999389648</ele>
        <time>2015-12-28T15:33:40.000Z</time>
      </trkpt>
      <trkpt lat="48.6399" lon="1.90154">
        <ele>176.60000610352</ele>
        <time>2015-12-28T15:33:44.000Z</time>
      </trkpt>
      <trkpt lat="48.63983" lon="1.90164">
        <ele>176.60000610352</ele>
        <time>2015-12-28T15:33:51.000Z</time>
      </trkpt>
      <trkpt lat="48.63977" lon="1.90178">
        <ele>176.39999389648</ele>
        <time>2015-12-28T15:33:59.000Z</time>
      </trkpt>
      <trkpt lat="48.63971" lon="1.9019">
        <ele>176.39999389648</ele>
        <time>2015-12-28T15:34:06.000Z</time>
      </trkpt>
      <trkpt lat="48.63965" lon="1.90198">
        <ele>176.19999694824</ele>
        <time>2015-12-28T15:34:11.000Z</time>
      </trkpt>
      <trkpt lat="48.63962" lon="1.90199">
        <ele>176.39999389648</ele>
        <time>2015-12-28T15:34:13.000Z</time>
      </trkpt>
      <trkpt lat="48.63958" lon="1.90198">
        <ele>176.39999389648</ele>
        <time>2015-12-28T15:34:16.000Z</time>
      </trkpt>
      <trkpt lat="48.63954" lon="1.90195">
        <ele>176.60000610352</ele>
        <time>2015-12-28T15:34:19.000Z</time>
      </trkpt>
      <trkpt lat="48.63952" lon="1.90193">
        <ele>176.80000305176</ele>
        <time>2015-12-28T15:34:21.000Z</time>
      </trkpt>
      <trkpt lat="48.63952" lon="1.90194">
        <ele>176.80000305176</ele>
        <time>2015-12-28T15:34:22.000Z</time>
      </trkpt>
      <trkpt lat="48.6396" lon="1.90201">
        <ele>176.39999389648</ele>
        <time>2015-12-28T15:34:32.000Z</time>
      </trkpt>
      <trkpt lat="48.6396" lon="1.90207">
        <ele>176.19999694824</ele>
        <time>2015-12-28T15:34:34.000Z</time>
      </trkpt>
      <trkpt lat="48.63957" lon="1.90213">
        <ele>176.19999694824</ele>
        <time>2015-12-28T15:34:37.000Z</time>
      </trkpt>
      <trkpt lat="48.63955" lon="1.90219">
        <ele>176</ele>
        <time>2015-12-28T15:34:40.000Z</time>
      </trkpt>
      <trkpt lat="48.63949" lon="1.90234">
        <ele>175.80000305176</ele>
        <time>2015-12-28T15:34:48.000Z</time>
      </trkpt>
      <trkpt lat="48.63942" lon="1.90246">
        <ele>175.80000305176</ele>
        <time>2015-12-28T15:34:55.000Z</time>
      </trkpt>
      <trkpt lat="48.63937" lon="1.90257">
        <ele>175.60000610352</ele>
        <time>2015-12-28T15:35:02.000Z</time>
      </trkpt>
      <trkpt lat="48.63931" lon="1.90271">
        <ele>175.19999694824</ele>
        <time>2015-12-28T15:35:10.000Z</time>
      </trkpt>
      <trkpt lat="48.63925" lon="1.90282">
        <ele>175</ele>
        <time>2015-12-28T15:35:17.000Z</time>
      </trkpt>
      <trkpt lat="48.6392" lon="1.90292">
        <ele>174.80000305176</ele>
        <time>2015-12-28T15:35:24.000Z</time>
      </trkpt>
      <trkpt lat="48.63916" lon="1.90305">
        <ele>174.39999389648</ele>
        <time>2015-12-28T15:35:31.000Z</time>
      </trkpt>
      <trkpt lat="48.63908" lon="1.90323">
        <ele>175</ele>
        <time>2015-12-28T15:35:41.000Z</time>
      </trkpt>
      <trkpt lat="48.63902" lon="1.90336">
        <ele>175</ele>
        <time>2015-12-28T15:35:49.000Z</time>
      </trkpt>
      <trkpt lat="48.63896" lon="1.90349">
        <ele>175.19999694824</ele>
        <time>2015-12-28T15:35:57.000Z</time>
      </trkpt>
      <trkpt lat="48.63888" lon="1.90365">
        <ele>175.19999694824</ele>
        <time>2015-12-28T15:36:06.000Z</time>
      </trkpt>
      <trkpt lat="48.63883" lon="1.90379">
        <ele>175.19999694824</ele>
        <time>2015-12-28T15:36:14.000Z</time>
      </trkpt>
      <trkpt lat="48.63877" lon="1.90392">
        <ele>175.39999389648</ele>
        <time>2015-12-28T15:36:21.000Z</time>
      </trkpt>
      <trkpt lat="48.63872" lon="1.90402">
        <ele>175.39999389648</ele>
        <time>2015-12-28T15:36:27.000Z</time>
      </trkpt>
      <trkpt lat="48.63865" lon="1.90415">
        <ele>175.60000610352</ele>
        <time>2015-12-28T15:36:34.000Z</time>
      </trkpt>
      <trkpt lat="48.63858" lon="1.9043">
        <ele>175.60000610352</ele>
        <time>2015-12-28T15:36:42.000Z</time>
      </trkpt>
      <trkpt lat="48.6385" lon="1.90447">
        <ele>175.60000610352</ele>
        <time>2015-12-28T15:36:51.000Z</time>
      </trkpt>
      <trkpt lat="48.63848" lon="1.9045">
        <ele>175.60000610352</ele>
        <time>2015-12-28T15:36:53.000Z</time>
      </trkpt>
      <trkpt lat="48.63847" lon="1.90454">
        <ele>175.60000610352</ele>
        <time>2015-12-28T15:36:55.000Z</time>
      </trkpt>
      <trkpt lat="48.63842" lon="1.90467">
        <ele>175.60000610352</ele>
        <time>2015-12-28T15:37:02.000Z</time>
      </trkpt>
      <trkpt lat="48.6384" lon="1.90471">
        <ele>175.60000610352</ele>
        <time>2015-12-28T15:37:04.000Z</time>
      </trkpt>
      <trkpt lat="48.63837" lon="1.90477">
        <ele>175.60000610352</ele>
        <time>2015-12-28T15:37:08.000Z</time>
      </trkpt>
      <trkpt lat="48.63836" lon="1.90479">
        <ele>175.60000610352</ele>
        <time>2015-12-28T15:37:09.000Z</time>
      </trkpt>
      <trkpt lat="48.63833" lon="1.90487">
        <ele>175.80000305176</ele>
        <time>2015-12-28T15:37:14.000Z</time>
      </trkpt>
      <trkpt lat="48.63831" lon="1.90491">
        <ele>175.80000305176</ele>
        <time>2015-12-28T15:37:16.000Z</time>
      </trkpt>
      <trkpt lat="48.63825" lon="1.90502">
        <ele>176</ele>
        <time>2015-12-28T15:37:22.000Z</time>
      </trkpt>
      <trkpt lat="48.6382" lon="1.90512">
        <ele>176.19999694824</ele>
        <time>2015-12-28T15:37:28.000Z</time>
      </trkpt>
      <trkpt lat="48.63815" lon="1.90519">
        <ele>176.39999389648</ele>
        <time>2015-12-28T15:37:33.000Z</time>
      </trkpt>
      <trkpt lat="48.6381" lon="1.90528">
        <ele>176.60000610352</ele>
        <time>2015-12-28T15:37:38.000Z</time>
      </trkpt>
      <trkpt lat="48.63807" lon="1.90538">
        <ele>176.39999389648</ele>
        <time>2015-12-28T15:37:43.000Z</time>
      </trkpt>
      <trkpt lat="48.63801" lon="1.90541">
        <ele>176.39999389648</ele>
        <time>2015-12-28T15:37:48.000Z</time>
      </trkpt>
      <trkpt lat="48.63794" lon="1.9054">
        <ele>176.60000610352</ele>
        <time>2015-12-28T15:37:54.000Z</time>
      </trkpt>
      <trkpt lat="48.63785" lon="1.90531">
        <ele>176.80000305176</ele>
        <time>2015-12-28T15:38:01.000Z</time>
      </trkpt>
      <trkpt lat="48.63775" lon="1.90523">
        <ele>177.19999694824</ele>
        <time>2015-12-28T15:38:08.000Z</time>
      </trkpt>
      <trkpt lat="48.63768" lon="1.90512">
        <ele>177.39999389648</ele>
        <time>2015-12-28T15:38:14.000Z</time>
      </trkpt>
      <trkpt lat="48.63759" lon="1.90503">
        <ele>177.60000610352</ele>
        <time>2015-12-28T15:38:21.000Z</time>
      </trkpt>
      <trkpt lat="48.6375" lon="1.90496">
        <ele>177.60000610352</ele>
        <time>2015-12-28T15:38:28.000Z</time>
      </trkpt>
      <trkpt lat="48.63739" lon="1.90484">
        <ele>177.60000610352</ele>
        <time>2015-12-28T15:38:37.000Z</time>
      </trkpt>
      <trkpt lat="48.6373" lon="1.90476">
        <ele>177.60000610352</ele>
        <time>2015-12-28T15:38:44.000Z</time>
      </trkpt>
      <trkpt lat="48.63721" lon="1.90466">
        <ele>177.39999389648</ele>
        <time>2015-12-28T15:38:52.000Z</time>
      </trkpt>
      <trkpt lat="48.63717" lon="1.90461">
        <ele>177.39999389648</ele>
        <time>2015-12-28T15:38:56.000Z</time>
      </trkpt>
      <trkpt lat="48.63713" lon="1.90457">
        <ele>177.39999389648</ele>
        <time>2015-12-28T15:38:59.000Z</time>
      </trkpt>
      <trkpt lat="48.63705" lon="1.90447">
        <ele>177.19999694824</ele>
        <time>2015-12-28T15:39:06.000Z</time>
      </trkpt>
      <trkpt lat="48.63698" lon="1.90439">
        <ele>177.19999694824</ele>
        <time>2015-12-28T15:39:11.000Z</time>
      </trkpt>
      <trkpt lat="48.63694" lon="1.90433">
        <ele>177</ele>
        <time>2015-12-28T15:39:15.000Z</time>
      </trkpt>
      <trkpt lat="48.6369" lon="1.90431">
        <ele>177</ele>
        <time>2015-12-28T15:39:17.000Z</time>
      </trkpt>
      <trkpt lat="48.63685" lon="1.90428">
        <ele>177</ele>
        <time>2015-12-28T15:39:20.000Z</time>
      </trkpt>
      <trkpt lat="48.63683" lon="1.90425">
        <ele>177</ele>
        <time>2015-12-28T15:39:22.000Z</time>
      </trkpt>
      <trkpt lat="48.6368" lon="1.90423">
        <ele>177.19999694824</ele>
        <time>2015-12-28T15:39:24.000Z</time>
      </trkpt>
      <trkpt lat="48.6367" lon="1.90412">
        <ele>177.39999389648</ele>
        <time>2015-12-28T15:39:32.000Z</time>
      </trkpt>
      <trkpt lat="48.63661" lon="1.904">
        <ele>177.39999389648</ele>
        <time>2015-12-28T15:39:40.000Z</time>
      </trkpt>
      <trkpt lat="48.63653" lon="1.90392">
        <ele>177.19999694824</ele>
        <time>2015-12-28T15:39:47.000Z</time>
      </trkpt>
      <trkpt lat="48.63652" lon="1.90391">
        <ele>177.19999694824</ele>
        <time>2015-12-28T15:39:48.000Z</time>
      </trkpt>
      <trkpt lat="48.63648" lon="1.90386">
        <ele>177.19999694824</ele>
        <time>2015-12-28T15:39:52.000Z</time>
      </trkpt>
      <trkpt lat="48.63637" lon="1.90376">
        <ele>177</ele>
        <time>2015-12-28T15:39:59.000Z</time>
      </trkpt>
      <trkpt lat="48.63636" lon="1.90375">
        <ele>177</ele>
        <time>2015-12-28T15:40:00.000Z</time>
      </trkpt>
      <trkpt lat="48.6363" lon="1.90369">
        <ele>177</ele>
        <time>2015-12-28T15:40:04.000Z</time>
      </trkpt>
      <trkpt lat="48.63628" lon="1.90367">
        <ele>177</ele>
        <time>2015-12-28T15:40:06.000Z</time>
      </trkpt>
      <trkpt lat="48.63619" lon="1.90357">
        <ele>176.80000305176</ele>
        <time>2015-12-28T15:40:14.000Z</time>
      </trkpt>
      <trkpt lat="48.6361" lon="1.90348">
        <ele>176.60000610352</ele>
        <time>2015-12-28T15:40:21.000Z</time>
      </trkpt>
      <trkpt lat="48.63603" lon="1.90339">
        <ele>176.60000610352</ele>
        <time>2015-12-28T15:40:27.000Z</time>
      </trkpt>
      <trkpt lat="48.63595" lon="1.90329">
        <ele>176.39999389648</ele>
        <time>2015-12-28T15:40:34.000Z</time>
      </trkpt>
      <trkpt lat="48.63594" lon="1.90327">
        <ele>176.39999389648</ele>
        <time>2015-12-28T15:40:35.000Z</time>
      </trkpt>
      <trkpt lat="48.63586" lon="1.90317">
        <ele>176.39999389648</ele>
        <time>2015-12-28T15:40:42.000Z</time>
      </trkpt>
      <trkpt lat="48.6358" lon="1.90309">
        <ele>176.39999389648</ele>
        <time>2015-12-28T15:40:48.000Z</time>
      </trkpt>
      <trkpt lat="48.6357" lon="1.903">
        <ele>176.60000610352</ele>
        <time>2015-12-28T15:40:55.000Z</time>
      </trkpt>
      <trkpt lat="48.63562" lon="1.90291">
        <ele>176.60000610352</ele>
        <time>2015-12-28T15:41:02.000Z</time>
      </trkpt>
      <trkpt lat="48.63552" lon="1.9028">
        <ele>176.80000305176</ele>
        <time>2015-12-28T15:41:10.000Z</time>
      </trkpt>
      <trkpt lat="48.63544" lon="1.90272">
        <ele>176.80000305176</ele>
        <time>2015-12-28T15:41:16.000Z</time>
      </trkpt>
      <trkpt lat="48.63534" lon="1.90259">
        <ele>177</ele>
        <time>2015-12-28T15:41:25.000Z</time>
      </trkpt>
      <trkpt lat="48.63524" lon="1.90249">
        <ele>177</ele>
        <time>2015-12-28T15:41:33.000Z</time>
      </trkpt>
      <trkpt lat="48.63514" lon="1.90238">
        <ele>177.19999694824</ele>
        <time>2015-12-28T15:41:42.000Z</time>
      </trkpt>
      <trkpt lat="48.63508" lon="1.90231">
        <ele>177.19999694824</ele>
        <time>2015-12-28T15:41:47.000Z</time>
      </trkpt>
      <trkpt lat="48.63507" lon="1.9023">
        <ele>177.19999694824</ele>
        <time>2015-12-28T15:41:48.000Z</time>
      </trkpt>
      <trkpt lat="48.63496" lon="1.90219">
        <ele>177.39999389648</ele>
        <time>2015-12-28T15:41:57.000Z</time>
      </trkpt>
      <trkpt lat="48.63487" lon="1.9021">
        <ele>177.39999389648</ele>
        <time>2015-12-28T15:42:04.000Z</time>
      </trkpt>
      <trkpt lat="48.63479" lon="1.90203">
        <ele>177.60000610352</ele>
        <time>2015-12-28T15:42:11.000Z</time>
      </trkpt>
      <trkpt lat="48.63471" lon="1.90194">
        <ele>177.60000610352</ele>
        <time>2015-12-28T15:42:18.000Z</time>
      </trkpt>
      <trkpt lat="48.63461" lon="1.90182">
        <ele>177.60000610352</ele>
        <time>2015-12-28T15:42:26.000Z</time>
      </trkpt>
      <trkpt lat="48.6346" lon="1.90181">
        <ele>177.80000305176</ele>
        <time>2015-12-28T15:42:27.000Z</time>
      </trkpt>
      <trkpt lat="48.63455" lon="1.90175">
        <ele>177.80000305176</ele>
        <time>2015-12-28T15:42:31.000Z</time>
      </trkpt>
      <trkpt lat="48.63446" lon="1.90164">
        <ele>177.80000305176</ele>
        <time>2015-12-28T15:42:39.000Z</time>
      </trkpt>
      <trkpt lat="48.63435" lon="1.90154">
        <ele>178</ele>
        <time>2015-12-28T15:42:47.000Z</time>
      </trkpt>
      <trkpt lat="48.63423" lon="1.90141">
        <ele>177.60000610352</ele>
        <time>2015-12-28T15:42:57.000Z</time>
      </trkpt>
      <trkpt lat="48.63413" lon="1.90131">
        <ele>177.39999389648</ele>
        <time>2015-12-28T15:43:05.000Z</time>
      </trkpt>
      <trkpt lat="48.63404" lon="1.90122">
        <ele>177.19999694824</ele>
        <time>2015-12-28T15:43:12.000Z</time>
      </trkpt>
      <trkpt lat="48.63395" lon="1.9011">
        <ele>177</ele>
        <time>2015-12-28T15:43:20.000Z</time>
      </trkpt>
      <trkpt lat="48.63385" lon="1.90098">
        <ele>176.60000610352</ele>
        <time>2015-12-28T15:43:28.000Z</time>
      </trkpt>
      <trkpt lat="48.63374" lon="1.90086">
        <ele>176.39999389648</ele>
        <time>2015-12-28T15:43:37.000Z</time>
      </trkpt>
      <trkpt lat="48.63364" lon="1.90075">
        <ele>176.19999694824</ele>
        <time>2015-12-28T15:43:45.000Z</time>
      </trkpt>
      <trkpt lat="48.63356" lon="1.90066">
        <ele>176</ele>
        <time>2015-12-28T15:43:52.000Z</time>
      </trkpt>
      <trkpt lat="48.63343" lon="1.90051">
        <ele>176.39999389648</ele>
        <time>2015-12-28T15:44:03.000Z</time>
      </trkpt>
      <trkpt lat="48.63338" lon="1.90045">
        <ele>176.60000610352</ele>
        <time>2015-12-28T15:44:07.000Z</time>
      </trkpt>
      <trkpt lat="48.63336" lon="1.90043">
        <ele>176.60000610352</ele>
        <time>2015-12-28T15:44:09.000Z</time>
      </trkpt>
      <trkpt lat="48.63326" lon="1.90033">
        <ele>177</ele>
        <time>2015-12-28T15:44:17.000Z</time>
      </trkpt>
      <trkpt lat="48.63317" lon="1.90025">
        <ele>177.19999694824</ele>
        <time>2015-12-28T15:44:23.000Z</time>
      </trkpt>
      <trkpt lat="48.63312" lon="1.90021">
        <ele>177.39999389648</ele>
        <time>2015-12-28T15:44:27.000Z</time>
      </trkpt>
      <trkpt lat="48.63304" lon="1.90011">
        <ele>177.80000305176</ele>
        <time>2015-12-28T15:44:33.000Z</time>
      </trkpt>
      <trkpt lat="48.63295" lon="1.9">
        <ele>178</ele>
        <time>2015-12-28T15:44:40.000Z</time>
      </trkpt>
      <trkpt lat="48.63287" lon="1.89989">
        <ele>178.39999389648</ele>
        <time>2015-12-28T15:44:47.000Z</time>
      </trkpt>
      <trkpt lat="48.63275" lon="1.89975">
        <ele>178.80000305176</ele>
        <time>2015-12-28T15:44:56.000Z</time>
      </trkpt>
      <trkpt lat="48.63267" lon="1.89965">
        <ele>179</ele>
        <time>2015-12-28T15:45:03.000Z</time>
      </trkpt>
      <trkpt lat="48.63256" lon="1.89951">
        <ele>179</ele>
        <time>2015-12-28T15:45:12.000Z</time>
      </trkpt>
      <trkpt lat="48.6325" lon="1.89943">
        <ele>179</ele>
        <time>2015-12-28T15:45:17.000Z</time>
      </trkpt>
      <trkpt lat="48.63249" lon="1.89942">
        <ele>179</ele>
        <time>2015-12-28T15:45:18.000Z</time>
      </trkpt>
      <trkpt lat="48.63241" lon="1.89934">
        <ele>179</ele>
        <time>2015-12-28T15:45:24.000Z</time>
      </trkpt>
      <trkpt lat="48.63237" lon="1.8993">
        <ele>179</ele>
        <time>2015-12-28T15:45:27.000Z</time>
      </trkpt>
      <trkpt lat="48.63233" lon="1.89926">
        <ele>179</ele>
        <time>2015-12-28T15:45:30.000Z</time>
      </trkpt>
      <trkpt lat="48.63227" lon="1.89919">
        <ele>179</ele>
        <time>2015-12-28T15:45:35.000Z</time>
      </trkpt>
      <trkpt lat="48.63218" lon="1.89909">
        <ele>179</ele>
        <time>2015-12-28T15:45:42.000Z</time>
      </trkpt>
      <trkpt lat="48.63206" lon="1.89897">
        <ele>178.60000610352</ele>
        <time>2015-12-28T15:45:50.000Z</time>
      </trkpt>
      <trkpt lat="48.63199" lon="1.89888">
        <ele>178.39999389648</ele>
        <time>2015-12-28T15:45:56.000Z</time>
      </trkpt>
      <trkpt lat="48.63189" lon="1.89882">
        <ele>178.19999694824</ele>
        <time>2015-12-28T15:46:02.000Z</time>
      </trkpt>
      <trkpt lat="48.63187" lon="1.89878">
        <ele>178</ele>
        <time>2015-12-28T15:46:04.000Z</time>
      </trkpt>
      <trkpt lat="48.63186" lon="1.89877">
        <ele>178</ele>
        <time>2015-12-28T15:46:06.000Z</time>
      </trkpt>
      <trkpt lat="48.63186" lon="1.89877">
        <ele>178</ele>
        <time>2015-12-28T15:46:07.000Z</time>
      </trkpt>
      <trkpt lat="48.63179" lon="1.89869">
        <ele>177.80000305176</ele>
        <time>2015-12-28T15:46:15.000Z</time>
      </trkpt>
      <trkpt lat="48.63175" lon="1.89863">
        <ele>177.60000610352</ele>
        <time>2015-12-28T15:46:18.000Z</time>
      </trkpt>
      <trkpt lat="48.63167" lon="1.89856">
        <ele>177.39999389648</ele>
        <time>2015-12-28T15:46:23.000Z</time>
      </trkpt>
      <trkpt lat="48.63166" lon="1.89854">
        <ele>177.39999389648</ele>
        <time>2015-12-28T15:46:24.000Z</time>
      </trkpt>
      <trkpt lat="48.63163" lon="1.89849">
        <ele>177.19999694824</ele>
        <time>2015-12-28T15:46:27.000Z</time>
      </trkpt>
      <trkpt lat="48.63161" lon="1.89847">
        <ele>177.19999694824</ele>
        <time>2015-12-28T15:46:28.000Z</time>
      </trkpt>
      <trkpt lat="48.63155" lon="1.8984">
        <ele>177</ele>
        <time>2015-12-28T15:46:33.000Z</time>
      </trkpt>
      <trkpt lat="48.63147" lon="1.89833">
        <ele>176.80000305176</ele>
        <time>2015-12-28T15:46:38.000Z</time>
      </trkpt>
      <trkpt lat="48.63138" lon="1.89822">
        <ele>176.60000610352</ele>
        <time>2015-12-28T15:46:45.000Z</time>
      </trkpt>
      <trkpt lat="48.63134" lon="1.89815">
        <ele>176.39999389648</ele>
        <time>2015-12-28T15:46:50.000Z</time>
      </trkpt>
      <trkpt lat="48.63133" lon="1.89814">
        <ele>176.19999694824</ele>
        <time>2015-12-28T15:46:51.000Z</time>
      </trkpt>
      <trkpt lat="48.63125" lon="1.89808">
        <ele>176.19999694824</ele>
        <time>2015-12-28T15:46:56.000Z</time>
      </trkpt>
      <trkpt lat="48.63123" lon="1.89807">
        <ele>176.19999694824</ele>
        <time>2015-12-28T15:46:57.000Z</time>
      </trkpt>
      <trkpt lat="48.63112" lon="1.89797">
        <ele>176</ele>
        <time>2015-12-28T15:47:05.000Z</time>
      </trkpt>
      <trkpt lat="48.63105" lon="1.89787">
        <ele>175.60000610352</ele>
        <time>2015-12-28T15:47:11.000Z</time>
      </trkpt>
      <trkpt lat="48.63103" lon="1.89785">
        <ele>175.60000610352</ele>
        <time>2015-12-28T15:47:13.000Z</time>
      </trkpt>
      <trkpt lat="48.631" lon="1.89783">
        <ele>175.60000610352</ele>
        <time>2015-12-28T15:47:15.000Z</time>
      </trkpt>
      <trkpt lat="48.63097" lon="1.89778">
        <ele>175.39999389648</ele>
        <time>2015-12-28T15:47:18.000Z</time>
      </trkpt>
      <trkpt lat="48.63092" lon="1.89773">
        <ele>175</ele>
        <time>2015-12-28T15:47:22.000Z</time>
      </trkpt>
      <trkpt lat="48.63083" lon="1.89764">
        <ele>174.60000610352</ele>
        <time>2015-12-28T15:47:28.000Z</time>
      </trkpt>
      <trkpt lat="48.63077" lon="1.89759">
        <ele>174.39999389648</ele>
        <time>2015-12-28T15:47:32.000Z</time>
      </trkpt>
      <trkpt lat="48.63076" lon="1.89758">
        <ele>174.39999389648</ele>
        <time>2015-12-28T15:47:33.000Z</time>
      </trkpt>
      <trkpt lat="48.6307" lon="1.89754">
        <ele>174.19999694824</ele>
        <time>2015-12-28T15:47:38.000Z</time>
      </trkpt>
      <trkpt lat="48.63066" lon="1.8975">
        <ele>174</ele>
        <time>2015-12-28T15:47:42.000Z</time>
      </trkpt>
      <trkpt lat="48.63064" lon="1.89746">
        <ele>173.80000305176</ele>
        <time>2015-12-28T15:47:45.000Z</time>
      </trkpt>
      <trkpt lat="48.63062" lon="1.89744">
        <ele>173.60000610352</ele>
        <time>2015-12-28T15:47:47.000Z</time>
      </trkpt>
      <trkpt lat="48.6306" lon="1.89741">
        <ele>173.60000610352</ele>
        <time>2015-12-28T15:47:49.000Z</time>
      </trkpt>
      <trkpt lat="48.63054" lon="1.89734">
        <ele>173.19999694824</ele>
        <time>2015-12-28T15:47:54.000Z</time>
      </trkpt>
      <trkpt lat="48.63053" lon="1.89733">
        <ele>173.19999694824</ele>
        <time>2015-12-28T15:47:55.000Z</time>
      </trkpt>
      <trkpt lat="48.63051" lon="1.89728">
        <ele>173</ele>
        <time>2015-12-28T15:47:58.000Z</time>
      </trkpt>
      <trkpt lat="48.63049" lon="1.89726">
        <ele>172.80000305176</ele>
        <time>2015-12-28T15:48:00.000Z</time>
      </trkpt>
      <trkpt lat="48.63042" lon="1.89719">
        <ele>172.60000610352</ele>
        <time>2015-12-28T15:48:05.000Z</time>
      </trkpt>
      <trkpt lat="48.63037" lon="1.89713">
        <ele>172.19999694824</ele>
        <time>2015-12-28T15:48:09.000Z</time>
      </trkpt>
      <trkpt lat="48.63034" lon="1.8971">
        <ele>172.19999694824</ele>
        <time>2015-12-28T15:48:11.000Z</time>
      </trkpt>
      <trkpt lat="48.63025" lon="1.89702">
        <ele>171.80000305176</ele>
        <time>2015-12-28T15:48:17.000Z</time>
      </trkpt>
      <trkpt lat="48.63017" lon="1.89694">
        <ele>171.19999694824</ele>
        <time>2015-12-28T15:48:23.000Z</time>
      </trkpt>
      <trkpt lat="48.63006" lon="1.89685">
        <ele>170</ele>
        <time>2015-12-28T15:48:30.000Z</time>
      </trkpt>
      <trkpt lat="48.63" lon="1.89679">
        <ele>169.19999694824</ele>
        <time>2015-12-28T15:48:35.000Z</time>
      </trkpt>
      <trkpt lat="48.62999" lon="1.89677">
        <ele>169</ele>
        <time>2015-12-28T15:48:36.000Z</time>
      </trkpt>
      <trkpt lat="48.62992" lon="1.89671">
        <ele>168.19999694824</ele>
        <time>2015-12-28T15:48:41.000Z</time>
      </trkpt>
      <trkpt lat="48.62984" lon="1.89664">
        <ele>167.39999389648</ele>
        <time>2015-12-28T15:48:48.000Z</time>
      </trkpt>
      <trkpt lat="48.62975" lon="1.89653">
        <ele>166.39999389648</ele>
        <time>2015-12-28T15:48:55.000Z</time>
      </trkpt>
      <trkpt lat="48.62968" lon="1.89645">
        <ele>166</ele>
        <time>2015-12-28T15:49:01.000Z</time>
      </trkpt>
      <trkpt lat="48.62962" lon="1.89638">
        <ele>165.60000610352</ele>
        <time>2015-12-28T15:49:06.000Z</time>
      </trkpt>
      <trkpt lat="48.62956" lon="1.89627">
        <ele>165.39999389648</ele>
        <time>2015-12-28T15:49:12.000Z</time>
      </trkpt>
      <trkpt lat="48.62953" lon="1.89624">
        <ele>165.19999694824</ele>
        <time>2015-12-28T15:49:15.000Z</time>
      </trkpt>
      <trkpt lat="48.6295" lon="1.89621">
        <ele>165</ele>
        <time>2015-12-28T15:49:18.000Z</time>
      </trkpt>
      <trkpt lat="48.62944" lon="1.89614">
        <ele>164.80000305176</ele>
        <time>2015-12-28T15:49:23.000Z</time>
      </trkpt>
      <trkpt lat="48.62937" lon="1.89606">
        <ele>164.39999389648</ele>
        <time>2015-12-28T15:49:30.000Z</time>
      </trkpt>
      <trkpt lat="48.62935" lon="1.89603">
        <ele>164.19999694824</ele>
        <time>2015-12-28T15:49:32.000Z</time>
      </trkpt>
      <trkpt lat="48.6293" lon="1.89599">
        <ele>164.60000610352</ele>
        <time>2015-12-28T15:49:36.000Z</time>
      </trkpt>
      <trkpt lat="48.62923" lon="1.8959">
        <ele>164.80000305176</ele>
        <time>2015-12-28T15:49:42.000Z</time>
      </trkpt>
      <trkpt lat="48.62922" lon="1.89587">
        <ele>165</ele>
        <time>2015-12-28T15:49:44.000Z</time>
      </trkpt>
      <trkpt lat="48.62918" lon="1.89583">
        <ele>165.19999694824</ele>
        <time>2015-12-28T15:49:47.000Z</time>
      </trkpt>
      <trkpt lat="48.62908" lon="1.89575">
        <ele>165.60000610352</ele>
        <time>2015-12-28T15:49:53.000Z</time>
      </trkpt>
      <trkpt lat="48.62901" lon="1.89567">
        <ele>165.60000610352</ele>
        <time>2015-12-28T15:49:58.000Z</time>
      </trkpt>
      <trkpt lat="48.62893" lon="1.89556">
        <ele>165.60000610352</ele>
        <time>2015-12-28T15:50:04.000Z</time>
      </trkpt>
      <trkpt lat="48.62886" lon="1.89548">
        <ele>165.60000610352</ele>
        <time>2015-12-28T15:50:10.000Z</time>
      </trkpt>
      <trkpt lat="48.62878" lon="1.8954">
        <ele>165.60000610352</ele>
        <time>2015-12-28T15:50:16.000Z</time>
      </trkpt>
      <trkpt lat="48.62876" lon="1.89538">
        <ele>165.60000610352</ele>
        <time>2015-12-28T15:50:18.000Z</time>
      </trkpt>
      <trkpt lat="48.62873" lon="1.89534">
        <ele>165.60000610352</ele>
        <time>2015-12-28T15:50:20.000Z</time>
      </trkpt>
      <trkpt lat="48.62873" lon="1.89531">
        <ele>165.39999389648</ele>
        <time>2015-12-28T15:50:23.000Z</time>
      </trkpt>
      <trkpt lat="48.62867" lon="1.89524">
        <ele>165.39999389648</ele>
        <time>2015-12-28T15:50:29.000Z</time>
      </trkpt>
      <trkpt lat="48.62858" lon="1.89516">
        <ele>165.39999389648</ele>
        <time>2015-12-28T15:50:36.000Z</time>
      </trkpt>
      <trkpt lat="48.62858" lon="1.89514">
        <ele>165.39999389648</ele>
        <time>2015-12-28T15:50:38.000Z</time>
      </trkpt>
      <trkpt lat="48.62854" lon="1.89512">
        <ele>165.39999389648</ele>
        <time>2015-12-28T15:50:41.000Z</time>
      </trkpt>
      <trkpt lat="48.62848" lon="1.89506">
        <ele>165.80000305176</ele>
        <time>2015-12-28T15:50:45.000Z</time>
      </trkpt>
      <trkpt lat="48.62848" lon="1.89505">
        <ele>165.80000305176</ele>
        <time>2015-12-28T15:50:46.000Z</time>
      </trkpt>
      <trkpt lat="48.62847" lon="1.89503">
        <ele>165.80000305176</ele>
        <time>2015-12-28T15:50:47.000Z</time>
      </trkpt>
      <trkpt lat="48.6284" lon="1.89496">
        <ele>166.19999694824</ele>
        <time>2015-12-28T15:50:52.000Z</time>
      </trkpt>
      <trkpt lat="48.62835" lon="1.89492">
        <ele>166.39999389648</ele>
        <time>2015-12-28T15:50:55.000Z</time>
      </trkpt>
      <trkpt lat="48.6283" lon="1.89487">
        <ele>166.80000305176</ele>
        <time>2015-12-28T15:50:58.000Z</time>
      </trkpt>
      <trkpt lat="48.62823" lon="1.89481">
        <ele>167.60000610352</ele>
        <time>2015-12-28T15:51:02.000Z</time>
      </trkpt>
      <trkpt lat="48.6282" lon="1.89479">
        <ele>168</ele>
        <time>2015-12-28T15:51:03.000Z</time>
      </trkpt>
      <trkpt lat="48.62813" lon="1.89467">
        <ele>168.80000305176</ele>
        <time>2015-12-28T15:51:08.000Z</time>
      </trkpt>
      <trkpt lat="48.62808" lon="1.89462">
        <ele>169.39999389648</ele>
        <time>2015-12-28T15:51:11.000Z</time>
      </trkpt>
      <trkpt lat="48.62807" lon="1.8946">
        <ele>169.60000610352</ele>
        <time>2015-12-28T15:51:12.000Z</time>
      </trkpt>
      <trkpt lat="48.62806" lon="1.89459">
        <ele>169.60000610352</ele>
        <time>2015-12-28T15:51:13.000Z</time>
      </trkpt>
      <trkpt lat="48.62803" lon="1.89455">
        <ele>170</ele>
        <time>2015-12-28T15:51:15.000Z</time>
      </trkpt>
      <trkpt lat="48.62796" lon="1.89445">
        <ele>170.80000305176</ele>
        <time>2015-12-28T15:51:20.000Z</time>
      </trkpt>
      <trkpt lat="48.62795" lon="1.89444">
        <ele>171</ele>
        <time>2015-12-28T15:51:21.000Z</time>
      </trkpt>
      <trkpt lat="48.62786" lon="1.89433">
        <ele>171.80000305176</ele>
        <time>2015-12-28T15:51:27.000Z</time>
      </trkpt>
      <trkpt lat="48.62781" lon="1.89428">
        <ele>172.39999389648</ele>
        <time>2015-12-28T15:51:31.000Z</time>
      </trkpt>
      <trkpt lat="48.6278" lon="1.89426">
        <ele>172.60000610352</ele>
        <time>2015-12-28T15:51:32.000Z</time>
      </trkpt>
      <trkpt lat="48.62772" lon="1.89419">
        <ele>173.39999389648</ele>
        <time>2015-12-28T15:51:37.000Z</time>
      </trkpt>
      <trkpt lat="48.62764" lon="1.8941">
        <ele>174</ele>
        <time>2015-12-28T15:51:43.000Z</time>
      </trkpt>
      <trkpt lat="48.62755" lon="1.89402">
        <ele>174.19999694824</ele>
        <time>2015-12-28T15:51:49.000Z</time>
      </trkpt>
      <trkpt lat="48.62746" lon="1.89395">
        <ele>174.19999694824</ele>
        <time>2015-12-28T15:51:55.000Z</time>
      </trkpt>
      <trkpt lat="48.62737" lon="1.89385">
        <ele>174.39999389648</ele>
        <time>2015-12-28T15:52:02.000Z</time>
      </trkpt>
      <trkpt lat="48.62726" lon="1.89372">
        <ele>174.60000610352</ele>
        <time>2015-12-28T15:52:11.000Z</time>
      </trkpt>
      <trkpt lat="48.62723" lon="1.89366">
        <ele>174.60000610352</ele>
        <time>2015-12-28T15:52:16.000Z</time>
      </trkpt>
      <trkpt lat="48.62728" lon="1.89349">
        <ele>174.19999694824</ele>
        <time>2015-12-28T15:52:32.000Z</time>
      </trkpt>
      <trkpt lat="48.6273" lon="1.89344">
        <ele>174.19999694824</ele>
        <time>2015-12-28T15:52:35.000Z</time>
      </trkpt>
      <trkpt lat="48.6273" lon="1.8934">
        <ele>174.19999694824</ele>
        <time>2015-12-28T15:52:40.000Z</time>
      </trkpt>
      <trkpt lat="48.62729" lon="1.8934">
        <ele>174.19999694824</ele>
        <time>2015-12-28T15:52:41.000Z</time>
      </trkpt>
      <trkpt lat="48.62723" lon="1.89341">
        <ele>174.39999389648</ele>
        <time>2015-12-28T15:52:48.000Z</time>
      </trkpt>
      <trkpt lat="48.62722" lon="1.8934">
        <ele>174.39999389648</ele>
        <time>2015-12-28T15:52:51.000Z</time>
      </trkpt>
      <trkpt lat="48.62707" lon="1.89344">
        <ele>174.80000305176</ele>
        <time>2015-12-28T15:53:06.000Z</time>
      </trkpt>
      <trkpt lat="48.62706" lon="1.89346">
        <ele>174.80000305176</ele>
        <time>2015-12-28T15:53:07.000Z</time>
      </trkpt>
      <trkpt lat="48.627" lon="1.89357">
        <ele>174.80000305176</ele>
        <time>2015-12-28T15:53:14.000Z</time>
      </trkpt>
      <trkpt lat="48.62694" lon="1.89368">
        <ele>174.80000305176</ele>
        <time>2015-12-28T15:53:21.000Z</time>
      </trkpt>
      <trkpt lat="48.62692" lon="1.89373">
        <ele>175</ele>
        <time>2015-12-28T15:53:24.000Z</time>
      </trkpt>
      <trkpt lat="48.62689" lon="1.89378">
        <ele>175</ele>
        <time>2015-12-28T15:53:27.000Z</time>
      </trkpt>
      <trkpt lat="48.6268" lon="1.89395">
        <ele>175</ele>
        <time>2015-12-28T15:53:36.000Z</time>
      </trkpt>
      <trkpt lat="48.62673" lon="1.89407">
        <ele>175</ele>
        <time>2015-12-28T15:53:43.000Z</time>
      </trkpt>
      <trkpt lat="48.62664" lon="1.89419">
        <ele>174.80000305176</ele>
        <time>2015-12-28T15:53:51.000Z</time>
      </trkpt>
      <trkpt lat="48.62656" lon="1.89428">
        <ele>174.80000305176</ele>
        <time>2015-12-28T15:53:57.000Z</time>
      </trkpt>
      <trkpt lat="48.62646" lon="1.89438">
        <ele>174.60000610352</ele>
        <time>2015-12-28T15:54:04.000Z</time>
      </trkpt>
      <trkpt lat="48.62644" lon="1.89441">
        <ele>174.60000610352</ele>
        <time>2015-12-28T15:54:06.000Z</time>
      </trkpt>
      <trkpt lat="48.62634" lon="1.8945">
        <ele>174.39999389648</ele>
        <time>2015-12-28T15:54:13.000Z</time>
      </trkpt>
      <trkpt lat="48.62623" lon="1.89461">
        <ele>174.39999389648</ele>
        <time>2015-12-28T15:54:21.000Z</time>
      </trkpt>
      <trkpt lat="48.62615" lon="1.89466">
        <ele>174.19999694824</ele>
        <time>2015-12-28T15:54:26.000Z</time>
      </trkpt>
      <trkpt lat="48.62614" lon="1.89466">
        <ele>174.19999694824</ele>
        <time>2015-12-28T15:54:27.000Z</time>
      </trkpt>
      <trkpt lat="48.62603" lon="1.89472">
        <ele>174.19999694824</ele>
        <time>2015-12-28T15:54:36.000Z</time>
      </trkpt>
      <trkpt lat="48.62593" lon="1.89475">
        <ele>174.39999389648</ele>
        <time>2015-12-28T15:54:43.000Z</time>
      </trkpt>
      <trkpt lat="48.6258" lon="1.89479">
        <ele>174.39999389648</ele>
        <time>2015-12-28T15:54:51.000Z</time>
      </trkpt>
      <trkpt lat="48.62569" lon="1.89482">
        <ele>174.19999694824</ele>
        <time>2015-12-28T15:54:59.000Z</time>
      </trkpt>
      <trkpt lat="48.62563" lon="1.89484">
        <ele>174.19999694824</ele>
        <time>2015-12-28T15:55:03.000Z</time>
      </trkpt>
      <trkpt lat="48.62559" lon="1.89484">
        <ele>174.19999694824</ele>
        <time>2015-12-28T15:55:05.000Z</time>
      </trkpt>
      <trkpt lat="48.6255" lon="1.89487">
        <ele>174.19999694824</ele>
        <time>2015-12-28T15:55:11.000Z</time>
      </trkpt>
      <trkpt lat="48.62535" lon="1.8949">
        <ele>174</ele>
        <time>2015-12-28T15:55:20.000Z</time>
      </trkpt>
      <trkpt lat="48.62525" lon="1.89493">
        <ele>174</ele>
        <time>2015-12-28T15:55:26.000Z</time>
      </trkpt>
      <trkpt lat="48.62512" lon="1.89495">
        <ele>173.60000610352</ele>
        <time>2015-12-28T15:55:35.000Z</time>
      </trkpt>
      <trkpt lat="48.62504" lon="1.89496">
        <ele>173.39999389648</ele>
        <time>2015-12-28T15:55:41.000Z</time>
      </trkpt>
      <trkpt lat="48.62498" lon="1.89497">
        <ele>173.19999694824</ele>
        <time>2015-12-28T15:55:44.000Z</time>
      </trkpt>
      <trkpt lat="48.62494" lon="1.89499">
        <ele>173.19999694824</ele>
        <time>2015-12-28T15:55:47.000Z</time>
      </trkpt>
      <trkpt lat="48.62486" lon="1.89498">
        <ele>172.80000305176</ele>
        <time>2015-12-28T15:55:52.000Z</time>
      </trkpt>
      <trkpt lat="48.62478" lon="1.89499">
        <ele>172.60000610352</ele>
        <time>2015-12-28T15:55:57.000Z</time>
      </trkpt>
      <trkpt lat="48.62469" lon="1.89501">
        <ele>172.39999389648</ele>
        <time>2015-12-28T15:56:03.000Z</time>
      </trkpt>
      <trkpt lat="48.62456" lon="1.89504">
        <ele>172</ele>
        <time>2015-12-28T15:56:11.000Z</time>
      </trkpt>
      <trkpt lat="48.62455" lon="1.89505">
        <ele>172</ele>
        <time>2015-12-28T15:56:12.000Z</time>
      </trkpt>
      <trkpt lat="48.62448" lon="1.89504">
        <ele>171.80000305176</ele>
        <time>2015-12-28T15:56:16.000Z</time>
      </trkpt>
      <trkpt lat="48.62444" lon="1.89504">
        <ele>171.80000305176</ele>
        <time>2015-12-28T15:56:18.000Z</time>
      </trkpt>
      <trkpt lat="48.62438" lon="1.89506">
        <ele>171.60000610352</ele>
        <time>2015-12-28T15:56:22.000Z</time>
      </trkpt>
      <trkpt lat="48.62425" lon="1.89512">
        <ele>170.19999694824</ele>
        <time>2015-12-28T15:56:30.000Z</time>
      </trkpt>
      <trkpt lat="48.62416" lon="1.89514">
        <ele>169</ele>
        <time>2015-12-28T15:56:35.000Z</time>
      </trkpt>
      <trkpt lat="48.62415" lon="1.89514">
        <ele>168.80000305176</ele>
        <time>2015-12-28T15:56:36.000Z</time>
      </trkpt>
      <trkpt lat="48.6241" lon="1.89517">
        <ele>168</ele>
        <time>2015-12-28T15:56:40.000Z</time>
      </trkpt>
      <trkpt lat="48.62409" lon="1.89518">
        <ele>167.80000305176</ele>
        <time>2015-12-28T15:56:42.000Z</time>
      </trkpt>
      <trkpt lat="48.62409" lon="1.89518">
        <ele>167.80000305176</ele>
        <time>2015-12-28T15:56:43.000Z</time>
      </trkpt>
      <trkpt lat="48.62412" lon="1.89515">
        <ele>168.19999694824</ele>
        <time>2015-12-28T15:57:00.000Z</time>
      </trkpt>
      <trkpt lat="48.62413" lon="1.89509">
        <ele>168.60000610352</ele>
        <time>2015-12-28T15:57:03.000Z</time>
      </trkpt>
      <trkpt lat="48.62413" lon="1.89509">
        <ele>168.60000610352</ele>
        <time>2015-12-28T15:57:05.000Z</time>
      </trkpt>
      <trkpt lat="48.62398" lon="1.89522">
        <ele>166.19999694824</ele>
        <time>2015-12-28T15:57:24.000Z</time>
      </trkpt>
      <trkpt lat="48.62397" lon="1.89524">
        <ele>166</ele>
        <time>2015-12-28T15:57:25.000Z</time>
      </trkpt>
      <trkpt lat="48.62391" lon="1.8953">
        <ele>165.19999694824</ele>
        <time>2015-12-28T15:57:29.000Z</time>
      </trkpt>
      <trkpt lat="48.62384" lon="1.89537">
        <ele>165</ele>
        <time>2015-12-28T15:57:34.000Z</time>
      </trkpt>
      <trkpt lat="48.62383" lon="1.89538">
        <ele>165</ele>
        <time>2015-12-28T15:57:35.000Z</time>
      </trkpt>
      <trkpt lat="48.62377" lon="1.89543">
        <ele>164.60000610352</ele>
        <time>2015-12-28T15:57:39.000Z</time>
      </trkpt>
      <trkpt lat="48.62373" lon="1.89547">
        <ele>164.60000610352</ele>
        <time>2015-12-28T15:57:42.000Z</time>
      </trkpt>
      <trkpt lat="48.62368" lon="1.89554">
        <ele>164.39999389648</ele>
        <time>2015-12-28T15:57:47.000Z</time>
      </trkpt>
      <trkpt lat="48.62359" lon="1.89563">
        <ele>164.19999694824</ele>
        <time>2015-12-28T15:57:54.000Z</time>
      </trkpt>
      <trkpt lat="48.62353" lon="1.8957">
        <ele>164</ele>
        <time>2015-12-28T15:57:59.000Z</time>
      </trkpt>
      <trkpt lat="48.62349" lon="1.89574">
        <ele>163.80000305176</ele>
        <time>2015-12-28T15:58:03.000Z</time>
      </trkpt>
      <trkpt lat="48.62344" lon="1.89581">
        <ele>163.80000305176</ele>
        <time>2015-12-28T15:58:08.000Z</time>
      </trkpt>
      <trkpt lat="48.62333" lon="1.89596">
        <ele>163.39999389648</ele>
        <time>2015-12-28T15:58:17.000Z</time>
      </trkpt>
      <trkpt lat="48.62327" lon="1.89603">
        <ele>163.19999694824</ele>
        <time>2015-12-28T15:58:22.000Z</time>
      </trkpt>
      <trkpt lat="48.62326" lon="1.89604">
        <ele>163.19999694824</ele>
        <time>2015-12-28T15:58:23.000Z</time>
      </trkpt>
      <trkpt lat="48.62322" lon="1.89611">
        <ele>163</ele>
        <time>2015-12-28T15:58:27.000Z</time>
      </trkpt>
      <trkpt lat="48.6232" lon="1.89612">
        <ele>163</ele>
        <time>2015-12-28T15:58:28.000Z</time>
      </trkpt>
      <trkpt lat="48.62319" lon="1.89613">
        <ele>163</ele>
        <time>2015-12-28T15:58:29.000Z</time>
      </trkpt>
      <trkpt lat="48.62316" lon="1.89618">
        <ele>162.80000305176</ele>
        <time>2015-12-28T15:58:32.000Z</time>
      </trkpt>
      <trkpt lat="48.62315" lon="1.8962">
        <ele>162.80000305176</ele>
        <time>2015-12-28T15:58:33.000Z</time>
      </trkpt>
      <trkpt lat="48.6231" lon="1.89626">
        <ele>162.60000610352</ele>
        <time>2015-12-28T15:58:38.000Z</time>
      </trkpt>
      <trkpt lat="48.62305" lon="1.89635">
        <ele>162.39999389648</ele>
        <time>2015-12-28T15:58:43.000Z</time>
      </trkpt>
      <trkpt lat="48.62301" lon="1.89642">
        <ele>162.19999694824</ele>
        <time>2015-12-28T15:58:48.000Z</time>
      </trkpt>
      <trkpt lat="48.62296" lon="1.89652">
        <ele>162</ele>
        <time>2015-12-28T15:58:54.000Z</time>
      </trkpt>
      <trkpt lat="48.6229" lon="1.89666">
        <ele>161.60000610352</ele>
        <time>2015-12-28T15:59:02.000Z</time>
      </trkpt>
      <trkpt lat="48.62284" lon="1.89681">
        <ele>161</ele>
        <time>2015-12-28T15:59:09.000Z</time>
      </trkpt>
      <trkpt lat="48.62276" lon="1.89702">
        <ele>160</ele>
        <time>2015-12-28T15:59:19.000Z</time>
      </trkpt>
      <trkpt lat="48.62272" lon="1.89713">
        <ele>159.60000610352</ele>
        <time>2015-12-28T15:59:25.000Z</time>
      </trkpt>
      <trkpt lat="48.62272" lon="1.89715">
        <ele>159.60000610352</ele>
        <time>2015-12-28T15:59:26.000Z</time>
      </trkpt>
      <trkpt lat="48.6227" lon="1.89723">
        <ele>159.19999694824</ele>
        <time>2015-12-28T15:59:30.000Z</time>
      </trkpt>
      <trkpt lat="48.62267" lon="1.89731">
        <ele>159</ele>
        <time>2015-12-28T15:59:34.000Z</time>
      </trkpt>
      <trkpt lat="48.62264" lon="1.89739">
        <ele>159</ele>
        <time>2015-12-28T15:59:38.000Z</time>
      </trkpt>
      <trkpt lat="48.62261" lon="1.89749">
        <ele>159</ele>
        <time>2015-12-28T15:59:43.000Z</time>
      </trkpt>
      <trkpt lat="48.62255" lon="1.89769">
        <ele>158.80000305176</ele>
        <time>2015-12-28T15:59:53.000Z</time>
      </trkpt>
      <trkpt lat="48.62249" lon="1.89786">
        <ele>158.80000305176</ele>
        <time>2015-12-28T16:00:01.000Z</time>
      </trkpt>
      <trkpt lat="48.62246" lon="1.89797">
        <ele>158.80000305176</ele>
        <time>2015-12-28T16:00:08.000Z</time>
      </trkpt>
      <trkpt lat="48.62242" lon="1.8981">
        <ele>158.39999389648</ele>
        <time>2015-12-28T16:00:15.000Z</time>
      </trkpt>
      <trkpt lat="48.62238" lon="1.89824">
        <ele>157.80000305176</ele>
        <time>2015-12-28T16:00:22.000Z</time>
      </trkpt>
      <trkpt lat="48.62232" lon="1.89839">
        <ele>157.19999694824</ele>
        <time>2015-12-28T16:00:30.000Z</time>
      </trkpt>
      <trkpt lat="48.62229" lon="1.89856">
        <ele>156.80000305176</ele>
        <time>2015-12-28T16:00:37.000Z</time>
      </trkpt>
      <trkpt lat="48.62227" lon="1.89867">
        <ele>156.39999389648</ele>
        <time>2015-12-28T16:00:42.000Z</time>
      </trkpt>
      <trkpt lat="48.62227" lon="1.89869">
        <ele>156.39999389648</ele>
        <time>2015-12-28T16:00:43.000Z</time>
      </trkpt>
      <trkpt lat="48.62224" lon="1.89878">
        <ele>155.80000305176</ele>
        <time>2015-12-28T16:00:47.000Z</time>
      </trkpt>
      <trkpt lat="48.62223" lon="1.89881">
        <ele>155.80000305176</ele>
        <time>2015-12-28T16:00:49.000Z</time>
      </trkpt>
      <trkpt lat="48.62222" lon="1.89887">
        <ele>155.39999389648</ele>
        <time>2015-12-28T16:00:52.000Z</time>
      </trkpt>
      <trkpt lat="48.62218" lon="1.89901">
        <ele>154.80000305176</ele>
        <time>2015-12-28T16:00:59.000Z</time>
      </trkpt>
      <trkpt lat="48.62217" lon="1.89907">
        <ele>154.39999389648</ele>
        <time>2015-12-28T16:01:02.000Z</time>
      </trkpt>
      <trkpt lat="48.62215" lon="1.89914">
        <ele>154</ele>
        <time>2015-12-28T16:01:05.000Z</time>
      </trkpt>
      <trkpt lat="48.62214" lon="1.8992">
        <ele>153.60000610352</ele>
        <time>2015-12-28T16:01:08.000Z</time>
      </trkpt>
      <trkpt lat="48.62212" lon="1.89925">
        <ele>153.19999694824</ele>
        <time>2015-12-28T16:01:10.000Z</time>
      </trkpt>
      <trkpt lat="48.6221" lon="1.89935">
        <ele>152.60000610352</ele>
        <time>2015-12-28T16:01:16.000Z</time>
      </trkpt>
      <trkpt lat="48.62204" lon="1.89953">
        <ele>151.39999389648</ele>
        <time>2015-12-28T16:01:24.000Z</time>
      </trkpt>
      <trkpt lat="48.62201" lon="1.89964">
        <ele>150.80000305176</ele>
        <time>2015-12-28T16:01:29.000Z</time>
      </trkpt>
      <trkpt lat="48.62201" lon="1.89967">
        <ele>150.60000610352</ele>
        <time>2015-12-28T16:01:31.000Z</time>
      </trkpt>
      <trkpt lat="48.62196" lon="1.89982">
        <ele>149.80000305176</ele>
        <time>2015-12-28T16:01:38.000Z</time>
      </trkpt>
      <trkpt lat="48.62191" lon="1.89998">
        <ele>149</ele>
        <time>2015-12-28T16:01:46.000Z</time>
      </trkpt>
      <trkpt lat="48.62184" lon="1.90018">
        <ele>148.19999694824</ele>
        <time>2015-12-28T16:01:56.000Z</time>
      </trkpt>
      <trkpt lat="48.62183" lon="1.90022">
        <ele>148.19999694824</ele>
        <time>2015-12-28T16:01:58.000Z</time>
      </trkpt>
      <trkpt lat="48.6218" lon="1.90028">
        <ele>148</ele>
        <time>2015-12-28T16:02:01.000Z</time>
      </trkpt>
      <trkpt lat="48.62176" lon="1.90038">
        <ele>147.60000610352</ele>
        <time>2015-12-28T16:02:07.000Z</time>
      </trkpt>
      <trkpt lat="48.62169" lon="1.90055">
        <ele>147</ele>
        <time>2015-12-28T16:02:15.000Z</time>
      </trkpt>
      <trkpt lat="48.62164" lon="1.90068">
        <ele>146.39999389648</ele>
        <time>2015-12-28T16:02:22.000Z</time>
      </trkpt>
      <trkpt lat="48.6216" lon="1.90076">
        <ele>146</ele>
        <time>2015-12-28T16:02:27.000Z</time>
      </trkpt>
      <trkpt lat="48.62158" lon="1.9008">
        <ele>145.80000305176</ele>
        <time>2015-12-28T16:02:29.000Z</time>
      </trkpt>
      <trkpt lat="48.62153" lon="1.90093">
        <ele>145.39999389648</ele>
        <time>2015-12-28T16:02:36.000Z</time>
      </trkpt>
      <trkpt lat="48.62151" lon="1.90101">
        <ele>145.19999694824</ele>
        <time>2015-12-28T16:02:40.000Z</time>
      </trkpt>
      <trkpt lat="48.62149" lon="1.90107">
        <ele>144.80000305176</ele>
        <time>2015-12-28T16:02:44.000Z</time>
      </trkpt>
      <trkpt lat="48.62143" lon="1.9012">
        <ele>144.39999389648</ele>
        <time>2015-12-28T16:02:51.000Z</time>
      </trkpt>
      <trkpt lat="48.62139" lon="1.90129">
        <ele>144</ele>
        <time>2015-12-28T16:02:56.000Z</time>
      </trkpt>
      <trkpt lat="48.62138" lon="1.90131">
        <ele>144</ele>
        <time>2015-12-28T16:02:57.000Z</time>
      </trkpt>
      <trkpt lat="48.62132" lon="1.90145">
        <ele>143.39999389648</ele>
        <time>2015-12-28T16:03:05.000Z</time>
      </trkpt>
      <trkpt lat="48.62127" lon="1.90162">
        <ele>143</ele>
        <time>2015-12-28T16:03:13.000Z</time>
      </trkpt>
      <trkpt lat="48.62122" lon="1.90175">
        <ele>143</ele>
        <time>2015-12-28T16:03:20.000Z</time>
      </trkpt>
      <trkpt lat="48.62116" lon="1.90186">
        <ele>142.60000610352</ele>
        <time>2015-12-28T16:03:27.000Z</time>
      </trkpt>
      <trkpt lat="48.62115" lon="1.90188">
        <ele>142.60000610352</ele>
        <time>2015-12-28T16:03:28.000Z</time>
      </trkpt>
      <trkpt lat="48.62109" lon="1.902">
        <ele>142.39999389648</ele>
        <time>2015-12-28T16:03:34.000Z</time>
      </trkpt>
      <trkpt lat="48.62097" lon="1.90219">
        <ele>141.60000610352</ele>
        <time>2015-12-28T16:03:44.000Z</time>
      </trkpt>
      <trkpt lat="48.62088" lon="1.90232">
        <ele>140.80000305176</ele>
        <time>2015-12-28T16:03:52.000Z</time>
      </trkpt>
      <trkpt lat="48.62086" lon="1.90236">
        <ele>140.39999389648</ele>
        <time>2015-12-28T16:03:54.000Z</time>
      </trkpt>
      <trkpt lat="48.62081" lon="1.90239">
        <ele>139.80000305176</ele>
        <time>2015-12-28T16:03:57.000Z</time>
      </trkpt>
      <trkpt lat="48.62072" lon="1.9024">
        <ele>138.80000305176</ele>
        <time>2015-12-28T16:04:02.000Z</time>
      </trkpt>
      <trkpt lat="48.62062" lon="1.90234">
        <ele>137.80000305176</ele>
        <time>2015-12-28T16:04:07.000Z</time>
      </trkpt>
      <trkpt lat="48.62056" lon="1.90231">
        <ele>137.19999694824</ele>
        <time>2015-12-28T16:04:12.000Z</time>
      </trkpt>
      <trkpt lat="48.62055" lon="1.90229">
        <ele>137.19999694824</ele>
        <time>2015-12-28T16:04:13.000Z</time>
      </trkpt>
      <trkpt lat="48.62048" lon="1.90218">
        <ele>136.60000610352</ele>
        <time>2015-12-28T16:04:19.000Z</time>
      </trkpt>
      <trkpt lat="48.62043" lon="1.90206">
        <ele>136.39999389648</ele>
        <time>2015-12-28T16:04:26.000Z</time>
      </trkpt>
      <trkpt lat="48.62037" lon="1.90197">
        <ele>136</ele>
        <time>2015-12-28T16:04:32.000Z</time>
      </trkpt>
      <trkpt lat="48.62036" lon="1.90194">
        <ele>136</ele>
        <time>2015-12-28T16:04:34.000Z</time>
      </trkpt>
      <trkpt lat="48.62035" lon="1.9019">
        <ele>136</ele>
        <time>2015-12-28T16:04:37.000Z</time>
      </trkpt>
      <trkpt lat="48.62031" lon="1.90182">
        <ele>135.60000610352</ele>
        <time>2015-12-28T16:04:42.000Z</time>
      </trkpt>
      <trkpt lat="48.62031" lon="1.90182">
        <ele>135.60000610352</ele>
        <time>2015-12-28T16:04:43.000Z</time>
      </trkpt>
      <trkpt lat="48.62027" lon="1.90173">
        <ele>135.60000610352</ele>
        <time>2015-12-28T16:04:49.000Z</time>
      </trkpt>
      <trkpt lat="48.62026" lon="1.90167">
        <ele>135.60000610352</ele>
        <time>2015-12-28T16:04:52.000Z</time>
      </trkpt>
      <trkpt lat="48.62024" lon="1.90162">
        <ele>135.39999389648</ele>
        <time>2015-12-28T16:04:55.000Z</time>
      </trkpt>
      <trkpt lat="48.62023" lon="1.90159">
        <ele>135.39999389648</ele>
        <time>2015-12-28T16:04:57.000Z</time>
      </trkpt>
      <trkpt lat="48.62018" lon="1.90145">
        <ele>135.39999389648</ele>
        <time>2015-12-28T16:05:04.000Z</time>
      </trkpt>
      <trkpt lat="48.62013" lon="1.90129">
        <ele>135.80000305176</ele>
        <time>2015-12-28T16:05:12.000Z</time>
      </trkpt>
      <trkpt lat="48.62008" lon="1.90115">
        <ele>135.80000305176</ele>
        <time>2015-12-28T16:05:19.000Z</time>
      </trkpt>
      <trkpt lat="48.62004" lon="1.90101">
        <ele>136</ele>
        <time>2015-12-28T16:05:26.000Z</time>
      </trkpt>
      <trkpt lat="48.61998" lon="1.90085">
        <ele>136.19999694824</ele>
        <time>2015-12-28T16:05:34.000Z</time>
      </trkpt>
      <trkpt lat="48.61992" lon="1.90072">
        <ele>136.19999694824</ele>
        <time>2015-12-28T16:05:40.000Z</time>
      </trkpt>
      <trkpt lat="48.61989" lon="1.90064">
        <ele>136.60000610352</ele>
        <time>2015-12-28T16:05:44.000Z</time>
      </trkpt>
      <trkpt lat="48.61982" lon="1.90049">
        <ele>136.80000305176</ele>
        <time>2015-12-28T16:05:51.000Z</time>
      </trkpt>
      <trkpt lat="48.61976" lon="1.90037">
        <ele>137</ele>
        <time>2015-12-28T16:05:57.000Z</time>
      </trkpt>
      <trkpt lat="48.61967" lon="1.9002">
        <ele>137.19999694824</ele>
        <time>2015-12-28T16:06:05.000Z</time>
      </trkpt>
      <trkpt lat="48.61965" lon="1.90018">
        <ele>137.19999694824</ele>
        <time>2015-12-28T16:06:07.000Z</time>
      </trkpt>
      <trkpt lat="48.61962" lon="1.90013">
        <ele>137.19999694824</ele>
        <time>2015-12-28T16:06:10.000Z</time>
      </trkpt>
      <trkpt lat="48.61962" lon="1.90008">
        <ele>137.39999389648</ele>
        <time>2015-12-28T16:06:12.000Z</time>
      </trkpt>
      <trkpt lat="48.6196" lon="1.90004">
        <ele>137.60000610352</ele>
        <time>2015-12-28T16:06:16.000Z</time>
      </trkpt>
      <trkpt lat="48.61961" lon="1.90002">
        <ele>137.80000305176</ele>
        <time>2015-12-28T16:06:19.000Z</time>
      </trkpt>
      <trkpt lat="48.61947" lon="1.8998">
        <ele>137.60000610352</ele>
        <time>2015-12-28T16:06:54.000Z</time>
      </trkpt>
      <trkpt lat="48.61944" lon="1.89975">
        <ele>137.39999389648</ele>
        <time>2015-12-28T16:06:57.000Z</time>
      </trkpt>
      <trkpt lat="48.61944" lon="1.89972">
        <ele>137.39999389648</ele>
        <time>2015-12-28T16:06:58.000Z</time>
      </trkpt>
      <trkpt lat="48.61942" lon="1.89968">
        <ele>137.39999389648</ele>
        <time>2015-12-28T16:07:01.000Z</time>
      </trkpt>
      <trkpt lat="48.61942" lon="1.89967">
        <ele>137.60000610352</ele>
        <time>2015-12-28T16:07:03.000Z</time>
      </trkpt>
      <trkpt lat="48.61932" lon="1.89944">
        <ele>137.39999389648</ele>
        <time>2015-12-28T16:07:29.000Z</time>
      </trkpt>
      <trkpt lat="48.61931" lon="1.89943">
        <ele>137.39999389648</ele>
        <time>2015-12-28T16:07:30.000Z</time>
      </trkpt>
      <trkpt lat="48.6193" lon="1.89941">
        <ele>137.39999389648</ele>
        <time>2015-12-28T16:07:31.000Z</time>
      </trkpt>
      <trkpt lat="48.61928" lon="1.89939">
        <ele>137.39999389648</ele>
        <time>2015-12-28T16:07:33.000Z</time>
      </trkpt>
      <trkpt lat="48.61922" lon="1.89936">
        <ele>137.19999694824</ele>
        <time>2015-12-28T16:07:36.000Z</time>
      </trkpt>
      <trkpt lat="48.61922" lon="1.89934">
        <ele>137.19999694824</ele>
        <time>2015-12-28T16:07:37.000Z</time>
      </trkpt>
      <trkpt lat="48.6192" lon="1.8993">
        <ele>137.19999694824</ele>
        <time>2015-12-28T16:07:40.000Z</time>
      </trkpt>
      <trkpt lat="48.61916" lon="1.89921">
        <ele>137.39999389648</ele>
        <time>2015-12-28T16:07:46.000Z</time>
      </trkpt>
      <trkpt lat="48.61913" lon="1.89915">
        <ele>137.39999389648</ele>
        <time>2015-12-28T16:07:51.000Z</time>
      </trkpt>
      <trkpt lat="48.61911" lon="1.89906">
        <ele>137.60000610352</ele>
        <time>2015-12-28T16:07:56.000Z</time>
      </trkpt>
      <trkpt lat="48.61908" lon="1.89899">
        <ele>137.39999389648</ele>
        <time>2015-12-28T16:08:00.000Z</time>
      </trkpt>
      <trkpt lat="48.61908" lon="1.89897">
        <ele>137.39999389648</ele>
        <time>2015-12-28T16:08:02.000Z</time>
      </trkpt>
      <trkpt lat="48.61904" lon="1.8989">
        <ele>137.39999389648</ele>
        <time>2015-12-28T16:08:06.000Z</time>
      </trkpt>
      <trkpt lat="48.61903" lon="1.89888">
        <ele>137.19999694824</ele>
        <time>2015-12-28T16:08:07.000Z</time>
      </trkpt>
      <trkpt lat="48.61899" lon="1.89882">
        <ele>137.19999694824</ele>
        <time>2015-12-28T16:08:12.000Z</time>
      </trkpt>
      <trkpt lat="48.61896" lon="1.89875">
        <ele>137</ele>
        <time>2015-12-28T16:08:16.000Z</time>
      </trkpt>
      <trkpt lat="48.61895" lon="1.8987">
        <ele>137</ele>
        <time>2015-12-28T16:08:18.000Z</time>
      </trkpt>
      <trkpt lat="48.61891" lon="1.8986">
        <ele>136.80000305176</ele>
        <time>2015-12-28T16:08:24.000Z</time>
      </trkpt>
      <trkpt lat="48.61886" lon="1.89849">
        <ele>136.80000305176</ele>
        <time>2015-12-28T16:08:30.000Z</time>
      </trkpt>
      <trkpt lat="48.61881" lon="1.89837">
        <ele>136.60000610352</ele>
        <time>2015-12-28T16:08:36.000Z</time>
      </trkpt>
      <trkpt lat="48.61878" lon="1.89829">
        <ele>136.39999389648</ele>
        <time>2015-12-28T16:08:41.000Z</time>
      </trkpt>
      <trkpt lat="48.61872" lon="1.89816">
        <ele>136.19999694824</ele>
        <time>2015-12-28T16:08:49.000Z</time>
      </trkpt>
      <trkpt lat="48.61866" lon="1.89802">
        <ele>136.19999694824</ele>
        <time>2015-12-28T16:08:56.000Z</time>
      </trkpt>
      <trkpt lat="48.61866" lon="1.898">
        <ele>136.19999694824</ele>
        <time>2015-12-28T16:08:57.000Z</time>
      </trkpt>
      <trkpt lat="48.61863" lon="1.89793">
        <ele>136</ele>
        <time>2015-12-28T16:09:01.000Z</time>
      </trkpt>
      <trkpt lat="48.61862" lon="1.8979">
        <ele>136</ele>
        <time>2015-12-28T16:09:03.000Z</time>
      </trkpt>
      <trkpt lat="48.61862" lon="1.89785">
        <ele>136</ele>
        <time>2015-12-28T16:09:07.000Z</time>
      </trkpt>
      <trkpt lat="48.61861" lon="1.89783">
        <ele>136</ele>
        <time>2015-12-28T16:09:09.000Z</time>
      </trkpt>
      <trkpt lat="48.61859" lon="1.89782">
        <ele>136</ele>
        <time>2015-12-28T16:09:11.000Z</time>
      </trkpt>
      <trkpt lat="48.61858" lon="1.89779">
        <ele>136</ele>
        <time>2015-12-28T16:09:13.000Z</time>
      </trkpt>
      <trkpt lat="48.61858" lon="1.89778">
        <ele>135.80000305176</ele>
        <time>2015-12-28T16:09:14.000Z</time>
      </trkpt>
      <trkpt lat="48.61853" lon="1.89764">
        <ele>135.80000305176</ele>
        <time>2015-12-28T16:09:21.000Z</time>
      </trkpt>
      <trkpt lat="48.61849" lon="1.89755">
        <ele>135.80000305176</ele>
        <time>2015-12-28T16:09:27.000Z</time>
      </trkpt>
      <trkpt lat="48.61846" lon="1.89748">
        <ele>136</ele>
        <time>2015-12-28T16:09:31.000Z</time>
      </trkpt>
      <trkpt lat="48.61845" lon="1.89741">
        <ele>136</ele>
        <time>2015-12-28T16:09:34.000Z</time>
      </trkpt>
      <trkpt lat="48.61844" lon="1.89739">
        <ele>136</ele>
        <time>2015-12-28T16:09:35.000Z</time>
      </trkpt>
      <trkpt lat="48.61843" lon="1.89735">
        <ele>136</ele>
        <time>2015-12-28T16:09:37.000Z</time>
      </trkpt>
      <trkpt lat="48.61841" lon="1.89728">
        <ele>136.19999694824</ele>
        <time>2015-12-28T16:09:41.000Z</time>
      </trkpt>
      <trkpt lat="48.61839" lon="1.89724">
        <ele>136.19999694824</ele>
        <time>2015-12-28T16:09:44.000Z</time>
      </trkpt>
      <trkpt lat="48.61835" lon="1.89715">
        <ele>136.19999694824</ele>
        <time>2015-12-28T16:09:49.000Z</time>
      </trkpt>
      <trkpt lat="48.6183" lon="1.89706">
        <ele>136.39999389648</ele>
        <time>2015-12-28T16:09:54.000Z</time>
      </trkpt>
      <trkpt lat="48.61827" lon="1.897">
        <ele>136.39999389648</ele>
        <time>2015-12-28T16:09:57.000Z</time>
      </trkpt>
      <trkpt lat="48.61826" lon="1.89698">
        <ele>136.60000610352</ele>
        <time>2015-12-28T16:09:58.000Z</time>
      </trkpt>
      <trkpt lat="48.61825" lon="1.89693">
        <ele>136.60000610352</ele>
        <time>2015-12-28T16:10:01.000Z</time>
      </trkpt>
      <trkpt lat="48.61825" lon="1.89686">
        <ele>136.60000610352</ele>
        <time>2015-12-28T16:10:04.000Z</time>
      </trkpt>
      <trkpt lat="48.61825" lon="1.89685">
        <ele>136.60000610352</ele>
        <time>2015-12-28T16:10:05.000Z</time>
      </trkpt>
      <trkpt lat="48.61823" lon="1.89678">
        <ele>136.80000305176</ele>
        <time>2015-12-28T16:10:08.000Z</time>
      </trkpt>
      <trkpt lat="48.6182" lon="1.8967">
        <ele>136.80000305176</ele>
        <time>2015-12-28T16:10:12.000Z</time>
      </trkpt>
      <trkpt lat="48.61821" lon="1.89668">
        <ele>136.80000305176</ele>
        <time>2015-12-28T16:10:13.000Z</time>
      </trkpt>
      <trkpt lat="48.61821" lon="1.89666">
        <ele>136.80000305176</ele>
        <time>2015-12-28T16:10:14.000Z</time>
      </trkpt>
      <trkpt lat="48.61821" lon="1.89658">
        <ele>137</ele>
        <time>2015-12-28T16:10:18.000Z</time>
      </trkpt>
      <trkpt lat="48.6182" lon="1.89651">
        <ele>137</ele>
        <time>2015-12-28T16:10:22.000Z</time>
      </trkpt>
      <trkpt lat="48.61818" lon="1.89641">
        <ele>136.80000305176</ele>
        <time>2015-12-28T16:10:27.000Z</time>
      </trkpt>
      <trkpt lat="48.61814" lon="1.89632">
        <ele>136.80000305176</ele>
        <time>2015-12-28T16:10:32.000Z</time>
      </trkpt>
      <trkpt lat="48.61812" lon="1.89625">
        <ele>136.60000610352</ele>
        <time>2015-12-28T16:10:35.000Z</time>
      </trkpt>
      <trkpt lat="48.61808" lon="1.89616">
        <ele>136.60000610352</ele>
        <time>2015-12-28T16:10:40.000Z</time>
      </trkpt>
      <trkpt lat="48.61807" lon="1.89607">
        <ele>136.60000610352</ele>
        <time>2015-12-28T16:10:44.000Z</time>
      </trkpt>
      <trkpt lat="48.61804" lon="1.89596">
        <ele>136.60000610352</ele>
        <time>2015-12-28T16:10:49.000Z</time>
      </trkpt>
      <trkpt lat="48.618" lon="1.89586">
        <ele>136.60000610352</ele>
        <time>2015-12-28T16:10:54.000Z</time>
      </trkpt>
      <trkpt lat="48.618" lon="1.89583">
        <ele>136.60000610352</ele>
        <time>2015-12-28T16:10:55.000Z</time>
      </trkpt>
      <trkpt lat="48.61796" lon="1.8957">
        <ele>136.60000610352</ele>
        <time>2015-12-28T16:11:01.000Z</time>
      </trkpt>
      <trkpt lat="48.61791" lon="1.89559">
        <ele>136.19999694824</ele>
        <time>2015-12-28T16:11:07.000Z</time>
      </trkpt>
      <trkpt lat="48.61789" lon="1.89552">
        <ele>136</ele>
        <time>2015-12-28T16:11:12.000Z</time>
      </trkpt>
      <trkpt lat="48.61786" lon="1.8954">
        <ele>135.60000610352</ele>
        <time>2015-12-28T16:11:17.000Z</time>
      </trkpt>
      <trkpt lat="48.61785" lon="1.89535">
        <ele>135.39999389648</ele>
        <time>2015-12-28T16:11:19.000Z</time>
      </trkpt>
      <trkpt lat="48.61784" lon="1.8953">
        <ele>135.39999389648</ele>
        <time>2015-12-28T16:11:21.000Z</time>
      </trkpt>
      <trkpt lat="48.61784" lon="1.89529">
        <ele>135.39999389648</ele>
        <time>2015-12-28T16:11:22.000Z</time>
      </trkpt>
      <trkpt lat="48.61783" lon="1.89517">
        <ele>135</ele>
        <time>2015-12-28T16:11:27.000Z</time>
      </trkpt>
      <trkpt lat="48.61782" lon="1.89515">
        <ele>135</ele>
        <time>2015-12-28T16:11:28.000Z</time>
      </trkpt>
      <trkpt lat="48.61781" lon="1.89509">
        <ele>134.80000305176</ele>
        <time>2015-12-28T16:11:31.000Z</time>
      </trkpt>
      <trkpt lat="48.6178" lon="1.89504">
        <ele>134.60000610352</ele>
        <time>2015-12-28T16:11:33.000Z</time>
      </trkpt>
      <trkpt lat="48.61779" lon="1.8949">
        <ele>134.39999389648</ele>
        <time>2015-12-28T16:11:39.000Z</time>
      </trkpt>
      <trkpt lat="48.61778" lon="1.89473">
        <ele>134</ele>
        <time>2015-12-28T16:11:47.000Z</time>
      </trkpt>
      <trkpt lat="48.61778" lon="1.8946">
        <ele>133.60000610352</ele>
        <time>2015-12-28T16:11:53.000Z</time>
      </trkpt>
      <trkpt lat="48.61779" lon="1.89449">
        <ele>133.39999389648</ele>
        <time>2015-12-28T16:11:58.000Z</time>
      </trkpt>
      <trkpt lat="48.61779" lon="1.89447">
        <ele>133.39999389648</ele>
        <time>2015-12-28T16:11:59.000Z</time>
      </trkpt>
      <trkpt lat="48.61782" lon="1.89438">
        <ele>133.19999694824</ele>
        <time>2015-12-28T16:12:04.000Z</time>
      </trkpt>
      <trkpt lat="48.61783" lon="1.89435">
        <ele>133.19999694824</ele>
        <time>2015-12-28T16:12:06.000Z</time>
      </trkpt>
      <trkpt lat="48.61782" lon="1.89433">
        <ele>133.19999694824</ele>
        <time>2015-12-28T16:12:07.000Z</time>
      </trkpt>
      <trkpt lat="48.61782" lon="1.89423">
        <ele>132.80000305176</ele>
        <time>2015-12-28T16:12:11.000Z</time>
      </trkpt>
      <trkpt lat="48.61781" lon="1.89421">
        <ele>132.80000305176</ele>
        <time>2015-12-28T16:12:12.000Z</time>
      </trkpt>
      <trkpt lat="48.61781" lon="1.89412">
        <ele>133</ele>
        <time>2015-12-28T16:12:16.000Z</time>
      </trkpt>
      <trkpt lat="48.61781" lon="1.89402">
        <ele>133</ele>
        <time>2015-12-28T16:12:21.000Z</time>
      </trkpt>
      <trkpt lat="48.61779" lon="1.89387">
        <ele>133</ele>
        <time>2015-12-28T16:12:28.000Z</time>
      </trkpt>
      <trkpt lat="48.61778" lon="1.89378">
        <ele>133.19999694824</ele>
        <time>2015-12-28T16:12:32.000Z</time>
      </trkpt>
      <trkpt lat="48.61777" lon="1.89372">
        <ele>133.19999694824</ele>
        <time>2015-12-28T16:12:35.000Z</time>
      </trkpt>
      <trkpt lat="48.61777" lon="1.8937">
        <ele>133.19999694824</ele>
        <time>2015-12-28T16:12:36.000Z</time>
      </trkpt>
      <trkpt lat="48.61777" lon="1.89363">
        <ele>133.19999694824</ele>
        <time>2015-12-28T16:12:40.000Z</time>
      </trkpt>
      <trkpt lat="48.61777" lon="1.89356">
        <ele>133.39999389648</ele>
        <time>2015-12-28T16:12:43.000Z</time>
      </trkpt>
      <trkpt lat="48.61778" lon="1.89351">
        <ele>133.39999389648</ele>
        <time>2015-12-28T16:12:45.000Z</time>
      </trkpt>
      <trkpt lat="48.61778" lon="1.89351">
        <ele>133.39999389648</ele>
        <time>2015-12-28T16:12:46.000Z</time>
      </trkpt>
      <trkpt lat="48.61778" lon="1.89344">
        <ele>133.39999389648</ele>
        <time>2015-12-28T16:12:49.000Z</time>
      </trkpt>
      <trkpt lat="48.61778" lon="1.89342">
        <ele>133.60000610352</ele>
        <time>2015-12-28T16:12:50.000Z</time>
      </trkpt>
      <trkpt lat="48.61778" lon="1.89333">
        <ele>133.60000610352</ele>
        <time>2015-12-28T16:12:56.000Z</time>
      </trkpt>
      <trkpt lat="48.61777" lon="1.89324">
        <ele>133.60000610352</ele>
        <time>2015-12-28T16:13:00.000Z</time>
      </trkpt>
      <trkpt lat="48.61776" lon="1.89316">
        <ele>133.60000610352</ele>
        <time>2015-12-28T16:13:04.000Z</time>
      </trkpt>
      <trkpt lat="48.61776" lon="1.89313">
        <ele>133.60000610352</ele>
        <time>2015-12-28T16:13:06.000Z</time>
      </trkpt>
      <trkpt lat="48.61775" lon="1.89302">
        <ele>133.39999389648</ele>
        <time>2015-12-28T16:13:12.000Z</time>
      </trkpt>
      <trkpt lat="48.61775" lon="1.893">
        <ele>133.60000610352</ele>
        <time>2015-12-28T16:13:13.000Z</time>
      </trkpt>
      <trkpt lat="48.61773" lon="1.89287">
        <ele>133.39999389648</ele>
        <time>2015-12-28T16:13:19.000Z</time>
      </trkpt>
      <trkpt lat="48.61773" lon="1.89286">
        <ele>133.39999389648</ele>
        <time>2015-12-28T16:13:20.000Z</time>
      </trkpt>
      <trkpt lat="48.61772" lon="1.8928">
        <ele>133.19999694824</ele>
        <time>2015-12-28T16:13:23.000Z</time>
      </trkpt>
      <trkpt lat="48.61773" lon="1.89275">
        <ele>133.39999389648</ele>
        <time>2015-12-28T16:13:25.000Z</time>
      </trkpt>
      <trkpt lat="48.61773" lon="1.89264">
        <ele>133.39999389648</ele>
        <time>2015-12-28T16:13:30.000Z</time>
      </trkpt>
      <trkpt lat="48.61774" lon="1.89255">
        <ele>133.39999389648</ele>
        <time>2015-12-28T16:13:34.000Z</time>
      </trkpt>
      <trkpt lat="48.61774" lon="1.89253">
        <ele>133.39999389648</ele>
        <time>2015-12-28T16:13:35.000Z</time>
      </trkpt>
      <trkpt lat="48.61778" lon="1.89239">
        <ele>133.60000610352</ele>
        <time>2015-12-28T16:13:41.000Z</time>
      </trkpt>
      <trkpt lat="48.61781" lon="1.8923">
        <ele>133.60000610352</ele>
        <time>2015-12-28T16:13:46.000Z</time>
      </trkpt>
      <trkpt lat="48.61782" lon="1.89227">
        <ele>133.60000610352</ele>
        <time>2015-12-28T16:13:48.000Z</time>
      </trkpt>
      <trkpt lat="48.61787" lon="1.89216">
        <ele>133.80000305176</ele>
        <time>2015-12-28T16:13:54.000Z</time>
      </trkpt>
      <trkpt lat="48.61787" lon="1.89215">
        <ele>133.80000305176</ele>
        <time>2015-12-28T16:13:55.000Z</time>
      </trkpt>
      <trkpt lat="48.61792" lon="1.89208">
        <ele>133.80000305176</ele>
        <time>2015-12-28T16:13:59.000Z</time>
      </trkpt>
      <trkpt lat="48.61792" lon="1.89206">
        <ele>133.80000305176</ele>
        <time>2015-12-28T16:14:00.000Z</time>
      </trkpt>
      <trkpt lat="48.61796" lon="1.89199">
        <ele>134</ele>
        <time>2015-12-28T16:14:04.000Z</time>
      </trkpt>
      <trkpt lat="48.61797" lon="1.89196">
        <ele>134</ele>
        <time>2015-12-28T16:14:06.000Z</time>
      </trkpt>
      <trkpt lat="48.61801" lon="1.89186">
        <ele>134</ele>
        <time>2015-12-28T16:14:11.000Z</time>
      </trkpt>
      <trkpt lat="48.61803" lon="1.89184">
        <ele>134.19999694824</ele>
        <time>2015-12-28T16:14:12.000Z</time>
      </trkpt>
      <trkpt lat="48.61805" lon="1.89179">
        <ele>134.19999694824</ele>
        <time>2015-12-28T16:14:15.000Z</time>
      </trkpt>
      <trkpt lat="48.61811" lon="1.89164">
        <ele>134.19999694824</ele>
        <time>2015-12-28T16:14:22.000Z</time>
      </trkpt>
      <trkpt lat="48.61811" lon="1.89163">
        <ele>134.19999694824</ele>
        <time>2015-12-28T16:14:23.000Z</time>
      </trkpt>
      <trkpt lat="48.61813" lon="1.8916">
        <ele>134.19999694824</ele>
        <time>2015-12-28T16:14:25.000Z</time>
      </trkpt>
      <trkpt lat="48.61814" lon="1.89158">
        <ele>134.19999694824</ele>
        <time>2015-12-28T16:14:26.000Z</time>
      </trkpt>
      <trkpt lat="48.61818" lon="1.89151">
        <ele>134.60000610352</ele>
        <time>2015-12-28T16:14:31.000Z</time>
      </trkpt>
      <trkpt lat="48.61822" lon="1.89141">
        <ele>135</ele>
        <time>2015-12-28T16:14:37.000Z</time>
      </trkpt>
      <trkpt lat="48.61828" lon="1.8913">
        <ele>135.60000610352</ele>
        <time>2015-12-28T16:14:43.000Z</time>
      </trkpt>
      <trkpt lat="48.61833" lon="1.89121">
        <ele>135.60000610352</ele>
        <time>2015-12-28T16:14:49.000Z</time>
      </trkpt>
      <trkpt lat="48.61836" lon="1.89118">
        <ele>135.80000305176</ele>
        <time>2015-12-28T16:14:52.000Z</time>
      </trkpt>
      <trkpt lat="48.61837" lon="1.89113">
        <ele>135.80000305176</ele>
        <time>2015-12-28T16:14:55.000Z</time>
      </trkpt>
      <trkpt lat="48.61838" lon="1.89109">
        <ele>135.80000305176</ele>
        <time>2015-12-28T16:14:57.000Z</time>
      </trkpt>
      <trkpt lat="48.6184" lon="1.89106">
        <ele>135.80000305176</ele>
        <time>2015-12-28T16:14:59.000Z</time>
      </trkpt>
      <trkpt lat="48.61843" lon="1.89094">
        <ele>135.80000305176</ele>
        <time>2015-12-28T16:15:04.000Z</time>
      </trkpt>
      <trkpt lat="48.61844" lon="1.89092">
        <ele>135.80000305176</ele>
        <time>2015-12-28T16:15:05.000Z</time>
      </trkpt>
      <trkpt lat="48.61845" lon="1.89091">
        <ele>135.80000305176</ele>
        <time>2015-12-28T16:15:06.000Z</time>
      </trkpt>
      <trkpt lat="48.6185" lon="1.89083">
        <ele>136</ele>
        <time>2015-12-28T16:15:11.000Z</time>
      </trkpt>
      <trkpt lat="48.61853" lon="1.89072">
        <ele>136.19999694824</ele>
        <time>2015-12-28T16:15:16.000Z</time>
      </trkpt>
      <trkpt lat="48.61856" lon="1.89057">
        <ele>137.39999389648</ele>
        <time>2015-12-28T16:15:23.000Z</time>
      </trkpt>
      <trkpt lat="48.61856" lon="1.89055">
        <ele>137.60000610352</ele>
        <time>2015-12-28T16:15:24.000Z</time>
      </trkpt>
      <trkpt lat="48.6186" lon="1.89039">
        <ele>139</ele>
        <time>2015-12-28T16:15:32.000Z</time>
      </trkpt>
      <trkpt lat="48.61863" lon="1.8903">
        <ele>139.80000305176</ele>
        <time>2015-12-28T16:15:37.000Z</time>
      </trkpt>
      <trkpt lat="48.61864" lon="1.89029">
        <ele>140</ele>
        <time>2015-12-28T16:15:38.000Z</time>
      </trkpt>
      <trkpt lat="48.61866" lon="1.89019">
        <ele>140.80000305176</ele>
        <time>2015-12-28T16:15:43.000Z</time>
      </trkpt>
      <trkpt lat="48.61868" lon="1.8901">
        <ele>141.60000610352</ele>
        <time>2015-12-28T16:15:48.000Z</time>
      </trkpt>
      <trkpt lat="48.61871" lon="1.88999">
        <ele>141.60000610352</ele>
        <time>2015-12-28T16:15:54.000Z</time>
      </trkpt>
      <trkpt lat="48.61872" lon="1.88995">
        <ele>141.39999389648</ele>
        <time>2015-12-28T16:15:57.000Z</time>
      </trkpt>
      <trkpt lat="48.61873" lon="1.88992">
        <ele>141.39999389648</ele>
        <time>2015-12-28T16:15:59.000Z</time>
      </trkpt>
      <trkpt lat="48.61877" lon="1.88986">
        <ele>141.60000610352</ele>
        <time>2015-12-28T16:16:03.000Z</time>
      </trkpt>
      <trkpt lat="48.61879" lon="1.88983">
        <ele>142</ele>
        <time>2015-12-28T16:16:05.000Z</time>
      </trkpt>
      <trkpt lat="48.6188" lon="1.88981">
        <ele>142.19999694824</ele>
        <time>2015-12-28T16:16:07.000Z</time>
      </trkpt>
      <trkpt lat="48.61881" lon="1.88976">
        <ele>142.39999389648</ele>
        <time>2015-12-28T16:16:11.000Z</time>
      </trkpt>
      <trkpt lat="48.61883" lon="1.88966">
        <ele>143</ele>
        <time>2015-12-28T16:16:16.000Z</time>
      </trkpt>
      <trkpt lat="48.61885" lon="1.88956">
        <ele>143.60000610352</ele>
        <time>2015-12-28T16:16:21.000Z</time>
      </trkpt>
      <trkpt lat="48.61889" lon="1.88948">
        <ele>144.19999694824</ele>
        <time>2015-12-28T16:16:26.000Z</time>
      </trkpt>
      <trkpt lat="48.6189" lon="1.88946">
        <ele>144.39999389648</ele>
        <time>2015-12-28T16:16:27.000Z</time>
      </trkpt>
      <trkpt lat="48.61892" lon="1.88941">
        <ele>144.39999389648</ele>
        <time>2015-12-28T16:16:30.000Z</time>
      </trkpt>
      <trkpt lat="48.61895" lon="1.88934">
        <ele>144.19999694824</ele>
        <time>2015-12-28T16:16:34.000Z</time>
      </trkpt>
      <trkpt lat="48.61897" lon="1.88928">
        <ele>144</ele>
        <time>2015-12-28T16:16:37.000Z</time>
      </trkpt>
      <trkpt lat="48.61898" lon="1.88925">
        <ele>143.80000305176</ele>
        <time>2015-12-28T16:16:39.000Z</time>
      </trkpt>
      <trkpt lat="48.61899" lon="1.88922">
        <ele>143.80000305176</ele>
        <time>2015-12-28T16:16:40.000Z</time>
      </trkpt>
      <trkpt lat="48.61899" lon="1.88917">
        <ele>143.60000610352</ele>
        <time>2015-12-28T16:16:43.000Z</time>
      </trkpt>
      <trkpt lat="48.619" lon="1.88914">
        <ele>143.60000610352</ele>
        <time>2015-12-28T16:16:45.000Z</time>
      </trkpt>
      <trkpt lat="48.61902" lon="1.88908">
        <ele>143.39999389648</ele>
        <time>2015-12-28T16:16:49.000Z</time>
      </trkpt>
      <trkpt lat="48.61906" lon="1.88896">
        <ele>143.19999694824</ele>
        <time>2015-12-28T16:16:55.000Z</time>
      </trkpt>
      <trkpt lat="48.61908" lon="1.88888">
        <ele>143</ele>
        <time>2015-12-28T16:16:59.000Z</time>
      </trkpt>
      <trkpt lat="48.6191" lon="1.88884">
        <ele>143</ele>
        <time>2015-12-28T16:17:01.000Z</time>
      </trkpt>
      <trkpt lat="48.6191" lon="1.88882">
        <ele>143</ele>
        <time>2015-12-28T16:17:02.000Z</time>
      </trkpt>
      <trkpt lat="48.61912" lon="1.88876">
        <ele>143</ele>
        <time>2015-12-28T16:17:05.000Z</time>
      </trkpt>
      <trkpt lat="48.61913" lon="1.88871">
        <ele>142.80000305176</ele>
        <time>2015-12-28T16:17:08.000Z</time>
      </trkpt>
      <trkpt lat="48.61913" lon="1.88869">
        <ele>142.80000305176</ele>
        <time>2015-12-28T16:17:10.000Z</time>
      </trkpt>
      <trkpt lat="48.61916" lon="1.88861">
        <ele>142.60000610352</ele>
        <time>2015-12-28T16:17:14.000Z</time>
      </trkpt>
      <trkpt lat="48.61918" lon="1.88848">
        <ele>142.60000610352</ele>
        <time>2015-12-28T16:17:20.000Z</time>
      </trkpt>
      <trkpt lat="48.61921" lon="1.88838">
        <ele>142.39999389648</ele>
        <time>2015-12-28T16:17:25.000Z</time>
      </trkpt>
      <trkpt lat="48.61924" lon="1.88824">
        <ele>142.19999694824</ele>
        <time>2015-12-28T16:17:32.000Z</time>
      </trkpt>
      <trkpt lat="48.61925" lon="1.8882">
        <ele>142.19999694824</ele>
        <time>2015-12-28T16:17:34.000Z</time>
      </trkpt>
      <trkpt lat="48.61926" lon="1.88814">
        <ele>142.19999694824</ele>
        <time>2015-12-28T16:17:37.000Z</time>
      </trkpt>
      <trkpt lat="48.61929" lon="1.88801">
        <ele>142</ele>
        <time>2015-12-28T16:17:43.000Z</time>
      </trkpt>
      <trkpt lat="48.61932" lon="1.88785">
        <ele>142</ele>
        <time>2015-12-28T16:17:50.000Z</time>
      </trkpt>
      <trkpt lat="48.61935" lon="1.88778">
        <ele>142</ele>
        <time>2015-12-28T16:17:55.000Z</time>
      </trkpt>
      <trkpt lat="48.61936" lon="1.88776">
        <ele>142</ele>
        <time>2015-12-28T16:17:56.000Z</time>
      </trkpt>
      <trkpt lat="48.61938" lon="1.8877">
        <ele>142.19999694824</ele>
        <time>2015-12-28T16:17:59.000Z</time>
      </trkpt>
      <trkpt lat="48.61939" lon="1.88767">
        <ele>142.19999694824</ele>
        <time>2015-12-28T16:18:01.000Z</time>
      </trkpt>
      <trkpt lat="48.61942" lon="1.88754">
        <ele>142.39999389648</ele>
        <time>2015-12-28T16:18:07.000Z</time>
      </trkpt>
      <trkpt lat="48.61944" lon="1.88746">
        <ele>142.39999389648</ele>
        <time>2015-12-28T16:18:11.000Z</time>
      </trkpt>
      <trkpt lat="48.61945" lon="1.88744">
        <ele>142.39999389648</ele>
        <time>2015-12-28T16:18:12.000Z</time>
      </trkpt>
      <trkpt lat="48.61948" lon="1.8873">
        <ele>142.80000305176</ele>
        <time>2015-12-28T16:18:19.000Z</time>
      </trkpt>
      <trkpt lat="48.61951" lon="1.88722">
        <ele>143.19999694824</ele>
        <time>2015-12-28T16:18:24.000Z</time>
      </trkpt>
      <trkpt lat="48.61952" lon="1.88718">
        <ele>143.39999389648</ele>
        <time>2015-12-28T16:18:26.000Z</time>
      </trkpt>
      <trkpt lat="48.61953" lon="1.88711">
        <ele>143.60000610352</ele>
        <time>2015-12-28T16:18:29.000Z</time>
      </trkpt>
      <trkpt lat="48.61955" lon="1.887">
        <ele>144.19999694824</ele>
        <time>2015-12-28T16:18:35.000Z</time>
      </trkpt>
      <trkpt lat="48.61958" lon="1.88688">
        <ele>144.60000610352</ele>
        <time>2015-12-28T16:18:42.000Z</time>
      </trkpt>
      <trkpt lat="48.61961" lon="1.88679">
        <ele>145</ele>
        <time>2015-12-28T16:18:48.000Z</time>
      </trkpt>
      <trkpt lat="48.61961" lon="1.88677">
        <ele>145</ele>
        <time>2015-12-28T16:18:49.000Z</time>
      </trkpt>
      <trkpt lat="48.61964" lon="1.88672">
        <ele>145</ele>
        <time>2015-12-28T16:18:52.000Z</time>
      </trkpt>
      <trkpt lat="48.61966" lon="1.88666">
        <ele>145</ele>
        <time>2015-12-28T16:18:56.000Z</time>
      </trkpt>
      <trkpt lat="48.61971" lon="1.88652">
        <ele>145.19999694824</ele>
        <time>2015-12-28T16:19:05.000Z</time>
      </trkpt>
      <trkpt lat="48.61974" lon="1.88643">
        <ele>145.39999389648</ele>
        <time>2015-12-28T16:19:10.000Z</time>
      </trkpt>
      <trkpt lat="48.61975" lon="1.88641">
        <ele>145.39999389648</ele>
        <time>2015-12-28T16:19:11.000Z</time>
      </trkpt>
      <trkpt lat="48.61976" lon="1.88632">
        <ele>145.60000610352</ele>
        <time>2015-12-28T16:19:16.000Z</time>
      </trkpt>
      <trkpt lat="48.61979" lon="1.88624">
        <ele>145.80000305176</ele>
        <time>2015-12-28T16:19:21.000Z</time>
      </trkpt>
      <trkpt lat="48.61979" lon="1.88622">
        <ele>145.80000305176</ele>
        <time>2015-12-28T16:19:22.000Z</time>
      </trkpt>
      <trkpt lat="48.61979" lon="1.88618">
        <ele>146</ele>
        <time>2015-12-28T16:19:24.000Z</time>
      </trkpt>
      <trkpt lat="48.61978" lon="1.88612">
        <ele>146</ele>
        <time>2015-12-28T16:19:27.000Z</time>
      </trkpt>
      <trkpt lat="48.61977" lon="1.88604">
        <ele>146.39999389648</ele>
        <time>2015-12-28T16:19:32.000Z</time>
      </trkpt>
      <trkpt lat="48.61978" lon="1.88594">
        <ele>146.80000305176</ele>
        <time>2015-12-28T16:19:37.000Z</time>
      </trkpt>
      <trkpt lat="48.61978" lon="1.88593">
        <ele>146.80000305176</ele>
        <time>2015-12-28T16:19:38.000Z</time>
      </trkpt>
      <trkpt lat="48.61977" lon="1.88581">
        <ele>147.19999694824</ele>
        <time>2015-12-28T16:19:45.000Z</time>
      </trkpt>
      <trkpt lat="48.61977" lon="1.88567">
        <ele>147.39999389648</ele>
        <time>2015-12-28T16:19:52.000Z</time>
      </trkpt>
      <trkpt lat="48.61978" lon="1.88558">
        <ele>147.39999389648</ele>
        <time>2015-12-28T16:19:57.000Z</time>
      </trkpt>
      <trkpt lat="48.61977" lon="1.88552">
        <ele>147.19999694824</ele>
        <time>2015-12-28T16:20:00.000Z</time>
      </trkpt>
      <trkpt lat="48.61977" lon="1.8855">
        <ele>147.19999694824</ele>
        <time>2015-12-28T16:20:01.000Z</time>
      </trkpt>
      <trkpt lat="48.61978" lon="1.88544">
        <ele>147.19999694824</ele>
        <time>2015-12-28T16:20:04.000Z</time>
      </trkpt>
      <trkpt lat="48.61978" lon="1.88541">
        <ele>147.19999694824</ele>
        <time>2015-12-28T16:20:05.000Z</time>
      </trkpt>
      <trkpt lat="48.61977" lon="1.88533">
        <ele>147</ele>
        <time>2015-12-28T16:20:10.000Z</time>
      </trkpt>
      <trkpt lat="48.61977" lon="1.88526">
        <ele>147</ele>
        <time>2015-12-28T16:20:14.000Z</time>
      </trkpt>
      <trkpt lat="48.61977" lon="1.88524">
        <ele>147</ele>
        <time>2015-12-28T16:20:15.000Z</time>
      </trkpt>
      <trkpt lat="48.61977" lon="1.88516">
        <ele>147</ele>
        <time>2015-12-28T16:20:19.000Z</time>
      </trkpt>
      <trkpt lat="48.61977" lon="1.88515">
        <ele>147</ele>
        <time>2015-12-28T16:20:20.000Z</time>
      </trkpt>
      <trkpt lat="48.61977" lon="1.88507">
        <ele>147</ele>
        <time>2015-12-28T16:20:23.000Z</time>
      </trkpt>
      <trkpt lat="48.61977" lon="1.88503">
        <ele>147</ele>
        <time>2015-12-28T16:20:25.000Z</time>
      </trkpt>
      <trkpt lat="48.61976" lon="1.88497">
        <ele>147</ele>
        <time>2015-12-28T16:20:28.000Z</time>
      </trkpt>
      <trkpt lat="48.61977" lon="1.88495">
        <ele>147</ele>
        <time>2015-12-28T16:20:29.000Z</time>
      </trkpt>
      <trkpt lat="48.61977" lon="1.8848">
        <ele>146.60000610352</ele>
        <time>2015-12-28T16:20:37.000Z</time>
      </trkpt>
      <trkpt lat="48.61977" lon="1.88469">
        <ele>146.19999694824</ele>
        <time>2015-12-28T16:20:42.000Z</time>
      </trkpt>
      <trkpt lat="48.61976" lon="1.88456">
        <ele>145.80000305176</ele>
        <time>2015-12-28T16:20:48.000Z</time>
      </trkpt>
      <trkpt lat="48.61976" lon="1.88454">
        <ele>145.80000305176</ele>
        <time>2015-12-28T16:20:49.000Z</time>
      </trkpt>
      <trkpt lat="48.61976" lon="1.88445">
        <ele>145.39999389648</ele>
        <time>2015-12-28T16:20:53.000Z</time>
      </trkpt>
      <trkpt lat="48.61976" lon="1.88439">
        <ele>145.39999389648</ele>
        <time>2015-12-28T16:20:56.000Z</time>
      </trkpt>
      <trkpt lat="48.61975" lon="1.88422">
        <ele>145</ele>
        <time>2015-12-28T16:21:04.000Z</time>
      </trkpt>
      <trkpt lat="48.61973" lon="1.88412">
        <ele>144.80000305176</ele>
        <time>2015-12-28T16:21:09.000Z</time>
      </trkpt>
      <trkpt lat="48.61974" lon="1.88401">
        <ele>145</ele>
        <time>2015-12-28T16:21:15.000Z</time>
      </trkpt>
      <trkpt lat="48.61974" lon="1.88392">
        <ele>145.19999694824</ele>
        <time>2015-12-28T16:21:19.000Z</time>
      </trkpt>
      <trkpt lat="48.61974" lon="1.88388">
        <ele>145.39999389648</ele>
        <time>2015-12-28T16:21:21.000Z</time>
      </trkpt>
      <trkpt lat="48.61976" lon="1.88379">
        <ele>145.60000610352</ele>
        <time>2015-12-28T16:21:25.000Z</time>
      </trkpt>
      <trkpt lat="48.61978" lon="1.8837">
        <ele>146</ele>
        <time>2015-12-28T16:21:29.000Z</time>
      </trkpt>
      <trkpt lat="48.61978" lon="1.88367">
        <ele>146</ele>
        <time>2015-12-28T16:21:30.000Z</time>
      </trkpt>
      <trkpt lat="48.61977" lon="1.88359">
        <ele>146</ele>
        <time>2015-12-28T16:21:34.000Z</time>
      </trkpt>
      <trkpt lat="48.61977" lon="1.88355">
        <ele>146</ele>
        <time>2015-12-28T16:21:36.000Z</time>
      </trkpt>
      <trkpt lat="48.61976" lon="1.88347">
        <ele>146</ele>
        <time>2015-12-28T16:21:40.000Z</time>
      </trkpt>
      <trkpt lat="48.61976" lon="1.88345">
        <ele>146</ele>
        <time>2015-12-28T16:21:41.000Z</time>
      </trkpt>
      <trkpt lat="48.61976" lon="1.88332">
        <ele>146</ele>
        <time>2015-12-28T16:21:47.000Z</time>
      </trkpt>
      <trkpt lat="48.61976" lon="1.8833">
        <ele>146</ele>
        <time>2015-12-28T16:21:48.000Z</time>
      </trkpt>
      <trkpt lat="48.61976" lon="1.88322">
        <ele>146</ele>
        <time>2015-12-28T16:21:52.000Z</time>
      </trkpt>
      <trkpt lat="48.61976" lon="1.88313">
        <ele>146.39999389648</ele>
        <time>2015-12-28T16:21:56.000Z</time>
      </trkpt>
      <trkpt lat="48.61975" lon="1.88304">
        <ele>146.60000610352</ele>
        <time>2015-12-28T16:22:00.000Z</time>
      </trkpt>
      <trkpt lat="48.61977" lon="1.88297">
        <ele>147</ele>
        <time>2015-12-28T16:22:04.000Z</time>
      </trkpt>
      <trkpt lat="48.61977" lon="1.88291">
        <ele>147.19999694824</ele>
        <time>2015-12-28T16:22:07.000Z</time>
      </trkpt>
      <trkpt lat="48.61977" lon="1.88287">
        <ele>147.19999694824</ele>
        <time>2015-12-28T16:22:09.000Z</time>
      </trkpt>
      <trkpt lat="48.61976" lon="1.88273">
        <ele>147.80000305176</ele>
        <time>2015-12-28T16:22:15.000Z</time>
      </trkpt>
      <trkpt lat="48.61977" lon="1.88262">
        <ele>148.19999694824</ele>
        <time>2015-12-28T16:22:20.000Z</time>
      </trkpt>
      <trkpt lat="48.61978" lon="1.88249">
        <ele>148.60000610352</ele>
        <time>2015-12-28T16:22:26.000Z</time>
      </trkpt>
      <trkpt lat="48.61978" lon="1.88244">
        <ele>148.80000305176</ele>
        <time>2015-12-28T16:22:28.000Z</time>
      </trkpt>
      <trkpt lat="48.61977" lon="1.88237">
        <ele>148.80000305176</ele>
        <time>2015-12-28T16:22:31.000Z</time>
      </trkpt>
      <trkpt lat="48.61977" lon="1.88235">
        <ele>148.80000305176</ele>
        <time>2015-12-28T16:22:32.000Z</time>
      </trkpt>
      <trkpt lat="48.61977" lon="1.88227">
        <ele>148.60000610352</ele>
        <time>2015-12-28T16:22:36.000Z</time>
      </trkpt>
      <trkpt lat="48.61977" lon="1.88225">
        <ele>148.39999389648</ele>
        <time>2015-12-28T16:22:37.000Z</time>
      </trkpt>
      <trkpt lat="48.61978" lon="1.88214">
        <ele>148.19999694824</ele>
        <time>2015-12-28T16:22:43.000Z</time>
      </trkpt>
      <trkpt lat="48.61979" lon="1.88213">
        <ele>148</ele>
        <time>2015-12-28T16:22:44.000Z</time>
      </trkpt>
      <trkpt lat="48.61978" lon="1.88206">
        <ele>147.80000305176</ele>
        <time>2015-12-28T16:22:47.000Z</time>
      </trkpt>
      <trkpt lat="48.61979" lon="1.88191">
        <ele>147.60000610352</ele>
        <time>2015-12-28T16:22:54.000Z</time>
      </trkpt>
      <trkpt lat="48.61979" lon="1.88189">
        <ele>147.60000610352</ele>
        <time>2015-12-28T16:22:55.000Z</time>
      </trkpt>
      <trkpt lat="48.61979" lon="1.88185">
        <ele>147.60000610352</ele>
        <time>2015-12-28T16:22:57.000Z</time>
      </trkpt>
      <trkpt lat="48.61979" lon="1.88182">
        <ele>147.60000610352</ele>
        <time>2015-12-28T16:22:59.000Z</time>
      </trkpt>
      <trkpt lat="48.61979" lon="1.88175">
        <ele>147.60000610352</ele>
        <time>2015-12-28T16:23:03.000Z</time>
      </trkpt>
      <trkpt lat="48.61979" lon="1.88175">
        <ele>147.60000610352</ele>
        <time>2015-12-28T16:23:04.000Z</time>
      </trkpt>
      <trkpt lat="48.61979" lon="1.88175">
        <ele>147.60000610352</ele>
        <time>2015-12-28T16:23:05.000Z</time>
      </trkpt>
      <trkpt lat="48.61978" lon="1.88165">
        <ele>147.60000610352</ele>
        <time>2015-12-28T16:23:11.000Z</time>
      </trkpt>
      <trkpt lat="48.61978" lon="1.88163">
        <ele>147.60000610352</ele>
        <time>2015-12-28T16:23:13.000Z</time>
      </trkpt>
      <trkpt lat="48.61979" lon="1.88151">
        <ele>147.80000305176</ele>
        <time>2015-12-28T16:23:19.000Z</time>
      </trkpt>
      <trkpt lat="48.6198" lon="1.88146">
        <ele>147.80000305176</ele>
        <time>2015-12-28T16:23:21.000Z</time>
      </trkpt>
      <trkpt lat="48.6198" lon="1.88144">
        <ele>147.80000305176</ele>
        <time>2015-12-28T16:23:22.000Z</time>
      </trkpt>
      <trkpt lat="48.61978" lon="1.88128">
        <ele>148</ele>
        <time>2015-12-28T16:23:29.000Z</time>
      </trkpt>
      <trkpt lat="48.61977" lon="1.88117">
        <ele>148</ele>
        <time>2015-12-28T16:23:35.000Z</time>
      </trkpt>
      <trkpt lat="48.61977" lon="1.88114">
        <ele>148</ele>
        <time>2015-12-28T16:23:37.000Z</time>
      </trkpt>
      <trkpt lat="48.61976" lon="1.88111">
        <ele>148</ele>
        <time>2015-12-28T16:23:40.000Z</time>
      </trkpt>
      <trkpt lat="48.61976" lon="1.88111">
        <ele>148</ele>
        <time>2015-12-28T16:23:41.000Z</time>
      </trkpt>
      <trkpt lat="48.61974" lon="1.88106">
        <ele>148</ele>
        <time>2015-12-28T16:23:44.000Z</time>
      </trkpt>
      <trkpt lat="48.6197" lon="1.88098">
        <ele>147.80000305176</ele>
        <time>2015-12-28T16:23:47.000Z</time>
      </trkpt>
      <trkpt lat="48.61966" lon="1.8809">
        <ele>147.60000610352</ele>
        <time>2015-12-28T16:23:53.000Z</time>
      </trkpt>
      <trkpt lat="48.6196" lon="1.88078">
        <ele>147.39999389648</ele>
        <time>2015-12-28T16:24:01.000Z</time>
      </trkpt>
      <trkpt lat="48.61953" lon="1.88068">
        <ele>147.19999694824</ele>
        <time>2015-12-28T16:24:09.000Z</time>
      </trkpt>
      <trkpt lat="48.61948" lon="1.88061">
        <ele>147</ele>
        <time>2015-12-28T16:24:14.000Z</time>
      </trkpt>
      <trkpt lat="48.61947" lon="1.88058">
        <ele>146.80000305176</ele>
        <time>2015-12-28T16:24:16.000Z</time>
      </trkpt>
      <trkpt lat="48.6194" lon="1.88052">
        <ele>146.60000610352</ele>
        <time>2015-12-28T16:24:22.000Z</time>
      </trkpt>
      <trkpt lat="48.61932" lon="1.88043">
        <ele>146.60000610352</ele>
        <time>2015-12-28T16:24:30.000Z</time>
      </trkpt>
      <trkpt lat="48.61929" lon="1.88039">
        <ele>147</ele>
        <time>2015-12-28T16:24:34.000Z</time>
      </trkpt>
      <trkpt lat="48.61926" lon="1.88035">
        <ele>147.19999694824</ele>
        <time>2015-12-28T16:24:37.000Z</time>
      </trkpt>
      <trkpt lat="48.61921" lon="1.8803">
        <ele>147.60000610352</ele>
        <time>2015-12-28T16:24:42.000Z</time>
      </trkpt>
      <trkpt lat="48.6192" lon="1.88029">
        <ele>147.60000610352</ele>
        <time>2015-12-28T16:24:43.000Z</time>
      </trkpt>
      <trkpt lat="48.61914" lon="1.88023">
        <ele>148.19999694824</ele>
        <time>2015-12-28T16:24:49.000Z</time>
      </trkpt>
      <trkpt lat="48.61912" lon="1.88021">
        <ele>148.39999389648</ele>
        <time>2015-12-28T16:24:51.000Z</time>
      </trkpt>
      <trkpt lat="48.6191" lon="1.88019">
        <ele>148.39999389648</ele>
        <time>2015-12-28T16:24:53.000Z</time>
      </trkpt>
      <trkpt lat="48.61905" lon="1.88013">
        <ele>148.80000305176</ele>
        <time>2015-12-28T16:24:58.000Z</time>
      </trkpt>
      <trkpt lat="48.61898" lon="1.88006">
        <ele>149.39999389648</ele>
        <time>2015-12-28T16:25:05.000Z</time>
      </trkpt>
      <trkpt lat="48.61894" lon="1.88001">
        <ele>149.80000305176</ele>
        <time>2015-12-28T16:25:10.000Z</time>
      </trkpt>
      <trkpt lat="48.6189" lon="1.87997">
        <ele>150.19999694824</ele>
        <time>2015-12-28T16:25:14.000Z</time>
      </trkpt>
      <trkpt lat="48.61889" lon="1.87996">
        <ele>150.19999694824</ele>
        <time>2015-12-28T16:25:15.000Z</time>
      </trkpt>
      <trkpt lat="48.61882" lon="1.87988">
        <ele>150.80000305176</ele>
        <time>2015-12-28T16:25:21.000Z</time>
      </trkpt>
      <trkpt lat="48.61869" lon="1.87972">
        <ele>152.60000610352</ele>
        <time>2015-12-28T16:25:34.000Z</time>
      </trkpt>
      <trkpt lat="48.61861" lon="1.87964">
        <ele>153.60000610352</ele>
        <time>2015-12-28T16:25:40.000Z</time>
      </trkpt>
      <trkpt lat="48.61856" lon="1.87959">
        <ele>154.19999694824</ele>
        <time>2015-12-28T16:25:45.000Z</time>
      </trkpt>
      <trkpt lat="48.61848" lon="1.8795">
        <ele>155.19999694824</ele>
        <time>2015-12-28T16:25:53.000Z</time>
      </trkpt>
      <trkpt lat="48.61842" lon="1.87944">
        <ele>156</ele>
        <time>2015-12-28T16:25:59.000Z</time>
      </trkpt>
      <trkpt lat="48.61834" lon="1.87935">
        <ele>157</ele>
        <time>2015-12-28T16:26:07.000Z</time>
      </trkpt>
      <trkpt lat="48.61826" lon="1.87926">
        <ele>158.19999694824</ele>
        <time>2015-12-28T16:26:16.000Z</time>
      </trkpt>
      <trkpt lat="48.61817" lon="1.87919">
        <ele>159.39999389648</ele>
        <time>2015-12-28T16:26:24.000Z</time>
      </trkpt>
      <trkpt lat="48.61809" lon="1.87912">
        <ele>160.39999389648</ele>
        <time>2015-12-28T16:26:31.000Z</time>
      </trkpt>
      <trkpt lat="48.618" lon="1.87904">
        <ele>161.39999389648</ele>
        <time>2015-12-28T16:26:39.000Z</time>
      </trkpt>
      <trkpt lat="48.61792" lon="1.87898">
        <ele>162.39999389648</ele>
        <time>2015-12-28T16:26:46.000Z</time>
      </trkpt>
      <trkpt lat="48.61787" lon="1.87894">
        <ele>163</ele>
        <time>2015-12-28T16:26:51.000Z</time>
      </trkpt>
      <trkpt lat="48.61782" lon="1.87891">
        <ele>163.60000610352</ele>
        <time>2015-12-28T16:26:56.000Z</time>
      </trkpt>
      <trkpt lat="48.61776" lon="1.87887">
        <ele>164.39999389648</ele>
        <time>2015-12-28T16:27:01.000Z</time>
      </trkpt>
      <trkpt lat="48.61771" lon="1.87883">
        <ele>164.80000305176</ele>
        <time>2015-12-28T16:27:05.000Z</time>
      </trkpt>
      <trkpt lat="48.6177" lon="1.87882">
        <ele>165</ele>
        <time>2015-12-28T16:27:07.000Z</time>
      </trkpt>
      <trkpt lat="48.61764" lon="1.87878">
        <ele>165.19999694824</ele>
        <time>2015-12-28T16:27:12.000Z</time>
      </trkpt>
      <trkpt lat="48.61762" lon="1.87877">
        <ele>165</ele>
        <time>2015-12-28T16:27:13.000Z</time>
      </trkpt>
      <trkpt lat="48.61753" lon="1.87871">
        <ele>165</ele>
        <time>2015-12-28T16:27:20.000Z</time>
      </trkpt>
      <trkpt lat="48.61743" lon="1.87864">
        <ele>164.80000305176</ele>
        <time>2015-12-28T16:27:28.000Z</time>
      </trkpt>
      <trkpt lat="48.61738" lon="1.87861">
        <ele>164.60000610352</ele>
        <time>2015-12-28T16:27:33.000Z</time>
      </trkpt>
      <trkpt lat="48.61738" lon="1.87861">
        <ele>164.60000610352</ele>
        <time>2015-12-28T16:27:34.000Z</time>
      </trkpt>
      <trkpt lat="48.61725" lon="1.87856">
        <ele>164.19999694824</ele>
        <time>2015-12-28T16:27:56.000Z</time>
      </trkpt>
      <trkpt lat="48.61721" lon="1.87856">
        <ele>164.19999694824</ele>
        <time>2015-12-28T16:27:58.000Z</time>
      </trkpt>
      <trkpt lat="48.6172" lon="1.87855">
        <ele>164.19999694824</ele>
        <time>2015-12-28T16:27:59.000Z</time>
      </trkpt>
      <trkpt lat="48.61716" lon="1.87852">
        <ele>164</ele>
        <time>2015-12-28T16:28:03.000Z</time>
      </trkpt>
      <trkpt lat="48.61712" lon="1.87848">
        <ele>164</ele>
        <time>2015-12-28T16:28:07.000Z</time>
      </trkpt>
      <trkpt lat="48.6171" lon="1.87847">
        <ele>164</ele>
        <time>2015-12-28T16:28:09.000Z</time>
      </trkpt>
      <trkpt lat="48.61707" lon="1.87844">
        <ele>164</ele>
        <time>2015-12-28T16:28:13.000Z</time>
      </trkpt>
      <trkpt lat="48.617" lon="1.8784">
        <ele>163.80000305176</ele>
        <time>2015-12-28T16:28:18.000Z</time>
      </trkpt>
      <trkpt lat="48.61698" lon="1.87838">
        <ele>163.80000305176</ele>
        <time>2015-12-28T16:28:19.000Z</time>
      </trkpt>
      <trkpt lat="48.61692" lon="1.87833">
        <ele>163.80000305176</ele>
        <time>2015-12-28T16:28:24.000Z</time>
      </trkpt>
      <trkpt lat="48.61691" lon="1.87832">
        <ele>163.80000305176</ele>
        <time>2015-12-28T16:28:25.000Z</time>
      </trkpt>
      <trkpt lat="48.61688" lon="1.87829">
        <ele>163.80000305176</ele>
        <time>2015-12-28T16:28:29.000Z</time>
      </trkpt>
      <trkpt lat="48.61686" lon="1.87827">
        <ele>163.80000305176</ele>
        <time>2015-12-28T16:28:30.000Z</time>
      </trkpt>
      <trkpt lat="48.61679" lon="1.87819">
        <ele>163.80000305176</ele>
        <time>2015-12-28T16:28:36.000Z</time>
      </trkpt>
      <trkpt lat="48.61671" lon="1.8781">
        <ele>163.80000305176</ele>
        <time>2015-12-28T16:28:44.000Z</time>
      </trkpt>
      <trkpt lat="48.61668" lon="1.87807">
        <ele>163.60000610352</ele>
        <time>2015-12-28T16:28:47.000Z</time>
      </trkpt>
      <trkpt lat="48.61666" lon="1.87805">
        <ele>163.60000610352</ele>
        <time>2015-12-28T16:28:49.000Z</time>
      </trkpt>
      <trkpt lat="48.61661" lon="1.878">
        <ele>163.60000610352</ele>
        <time>2015-12-28T16:28:54.000Z</time>
      </trkpt>
      <trkpt lat="48.6166" lon="1.87799">
        <ele>163.60000610352</ele>
        <time>2015-12-28T16:28:55.000Z</time>
      </trkpt>
      <trkpt lat="48.61652" lon="1.87792">
        <ele>163.39999389648</ele>
        <time>2015-12-28T16:29:02.000Z</time>
      </trkpt>
      <trkpt lat="48.61648" lon="1.87786">
        <ele>163.60000610352</ele>
        <time>2015-12-28T16:29:06.000Z</time>
      </trkpt>
      <trkpt lat="48.61647" lon="1.87785">
        <ele>163.39999389648</ele>
        <time>2015-12-28T16:29:07.000Z</time>
      </trkpt>
      <trkpt lat="48.61637" lon="1.87775">
        <ele>163.39999389648</ele>
        <time>2015-12-28T16:29:16.000Z</time>
      </trkpt>
      <trkpt lat="48.61631" lon="1.8777">
        <ele>163.19999694824</ele>
        <time>2015-12-28T16:29:21.000Z</time>
      </trkpt>
      <trkpt lat="48.61623" lon="1.87764">
        <ele>163</ele>
        <time>2015-12-28T16:29:27.000Z</time>
      </trkpt>
      <trkpt lat="48.61617" lon="1.87758">
        <ele>163</ele>
        <time>2015-12-28T16:29:32.000Z</time>
      </trkpt>
      <trkpt lat="48.61615" lon="1.87757">
        <ele>162.80000305176</ele>
        <time>2015-12-28T16:29:33.000Z</time>
      </trkpt>
      <trkpt lat="48.61612" lon="1.87754">
        <ele>162.80000305176</ele>
        <time>2015-12-28T16:29:36.000Z</time>
      </trkpt>
      <trkpt lat="48.61605" lon="1.87747">
        <ele>162.60000610352</ele>
        <time>2015-12-28T16:29:42.000Z</time>
      </trkpt>
      <trkpt lat="48.61604" lon="1.87746">
        <ele>162.80000305176</ele>
        <time>2015-12-28T16:29:43.000Z</time>
      </trkpt>
      <trkpt lat="48.61599" lon="1.8774">
        <ele>163</ele>
        <time>2015-12-28T16:29:48.000Z</time>
      </trkpt>
      <trkpt lat="48.6159" lon="1.87732">
        <ele>163.19999694824</ele>
        <time>2015-12-28T16:29:55.000Z</time>
      </trkpt>
      <trkpt lat="48.61583" lon="1.87723">
        <ele>163.80000305176</ele>
        <time>2015-12-28T16:30:02.000Z</time>
      </trkpt>
      <trkpt lat="48.61575" lon="1.87714">
        <ele>164.19999694824</ele>
        <time>2015-12-28T16:30:09.000Z</time>
      </trkpt>
      <trkpt lat="48.61574" lon="1.87714">
        <ele>164.19999694824</ele>
        <time>2015-12-28T16:30:10.000Z</time>
      </trkpt>
      <trkpt lat="48.6157" lon="1.87709">
        <ele>164.39999389648</ele>
        <time>2015-12-28T16:30:14.000Z</time>
      </trkpt>
      <trkpt lat="48.61565" lon="1.87704">
        <ele>164.80000305176</ele>
        <time>2015-12-28T16:30:19.000Z</time>
      </trkpt>
      <trkpt lat="48.61562" lon="1.87702">
        <ele>164.80000305176</ele>
        <time>2015-12-28T16:30:21.000Z</time>
      </trkpt>
      <trkpt lat="48.61561" lon="1.877">
        <ele>164.80000305176</ele>
        <time>2015-12-28T16:30:23.000Z</time>
      </trkpt>
      <trkpt lat="48.61557" lon="1.87697">
        <ele>165</ele>
        <time>2015-12-28T16:30:27.000Z</time>
      </trkpt>
      <trkpt lat="48.61554" lon="1.87695">
        <ele>165.19999694824</ele>
        <time>2015-12-28T16:30:30.000Z</time>
      </trkpt>
      <trkpt lat="48.6155" lon="1.87692">
        <ele>165.19999694824</ele>
        <time>2015-12-28T16:30:33.000Z</time>
      </trkpt>
      <trkpt lat="48.61545" lon="1.87687">
        <ele>165.39999389648</ele>
        <time>2015-12-28T16:30:37.000Z</time>
      </trkpt>
      <trkpt lat="48.61539" lon="1.8768">
        <ele>165.80000305176</ele>
        <time>2015-12-28T16:30:43.000Z</time>
      </trkpt>
      <trkpt lat="48.61534" lon="1.87676">
        <ele>166</ele>
        <time>2015-12-28T16:30:47.000Z</time>
      </trkpt>
      <trkpt lat="48.61532" lon="1.87675">
        <ele>166</ele>
        <time>2015-12-28T16:30:49.000Z</time>
      </trkpt>
      <trkpt lat="48.61529" lon="1.87673">
        <ele>166.19999694824</ele>
        <time>2015-12-28T16:30:51.000Z</time>
      </trkpt>
      <trkpt lat="48.61527" lon="1.87669">
        <ele>166.39999389648</ele>
        <time>2015-12-28T16:30:54.000Z</time>
      </trkpt>
      <trkpt lat="48.61521" lon="1.87665">
        <ele>166.60000610352</ele>
        <time>2015-12-28T16:30:59.000Z</time>
      </trkpt>
      <trkpt lat="48.61519" lon="1.87664">
        <ele>166.60000610352</ele>
        <time>2015-12-28T16:31:00.000Z</time>
      </trkpt>
      <trkpt lat="48.61512" lon="1.87658">
        <ele>166.60000610352</ele>
        <time>2015-12-28T16:31:05.000Z</time>
      </trkpt>
      <trkpt lat="48.61508" lon="1.87655">
        <ele>166.39999389648</ele>
        <time>2015-12-28T16:31:09.000Z</time>
      </trkpt>
      <trkpt lat="48.61506" lon="1.87653">
        <ele>166.39999389648</ele>
        <time>2015-12-28T16:31:11.000Z</time>
      </trkpt>
      <trkpt lat="48.61501" lon="1.8765">
        <ele>166.19999694824</ele>
        <time>2015-12-28T16:31:15.000Z</time>
      </trkpt>
      <trkpt lat="48.615" lon="1.87648">
        <ele>166.19999694824</ele>
        <time>2015-12-28T16:31:16.000Z</time>
      </trkpt>
      <trkpt lat="48.61492" lon="1.87641">
        <ele>166.19999694824</ele>
        <time>2015-12-28T16:31:23.000Z</time>
      </trkpt>
      <trkpt lat="48.61486" lon="1.87636">
        <ele>166</ele>
        <time>2015-12-28T16:31:27.000Z</time>
      </trkpt>
      <trkpt lat="48.61479" lon="1.87629">
        <ele>166</ele>
        <time>2015-12-28T16:31:33.000Z</time>
      </trkpt>
      <trkpt lat="48.61469" lon="1.87622">
        <ele>165.60000610352</ele>
        <time>2015-12-28T16:31:41.000Z</time>
      </trkpt>
      <trkpt lat="48.61457" lon="1.87612">
        <ele>165.39999389648</ele>
        <time>2015-12-28T16:31:50.000Z</time>
      </trkpt>
      <trkpt lat="48.61451" lon="1.87605">
        <ele>165.39999389648</ele>
        <time>2015-12-28T16:31:56.000Z</time>
      </trkpt>
      <trkpt lat="48.61445" lon="1.876">
        <ele>165.39999389648</ele>
        <time>2015-12-28T16:32:01.000Z</time>
      </trkpt>
      <trkpt lat="48.61438" lon="1.87594">
        <ele>165.19999694824</ele>
        <time>2015-12-28T16:32:07.000Z</time>
      </trkpt>
      <trkpt lat="48.61437" lon="1.87593">
        <ele>165.19999694824</ele>
        <time>2015-12-28T16:32:08.000Z</time>
      </trkpt>
      <trkpt lat="48.61431" lon="1.87587">
        <ele>165</ele>
        <time>2015-12-28T16:32:13.000Z</time>
      </trkpt>
      <trkpt lat="48.61427" lon="1.87587">
        <ele>164.80000305176</ele>
        <time>2015-12-28T16:32:16.000Z</time>
      </trkpt>
      <trkpt lat="48.61418" lon="1.87581">
        <ele>164.80000305176</ele>
        <time>2015-12-28T16:32:23.000Z</time>
      </trkpt>
      <trkpt lat="48.61412" lon="1.87576">
        <ele>164.80000305176</ele>
        <time>2015-12-28T16:32:29.000Z</time>
      </trkpt>
      <trkpt lat="48.61405" lon="1.87571">
        <ele>164.60000610352</ele>
        <time>2015-12-28T16:32:35.000Z</time>
      </trkpt>
      <trkpt lat="48.614" lon="1.87566">
        <ele>164.60000610352</ele>
        <time>2015-12-28T16:32:40.000Z</time>
      </trkpt>
      <trkpt lat="48.61395" lon="1.87561">
        <ele>164.60000610352</ele>
        <time>2015-12-28T16:32:45.000Z</time>
      </trkpt>
      <trkpt lat="48.6139" lon="1.87554">
        <ele>164.39999389648</ele>
        <time>2015-12-28T16:32:50.000Z</time>
      </trkpt>
      <trkpt lat="48.61382" lon="1.87546">
        <ele>164.39999389648</ele>
        <time>2015-12-28T16:32:57.000Z</time>
      </trkpt>
      <trkpt lat="48.61377" lon="1.8754">
        <ele>164.39999389648</ele>
        <time>2015-12-28T16:33:03.000Z</time>
      </trkpt>
      <trkpt lat="48.61374" lon="1.87537">
        <ele>164.39999389648</ele>
        <time>2015-12-28T16:33:06.000Z</time>
      </trkpt>
      <trkpt lat="48.61371" lon="1.87534">
        <ele>164.39999389648</ele>
        <time>2015-12-28T16:33:09.000Z</time>
      </trkpt>
      <trkpt lat="48.61367" lon="1.87531">
        <ele>164.19999694824</ele>
        <time>2015-12-28T16:33:14.000Z</time>
      </trkpt>
      <trkpt lat="48.61366" lon="1.8753">
        <ele>164.19999694824</ele>
        <time>2015-12-28T16:33:16.000Z</time>
      </trkpt>
      <trkpt lat="48.6136" lon="1.87529">
        <ele>164</ele>
        <time>2015-12-28T16:33:23.000Z</time>
      </trkpt>
      <trkpt lat="48.6136" lon="1.87528">
        <ele>164</ele>
        <time>2015-12-28T16:33:24.000Z</time>
      </trkpt>
    </trkseg>
  </trk>
</gpx>